<?xml version='1.0' encoding='UTF-8'?><gpx version="1.1" creator="JPX - https://github.com/jenetics/jpx" xmlns="http://www.topografix.com/GPX/1/1"><trk><trkseg><trkpt lat="14.558235444488671" lon="120.99530136953537"><ele>9.0</ele><time>2026-04-08T08:25:43Z</time></trkpt><trkpt lat="14.558209606833007" lon="120.99539100044268"><ele>9.0</ele><time>2026-04-08T08:25:45Z</time></trkpt><trkpt lat="14.55814309272855" lon="120.99544456178978"><ele>9.0</ele><time>2026-04-08T08:25:47Z</time></trkpt><trkpt lat="14.558070575302777" lon="120.99550765556718"><ele>9.0</ele><time>2026-04-08T08:25:50Z</time></trkpt><trkpt lat="14.558022645064039" lon="120.99555897609702"><ele>9.0</ele><time>2026-04-08T08:25:53.056Z</time></trkpt><trkpt lat="14.558206333538958" lon="120.9959436194853"><ele>9.0</ele><time>2026-04-08T08:27:00.001Z</time></trkpt><trkpt lat="14.558206777134126" lon="120.99602123984586"><ele>9.0</ele><time>2026-04-08T08:27:02.001Z</time></trkpt><trkpt lat="14.558184153658237" lon="120.99609116951106"><ele>9.0</ele><time>2026-04-08T08:27:05.001Z</time></trkpt><trkpt lat="14.558221832296883" lon="120.99615055258352"><ele>9.0</ele><time>2026-04-08T08:27:08.001Z</time></trkpt><trkpt lat="14.55825790035186" lon="120.9962179493569"><ele>9.0</ele><time>2026-04-08T08:27:13.001Z</time></trkpt><trkpt lat="14.558321795195223" lon="120.99623020811347"><ele>9.0</ele><time>2026-04-08T08:27:15.001Z</time></trkpt><trkpt lat="14.558440467831884" lon="120.99620964167099"><ele>9.0</ele><time>2026-04-08T08:27:17.001Z</time></trkpt><trkpt lat="14.558521107803395" lon="120.99619015708659"><ele>9.0</ele><time>2026-04-08T08:27:18.001Z</time></trkpt><trkpt lat="14.55858932004454" lon="120.99617873780987"><ele>9.0</ele><time>2026-04-08T08:27:19.001Z</time></trkpt><trkpt lat="14.558666019962283" lon="120.99616017007394"><ele>9.0</ele><time>2026-04-08T08:27:20.001Z</time></trkpt><trkpt lat="14.55874849628143" lon="120.99614651188494"><ele>9.0</ele><time>2026-04-08T08:27:21.001Z</time></trkpt><trkpt lat="14.558826920694637" lon="120.9961223133317"><ele>9.0</ele><time>2026-04-08T08:27:22.001Z</time></trkpt><trkpt lat="14.558918883145544" lon="120.99610309694981"><ele>9.0</ele><time>2026-04-08T08:27:23.001Z</time></trkpt><trkpt lat="14.559011693493831" lon="120.99607920983429"><ele>9.0</ele><time>2026-04-08T08:27:24.001Z</time></trkpt><trkpt lat="14.559092255651676" lon="120.99606410648455"><ele>9.0</ele><time>2026-04-08T08:27:25.001Z</time></trkpt><trkpt lat="14.559166431610432" lon="120.99605320973633"><ele>9.0</ele><time>2026-04-08T08:27:26.001Z</time></trkpt><trkpt lat="14.55924416281235" lon="120.99603667223344"><ele>9.0</ele><time>2026-04-08T08:27:27.001Z</time></trkpt><trkpt lat="14.559318287801092" lon="120.99601632994397"><ele>9.0</ele><time>2026-04-08T08:27:28.001Z</time></trkpt><trkpt lat="14.559391310082376" lon="120.99598822320677"><ele>9.0</ele><time>2026-04-08T08:27:29.001Z</time></trkpt><trkpt lat="14.559474771201572" lon="120.9959713852468"><ele>9.0</ele><time>2026-04-08T08:27:30Z</time></trkpt><trkpt lat="14.559561940974234" lon="120.9959540836758"><ele>9.0</ele><time>2026-04-08T08:27:31Z</time></trkpt><trkpt lat="14.559643005880405" lon="120.99593632366965"><ele>9.0</ele><time>2026-04-08T08:27:32Z</time></trkpt><trkpt lat="14.559727111571554" lon="120.99590719800773"><ele>9.0</ele><time>2026-04-08T08:27:33Z</time></trkpt><trkpt lat="14.559810740036207" lon="120.99587922312689"><ele>9.0</ele><time>2026-04-08T08:27:34Z</time></trkpt><trkpt lat="14.559900946022035" lon="120.99586484111462"><ele>8.833333333333334</ele><time>2026-04-08T08:27:35Z</time></trkpt><trkpt lat="14.559989978379233" lon="120.99584733506673"><ele>8.666666666666666</ele><time>2026-04-08T08:27:36Z</time></trkpt><trkpt lat="14.560070870906738" lon="120.99583247697622"><ele>8.5</ele><time>2026-04-08T08:27:37Z</time></trkpt><trkpt lat="14.560143244247175" lon="120.99582236856982"><ele>8.333333333333332</ele><time>2026-04-08T08:27:38Z</time></trkpt><trkpt lat="14.560208368591567" lon="120.99580858121234"><ele>8.166666666666666</ele><time>2026-04-08T08:27:39Z</time></trkpt><trkpt lat="14.560285923472778" lon="120.99578816348699"><ele>8.0</ele><time>2026-04-08T08:27:40Z</time></trkpt><trkpt lat="14.560367238135624" lon="120.99578265008967"><ele>7.833333333333333</ele><time>2026-04-08T08:27:41Z</time></trkpt><trkpt lat="14.560446708743411" lon="120.99575389246887"><ele>7.666666666666666</ele><time>2026-04-08T08:27:42Z</time></trkpt><trkpt lat="14.56052936051775" lon="120.99573228984232"><ele>7.5</ele><time>2026-04-08T08:27:43Z</time></trkpt><trkpt lat="14.560612892404524" lon="120.9957103513066"><ele>7.333333333333334</ele><time>2026-04-08T08:27:44Z</time></trkpt><trkpt lat="14.560706185563111" lon="120.99568415194125"><ele>7.166666666666667</ele><time>2026-04-08T08:27:45Z</time></trkpt><trkpt lat="14.560800009264485" lon="120.99566202048707"><ele>7.0</ele><time>2026-04-08T08:27:46Z</time></trkpt><trkpt lat="14.560891688140154" lon="120.9956400045476"><ele>7.0</ele><time>2026-04-08T08:27:47Z</time></trkpt><trkpt lat="14.560981271116763" lon="120.99561853406078"><ele>6.999999999999999</ele><time>2026-04-08T08:27:48Z</time></trkpt><trkpt lat="14.561068073912312" lon="120.99559860924886"><ele>6.999999999999999</ele><time>2026-04-08T08:27:49Z</time></trkpt><trkpt lat="14.561158123829356" lon="120.99557649437912"><ele>7.0</ele><time>2026-04-08T08:27:50Z</time></trkpt><trkpt lat="14.561245210691691" lon="120.9955545556463"><ele>7.0</ele><time>2026-04-08T08:27:51Z</time></trkpt><trkpt lat="14.561334537524278" lon="120.99553307170036"><ele>7.3999999999999995</ele><time>2026-04-08T08:27:52Z</time></trkpt><trkpt lat="14.561422078333528" lon="120.9955131959639"><ele>7.799999999999999</ele><time>2026-04-08T08:27:53Z</time></trkpt><trkpt lat="14.561515802004138" lon="120.99549200087375"><ele>8.2</ele><time>2026-04-08T08:27:54Z</time></trkpt><trkpt lat="14.561603437751984" lon="120.99546153100658"><ele>8.6</ele><time>2026-04-08T08:27:55Z</time></trkpt><trkpt lat="14.561695660279133" lon="120.9954400186912"><ele>9.0</ele><time>2026-04-08T08:27:56Z</time></trkpt><trkpt lat="14.561785791685208" lon="120.99542687931522"><ele>9.0</ele><time>2026-04-08T08:27:57Z</time></trkpt><trkpt lat="14.56188759867339" lon="120.99539712749518"><ele>9.0</ele><time>2026-04-08T08:27:58Z</time></trkpt><trkpt lat="14.561975365122317" lon="120.9953707540973"><ele>9.0</ele><time>2026-04-08T08:27:59Z</time></trkpt><trkpt lat="14.562056336476536" lon="120.99534659642003"><ele>9.0</ele><time>2026-04-08T08:28:00Z</time></trkpt><trkpt lat="14.562133656854368" lon="120.99533001464117"><ele>9.0</ele><time>2026-04-08T08:28:01Z</time></trkpt><trkpt lat="14.562239591884591" lon="120.99531150720142"><ele>9.166666666666666</ele><time>2026-04-08T08:28:03Z</time></trkpt><trkpt lat="14.562302583597214" lon="120.99529733943288"><ele>9.333333333333334</ele><time>2026-04-08T08:28:05Z</time></trkpt><trkpt lat="14.56237138821921" lon="120.99528970222505"><ele>9.5</ele><time>2026-04-08T08:28:21Z</time></trkpt><trkpt lat="14.562466440040957" lon="120.9952956773079"><ele>9.666666666666668</ele><time>2026-04-08T08:28:24Z</time></trkpt><trkpt lat="14.562588605698974" lon="120.99525752728543"><ele>9.833333333333334</ele><time>2026-04-08T08:28:26Z</time></trkpt><trkpt lat="14.562651471585948" lon="120.99524210848108"><ele>10.0</ele><time>2026-04-08T08:28:27Z</time></trkpt><trkpt lat="14.562732337921828" lon="120.9952194315684"><ele>10.0</ele><time>2026-04-08T08:28:28Z</time></trkpt><trkpt lat="14.562793532235405" lon="120.99519807442442"><ele>10.0</ele><time>2026-04-08T08:28:29Z</time></trkpt><trkpt lat="14.562881860539992" lon="120.99517197937647"><ele>10.0</ele><time>2026-04-08T08:28:30Z</time></trkpt><trkpt lat="14.562949301709645" lon="120.99514637232774"><ele>10.0</ele><time>2026-04-08T08:28:31Z</time></trkpt><trkpt lat="14.563008221879052" lon="120.99510328004445"><ele>10.0</ele><time>2026-04-08T08:28:32Z</time></trkpt><trkpt lat="14.563067456450737" lon="120.99505882624631"><ele>10.0</ele><time>2026-04-08T08:28:33Z</time></trkpt><trkpt lat="14.563123821425258" lon="120.99500737313483"><ele>10.0</ele><time>2026-04-08T08:28:34Z</time></trkpt><trkpt lat="14.563187246494726" lon="120.99496443616917"><ele>10.285714285714285</ele><time>2026-04-08T08:28:35Z</time></trkpt><trkpt lat="14.563252114752514" lon="120.99492938981362"><ele>10.571428571428571</ele><time>2026-04-08T08:28:36Z</time></trkpt><trkpt lat="14.563316201286618" lon="120.99491116447257"><ele>10.857142857142858</ele><time>2026-04-08T08:28:37Z</time></trkpt><trkpt lat="14.563382445310927" lon="120.99490185199485"><ele>11.142857142857142</ele><time>2026-04-08T08:28:38Z</time></trkpt><trkpt lat="14.563449519531849" lon="120.99488375781992"><ele>11.428571428571429</ele><time>2026-04-08T08:28:39Z</time></trkpt><trkpt lat="14.56353087950669" lon="120.99485225306938"><ele>11.714285714285714</ele><time>2026-04-08T08:28:40Z</time></trkpt><trkpt lat="14.563594746046691" lon="120.99482267200666"><ele>12.0</ele><time>2026-04-08T08:28:41Z</time></trkpt><trkpt lat="14.563670300262084" lon="120.99479158242981"><ele>12.6</ele><time>2026-04-08T08:28:42Z</time></trkpt><trkpt lat="14.563759218288485" lon="120.99475230452042"><ele>13.2</ele><time>2026-04-08T08:28:43Z</time></trkpt><trkpt lat="14.56383015799474" lon="120.99471594975167"><ele>13.8</ele><time>2026-04-08T08:28:44Z</time></trkpt><trkpt lat="14.563916633809997" lon="120.99466608371101"><ele>14.4</ele><time>2026-04-08T08:28:45.001Z</time></trkpt><trkpt lat="14.56399810606596" lon="120.99462989559547"><ele>15.0</ele><time>2026-04-08T08:28:46.001Z</time></trkpt><trkpt lat="14.564086052646738" lon="120.99458680008142"><ele>15.0</ele><time>2026-04-08T08:28:47.001Z</time></trkpt><trkpt lat="14.564166470169043" lon="120.99454553121832"><ele>15.0</ele><time>2026-04-08T08:28:48.001Z</time></trkpt><trkpt lat="14.564240210301266" lon="120.9945130660809"><ele>15.0</ele><time>2026-04-08T08:28:49.001Z</time></trkpt><trkpt lat="14.56432481420758" lon="120.9944749609518"><ele>15.0</ele><time>2026-04-08T08:28:50.001Z</time></trkpt><trkpt lat="14.564406715822791" lon="120.99443542511618"><ele>15.0</ele><time>2026-04-08T08:28:51.001Z</time></trkpt><trkpt lat="14.564485453154337" lon="120.99439550180334"><ele>15.0</ele><time>2026-04-08T08:28:52.001Z</time></trkpt><trkpt lat="14.56456251535251" lon="120.99435814547309"><ele>14.166666666666666</ele><time>2026-04-08T08:28:53.001Z</time></trkpt><trkpt lat="14.564640920291762" lon="120.99432571302694"><ele>13.333333333333334</ele><time>2026-04-08T08:28:54.001Z</time></trkpt><trkpt lat="14.564716360101984" lon="120.99428710993013"><ele>12.5</ele><time>2026-04-08T08:28:55.001Z</time></trkpt><trkpt lat="14.564793689525054" lon="120.99424674625298"><ele>11.666666666666668</ele><time>2026-04-08T08:28:56.001Z</time></trkpt><trkpt lat="14.564867167541385" lon="120.99421035356329"><ele>10.833333333333334</ele><time>2026-04-08T08:28:57.001Z</time></trkpt><trkpt lat="14.56493613781077" lon="120.99417057713971"><ele>10.0</ele><time>2026-04-08T08:28:58.001Z</time></trkpt><trkpt lat="14.565006117529647" lon="120.99413222325727"><ele>10.0</ele><time>2026-04-08T08:28:59.001Z</time></trkpt><trkpt lat="14.565064858298745" lon="120.99410047377002"><ele>10.0</ele><time>2026-04-08T08:29:00.001Z</time></trkpt><trkpt lat="14.565164430444309" lon="120.99406458936232"><ele>10.0</ele><time>2026-04-08T08:29:02.001Z</time></trkpt><trkpt lat="14.565236578017842" lon="120.99404009033101"><ele>10.0</ele><time>2026-04-08T08:29:04.001Z</time></trkpt><trkpt lat="14.56534991309023" lon="120.99398992319027"><ele>10.0</ele><time>2026-04-08T08:29:06.001Z</time></trkpt><trkpt lat="14.565414176310464" lon="120.99394914372705"><ele>10.0</ele><time>2026-04-08T08:29:07.001Z</time></trkpt><trkpt lat="14.565479655208232" lon="120.99391437425469"><ele>9.8</ele><time>2026-04-08T08:29:08.001Z</time></trkpt><trkpt lat="14.565582008728072" lon="120.99386918313678"><ele>9.6</ele><time>2026-04-08T08:29:10.001Z</time></trkpt><trkpt lat="14.56567268609913" lon="120.99384031519409"><ele>9.4</ele><time>2026-04-08T08:29:12.001Z</time></trkpt><trkpt lat="14.565746267538827" lon="120.99378853517798"><ele>9.2</ele><time>2026-04-08T08:29:15.001Z</time></trkpt><trkpt lat="14.565814817079966" lon="120.99375011038909"><ele>9.0</ele><time>2026-04-08T08:29:17.001Z</time></trkpt><trkpt lat="14.565896267632938" lon="120.99369379505163"><ele>9.0</ele><time>2026-04-08T08:29:19.001Z</time></trkpt><trkpt lat="14.566015196220304" lon="120.99362172648244"><ele>9.0</ele><time>2026-04-08T08:29:21.001Z</time></trkpt><trkpt lat="14.566096452825082" lon="120.99358102026211"><ele>9.0</ele><time>2026-04-08T08:29:22.001Z</time></trkpt><trkpt lat="14.566183092515042" lon="120.99354439953066"><ele>9.0</ele><time>2026-04-08T08:29:23.001Z</time></trkpt><trkpt lat="14.566267708002666" lon="120.99350883743038"><ele>9.0</ele><time>2026-04-08T08:29:24.001Z</time></trkpt><trkpt lat="14.566338649151689" lon="120.99347095104876"><ele>9.0</ele><time>2026-04-08T08:29:25.001Z</time></trkpt><trkpt lat="14.566419294192778" lon="120.99343445586621"><ele>9.0</ele><time>2026-04-08T08:29:26.001Z</time></trkpt><trkpt lat="14.56648902643888" lon="120.99339316748528"><ele>9.0</ele><time>2026-04-08T08:29:27.001Z</time></trkpt><trkpt lat="14.566558553193316" lon="120.99336055794615"><ele>9.0</ele><time>2026-04-08T08:29:28.001Z</time></trkpt><trkpt lat="14.56663051102054" lon="120.99333143709897"><ele>9.0</ele><time>2026-04-08T08:29:29.001Z</time></trkpt><trkpt lat="14.56669760702485" lon="120.9932987586378"><ele>9.0</ele><time>2026-04-08T08:29:30.001Z</time></trkpt><trkpt lat="14.566774995561042" lon="120.99327320796631"><ele>9.2</ele><time>2026-04-08T08:29:31.001Z</time></trkpt><trkpt lat="14.566856635476707" lon="120.99323864844428"><ele>9.4</ele><time>2026-04-08T08:29:32.001Z</time></trkpt><trkpt lat="14.566939622673585" lon="120.99320978881468"><ele>9.6</ele><time>2026-04-08T08:29:33.001Z</time></trkpt><trkpt lat="14.56702338467239" lon="120.99316260998356"><ele>9.8</ele><time>2026-04-08T08:29:34.001Z</time></trkpt><trkpt lat="14.567115715137607" lon="120.99312177280976"><ele>10.0</ele><time>2026-04-08T08:29:35Z</time></trkpt><trkpt lat="14.567209145821998" lon="120.99308152395591"><ele>10.6</ele><time>2026-04-08T08:29:36Z</time></trkpt><trkpt lat="14.567311130546443" lon="120.99303891953855"><ele>11.2</ele><time>2026-04-08T08:29:37Z</time></trkpt><trkpt lat="14.567410871118776" lon="120.9929945081779"><ele>11.8</ele><time>2026-04-08T08:29:38Z</time></trkpt><trkpt lat="14.567513941548206" lon="120.99295027741543"><ele>12.4</ele><time>2026-04-08T08:29:39Z</time></trkpt><trkpt lat="14.567617325453558" lon="120.99289688870965"><ele>13.0</ele><time>2026-04-08T08:29:40Z</time></trkpt><trkpt lat="14.567718398529085" lon="120.9928498102216"><ele>13.0</ele><time>2026-04-08T08:29:41Z</time></trkpt><trkpt lat="14.567826570143588" lon="120.99279830819445"><ele>13.0</ele><time>2026-04-08T08:29:42Z</time></trkpt><trkpt lat="14.567936225254211" lon="120.99274337646143"><ele>13.0</ele><time>2026-04-08T08:29:43Z</time></trkpt><trkpt lat="14.56803764378125" lon="120.99269377501192"><ele>13.0</ele><time>2026-04-08T08:29:44Z</time></trkpt><trkpt lat="14.568156456280535" lon="120.9926399164822"><ele>11.75</ele><time>2026-04-08T08:29:45Z</time></trkpt><trkpt lat="14.56826743592246" lon="120.99258872112928"><ele>10.5</ele><time>2026-04-08T08:29:46Z</time></trkpt><trkpt lat="14.568378682194059" lon="120.9925324396945"><ele>9.25</ele><time>2026-04-08T08:29:47Z</time></trkpt><trkpt lat="14.568491565556425" lon="120.9924806679801"><ele>8.0</ele><time>2026-04-08T08:29:48Z</time></trkpt><trkpt lat="14.568603424731629" lon="120.99242956511675"><ele>8.0</ele><time>2026-04-08T08:29:49Z</time></trkpt><trkpt lat="14.568714460988769" lon="120.99237675169353"><ele>8.0</ele><time>2026-04-08T08:29:50Z</time></trkpt><trkpt lat="14.568825641295012" lon="120.99232706539652"><ele>8.0</ele><time>2026-04-08T08:29:51Z</time></trkpt><trkpt lat="14.568926566904315" lon="120.99227425049358"><ele>8.0</ele><time>2026-04-08T08:29:52Z</time></trkpt><trkpt lat="14.569017133051275" lon="120.99221708049782"><ele>8.0</ele><time>2026-04-08T08:29:53Z</time></trkpt><trkpt lat="14.569105648119258" lon="120.99216589643682"><ele>8.0</ele><time>2026-04-08T08:29:54Z</time></trkpt><trkpt lat="14.569194305773852" lon="120.99213247896867"><ele>8.0</ele><time>2026-04-08T08:29:55Z</time></trkpt><trkpt lat="14.569276780669023" lon="120.99208659203518"><ele>8.0</ele><time>2026-04-08T08:29:56Z</time></trkpt><trkpt lat="14.56935724375288" lon="120.99205019665715"><ele>8.0</ele><time>2026-04-08T08:29:57Z</time></trkpt><trkpt lat="14.569433167552575" lon="120.99201665794993"><ele>8.0</ele><time>2026-04-08T08:29:58Z</time></trkpt><trkpt lat="14.569503041340125" lon="120.99198072244202"><ele>8.0</ele><time>2026-04-08T08:29:59Z</time></trkpt><trkpt lat="14.569559546256958" lon="120.99194821771123"><ele>8.0</ele><time>2026-04-08T08:30:00Z</time></trkpt><trkpt lat="14.569653163984881" lon="120.99190300315844"><ele>8.0</ele><time>2026-04-08T08:30:02Z</time></trkpt><trkpt lat="14.569763626682228" lon="120.99186366312206"><ele>8.0</ele><time>2026-04-08T08:30:04Z</time></trkpt><trkpt lat="14.569844367032038" lon="120.99181985917417"><ele>8.166666666666666</ele><time>2026-04-08T08:30:06Z</time></trkpt><trkpt lat="14.569910597607855" lon="120.99178142958334"><ele>8.333333333333332</ele><time>2026-04-08T08:30:10Z</time></trkpt><trkpt lat="14.569948076679285" lon="120.9917252257542"><ele>8.5</ele><time>2026-04-08T08:30:35Z</time></trkpt><trkpt lat="14.570033583293863" lon="120.99169293090503"><ele>8.666666666666666</ele><time>2026-04-08T08:30:38.001Z</time></trkpt><trkpt lat="14.57010209982092" lon="120.9916638038203"><ele>8.833333333333334</ele><time>2026-04-08T08:30:40.001Z</time></trkpt><trkpt lat="14.570171903515138" lon="120.99162127367836"><ele>9.0</ele><time>2026-04-08T08:30:42.001Z</time></trkpt><trkpt lat="14.570236115509903" lon="120.99159562175977"><ele>9.0</ele><time>2026-04-08T08:30:44.001Z</time></trkpt><trkpt lat="14.57031896659533" lon="120.99158215882503"><ele>9.0</ele><time>2026-04-08T08:30:46.001Z</time></trkpt><trkpt lat="14.57039153042504" lon="120.99157300949608"><ele>9.0</ele><time>2026-04-08T08:30:48.001Z</time></trkpt><trkpt lat="14.570476914210701" lon="120.99149391828098"><ele>9.0</ele><time>2026-04-08T08:30:50.001Z</time></trkpt><trkpt lat="14.570541156018292" lon="120.99145912697573"><ele>9.0</ele><time>2026-04-08T08:30:51.001Z</time></trkpt><trkpt lat="14.570614202424295" lon="120.99142594307374"><ele>9.0</ele><time>2026-04-08T08:30:52.001Z</time></trkpt><trkpt lat="14.570700383709633" lon="120.99138520489743"><ele>9.0</ele><time>2026-04-08T08:30:53.001Z</time></trkpt><trkpt lat="14.57077365831845" lon="120.99135264363368"><ele>9.0</ele><time>2026-04-08T08:30:54.001Z</time></trkpt><trkpt lat="14.570835424710939" lon="120.99131274274878"><ele>9.0</ele><time>2026-04-08T08:30:55.001Z</time></trkpt><trkpt lat="14.570899021830769" lon="120.99126974531265"><ele>9.0</ele><time>2026-04-08T08:30:56.001Z</time></trkpt><trkpt lat="14.570974120821184" lon="120.99122835761831"><ele>9.0</ele><time>2026-04-08T08:30:57.001Z</time></trkpt><trkpt lat="14.571053646584595" lon="120.9911779162258"><ele>9.0</ele><time>2026-04-08T08:30:58.001Z</time></trkpt><trkpt lat="14.571154694523091" lon="120.99112498914411"><ele>8.25</ele><time>2026-04-08T08:30:59.001Z</time></trkpt><trkpt lat="14.571244873215596" lon="120.99107051975122"><ele>7.5</ele><time>2026-04-08T08:31:00.001Z</time></trkpt><trkpt lat="14.571345181605627" lon="120.99101441331969"><ele>6.75</ele><time>2026-04-08T08:31:01.001Z</time></trkpt><trkpt lat="14.571462434037864" lon="120.99093607143597"><ele>6.0</ele><time>2026-04-08T08:31:02.001Z</time></trkpt><trkpt lat="14.571569101186922" lon="120.99088901426136"><ele>6.25</ele><time>2026-04-08T08:31:03.001Z</time></trkpt><trkpt lat="14.571688968543613" lon="120.99081802563134"><ele>6.5</ele><time>2026-04-08T08:31:04.001Z</time></trkpt><trkpt lat="14.571809274735362" lon="120.9907665785909"><ele>6.75</ele><time>2026-04-08T08:31:05.001Z</time></trkpt><trkpt lat="14.57192800173416" lon="120.99070825286772"><ele>7.0</ele><time>2026-04-08T08:31:06.001Z</time></trkpt><trkpt lat="14.572053703429393" lon="120.99063741910487"><ele>7.25</ele><time>2026-04-08T08:31:07.001Z</time></trkpt><trkpt lat="14.572163328678364" lon="120.9905762022869"><ele>7.5</ele><time>2026-04-08T08:31:08.001Z</time></trkpt><trkpt lat="14.57226381174797" lon="120.99051520142626"><ele>7.75</ele><time>2026-04-08T08:31:09.001Z</time></trkpt><trkpt lat="14.572357297624208" lon="120.99045981030758"><ele>8.0</ele><time>2026-04-08T08:31:10.001Z</time></trkpt><trkpt lat="14.572457814454165" lon="120.99040090527794"><ele>8.0</ele><time>2026-04-08T08:31:11.001Z</time></trkpt><trkpt lat="14.572556412998399" lon="120.9903478892261"><ele>8.0</ele><time>2026-04-08T08:31:12.001Z</time></trkpt><trkpt lat="14.572673320681012" lon="120.99028535351498"><ele>8.0</ele><time>2026-04-08T08:31:13.001Z</time></trkpt><trkpt lat="14.572786234520024" lon="120.99021816710678"><ele>8.0</ele><time>2026-04-08T08:31:14.001Z</time></trkpt><trkpt lat="14.57287663836703" lon="120.99017066502705"><ele>8.0</ele><time>2026-04-08T08:31:15.001Z</time></trkpt><trkpt lat="14.57296683141498" lon="120.99012020768699"><ele>8.0</ele><time>2026-04-08T08:31:16.001Z</time></trkpt><trkpt lat="14.573051657327376" lon="120.99006858027204"><ele>8.0</ele><time>2026-04-08T08:31:17.001Z</time></trkpt><trkpt lat="14.573133947155062" lon="120.99002493319199"><ele>8.0</ele><time>2026-04-08T08:31:18.001Z</time></trkpt><trkpt lat="14.57321470719317" lon="120.9899769025982"><ele>8.0</ele><time>2026-04-08T08:31:19.001Z</time></trkpt><trkpt lat="14.57331335289947" lon="120.9899286012501"><ele>8.200000000000001</ele><time>2026-04-08T08:31:20.001Z</time></trkpt><trkpt lat="14.573401476785039" lon="120.98987556909341"><ele>8.4</ele><time>2026-04-08T08:31:21.001Z</time></trkpt><trkpt lat="14.573489573173747" lon="120.98981989831198"><ele>8.600000000000001</ele><time>2026-04-08T08:31:22.001Z</time></trkpt><trkpt lat="14.573577294692099" lon="120.98976662355156"><ele>8.8</ele><time>2026-04-08T08:31:23.001Z</time></trkpt><trkpt lat="14.573658503570654" lon="120.98972108505136"><ele>9.0</ele><time>2026-04-08T08:31:24.001Z</time></trkpt><trkpt lat="14.573743228473832" lon="120.9896763675468"><ele>9.0</ele><time>2026-04-08T08:31:25.001Z</time></trkpt><trkpt lat="14.573811444343908" lon="120.98962918567275"><ele>9.0</ele><time>2026-04-08T08:31:26.001Z</time></trkpt><trkpt lat="14.573889030459215" lon="120.98959196126529"><ele>9.0</ele><time>2026-04-08T08:31:27.001Z</time></trkpt><trkpt lat="14.573983890839358" lon="120.98952434430599"><ele>9.0</ele><time>2026-04-08T08:31:28.001Z</time></trkpt><trkpt lat="14.574083824938553" lon="120.98947588253262"><ele>9.0</ele><time>2026-04-08T08:31:29.001Z</time></trkpt><trkpt lat="14.574163100717975" lon="120.9894540912758"><ele>9.0</ele><time>2026-04-08T08:31:30.001Z</time></trkpt><trkpt lat="14.574235612021479" lon="120.98939649354075"><ele>9.0</ele><time>2026-04-08T08:31:31.001Z</time></trkpt><trkpt lat="14.574312302044106" lon="120.98935016395875"><ele>9.0</ele><time>2026-04-08T08:31:32.001Z</time></trkpt><trkpt lat="14.574388371030183" lon="120.98929776704499"><ele>9.0</ele><time>2026-04-08T08:31:33.001Z</time></trkpt><trkpt lat="14.574484091866399" lon="120.98925234833384"><ele>9.0</ele><time>2026-04-08T08:31:34.001Z</time></trkpt><trkpt lat="14.574556625471997" lon="120.98921265672752"><ele>9.166666666666666</ele><time>2026-04-08T08:31:35.001Z</time></trkpt><trkpt lat="14.574629256491521" lon="120.98917174993557"><ele>9.333333333333334</ele><time>2026-04-08T08:31:36.001Z</time></trkpt><trkpt lat="14.574694174999992" lon="120.98914788239206"><ele>9.5</ele><time>2026-04-08T08:31:37.001Z</time></trkpt><trkpt lat="14.574784870308646" lon="120.98910865110874"><ele>9.666666666666668</ele><time>2026-04-08T08:31:38.001Z</time></trkpt><trkpt lat="14.574866949169875" lon="120.98906649523803"><ele>9.833333333333334</ele><time>2026-04-08T08:31:39.001Z</time></trkpt><trkpt lat="14.574941780453107" lon="120.98902376542586"><ele>10.0</ele><time>2026-04-08T08:31:40.001Z</time></trkpt><trkpt lat="14.575017116044679" lon="120.98897480766651"><ele>10.0</ele><time>2026-04-08T08:31:41Z</time></trkpt><trkpt lat="14.575096639829798" lon="120.9889226039087"><ele>10.0</ele><time>2026-04-08T08:31:42Z</time></trkpt><trkpt lat="14.575183974826679" lon="120.9888819742339"><ele>10.0</ele><time>2026-04-08T08:31:43Z</time></trkpt><trkpt lat="14.57526301595745" lon="120.98882938125361"><ele>10.0</ele><time>2026-04-08T08:31:44Z</time></trkpt><trkpt lat="14.575338621499446" lon="120.98878784378033"><ele>10.0</ele><time>2026-04-08T08:31:45Z</time></trkpt><trkpt lat="14.575414807187059" lon="120.98874801550171"><ele>9.666666666666668</ele><time>2026-04-08T08:31:46Z</time></trkpt><trkpt lat="14.57548405394378" lon="120.98870161038201"><ele>9.333333333333334</ele><time>2026-04-08T08:31:47Z</time></trkpt><trkpt lat="14.575541623320436" lon="120.9886652071036"><ele>9.0</ele><time>2026-04-08T08:31:48Z</time></trkpt><trkpt lat="14.575608170741448" lon="120.9886252154144"><ele>8.666666666666666</ele><time>2026-04-08T08:31:49Z</time></trkpt><trkpt lat="14.575674980000382" lon="120.98859887608135"><ele>8.333333333333332</ele><time>2026-04-08T08:31:50Z</time></trkpt><trkpt lat="14.575735640182026" lon="120.98857172765611"><ele>8.0</ele><time>2026-04-08T08:31:51Z</time></trkpt><trkpt lat="14.575815841683518" lon="120.98851845634509"><ele>8.0</ele><time>2026-04-08T08:31:53Z</time></trkpt><trkpt lat="14.575915493754895" lon="120.98845123819099"><ele>8.0</ele><time>2026-04-08T08:31:56Z</time></trkpt><trkpt lat="14.575999715030532" lon="120.98841905451032"><ele>8.0</ele><time>2026-04-08T08:31:59Z</time></trkpt><trkpt lat="14.57605712304633" lon="120.98836763911443"><ele>8.0</ele><time>2026-04-08T08:32:41Z</time></trkpt><trkpt lat="14.576128689115704" lon="120.98831601642381"><ele>8.0</ele><time>2026-04-08T08:32:45Z</time></trkpt><trkpt lat="14.576222841647022" lon="120.98826984632638"><ele>7.999999999999999</ele><time>2026-04-08T08:32:47Z</time></trkpt><trkpt lat="14.576324712626679" lon="120.98823013147852"><ele>8.0</ele><time>2026-04-08T08:32:49.001Z</time></trkpt><trkpt lat="14.576409911189778" lon="120.98819790491405"><ele>8.0</ele><time>2026-04-08T08:32:51.001Z</time></trkpt><trkpt lat="14.576486972442337" lon="120.98817801206326"><ele>8.0</ele><time>2026-04-08T08:32:53.001Z</time></trkpt><trkpt lat="14.57657671472478" lon="120.9881363451578"><ele>7.999999999999999</ele><time>2026-04-08T08:32:55.001Z</time></trkpt><trkpt lat="14.576626431172441" lon="120.98809170878683"><ele>8.0</ele><time>2026-04-08T08:32:56.001Z</time></trkpt><trkpt lat="14.576701731498547" lon="120.98804056841074"><ele>8.0</ele><time>2026-04-08T08:32:57.001Z</time></trkpt><trkpt lat="14.576791656901502" lon="120.98800760768333"><ele>8.0</ele><time>2026-04-08T08:32:58.001Z</time></trkpt><trkpt lat="14.576886381285556" lon="120.98795152866202"><ele>8.0</ele><time>2026-04-08T08:32:59.001Z</time></trkpt><trkpt lat="14.576991679841989" lon="120.98790040633968"><ele>8.0</ele><time>2026-04-08T08:33:00.001Z</time></trkpt><trkpt lat="14.577093439610492" lon="120.98782804610974"><ele>8.0</ele><time>2026-04-08T08:33:01.001Z</time></trkpt><trkpt lat="14.577170887036115" lon="120.98777413878736"><ele>7.666666666666666</ele><time>2026-04-08T08:33:02.001Z</time></trkpt><trkpt lat="14.57725775533091" lon="120.9877211381096"><ele>7.333333333333333</ele><time>2026-04-08T08:33:03.001Z</time></trkpt><trkpt lat="14.577339128918183" lon="120.98767384793462"><ele>7.0</ele><time>2026-04-08T08:33:04.001Z</time></trkpt><trkpt lat="14.57741009565746" lon="120.98763051201117"><ele>6.666666666666666</ele><time>2026-04-08T08:33:05.001Z</time></trkpt><trkpt lat="14.577481555416938" lon="120.98758310955272"><ele>6.333333333333333</ele><time>2026-04-08T08:33:06.001Z</time></trkpt><trkpt lat="14.577540855362535" lon="120.98754956007065"><ele>6.0</ele><time>2026-04-08T08:33:07.001Z</time></trkpt><trkpt lat="14.577651760130523" lon="120.98748237694326"><ele>6.166666666666667</ele><time>2026-04-08T08:33:09.001Z</time></trkpt><trkpt lat="14.577716423473255" lon="120.98744637670468"><ele>6.333333333333334</ele><time>2026-04-08T08:33:10.001Z</time></trkpt><trkpt lat="14.5777845578356" lon="120.98740541815788"><ele>6.5</ele><time>2026-04-08T08:33:11.001Z</time></trkpt><trkpt lat="14.577854380347919" lon="120.98735903829011"><ele>6.666666666666667</ele><time>2026-04-08T08:33:12.001Z</time></trkpt><trkpt lat="14.57792242678012" lon="120.98731054246669"><ele>6.833333333333334</ele><time>2026-04-08T08:33:13.001Z</time></trkpt><trkpt lat="14.577998104121985" lon="120.98725682817793"><ele>7.0</ele><time>2026-04-08T08:33:14.001Z</time></trkpt><trkpt lat="14.578083713416152" lon="120.98720735048812"><ele>7.0</ele><time>2026-04-08T08:33:15.001Z</time></trkpt><trkpt lat="14.578173587869859" lon="120.98715811180203"><ele>6.999999999999999</ele><time>2026-04-08T08:33:16.001Z</time></trkpt><trkpt lat="14.578269486180908" lon="120.987099707045"><ele>6.999999999999999</ele><time>2026-04-08T08:33:17.001Z</time></trkpt><trkpt lat="14.578369747968374" lon="120.98704398230296"><ele>7.0</ele><time>2026-04-08T08:33:18.001Z</time></trkpt><trkpt lat="14.578469756948888" lon="120.986980089024"><ele>7.0</ele><time>2026-04-08T08:33:19.001Z</time></trkpt><trkpt lat="14.578568151550261" lon="120.98692004518944"><ele>7.0</ele><time>2026-04-08T08:33:20.001Z</time></trkpt><trkpt lat="14.578661765375148" lon="120.98686353098378"><ele>6.999999999999999</ele><time>2026-04-08T08:33:21.001Z</time></trkpt><trkpt lat="14.578743037990899" lon="120.98682109269534"><ele>6.999999999999999</ele><time>2026-04-08T08:33:22.001Z</time></trkpt><trkpt lat="14.578810558355412" lon="120.98678765276033"><ele>7.0</ele><time>2026-04-08T08:33:23.001Z</time></trkpt><trkpt lat="14.57888402863147" lon="120.98673704580773"><ele>7.0</ele><time>2026-04-08T08:33:24.001Z</time></trkpt><trkpt lat="14.578971828486694" lon="120.98667637529297"><ele>7.666666666666667</ele><time>2026-04-08T08:33:26.001Z</time></trkpt><trkpt lat="14.57905183899137" lon="120.98663539048817"><ele>8.333333333333334</ele><time>2026-04-08T08:33:28.001Z</time></trkpt><trkpt lat="14.579142879339368" lon="120.986584765022"><ele>9.0</ele><time>2026-04-08T08:33:30.001Z</time></trkpt><trkpt lat="14.579232372019336" lon="120.98653039526442"><ele>9.666666666666666</ele><time>2026-04-08T08:33:32.001Z</time></trkpt><trkpt lat="14.57930150640846" lon="120.98649140146289"><ele>10.333333333333332</ele><time>2026-04-08T08:33:34.001Z</time></trkpt><trkpt lat="14.579361175120532" lon="120.98645457338328"><ele>11.0</ele><time>2026-04-08T08:33:36.001Z</time></trkpt><trkpt lat="14.579437431355945" lon="120.98641761591271"><ele>11.0</ele><time>2026-04-08T08:33:39.001Z</time></trkpt><trkpt lat="14.579516533297655" lon="120.98638022299636"><ele>11.0</ele><time>2026-04-08T08:33:42.001Z</time></trkpt><trkpt lat="14.57957841983687" lon="120.98634902288762"><ele>11.0</ele><time>2026-04-08T08:33:44.001Z</time></trkpt><trkpt lat="14.579649157758956" lon="120.9863103147942"><ele>11.0</ele><time>2026-04-08T08:33:47Z</time></trkpt><trkpt lat="14.579714805047148" lon="120.98628689328886"><ele>11.0</ele><time>2026-04-08T08:33:50Z</time></trkpt><trkpt lat="14.579774613479483" lon="120.98625546037148"><ele>11.0</ele><time>2026-04-08T08:33:52Z</time></trkpt><trkpt lat="14.57984299355145" lon="120.98622459114719"><ele>11.0</ele><time>2026-04-08T08:33:54Z</time></trkpt><trkpt lat="14.579909934521103" lon="120.98618889313929"><ele>10.600000000000001</ele><time>2026-04-08T08:33:56Z</time></trkpt><trkpt lat="14.579997370229767" lon="120.98613638998091"><ele>10.200000000000001</ele><time>2026-04-08T08:33:58Z</time></trkpt><trkpt lat="14.580115939774053" lon="120.98605858958933"><ele>9.8</ele><time>2026-04-08T08:34:00Z</time></trkpt><trkpt lat="14.580184070986375" lon="120.98602350470594"><ele>9.4</ele><time>2026-04-08T08:34:01Z</time></trkpt><trkpt lat="14.580292365050909" lon="120.98597269258869"><ele>9.0</ele><time>2026-04-08T08:34:03Z</time></trkpt><trkpt lat="14.580371582975133" lon="120.98591545744978"><ele>9.0</ele><time>2026-04-08T08:34:05Z</time></trkpt><trkpt lat="14.580430702917662" lon="120.98589184553244"><ele>9.0</ele><time>2026-04-08T08:34:09Z</time></trkpt><trkpt lat="14.580488304766533" lon="120.98585527234975"><ele>9.0</ele><time>2026-04-08T08:34:11Z</time></trkpt><trkpt lat="14.580561882635374" lon="120.9858105174161"><ele>9.0</ele><time>2026-04-08T08:34:13Z</time></trkpt><trkpt lat="14.580649210689744" lon="120.98575868701266"><ele>9.0</ele><time>2026-04-08T08:34:15Z</time></trkpt><trkpt lat="14.580733138757022" lon="120.98570912162114"><ele>9.0</ele><time>2026-04-08T08:34:17Z</time></trkpt><trkpt lat="14.580795752930033" lon="120.9856731089162"><ele>9.166666666666666</ele><time>2026-04-08T08:34:19Z</time></trkpt><trkpt lat="14.580861455773656" lon="120.98563412329318"><ele>9.333333333333334</ele><time>2026-04-08T08:34:22Z</time></trkpt><trkpt lat="14.580924213492727" lon="120.98558853787634"><ele>9.5</ele><time>2026-04-08T08:34:28Z</time></trkpt><trkpt lat="14.580999178181619" lon="120.9855412583702"><ele>9.666666666666668</ele><time>2026-04-08T08:34:32Z</time></trkpt><trkpt lat="14.581058332316017" lon="120.98550039587867"><ele>9.833333333333334</ele><time>2026-04-08T08:34:35Z</time></trkpt><trkpt lat="14.581121949449084" lon="120.98546684456906"><ele>10.0</ele><time>2026-04-08T08:34:39Z</time></trkpt><trkpt lat="14.581183794816447" lon="120.98542819977051"><ele>11.333333333333334</ele><time>2026-04-08T08:34:43Z</time></trkpt><trkpt lat="14.581232715479294" lon="120.98538427288335"><ele>12.666666666666668</ele><time>2026-04-08T08:34:47Z</time></trkpt><trkpt lat="14.581292661891215" lon="120.98536255156712"><ele>14.0</ele><time>2026-04-08T08:34:50Z</time></trkpt><trkpt lat="14.58136618621502" lon="120.98532464612764"><ele>15.333333333333334</ele><time>2026-04-08T08:34:55Z</time></trkpt><trkpt lat="14.581427131275213" lon="120.98528911860627"><ele>16.666666666666668</ele><time>2026-04-08T08:34:57Z</time></trkpt><trkpt lat="14.5815101972944" lon="120.98523753284746"><ele>18.0</ele><time>2026-04-08T08:34:59Z</time></trkpt><trkpt lat="14.58156781867577" lon="120.98518957459221"><ele>18.0</ele><time>2026-04-08T08:35:01.001Z</time></trkpt><trkpt lat="14.5816327979601" lon="120.9851482559671"><ele>18.0</ele><time>2026-04-08T08:35:03.001Z</time></trkpt><trkpt lat="14.58171619698559" lon="120.98509894880907"><ele>18.0</ele><time>2026-04-08T08:35:05.001Z</time></trkpt><trkpt lat="14.581810965097281" lon="120.98505049809928"><ele>18.0</ele><time>2026-04-08T08:35:07.001Z</time></trkpt><trkpt lat="14.581911712439938" lon="120.98498848944516"><ele>18.0</ele><time>2026-04-08T08:35:09.001Z</time></trkpt><trkpt lat="14.58196868393407" lon="120.98495766076567"><ele>16.4</ele><time>2026-04-08T08:35:10.001Z</time></trkpt><trkpt lat="14.582037933116887" lon="120.98492706136093"><ele>14.8</ele><time>2026-04-08T08:35:12.001Z</time></trkpt><trkpt lat="14.582118449599971" lon="120.9848103877571"><ele>13.2</ele><time>2026-04-08T08:36:13Z</time></trkpt><trkpt lat="14.582167420118905" lon="120.98470261771685"><ele>11.6</ele><time>2026-04-08T08:36:15Z</time></trkpt><trkpt lat="14.582215514613402" lon="120.98464560438356"><ele>10.0</ele><time>2026-04-08T08:36:16Z</time></trkpt><trkpt lat="14.582297771938535" lon="120.98457342443166"><ele>10.0</ele><time>2026-04-08T08:36:18Z</time></trkpt><trkpt lat="14.582375477225613" lon="120.98454622677507"><ele>10.0</ele><time>2026-04-08T08:36:20Z</time></trkpt><trkpt lat="14.582441190498535" lon="120.98455120206859"><ele>10.0</ele><time>2026-04-08T08:36:21Z</time></trkpt><trkpt lat="14.582534343232265" lon="120.98460433667786"><ele>10.0</ele><time>2026-04-08T08:36:23Z</time></trkpt><trkpt lat="14.58263230474619" lon="120.98458090710261"><ele>10.0</ele><time>2026-04-08T08:36:25Z</time></trkpt><trkpt lat="14.582694420429037" lon="120.98453647909317"><ele>10.0</ele><time>2026-04-08T08:36:27Z</time></trkpt><trkpt lat="14.582760074369043" lon="120.98449742926486"><ele>10.0</ele><time>2026-04-08T08:36:29Z</time></trkpt><trkpt lat="14.582811386664188" lon="120.98444187509236"><ele>10.0</ele><time>2026-04-08T08:36:31Z</time></trkpt><trkpt lat="14.582897290138996" lon="120.9843761780357"><ele>10.0</ele><time>2026-04-08T08:36:33Z</time></trkpt><trkpt lat="14.582964040741963" lon="120.98434934942217"><ele>10.0</ele><time>2026-04-08T08:36:34Z</time></trkpt><trkpt lat="14.583057182218763" lon="120.9843130011503"><ele>10.0</ele><time>2026-04-08T08:36:36Z</time></trkpt><trkpt lat="14.58313920924939" lon="120.98428030070319"><ele>10.0</ele><time>2026-04-08T08:36:38Z</time></trkpt><trkpt lat="14.583328176443187" lon="120.9842102855417"><ele>10.166666666666668</ele><time>2026-04-08T08:36:44Z</time></trkpt><trkpt lat="14.583413213977225" lon="120.98416687155694"><ele>10.333333333333334</ele><time>2026-04-08T08:36:46Z</time></trkpt><trkpt lat="14.583486041888156" lon="120.98412334619674"><ele>10.5</ele><time>2026-04-08T08:36:48Z</time></trkpt><trkpt lat="14.583546605770742" lon="120.98409320323903"><ele>10.666666666666666</ele><time>2026-04-08T08:36:50Z</time></trkpt><trkpt lat="14.583606499475856" lon="120.9840642845957"><ele>10.833333333333332</ele><time>2026-04-08T08:36:53Z</time></trkpt><trkpt lat="14.583683876878721" lon="120.98403528632133"><ele>11.0</ele><time>2026-04-08T08:37:03Z</time></trkpt><trkpt lat="14.583732383661308" lon="120.98399152649432"><ele>11.0</ele><time>2026-04-08T08:37:09Z</time></trkpt><trkpt lat="14.583789880180198" lon="120.98395625051947"><ele>11.0</ele><time>2026-04-08T08:37:14Z</time></trkpt><trkpt lat="14.58384592520121" lon="120.98392391131225"><ele>11.0</ele><time>2026-04-08T08:37:43.001Z</time></trkpt><trkpt lat="14.583914319464446" lon="120.9838808805277"><ele>11.0</ele><time>2026-04-08T08:37:50.001Z</time></trkpt><trkpt lat="14.583977857135926" lon="120.98384413529132"><ele>11.0</ele><time>2026-04-08T08:37:56.001Z</time></trkpt><trkpt lat="14.584043044739873" lon="120.98380965795972"><ele>11.0</ele><time>2026-04-08T08:38:06Z</time></trkpt><trkpt lat="14.584114553199214" lon="120.98377467919006"><ele>11.0</ele><time>2026-04-08T08:38:14Z</time></trkpt><trkpt lat="14.584176999564566" lon="120.98373438386136"><ele>11.0</ele><time>2026-04-08T08:38:18Z</time></trkpt><trkpt lat="14.584243455841339" lon="120.98369278482001"><ele>11.0</ele><time>2026-04-08T08:38:23Z</time></trkpt><trkpt lat="14.584308016927451" lon="120.98366365248819"><ele>11.0</ele><time>2026-04-08T08:38:28Z</time></trkpt><trkpt lat="14.584365104564855" lon="120.9836360651559"><ele>11.0</ele><time>2026-04-08T08:38:32Z</time></trkpt><trkpt lat="14.58442069510858" lon="120.9835913344954"><ele>11.0</ele><time>2026-04-08T08:38:37Z</time></trkpt><trkpt lat="14.584479339027428" lon="120.98356327147576"><ele>11.0</ele><time>2026-04-08T08:39:05Z</time></trkpt><trkpt lat="14.58454644763612" lon="120.9835364918972"><ele>11.0</ele><time>2026-04-08T08:39:10Z</time></trkpt><trkpt lat="14.584613067687282" lon="120.98349473821916"><ele>11.0</ele><time>2026-04-08T08:39:12Z</time></trkpt><trkpt lat="14.584686952835627" lon="120.98345525026093"><ele>11.0</ele><time>2026-04-08T08:39:14Z</time></trkpt><trkpt lat="14.584760769194737" lon="120.98341804857144"><ele>11.0</ele><time>2026-04-08T08:39:17Z</time></trkpt><trkpt lat="14.58483489645576" lon="120.98337325736439"><ele>11.0</ele><time>2026-04-08T08:39:20Z</time></trkpt><trkpt lat="14.584893267729214" lon="120.98333488918071"><ele>11.0</ele><time>2026-04-08T08:39:22Z</time></trkpt><trkpt lat="14.584959612038519" lon="120.98329742454985"><ele>11.0</ele><time>2026-04-08T08:39:24.001Z</time></trkpt><trkpt lat="14.585030685719737" lon="120.98325971957446"><ele>11.0</ele><time>2026-04-08T08:39:26.001Z</time></trkpt><trkpt lat="14.585103083330472" lon="120.98321674937216"><ele>11.0</ele><time>2026-04-08T08:39:28.001Z</time></trkpt><trkpt lat="14.585196837453442" lon="120.98316187229771"><ele>11.0</ele><time>2026-04-08T08:39:30.001Z</time></trkpt><trkpt lat="14.585298770391322" lon="120.98310569632231"><ele>11.0</ele><time>2026-04-08T08:39:32.001Z</time></trkpt><trkpt lat="14.585384565711903" lon="120.98306351203814"><ele>11.0</ele><time>2026-04-08T08:39:34.001Z</time></trkpt><trkpt lat="14.585439493840203" lon="120.9830265150425"><ele>10.8</ele><time>2026-04-08T08:39:42.001Z</time></trkpt><trkpt lat="14.58551852508864" lon="120.98297489159992"><ele>10.600000000000001</ele><time>2026-04-08T08:40:58Z</time></trkpt><trkpt lat="14.585609728827718" lon="120.98292702407602"><ele>10.4</ele><time>2026-04-08T08:41:00Z</time></trkpt><trkpt lat="14.58571409175762" lon="120.98293721221289"><ele>10.2</ele><time>2026-04-08T08:41:02Z</time></trkpt><trkpt lat="14.58581841051292" lon="120.98296105581841"><ele>10.0</ele><time>2026-04-08T08:41:04Z</time></trkpt><trkpt lat="14.585887838316152" lon="120.98300440496118"><ele>10.0</ele><time>2026-04-08T08:41:06Z</time></trkpt><trkpt lat="14.585889049074321" lon="120.98276599008588"><ele>10.0</ele><time>2026-04-08T08:41:07Z</time></trkpt><trkpt lat="14.585984959378726" lon="120.98272584899205"><ele>10.0</ele><time>2026-04-08T08:41:09Z</time></trkpt><trkpt lat="14.58608215506549" lon="120.9826716602327"><ele>10.0</ele><time>2026-04-08T08:41:11Z</time></trkpt><trkpt lat="14.586158380635547" lon="120.98262931419299"><ele>9.833333333333334</ele><time>2026-04-08T08:41:13Z</time></trkpt><trkpt lat="14.586233405662199" lon="120.9825851240062"><ele>9.666666666666668</ele><time>2026-04-08T08:41:15Z</time></trkpt><trkpt lat="14.58630041068312" lon="120.98254842796727"><ele>9.5</ele><time>2026-04-08T08:41:17Z</time></trkpt><trkpt lat="14.586359255161343" lon="120.98251414068395"><ele>9.333333333333334</ele><time>2026-04-08T08:41:20Z</time></trkpt><trkpt lat="14.586426804047168" lon="120.98247745887802"><ele>9.166666666666666</ele><time>2026-04-08T08:41:23Z</time></trkpt><trkpt lat="14.586488817913208" lon="120.9824303581372"><ele>9.0</ele><time>2026-04-08T08:41:26Z</time></trkpt><trkpt lat="14.5865610403713" lon="120.98238513519244"><ele>9.000000000000002</ele><time>2026-04-08T08:41:29Z</time></trkpt><trkpt lat="14.58662408175062" lon="120.98235643154828"><ele>9.0</ele><time>2026-04-08T08:41:31Z</time></trkpt><trkpt lat="14.58669548448122" lon="120.98231069985084"><ele>9.0</ele><time>2026-04-08T08:41:34.001Z</time></trkpt><trkpt lat="14.58675599767646" lon="120.98227599642071"><ele>9.0</ele><time>2026-04-08T08:41:37.001Z</time></trkpt><trkpt lat="14.586810412505605" lon="120.98224294064917"><ele>9.0</ele><time>2026-04-08T08:41:41.001Z</time></trkpt><trkpt lat="14.586875452762415" lon="120.98222784917253"><ele>9.000000000000002</ele><time>2026-04-08T08:41:44.001Z</time></trkpt><trkpt lat="14.58695257841239" lon="120.98218604808999"><ele>9.0</ele><time>2026-04-08T08:41:46.001Z</time></trkpt><trkpt lat="14.587030487991395" lon="120.98215143112277"><ele>8.571428571428573</ele><time>2026-04-08T08:41:48.001Z</time></trkpt><trkpt lat="14.587100385413558" lon="120.98210304028869"><ele>8.142857142857142</ele><time>2026-04-08T08:41:50.001Z</time></trkpt><trkpt lat="14.587159342909922" lon="120.9820666615178"><ele>7.714285714285714</ele><time>2026-04-08T08:41:52.001Z</time></trkpt><trkpt lat="14.587218538805224" lon="120.98203651313244"><ele>7.2857142857142865</ele><time>2026-04-08T08:41:54.001Z</time></trkpt><trkpt lat="14.587299703826533" lon="120.98201103892895"><ele>6.857142857142858</ele><time>2026-04-08T08:41:57.001Z</time></trkpt><trkpt lat="14.587343660203665" lon="120.98195889977306"><ele>6.428571428571428</ele><time>2026-04-08T08:42:04.001Z</time></trkpt><trkpt lat="14.587397129788105" lon="120.98190337806035"><ele>6.0</ele><time>2026-04-08T08:42:33Z</time></trkpt><trkpt lat="14.587452459906231" lon="120.98186823940196"><ele>5.999999999999999</ele><time>2026-04-08T08:42:43Z</time></trkpt><trkpt lat="14.58751438262546" lon="120.98182443031456"><ele>6.0</ele><time>2026-04-08T08:43:10Z</time></trkpt><trkpt lat="14.587571259364426" lon="120.98177803401714"><ele>6.0</ele><time>2026-04-08T08:43:14Z</time></trkpt><trkpt lat="14.587640614825357" lon="120.98174667586295"><ele>6.0</ele><time>2026-04-08T08:43:21Z</time></trkpt><trkpt lat="14.587696474605739" lon="120.98170820607642"><ele>6.0</ele><time>2026-04-08T08:43:43Z</time></trkpt><trkpt lat="14.587765319324713" lon="120.98167411721302"><ele>5.999999999999999</ele><time>2026-04-08T08:43:51.001Z</time></trkpt><trkpt lat="14.587837748164462" lon="120.98165242595535"><ele>6.0</ele><time>2026-04-08T08:43:54.001Z</time></trkpt><trkpt lat="14.587906965491525" lon="120.9816619599069"><ele>5.7142857142857135</ele><time>2026-04-08T08:43:59.001Z</time></trkpt><trkpt lat="14.587988296657404" lon="120.98161351097932"><ele>5.428571428571429</ele><time>2026-04-08T08:44:02.001Z</time></trkpt><trkpt lat="14.588051755453655" lon="120.9815843542733"><ele>5.142857142857142</ele><time>2026-04-08T08:44:05.001Z</time></trkpt><trkpt lat="14.58811021611837" lon="120.98155127041107"><ele>4.857142857142857</ele><time>2026-04-08T08:44:13.001Z</time></trkpt><trkpt lat="14.58816299416719" lon="120.98151135568327"><ele>4.571428571428571</ele><time>2026-04-08T08:44:18.999Z</time></trkpt><trkpt lat="14.588222937989345" lon="120.98147078882617"><ele>4.285714285714286</ele><time>2026-04-08T08:44:28.999Z</time></trkpt><trkpt lat="14.588281129837926" lon="120.98142452445214"><ele>4.0</ele><time>2026-04-08T08:44:35.999Z</time></trkpt><trkpt lat="14.588346321955559" lon="120.98138503391651"><ele>4.0</ele><time>2026-04-08T08:44:40Z</time></trkpt><trkpt lat="14.588408905657007" lon="120.98136017755954"><ele>3.9999999999999996</ele><time>2026-04-08T08:44:43Z</time></trkpt><trkpt lat="14.58848266867958" lon="120.98134109141832"><ele>4.0</ele><time>2026-04-08T08:44:49Z</time></trkpt><trkpt lat="14.588551234120905" lon="120.98132415988935"><ele>4.0</ele><time>2026-04-08T08:45:00Z</time></trkpt><trkpt lat="14.588613942805303" lon="120.98130305976589"><ele>3.9999999999999996</ele><time>2026-04-08T08:45:18Z</time></trkpt><trkpt lat="14.588686622453361" lon="120.98128285085112"><ele>4.0</ele><time>2026-04-08T08:45:23Z</time></trkpt><trkpt lat="14.588750156607315" lon="120.98126027317825"><ele>4.0</ele><time>2026-04-08T08:45:27Z</time></trkpt><trkpt lat="14.588820892656361" lon="120.98123784551659"><ele>4.5</ele><time>2026-04-08T08:45:32Z</time></trkpt><trkpt lat="14.588882618823348" lon="120.98120812759628"><ele>5.0</ele><time>2026-04-08T08:45:35Z</time></trkpt><trkpt lat="14.588959853885333" lon="120.9811727395265"><ele>5.5</ele><time>2026-04-08T08:45:37Z</time></trkpt><trkpt lat="14.589051500177508" lon="120.98113327094721"><ele>6.0</ele><time>2026-04-08T08:45:39Z</time></trkpt><trkpt lat="14.589125897438972" lon="120.98111112467227"><ele>6.500000000000001</ele><time>2026-04-08T08:45:41Z</time></trkpt><trkpt lat="14.589208076626385" lon="120.98108549085994"><ele>7.0</ele><time>2026-04-08T08:45:43Z</time></trkpt><trkpt lat="14.589293696896453" lon="120.98105034827431"><ele>7.0</ele><time>2026-04-08T08:45:45Z</time></trkpt><trkpt lat="14.58941153216436" lon="120.98102507916948"><ele>6.999999999999999</ele><time>2026-04-08T08:45:47Z</time></trkpt><trkpt lat="14.589513557213252" lon="120.98099983651875"><ele>6.999999999999999</ele><time>2026-04-08T08:45:49Z</time></trkpt><trkpt lat="14.589623926249274" lon="120.98097089634888"><ele>7.0</ele><time>2026-04-08T08:45:51.001Z</time></trkpt><trkpt lat="14.589712779198212" lon="120.98094527955577"><ele>7.0</ele><time>2026-04-08T08:45:53.001Z</time></trkpt><trkpt lat="14.589822502542132" lon="120.98090847024613"><ele>7.500000000000001</ele><time>2026-04-08T08:45:55.001Z</time></trkpt><trkpt lat="14.589885815772073" lon="120.98089104329301"><ele>8.0</ele><time>2026-04-08T08:45:56.001Z</time></trkpt><trkpt lat="14.58998165981859" lon="120.98086284444437"><ele>8.5</ele><time>2026-04-08T08:45:58.001Z</time></trkpt><trkpt lat="14.590080803724982" lon="120.98081993870979"><ele>9.0</ele><time>2026-04-08T08:46:00.001Z</time></trkpt><trkpt lat="14.590141370679726" lon="120.98079545523693"><ele>9.5</ele><time>2026-04-08T08:46:01.001Z</time></trkpt><trkpt lat="14.590211876770262" lon="120.98077402540119"><ele>10.0</ele><time>2026-04-08T08:46:02.001Z</time></trkpt><trkpt lat="14.590288527834797" lon="120.98075534026054"><ele>9.333333333333334</ele><time>2026-04-08T08:46:03.001Z</time></trkpt><trkpt lat="14.590360803199077" lon="120.98073542557728"><ele>8.666666666666668</ele><time>2026-04-08T08:46:04.001Z</time></trkpt><trkpt lat="14.590425212852525" lon="120.98071523284712"><ele>8.0</ele><time>2026-04-08T08:46:05.001Z</time></trkpt><trkpt lat="14.590501819674367" lon="120.9806891932153"><ele>7.333333333333334</ele><time>2026-04-08T08:46:06.001Z</time></trkpt><trkpt lat="14.59057597770134" lon="120.98066599693912"><ele>6.666666666666667</ele><time>2026-04-08T08:46:07.001Z</time></trkpt><trkpt lat="14.590659266124414" lon="120.98064101298925"><ele>6.0</ele><time>2026-04-08T08:46:08.001Z</time></trkpt><trkpt lat="14.59074554826801" lon="120.9806228249239"><ele>6.0</ele><time>2026-04-08T08:46:09.001Z</time></trkpt><trkpt lat="14.590826355089836" lon="120.98060059468483"><ele>6.0</ele><time>2026-04-08T08:46:10.001Z</time></trkpt><trkpt lat="14.590905659603932" lon="120.98057706686421"><ele>6.0</ele><time>2026-04-08T08:46:11.001Z</time></trkpt><trkpt lat="14.590990364992694" lon="120.98055143284058"><ele>6.0</ele><time>2026-04-08T08:46:12.001Z</time></trkpt><trkpt lat="14.591081354280869" lon="120.98052949012438"><ele>6.0</ele><time>2026-04-08T08:46:13.001Z</time></trkpt><trkpt lat="14.5911750563521" lon="120.98050772992568"><ele>6.0</ele><time>2026-04-08T08:46:14.001Z</time></trkpt><trkpt lat="14.591267208320057" lon="120.98048663242709"><ele>7.333333333333334</ele><time>2026-04-08T08:46:15.001Z</time></trkpt><trkpt lat="14.59135841078968" lon="120.98046064360666"><ele>8.666666666666668</ele><time>2026-04-08T08:46:16.001Z</time></trkpt><trkpt lat="14.591445295972349" lon="120.98043625943748"><ele>10.0</ele><time>2026-04-08T08:46:17.001Z</time></trkpt><trkpt lat="14.591513375700222" lon="120.98041784127977"><ele>11.333333333333334</ele><time>2026-04-08T08:46:18.001Z</time></trkpt><trkpt lat="14.591597297869356" lon="120.98038702683104"><ele>12.666666666666668</ele><time>2026-04-08T08:46:19.001Z</time></trkpt><trkpt lat="14.591686754013457" lon="120.98036368177318"><ele>14.0</ele><time>2026-04-08T08:46:20.001Z</time></trkpt><trkpt lat="14.591776572555911" lon="120.9803386324026"><ele>14.0</ele><time>2026-04-08T08:46:21.001Z</time></trkpt><trkpt lat="14.591864672227505" lon="120.9803096768437"><ele>13.999999999999998</ele><time>2026-04-08T08:46:22.001Z</time></trkpt><trkpt lat="14.591954563402155" lon="120.98028216743687"><ele>13.999999999999998</ele><time>2026-04-08T08:46:22.999Z</time></trkpt><trkpt lat="14.592049129443543" lon="120.98024961543713"><ele>14.0</ele><time>2026-04-08T08:46:23.999Z</time></trkpt><trkpt lat="14.592150384037927" lon="120.98021443843464"><ele>14.0</ele><time>2026-04-08T08:46:24.999Z</time></trkpt><trkpt lat="14.592248360847524" lon="120.9801830426917"><ele>11.5</ele><time>2026-04-08T08:46:25.999Z</time></trkpt><trkpt lat="14.592362804473243" lon="120.98014481499527"><ele>9.0</ele><time>2026-04-08T08:46:26.999Z</time></trkpt><trkpt lat="14.592476357773222" lon="120.98010584693097"><ele>6.5</ele><time>2026-04-08T08:46:27.999Z</time></trkpt><trkpt lat="14.592596248364945" lon="120.98006828247091"><ele>4.0</ele><time>2026-04-08T08:46:28.999Z</time></trkpt><trkpt lat="14.592726934409665" lon="120.98002913377564"><ele>4.25</ele><time>2026-04-08T08:46:29.999Z</time></trkpt><trkpt lat="14.592844828367634" lon="120.9799877704126"><ele>4.5</ele><time>2026-04-08T08:46:30.999Z</time></trkpt><trkpt lat="14.592971228522616" lon="120.97995897722849"><ele>4.75</ele><time>2026-04-08T08:46:31.999Z</time></trkpt><trkpt lat="14.593109876352763" lon="120.97991523690288"><ele>5.0</ele><time>2026-04-08T08:46:32.999Z</time></trkpt><trkpt lat="14.593245323745741" lon="120.97985572791845"><ele>5.0</ele><time>2026-04-08T08:46:33.999Z</time></trkpt><trkpt lat="14.59338441704525" lon="120.97981001103066"><ele>5.0</ele><time>2026-04-08T08:46:34.999Z</time></trkpt><trkpt lat="14.593525111537991" lon="120.97977788911452"><ele>5.0</ele><time>2026-04-08T08:46:35.999Z</time></trkpt><trkpt lat="14.593664209199835" lon="120.97976948543362"><ele>5.0</ele><time>2026-04-08T08:46:36.999Z</time></trkpt><trkpt lat="14.59379546374579" lon="120.97978306211208"><ele>6.25</ele><time>2026-04-08T08:46:37.999Z</time></trkpt><trkpt lat="14.59391154861693" lon="120.97981065190824"><ele>7.5</ele><time>2026-04-08T08:46:38.999Z</time></trkpt><trkpt lat="14.594022973231176" lon="120.97984796246601"><ele>8.75</ele><time>2026-04-08T08:46:39.999Z</time></trkpt><trkpt lat="14.594129728756915" lon="120.97988244891282"><ele>10.0</ele><time>2026-04-08T08:46:40.999Z</time></trkpt><trkpt lat="14.594229711877656" lon="120.97991177251913"><ele>10.0</ele><time>2026-04-08T08:46:41.999Z</time></trkpt><trkpt lat="14.594320462985788" lon="120.97993495159682"><ele>10.0</ele><time>2026-04-08T08:46:42.999Z</time></trkpt><trkpt lat="14.594410320357609" lon="120.97996090038183"><ele>10.0</ele><time>2026-04-08T08:46:43.999Z</time></trkpt><trkpt lat="14.594503358995917" lon="120.97998654242409"><ele>10.0</ele><time>2026-04-08T08:46:44.999Z</time></trkpt><trkpt lat="14.594600678126886" lon="120.98000882878432"><ele>10.0</ele><time>2026-04-08T08:46:45.999Z</time></trkpt><trkpt lat="14.594701658466075" lon="120.9800322282677"><ele>9.75</ele><time>2026-04-08T08:46:47Z</time></trkpt><trkpt lat="14.59480861569339" lon="120.98005825559476"><ele>9.5</ele><time>2026-04-08T08:46:48Z</time></trkpt><trkpt lat="14.594919673543387" lon="120.98008384841839"><ele>9.25</ele><time>2026-04-08T08:46:49Z</time></trkpt><trkpt lat="14.595034576808622" lon="120.98011251611511"><ele>9.0</ele><time>2026-04-08T08:46:50Z</time></trkpt><trkpt lat="14.595149344652105" lon="120.98014060008876"><ele>9.0</ele><time>2026-04-08T08:46:51Z</time></trkpt><trkpt lat="14.595261789980288" lon="120.98016287371945"><ele>9.0</ele><time>2026-04-08T08:46:52Z</time></trkpt><trkpt lat="14.595370449226815" lon="120.98018218138985"><ele>9.0</ele><time>2026-04-08T08:46:53Z</time></trkpt><trkpt lat="14.595480170788866" lon="120.98019748290993"><ele>9.0</ele><time>2026-04-08T08:46:54Z</time></trkpt><trkpt lat="14.595580499729584" lon="120.98021573070525"><ele>9.0</ele><time>2026-04-08T08:46:55Z</time></trkpt><trkpt lat="14.595686827698973" lon="120.98023766784445"><ele>7.4</ele><time>2026-04-08T08:46:56Z</time></trkpt><trkpt lat="14.595792139895929" lon="120.98026318461945"><ele>5.800000000000001</ele><time>2026-04-08T08:46:57Z</time></trkpt><trkpt lat="14.595898884570712" lon="120.9802870800297"><ele>4.2</ele><time>2026-04-08T08:46:58Z</time></trkpt><trkpt lat="14.596008672960991" lon="120.98030264325867"><ele>2.6</ele><time>2026-04-08T08:46:59Z</time></trkpt><trkpt lat="14.596120523674816" lon="120.9803182265293"><ele>1.0</ele><time>2026-04-08T08:47:00Z</time></trkpt><trkpt lat="14.59623735000167" lon="120.980331498358"><ele>0.75</ele><time>2026-04-08T08:47:01Z</time></trkpt><trkpt lat="14.596354732116401" lon="120.9803421084682"><ele>0.5</ele><time>2026-04-08T08:47:02Z</time></trkpt><trkpt lat="14.596479049318903" lon="120.98035444549447"><ele>0.25</ele><time>2026-04-08T08:47:03Z</time></trkpt><trkpt lat="14.596603947635057" lon="120.98037508221768"><ele>0.0</ele><time>2026-04-08T08:47:04Z</time></trkpt><trkpt lat="14.596728608210995" lon="120.98039873437598"><ele>0.0</ele><time>2026-04-08T08:47:05Z</time></trkpt><trkpt lat="14.596851621828488" lon="120.9804206739611"><ele>0.0</ele><time>2026-04-08T08:47:06Z</time></trkpt><trkpt lat="14.596980619334284" lon="120.98044125089963"><ele>0.0</ele><time>2026-04-08T08:47:07Z</time></trkpt><trkpt lat="14.5971131820776" lon="120.98045950383123"><ele>0.0</ele><time>2026-04-08T08:47:08Z</time></trkpt><trkpt lat="14.597246637652777" lon="120.98047766172074"><ele>2.0</ele><time>2026-04-08T08:47:09Z</time></trkpt><trkpt lat="14.597376193641464" lon="120.98049712749425"><ele>4.0</ele><time>2026-04-08T08:47:10Z</time></trkpt><trkpt lat="14.597499896479622" lon="120.98051634419872"><ele>6.0</ele><time>2026-04-08T08:47:11Z</time></trkpt><trkpt lat="14.597619422662998" lon="120.98053713932151"><ele>8.0</ele><time>2026-04-08T08:47:12Z</time></trkpt><trkpt lat="14.597744908240253" lon="120.98055677727496"><ele>9.2</ele><time>2026-04-08T08:47:13Z</time></trkpt><trkpt lat="14.597862295548206" lon="120.98057743004158"><ele>10.4</ele><time>2026-04-08T08:47:14Z</time></trkpt><trkpt lat="14.597975817201851" lon="120.98059514156552"><ele>11.599999999999998</ele><time>2026-04-08T08:47:15Z</time></trkpt><trkpt lat="14.598085927901437" lon="120.98061533723337"><ele>12.799999999999999</ele><time>2026-04-08T08:47:16Z</time></trkpt><trkpt lat="14.598184383701044" lon="120.980633999343"><ele>14.0</ele><time>2026-04-08T08:47:17Z</time></trkpt><trkpt lat="14.598280633958192" lon="120.98064780411552"><ele>14.000000000000002</ele><time>2026-04-08T08:47:18Z</time></trkpt><trkpt lat="14.59836414342114" lon="120.98066084870544"><ele>14.0</ele><time>2026-04-08T08:47:19Z</time></trkpt><trkpt lat="14.59844387657572" lon="120.98067080315019"><ele>14.0</ele><time>2026-04-08T08:47:20Z</time></trkpt><trkpt lat="14.598534228788036" lon="120.98067535114154"><ele>14.0</ele><time>2026-04-08T08:47:21Z</time></trkpt><trkpt lat="14.59862059546649" lon="120.98068427941546"><ele>14.000000000000002</ele><time>2026-04-08T08:47:22Z</time></trkpt><trkpt lat="14.598704896320761" lon="120.98068669401036"><ele>14.0</ele><time>2026-04-08T08:47:23Z</time></trkpt><trkpt lat="14.598769048300333" lon="120.98070150434603"><ele>13.833333333333334</ele><time>2026-04-08T08:47:24Z</time></trkpt><trkpt lat="14.598837312285085" lon="120.98072086275238"><ele>13.666666666666668</ele><time>2026-04-08T08:47:25Z</time></trkpt><trkpt lat="14.598907600157558" lon="120.98080898225118"><ele>13.5</ele><time>2026-04-08T08:47:27Z</time></trkpt><trkpt lat="14.598918407654029" lon="120.98089993889056"><ele>13.333333333333332</ele><time>2026-04-08T08:47:29Z</time></trkpt><trkpt lat="14.598946269635713" lon="120.98098362917308"><ele>13.166666666666666</ele><time>2026-04-08T08:47:31Z</time></trkpt><trkpt lat="14.59896133191616" lon="120.98106640865184"><ele>13.0</ele><time>2026-04-08T08:47:33Z</time></trkpt><trkpt lat="14.59896420845483" lon="120.98113921391084"><ele>13.0</ele><time>2026-04-08T08:47:35Z</time></trkpt><trkpt lat="14.598968909317335" lon="120.98120779333821"><ele>13.0</ele><time>2026-04-08T08:47:38Z</time></trkpt><trkpt lat="14.599009457253393" lon="120.98138129707019"><ele>13.0</ele><time>2026-04-08T08:47:52.001Z</time></trkpt><trkpt lat="14.598991383309166" lon="120.98144568116813"><ele>13.0</ele><time>2026-04-08T08:47:54.001Z</time></trkpt><trkpt lat="14.598971017538307" lon="120.98152687414496"><ele>13.0</ele><time>2026-04-08T08:47:56.001Z</time></trkpt><trkpt lat="14.598959411580203" lon="120.9816102142046"><ele>13.0</ele><time>2026-04-08T08:47:58.001Z</time></trkpt><trkpt lat="14.598945867448247" lon="120.98168167036947"><ele>13.0</ele><time>2026-04-08T08:48:01.001Z</time></trkpt><trkpt lat="14.598925290984845" lon="120.98177068364919"><ele>13.0</ele><time>2026-04-08T08:48:04.001Z</time></trkpt><trkpt lat="14.598912813246427" lon="120.98184507905572"><ele>13.0</ele><time>2026-04-08T08:48:06.001Z</time></trkpt><trkpt lat="14.598906380600205" lon="120.98191821631768"><ele>13.0</ele><time>2026-04-08T08:48:08.001Z</time></trkpt><trkpt lat="14.598905866166747" lon="120.98198395014171"><ele>13.0</ele><time>2026-04-08T08:48:10.001Z</time></trkpt><trkpt lat="14.598885826472412" lon="120.98206088818566"><ele>13.0</ele><time>2026-04-08T08:48:13.001Z</time></trkpt><trkpt lat="14.59886969440991" lon="120.98213960600695"><ele>13.166666666666666</ele><time>2026-04-08T08:48:17.001Z</time></trkpt><trkpt lat="14.59885653248051" lon="120.98221256999894"><ele>13.333333333333332</ele><time>2026-04-08T08:48:20.001Z</time></trkpt><trkpt lat="14.598848082131553" lon="120.98228725146582"><ele>13.5</ele><time>2026-04-08T08:48:23.001Z</time></trkpt><trkpt lat="14.598846452580082" lon="120.9823592040655"><ele>13.666666666666668</ele><time>2026-04-08T08:48:27.001Z</time></trkpt><trkpt lat="14.598801495929042" lon="120.9824091581548"><ele>13.833333333333334</ele><time>2026-04-08T08:50:34.001Z</time></trkpt><trkpt lat="14.598850114295779" lon="120.98233577915195"><ele>14.0</ele><time>2026-04-08T08:51:08Z</time></trkpt><trkpt lat="14.598876575258227" lon="120.9822374874364"><ele>14.0</ele><time>2026-04-08T08:51:10Z</time></trkpt><trkpt lat="14.59889828795742" lon="120.98214340558904"><ele>13.999999999999998</ele><time>2026-04-08T08:51:12Z</time></trkpt><trkpt lat="14.59889681258934" lon="120.98207401028209"><ele>13.999999999999998</ele><time>2026-04-08T08:51:14Z</time></trkpt><trkpt lat="14.598902853319712" lon="120.98199454387976"><ele>14.0</ele><time>2026-04-08T08:51:16Z</time></trkpt><trkpt lat="14.598928820565153" lon="120.98191998202797"><ele>14.0</ele><time>2026-04-08T08:51:18Z</time></trkpt><trkpt lat="14.59888612957864" lon="120.9817845774931"><ele>14.0</ele><time>2026-04-08T08:51:20Z</time></trkpt><trkpt lat="14.59890799972381" lon="120.98171786783271"><ele>14.0</ele><time>2026-04-08T08:51:25Z</time></trkpt><trkpt lat="14.598917080406125" lon="120.98165041654131"><ele>14.0</ele><time>2026-04-08T08:51:28Z</time></trkpt><trkpt lat="14.598933244747894" lon="120.9815805080167"><ele>14.0</ele><time>2026-04-08T08:51:30Z</time></trkpt><trkpt lat="14.59894014668042" lon="120.98150204234985"><ele>14.0</ele><time>2026-04-08T08:51:32Z</time></trkpt><trkpt lat="14.59894580428889" lon="120.98142415320173"><ele>14.0</ele><time>2026-04-08T08:51:34Z</time></trkpt><trkpt lat="14.59895934972453" lon="120.98134030679083"><ele>14.0</ele><time>2026-04-08T08:51:38Z</time></trkpt><trkpt lat="14.599020560902996" lon="120.98137813541831"><ele>13.75</ele><time>2026-04-08T08:51:51.001Z</time></trkpt><trkpt lat="14.599101280795963" lon="120.9813926394902"><ele>13.5</ele><time>2026-04-08T08:51:57.001Z</time></trkpt><trkpt lat="14.599267385624177" lon="120.98138272071927"><ele>13.25</ele><time>2026-04-08T08:51:59.001Z</time></trkpt><trkpt lat="14.599377095538452" lon="120.98132059991875"><ele>13.0</ele><time>2026-04-08T08:52:00.001Z</time></trkpt><trkpt lat="14.599459585409482" lon="120.9812950250668"><ele>13.0</ele><time>2026-04-08T08:52:01.001Z</time></trkpt><trkpt lat="14.599528134011173" lon="120.98125587478735"><ele>13.0</ele><time>2026-04-08T08:52:02.001Z</time></trkpt><trkpt lat="14.599611497351656" lon="120.98123028704062"><ele>13.0</ele><time>2026-04-08T08:52:04.001Z</time></trkpt><trkpt lat="14.599675345534912" lon="120.98124624632747"><ele>13.0</ele><time>2026-04-08T08:52:06.001Z</time></trkpt><trkpt lat="14.599867776391346" lon="120.98123007999786"><ele>13.0</ele><time>2026-04-08T08:52:11.001Z</time></trkpt><trkpt lat="14.599945227225522" lon="120.98122892369315"><ele>13.0</ele><time>2026-04-08T08:52:13.001Z</time></trkpt><trkpt lat="14.600039850944874" lon="120.98128520949706"><ele>13.0</ele><time>2026-04-08T08:52:16.001Z</time></trkpt><trkpt lat="14.600117821542723" lon="120.98133338494743"><ele>13.0</ele><time>2026-04-08T08:52:18.001Z</time></trkpt><trkpt lat="14.600288279206492" lon="120.98134199304857"><ele>13.0</ele><time>2026-04-08T08:52:24.001Z</time></trkpt><trkpt lat="14.600363325461895" lon="120.98136859434344"><ele>13.0</ele><time>2026-04-08T08:52:27.001Z</time></trkpt><trkpt lat="14.600448743336816" lon="120.98138039847464"><ele>13.0</ele><time>2026-04-08T08:52:29.001Z</time></trkpt><trkpt lat="14.600567756423754" lon="120.98142743495004"><ele>13.0</ele><time>2026-04-08T08:52:31.001Z</time></trkpt><trkpt lat="14.600657021421329" lon="120.98145413451597"><ele>13.0</ele><time>2026-04-08T08:52:32.001Z</time></trkpt><trkpt lat="14.600739199477667" lon="120.98148269935905"><ele>13.0</ele><time>2026-04-08T08:52:33.001Z</time></trkpt><trkpt lat="14.600813810234557" lon="120.98150360106283"><ele>13.0</ele><time>2026-04-08T08:52:34.001Z</time></trkpt><trkpt lat="14.600885345926741" lon="120.98153165993688"><ele>13.0</ele><time>2026-04-08T08:52:35.001Z</time></trkpt><trkpt lat="14.600949482175325" lon="120.98155031210649"><ele>13.0</ele><time>2026-04-08T08:52:36.001Z</time></trkpt><trkpt lat="14.60101748007257" lon="120.98156582530262"><ele>13.0</ele><time>2026-04-08T08:52:37.001Z</time></trkpt><trkpt lat="14.601085400873783" lon="120.98158813853219"><ele>13.0</ele><time>2026-04-08T08:52:38.001Z</time></trkpt><trkpt lat="14.601145716242701" lon="120.98161061561784"><ele>13.0</ele><time>2026-04-08T08:52:39.001Z</time></trkpt><trkpt lat="14.601211698093959" lon="120.98162500764028"><ele>13.0</ele><time>2026-04-08T08:52:40.001Z</time></trkpt><trkpt lat="14.601283857259787" lon="120.98163971259949"><ele>13.166666666666666</ele><time>2026-04-08T08:52:41Z</time></trkpt><trkpt lat="14.601356313405338" lon="120.98164908582675"><ele>13.333333333333332</ele><time>2026-04-08T08:52:42Z</time></trkpt><trkpt lat="14.601432818372441" lon="120.9816633912884"><ele>13.5</ele><time>2026-04-08T08:52:43Z</time></trkpt><trkpt lat="14.601497471006299" lon="120.9816696717525"><ele>13.666666666666668</ele><time>2026-04-08T08:52:44Z</time></trkpt><trkpt lat="14.601608212345248" lon="120.98169353569203"><ele>13.833333333333334</ele><time>2026-04-08T08:52:46Z</time></trkpt><trkpt lat="14.601675640843375" lon="120.98171917954777"><ele>14.0</ele><time>2026-04-08T08:52:47Z</time></trkpt><trkpt lat="14.601800479225288" lon="120.98174099481048"><ele>13.666666666666668</ele><time>2026-04-08T08:52:49Z</time></trkpt><trkpt lat="14.601861611741413" lon="120.9817695579086"><ele>13.333333333333334</ele><time>2026-04-08T08:52:50Z</time></trkpt><trkpt lat="14.601926339144441" lon="120.98177644729488"><ele>13.0</ele><time>2026-04-08T08:52:51Z</time></trkpt><trkpt lat="14.60201570445961" lon="120.98178328138688"><ele>12.666666666666668</ele><time>2026-04-08T08:52:53Z</time></trkpt><trkpt lat="14.602081134458231" lon="120.98183754858712"><ele>12.333333333333334</ele><time>2026-04-08T08:52:57Z</time></trkpt><trkpt lat="14.602165953904509" lon="120.98187637749983"><ele>12.0</ele><time>2026-04-08T08:52:59Z</time></trkpt><trkpt lat="14.6022388376021" lon="120.98189454447676"><ele>12.0</ele><time>2026-04-08T08:53:02Z</time></trkpt><trkpt lat="14.602308181958946" lon="120.98192244014078"><ele>12.0</ele><time>2026-04-08T08:53:08Z</time></trkpt><trkpt lat="14.60237661550377" lon="120.98192885989064"><ele>12.0</ele><time>2026-04-08T08:53:10Z</time></trkpt><trkpt lat="14.602477646107442" lon="120.9819287281858"><ele>12.0</ele><time>2026-04-08T08:53:12Z</time></trkpt><trkpt lat="14.602544708276403" lon="120.98193326675818"><ele>12.0</ele><time>2026-04-08T08:53:13Z</time></trkpt><trkpt lat="14.602610925840121" lon="120.98194860541471"><ele>12.0</ele><time>2026-04-08T08:53:14Z</time></trkpt><trkpt lat="14.602702465396513" lon="120.98197552285541"><ele>12.0</ele><time>2026-04-08T08:53:15Z</time></trkpt><trkpt lat="14.602784310939294" lon="120.98199562310123"><ele>12.0</ele><time>2026-04-08T08:53:16Z</time></trkpt><trkpt lat="14.60288547338211" lon="120.98201280876205"><ele>12.0</ele><time>2026-04-08T08:53:17Z</time></trkpt><trkpt lat="14.602966990335226" lon="120.98202558776511"><ele>12.0</ele><time>2026-04-08T08:53:18Z</time></trkpt><trkpt lat="14.603051012040707" lon="120.98203738456796"><ele>12.0</ele><time>2026-04-08T08:53:19Z</time></trkpt><trkpt lat="14.603177880573542" lon="120.98205027403583"><ele>12.333333333333334</ele><time>2026-04-08T08:53:21Z</time></trkpt><trkpt lat="14.603264455746967" lon="120.98206103079468"><ele>12.666666666666668</ele><time>2026-04-08T08:53:23Z</time></trkpt><trkpt lat="14.603357305106478" lon="120.98205687846362"><ele>13.0</ele><time>2026-04-08T08:53:26Z</time></trkpt><trkpt lat="14.603429960469377" lon="120.98206086489756"><ele>13.333333333333334</ele><time>2026-04-08T08:53:31Z</time></trkpt><trkpt lat="14.603503916928217" lon="120.98204046310116"><ele>13.666666666666668</ele><time>2026-04-08T08:54:08.001Z</time></trkpt><trkpt lat="14.603569713616876" lon="120.98203670282223"><ele>14.0</ele><time>2026-04-08T08:54:11.001Z</time></trkpt><trkpt lat="14.603627602026606" lon="120.98206661572853"><ele>14.000000000000002</ele><time>2026-04-08T08:54:14.001Z</time></trkpt><trkpt lat="14.603640588447512" lon="120.98214251531437"><ele>14.0</ele><time>2026-04-08T08:54:16.001Z</time></trkpt><trkpt lat="14.603622150766222" lon="120.98220703413617"><ele>14.0</ele><time>2026-04-08T08:54:17.001Z</time></trkpt><trkpt lat="14.603596377696345" lon="120.98232100427313"><ele>14.0</ele><time>2026-04-08T08:54:19.001Z</time></trkpt><trkpt lat="14.603584186259774" lon="120.98238504621709"><ele>14.000000000000002</ele><time>2026-04-08T08:54:20.001Z</time></trkpt><trkpt lat="14.603568540902915" lon="120.98245077867212"><ele>14.0</ele><time>2026-04-08T08:54:21.001Z</time></trkpt><trkpt lat="14.603553892466765" lon="120.98252220684654"><ele>14.0</ele><time>2026-04-08T08:54:22.001Z</time></trkpt><trkpt lat="14.603545837494675" lon="120.98259352631506"><ele>14.0</ele><time>2026-04-08T08:54:23.001Z</time></trkpt><trkpt lat="14.603529940452484" lon="120.98266655115955"><ele>14.0</ele><time>2026-04-08T08:54:24.001Z</time></trkpt><trkpt lat="14.603517968618656" lon="120.98273257169762"><ele>14.0</ele><time>2026-04-08T08:54:25.001Z</time></trkpt><trkpt lat="14.603511541264274" lon="120.98280182309489"><ele>14.0</ele><time>2026-04-08T08:54:26.001Z</time></trkpt><trkpt lat="14.603501612510033" lon="120.98287003647354"><ele>14.0</ele><time>2026-04-08T08:54:27.001Z</time></trkpt><trkpt lat="14.603496359335365" lon="120.98295515962394"><ele>14.0</ele><time>2026-04-08T08:54:28.001Z</time></trkpt><trkpt lat="14.603489697395368" lon="120.983038791785"><ele>14.000000000000002</ele><time>2026-04-08T08:54:29.001Z</time></trkpt><trkpt lat="14.6034800149553" lon="120.9831162891432"><ele>14.0</ele><time>2026-04-08T08:54:30.001Z</time></trkpt><trkpt lat="14.603456104382456" lon="120.98325486065806"><ele>14.0</ele><time>2026-04-08T08:54:32.001Z</time></trkpt><trkpt lat="14.603446565379466" lon="120.9833228448836"><ele>14.0</ele><time>2026-04-08T08:54:33.001Z</time></trkpt><trkpt lat="14.603437332006521" lon="120.98341502946957"><ele>14.000000000000002</ele><time>2026-04-08T08:54:35.001Z</time></trkpt><trkpt lat="14.603423754608276" lon="120.98349071875278"><ele>14.0</ele><time>2026-04-08T08:54:40.001Z</time></trkpt><trkpt lat="14.603306751000607" lon="120.98360132240043"><ele>14.833333333333334</ele><time>2026-04-08T08:55:06Z</time></trkpt><trkpt lat="14.6032979595772" lon="120.98366918963536"><ele>15.666666666666668</ele><time>2026-04-08T08:55:07Z</time></trkpt><trkpt lat="14.603292058640154" lon="120.98374871301412"><ele>16.5</ele><time>2026-04-08T08:55:08Z</time></trkpt><trkpt lat="14.603283058375387" lon="120.98383728073226"><ele>17.333333333333332</ele><time>2026-04-08T08:55:09Z</time></trkpt><trkpt lat="14.603284064244667" lon="120.98393614809474"><ele>18.166666666666664</ele><time>2026-04-08T08:55:10Z</time></trkpt><trkpt lat="14.60327344079372" lon="120.98404025526624"><ele>19.0</ele><time>2026-04-08T08:55:11Z</time></trkpt><trkpt lat="14.603263487500625" lon="120.98414557118836"><ele>17.4</ele><time>2026-04-08T08:55:12Z</time></trkpt><trkpt lat="14.603235537724094" lon="120.98424585941343"><ele>15.799999999999999</ele><time>2026-04-08T08:55:13Z</time></trkpt><trkpt lat="14.60322936277594" lon="120.98433741912801"><ele>14.2</ele><time>2026-04-08T08:55:14Z</time></trkpt><trkpt lat="14.603206282983964" lon="120.98442352091091"><ele>12.600000000000001</ele><time>2026-04-08T08:55:15Z</time></trkpt><trkpt lat="14.60319469436934" lon="120.98452989025125"><ele>11.0</ele><time>2026-04-08T08:55:16Z</time></trkpt><trkpt lat="14.603179609477788" lon="120.98463631495854"><ele>11.0</ele><time>2026-04-08T08:55:17Z</time></trkpt><trkpt lat="14.60315017134543" lon="120.98474304733145"><ele>11.0</ele><time>2026-04-08T08:55:18Z</time></trkpt><trkpt lat="14.603108367577882" lon="120.98484380584907"><ele>11.0</ele><time>2026-04-08T08:55:19Z</time></trkpt><trkpt lat="14.603068155756453" lon="120.98494263290569"><ele>11.0</ele><time>2026-04-08T08:55:20Z</time></trkpt><trkpt lat="14.603031819206835" lon="120.9850374910823"><ele>11.0</ele><time>2026-04-08T08:55:21Z</time></trkpt><trkpt lat="14.602995311536475" lon="120.98512365900895"><ele>10.8</ele><time>2026-04-08T08:55:22Z</time></trkpt><trkpt lat="14.602959109546424" lon="120.98520734072655"><ele>10.600000000000001</ele><time>2026-04-08T08:55:23Z</time></trkpt><trkpt lat="14.602927461970664" lon="120.98527498629657"><ele>10.4</ele><time>2026-04-08T08:55:24Z</time></trkpt><trkpt lat="14.602879424709755" lon="120.9853727956963"><ele>10.2</ele><time>2026-04-08T08:55:26Z</time></trkpt><trkpt lat="14.602851287415406" lon="120.98545285559945"><ele>10.0</ele><time>2026-04-08T08:55:28Z</time></trkpt><trkpt lat="14.602806222795246" lon="120.98556117958827"><ele>10.333333333333334</ele><time>2026-04-08T08:55:30Z</time></trkpt><trkpt lat="14.602773967768634" lon="120.9856241772877"><ele>10.666666666666668</ele><time>2026-04-08T08:55:31.001Z</time></trkpt><trkpt lat="14.602733822790134" lon="120.98570182334859"><ele>11.0</ele><time>2026-04-08T08:55:32.001Z</time></trkpt><trkpt lat="14.602707027844009" lon="120.98578011362726"><ele>11.333333333333334</ele><time>2026-04-08T08:55:33.001Z</time></trkpt><trkpt lat="14.602683118317023" lon="120.98584781132276"><ele>11.666666666666666</ele><time>2026-04-08T08:55:34.001Z</time></trkpt><trkpt lat="14.60265492805202" lon="120.98591702530813"><ele>12.0</ele><time>2026-04-08T08:55:35.001Z</time></trkpt><trkpt lat="14.60262415362209" lon="120.98599162861021"><ele>12.333333333333334</ele><time>2026-04-08T08:55:36.001Z</time></trkpt><trkpt lat="14.60259180700475" lon="120.98606447471658"><ele>12.666666666666668</ele><time>2026-04-08T08:55:37.001Z</time></trkpt><trkpt lat="14.602561474088816" lon="120.98612751265411"><ele>13.0</ele><time>2026-04-08T08:55:38.001Z</time></trkpt><trkpt lat="14.60253329569936" lon="120.98619830198513"><ele>13.333333333333334</ele><time>2026-04-08T08:55:39.001Z</time></trkpt><trkpt lat="14.602498700971028" lon="120.98626807320477"><ele>13.666666666666668</ele><time>2026-04-08T08:55:40.001Z</time></trkpt><trkpt lat="14.602465638970159" lon="120.98633570729467"><ele>14.0</ele><time>2026-04-08T08:55:41.001Z</time></trkpt><trkpt lat="14.602446713436297" lon="120.98645627070677"><ele>14.000000000000002</ele><time>2026-04-08T08:55:43.001Z</time></trkpt><trkpt lat="14.602399749381366" lon="120.98652535867872"><ele>14.0</ele><time>2026-04-08T08:55:45.001Z</time></trkpt><trkpt lat="14.602356034947393" lon="120.9866146139364"><ele>14.0</ele><time>2026-04-08T08:55:47.001Z</time></trkpt><trkpt lat="14.602304892542842" lon="120.98670170501899"><ele>14.0</ele><time>2026-04-08T08:55:49.001Z</time></trkpt><trkpt lat="14.602273646603784" lon="120.98677954155383"><ele>14.000000000000002</ele><time>2026-04-08T08:55:51.001Z</time></trkpt><trkpt lat="14.60222815189598" lon="120.98685402874703"><ele>14.0</ele><time>2026-04-08T08:56:09.001Z</time></trkpt><trkpt lat="14.60218847318538" lon="120.98692011451514"><ele>13.500000000000002</ele><time>2026-04-08T08:56:41.002Z</time></trkpt><trkpt lat="14.602143443980232" lon="120.9869795011119"><ele>13.0</ele><time>2026-04-08T08:56:43.002Z</time></trkpt><trkpt lat="14.60214164591104" lon="120.98708278359827"><ele>12.5</ele><time>2026-04-08T08:56:45.002Z</time></trkpt><trkpt lat="14.60216764024049" lon="120.98715653248946"><ele>12.0</ele><time>2026-04-08T08:56:47.002Z</time></trkpt><trkpt lat="14.60224241918156" lon="120.9872168964466"><ele>11.5</ele><time>2026-04-08T08:56:49.002Z</time></trkpt><trkpt lat="14.602326043033726" lon="120.98724530449078"><ele>11.0</ele><time>2026-04-08T08:56:50.002Z</time></trkpt><trkpt lat="14.602398029134328" lon="120.98725363192696"><ele>11.0</ele><time>2026-04-08T08:56:51.002Z</time></trkpt><trkpt lat="14.602471196173742" lon="120.98726572287521"><ele>11.0</ele><time>2026-04-08T08:56:52.002Z</time></trkpt><trkpt lat="14.602552079815135" lon="120.98728501450238"><ele>11.0</ele><time>2026-04-08T08:56:53Z</time></trkpt><trkpt lat="14.602629480939331" lon="120.98731108337046"><ele>11.0</ele><time>2026-04-08T08:56:54Z</time></trkpt><trkpt lat="14.602705106972293" lon="120.98733714131589"><ele>11.0</ele><time>2026-04-08T08:56:55Z</time></trkpt><trkpt lat="14.602784216146894" lon="120.98735258755615"><ele>11.0</ele><time>2026-04-08T08:56:56Z</time></trkpt><trkpt lat="14.60285548099654" lon="120.98737203032096"><ele>11.0</ele><time>2026-04-08T08:56:57Z</time></trkpt><trkpt lat="14.602923745327521" lon="120.98738330914067"><ele>11.0</ele><time>2026-04-08T08:56:58Z</time></trkpt><trkpt lat="14.603030106314224" lon="120.98741644066615"><ele>11.0</ele><time>2026-04-08T08:57:00Z</time></trkpt><trkpt lat="14.603105758539572" lon="120.98743390074614"><ele>11.0</ele><time>2026-04-08T08:57:03Z</time></trkpt><trkpt lat="14.603179585666176" lon="120.98743484635648"><ele>11.0</ele><time>2026-04-08T08:57:08Z</time></trkpt><trkpt lat="14.603301920071946" lon="120.98746273050419"><ele>11.0</ele><time>2026-04-08T08:57:10Z</time></trkpt><trkpt lat="14.603376650480618" lon="120.98748126200022"><ele>11.0</ele><time>2026-04-08T08:57:11Z</time></trkpt><trkpt lat="14.603459048805487" lon="120.98750340281896"><ele>11.0</ele><time>2026-04-08T08:57:12Z</time></trkpt><trkpt lat="14.603543668821105" lon="120.98752795946328"><ele>11.0</ele><time>2026-04-08T08:57:13Z</time></trkpt><trkpt lat="14.603632204354616" lon="120.98754914625754"><ele>11.0</ele><time>2026-04-08T08:57:14Z</time></trkpt><trkpt lat="14.603722349501204" lon="120.98756778668539"><ele>11.0</ele><time>2026-04-08T08:57:15Z</time></trkpt><trkpt lat="14.603811652594985" lon="120.98759104996155"><ele>10.600000000000001</ele><time>2026-04-08T08:57:16Z</time></trkpt><trkpt lat="14.603901938536158" lon="120.98761574690661"><ele>10.200000000000001</ele><time>2026-04-08T08:57:17Z</time></trkpt><trkpt lat="14.603994388010506" lon="120.98764146775103"><ele>9.8</ele><time>2026-04-08T08:57:18Z</time></trkpt><trkpt lat="14.604083923325616" lon="120.98766532551532"><ele>9.4</ele><time>2026-04-08T08:57:19Z</time></trkpt><trkpt lat="14.604176275752186" lon="120.98769101553667"><ele>9.0</ele><time>2026-04-08T08:57:20Z</time></trkpt><trkpt lat="14.604258661601198" lon="120.98772952585793"><ele>9.000000000000002</ele><time>2026-04-08T08:57:21Z</time></trkpt><trkpt lat="14.604339011795114" lon="120.98773816415206"><ele>9.0</ele><time>2026-04-08T08:57:22Z</time></trkpt><trkpt lat="14.604412899103345" lon="120.98775452637415"><ele>9.0</ele><time>2026-04-08T08:57:23Z</time></trkpt><trkpt lat="14.604480937286136" lon="120.98777415678695"><ele>9.0</ele><time>2026-04-08T08:57:24Z</time></trkpt><trkpt lat="14.604550075990852" lon="120.98779270864866"><ele>9.0</ele><time>2026-04-08T08:57:25Z</time></trkpt><trkpt lat="14.604618348797077" lon="120.98781534524528"><ele>9.000000000000002</ele><time>2026-04-08T08:57:26Z</time></trkpt><trkpt lat="14.604682539173645" lon="120.98783668342524"><ele>9.0</ele><time>2026-04-08T08:57:27Z</time></trkpt><trkpt lat="14.604783348654324" lon="120.98787354409913"><ele>9.0</ele><time>2026-04-08T08:57:29Z</time></trkpt><trkpt lat="14.604849867796354" lon="120.9879003249965"><ele>9.0</ele><time>2026-04-08T08:57:31Z</time></trkpt><trkpt lat="14.604921293357782" lon="120.98792721190097"><ele>9.0</ele><time>2026-04-08T08:57:34.001Z</time></trkpt><trkpt lat="14.605002317024313" lon="120.98792162556211"><ele>9.0</ele><time>2026-04-08T08:58:20.001Z</time></trkpt><trkpt lat="14.605097327657203" lon="120.98795343311379"><ele>9.0</ele><time>2026-04-08T08:58:23.001Z</time></trkpt><trkpt lat="14.60516854994156" lon="120.98797483641552"><ele>9.0</ele><time>2026-04-08T08:58:25.001Z</time></trkpt><trkpt lat="14.60522926869984" lon="120.98801184347425"><ele>9.0</ele><time>2026-04-08T08:58:27.001Z</time></trkpt><trkpt lat="14.605314742978686" lon="120.98807742518277"><ele>9.0</ele><time>2026-04-08T08:58:29.001Z</time></trkpt><trkpt lat="14.60537526728604" lon="120.98816506496095"><ele>9.0</ele><time>2026-04-08T08:58:31.001Z</time></trkpt><trkpt lat="14.605433010384008" lon="120.98819109782508"><ele>9.0</ele><time>2026-04-08T08:58:32.001Z</time></trkpt><trkpt lat="14.605494656222817" lon="120.9882460288849"><ele>9.0</ele><time>2026-04-08T08:58:34.001Z</time></trkpt><trkpt lat="14.605543996456024" lon="120.98829839216275"><ele>9.0</ele><time>2026-04-08T08:58:37.001Z</time></trkpt><trkpt lat="14.605590443922186" lon="120.98835785642216"><ele>9.166666666666666</ele><time>2026-04-08T08:58:41.001Z</time></trkpt><trkpt lat="14.605643635747917" lon="120.98841511773672"><ele>9.333333333333334</ele><time>2026-04-08T08:58:44.001Z</time></trkpt><trkpt lat="14.605699217434484" lon="120.98847987084287"><ele>9.5</ele><time>2026-04-08T08:58:47.001Z</time></trkpt><trkpt lat="14.605750083937354" lon="120.98853328830197"><ele>9.666666666666668</ele><time>2026-04-08T08:58:50.002Z</time></trkpt><trkpt lat="14.605809024423747" lon="120.9885923492556"><ele>9.833333333333334</ele><time>2026-04-08T08:58:52.002Z</time></trkpt><trkpt lat="14.605893624377845" lon="120.9886799216666"><ele>10.0</ele><time>2026-04-08T08:58:54.002Z</time></trkpt><trkpt lat="14.605938957469373" lon="120.98873792739316"><ele>10.0</ele><time>2026-04-08T08:58:55.002Z</time></trkpt><trkpt lat="14.60598713370196" lon="120.98879436452715"><ele>10.0</ele><time>2026-04-08T08:58:56.002Z</time></trkpt><trkpt lat="14.606032791908437" lon="120.98884715291578"><ele>10.0</ele><time>2026-04-08T08:58:57.002Z</time></trkpt><trkpt lat="14.606081990568512" lon="120.98889930495761"><ele>10.0</ele><time>2026-04-08T08:58:58.002Z</time></trkpt><trkpt lat="14.606152287387067" lon="120.98897828330968"><ele>10.0</ele><time>2026-04-08T08:59:00Z</time></trkpt><trkpt lat="14.606225641801297" lon="120.98905275946079"><ele>10.0</ele><time>2026-04-08T08:59:02Z</time></trkpt><trkpt lat="14.606283477788502" lon="120.9891121571404"><ele>10.0</ele><time>2026-04-08T08:59:04Z</time></trkpt><trkpt lat="14.606344875335918" lon="120.98917345849206"><ele>10.0</ele><time>2026-04-08T08:59:06Z</time></trkpt><trkpt lat="14.606405064016595" lon="120.98924104244357"><ele>10.0</ele><time>2026-04-08T08:59:08Z</time></trkpt><trkpt lat="14.606466707965096" lon="120.98931526674548"><ele>10.0</ele><time>2026-04-08T08:59:10Z</time></trkpt><trkpt lat="14.606510494514145" lon="120.98937388391161"><ele>10.0</ele><time>2026-04-08T08:59:12Z</time></trkpt><trkpt lat="14.606555588871027" lon="120.98943274678223"><ele>10.0</ele><time>2026-04-08T08:59:14Z</time></trkpt><trkpt lat="14.606604505335836" lon="120.98949061182336"><ele>10.0</ele><time>2026-04-08T08:59:16Z</time></trkpt><trkpt lat="14.60666073590192" lon="120.98955379221724"><ele>10.0</ele><time>2026-04-08T08:59:18Z</time></trkpt><trkpt lat="14.606734724285113" lon="120.98963043763683"><ele>10.0</ele><time>2026-04-08T08:59:20Z</time></trkpt><trkpt lat="14.606811490592655" lon="120.98971953194196"><ele>10.0</ele><time>2026-04-08T08:59:22Z</time></trkpt><trkpt lat="14.60688364797198" lon="120.98978679244306"><ele>10.0</ele><time>2026-04-08T08:59:24Z</time></trkpt><trkpt lat="14.606936205632078" lon="120.98983645746014"><ele>10.0</ele><time>2026-04-08T08:59:26Z</time></trkpt><trkpt lat="14.606985442205001" lon="120.98988054085133"><ele>10.0</ele><time>2026-04-08T08:59:28Z</time></trkpt><trkpt lat="14.607032580153112" lon="120.98993909835997"><ele>10.0</ele><time>2026-04-08T08:59:31Z</time></trkpt><trkpt lat="14.60709255426343" lon="120.99000765192588"><ele>10.0</ele><time>2026-04-08T08:59:34Z</time></trkpt><trkpt lat="14.607148825275903" lon="120.99007251704946"><ele>10.0</ele><time>2026-04-08T08:59:36Z</time></trkpt><trkpt lat="14.607232501645361" lon="120.99015063060787"><ele>10.0</ele><time>2026-04-08T08:59:38Z</time></trkpt><trkpt lat="14.607281457623355" lon="120.99019347343003"><ele>9.8</ele><time>2026-04-08T08:59:39Z</time></trkpt><trkpt lat="14.607351868961715" lon="120.99027517307817"><ele>9.6</ele><time>2026-04-08T08:59:41.001Z</time></trkpt><trkpt lat="14.607413597065923" lon="120.99034201036139"><ele>9.4</ele><time>2026-04-08T08:59:43.001Z</time></trkpt><trkpt lat="14.607477948698257" lon="120.99041554501119"><ele>9.2</ele><time>2026-04-08T08:59:45.001Z</time></trkpt><trkpt lat="14.607544217369947" lon="120.9904952533923"><ele>9.0</ele><time>2026-04-08T08:59:47.001Z</time></trkpt><trkpt lat="14.607599195756473" lon="120.9905612500028"><ele>9.0</ele><time>2026-04-08T08:59:49.001Z</time></trkpt><trkpt lat="14.607646256308799" lon="120.990607698148"><ele>9.0</ele><time>2026-04-08T08:59:51.001Z</time></trkpt><trkpt lat="14.60769426548431" lon="120.99065400392958"><ele>9.0</ele><time>2026-04-08T08:59:53.001Z</time></trkpt><trkpt lat="14.607743251989328" lon="120.99070836786095"><ele>9.0</ele><time>2026-04-08T08:59:55.001Z</time></trkpt><trkpt lat="14.607798499146604" lon="120.99076381483343"><ele>9.0</ele><time>2026-04-08T08:59:57.001Z</time></trkpt><trkpt lat="14.607877566165472" lon="120.99085234893529"><ele>9.0</ele><time>2026-04-08T08:59:59.001Z</time></trkpt><trkpt lat="14.607923174358621" lon="120.99089979322255"><ele>9.333333333333334</ele><time>2026-04-08T09:00:00.001Z</time></trkpt><trkpt lat="14.607967957081456" lon="120.99094810482683"><ele>9.666666666666666</ele><time>2026-04-08T09:00:01.001Z</time></trkpt><trkpt lat="14.608009678136623" lon="120.99099764676883"><ele>10.0</ele><time>2026-04-08T09:00:02.001Z</time></trkpt><trkpt lat="14.608094859742641" lon="120.99108548902264"><ele>10.333333333333332</ele><time>2026-04-08T09:00:04.001Z</time></trkpt><trkpt lat="14.608139222502741" lon="120.99113306104819"><ele>10.666666666666666</ele><time>2026-04-08T09:00:05.001Z</time></trkpt><trkpt lat="14.60821013194845" lon="120.99121068710267"><ele>11.0</ele><time>2026-04-08T09:00:07.001Z</time></trkpt><trkpt lat="14.608272560672543" lon="120.99127674033805"><ele>11.0</ele><time>2026-04-08T09:00:09.001Z</time></trkpt><trkpt lat="14.608329429163772" lon="120.99133740551497"><ele>11.0</ele><time>2026-04-08T09:00:12.001Z</time></trkpt><trkpt lat="14.60838199447625" lon="120.99140064869412"><ele>11.0</ele><time>2026-04-08T09:00:18.001Z</time></trkpt><trkpt lat="14.608444023264346" lon="120.99146273065105"><ele>11.0</ele><time>2026-04-08T09:00:23.001Z</time></trkpt><trkpt lat="14.60849626176418" lon="120.99151066245015"><ele>11.0</ele><time>2026-04-08T09:00:26.001Z</time></trkpt><trkpt lat="14.60855443361928" lon="120.99157197734999"><ele>11.0</ele><time>2026-04-08T09:00:29.001Z</time></trkpt><trkpt lat="14.608589099452669" lon="120.9916383338001"><ele>10.0</ele><time>2026-04-08T09:01:32Z</time></trkpt><trkpt lat="14.608664718257788" lon="120.99171623677432"><ele>9.0</ele><time>2026-04-08T09:01:35Z</time></trkpt><trkpt lat="14.608735089861925" lon="120.9918008985918"><ele>8.0</ele><time>2026-04-08T09:01:37Z</time></trkpt><trkpt lat="14.608791272533262" lon="120.9918694654468"><ele>7.0</ele><time>2026-04-08T09:01:39Z</time></trkpt><trkpt lat="14.608866363360312" lon="120.99193825135833"><ele>6.0</ele><time>2026-04-08T09:01:41Z</time></trkpt><trkpt lat="14.608937832618743" lon="120.99203025080696"><ele>6.0</ele><time>2026-04-08T09:01:43Z</time></trkpt><trkpt lat="14.609011603593864" lon="120.99211274495119"><ele>6.0</ele><time>2026-04-08T09:01:45Z</time></trkpt><trkpt lat="14.609074565658878" lon="120.99218310402408"><ele>6.0</ele><time>2026-04-08T09:01:47Z</time></trkpt><trkpt lat="14.60914511120195" lon="120.99227141190593"><ele>6.0</ele><time>2026-04-08T09:01:49Z</time></trkpt><trkpt lat="14.609226992969045" lon="120.99235373229378"><ele>6.0</ele><time>2026-04-08T09:01:51.001Z</time></trkpt><trkpt lat="14.609295249813862" lon="120.99242471150914"><ele>6.0</ele><time>2026-04-08T09:01:53.001Z</time></trkpt><trkpt lat="14.609347060727808" lon="120.99248603506221"><ele>6.0</ele><time>2026-04-08T09:01:55.001Z</time></trkpt><trkpt lat="14.609412653543707" lon="120.99254917181268"><ele>6.0</ele><time>2026-04-08T09:01:57.001Z</time></trkpt><trkpt lat="14.609463380008108" lon="120.99260384404725"><ele>6.0</ele><time>2026-04-08T09:01:59.001Z</time></trkpt><trkpt lat="14.609514639724841" lon="120.99264734606335"><ele>6.0</ele><time>2026-04-08T09:04:00Z</time></trkpt><trkpt lat="14.609564072359378" lon="120.99271764792037"><ele>6.0</ele><time>2026-04-08T09:04:02Z</time></trkpt><trkpt lat="14.609611387371508" lon="120.992772607582"><ele>5.8</ele><time>2026-04-08T09:04:03.001Z</time></trkpt><trkpt lat="14.609668202098431" lon="120.99283444126974"><ele>5.6</ele><time>2026-04-08T09:04:04.001Z</time></trkpt><trkpt lat="14.609727894573282" lon="120.99290546671692"><ele>5.4</ele><time>2026-04-08T09:04:05.001Z</time></trkpt><trkpt lat="14.60979483687232" lon="120.99298489718964"><ele>5.2</ele><time>2026-04-08T09:04:06.001Z</time></trkpt><trkpt lat="14.609865373523293" lon="120.99306482865079"><ele>5.0</ele><time>2026-04-08T09:04:07.001Z</time></trkpt><trkpt lat="14.609934366309645" lon="120.99314501744598"><ele>5.0</ele><time>2026-04-08T09:04:08.001Z</time></trkpt><trkpt lat="14.610013666414" lon="120.99322795720197"><ele>5.0</ele><time>2026-04-08T09:04:09.001Z</time></trkpt><trkpt lat="14.610097543438611" lon="120.99330884088175"><ele>5.0</ele><time>2026-04-08T09:04:10.001Z</time></trkpt><trkpt lat="14.610187631390223" lon="120.99339778213397"><ele>5.0</ele><time>2026-04-08T09:04:11.001Z</time></trkpt><trkpt lat="14.610278496981284" lon="120.99349173655486"><ele>6.0</ele><time>2026-04-08T09:04:12.001Z</time></trkpt><trkpt lat="14.610368253478857" lon="120.99358833803059"><ele>7.0</ele><time>2026-04-08T09:04:13.001Z</time></trkpt><trkpt lat="14.610452864947291" lon="120.99368648987428"><ele>8.0</ele><time>2026-04-08T09:04:14.001Z</time></trkpt><trkpt lat="14.610529701249844" lon="120.99376860887256"><ele>9.0</ele><time>2026-04-08T09:04:15.001Z</time></trkpt><trkpt lat="14.61060536353258" lon="120.99385166373527"><ele>9.0</ele><time>2026-04-08T09:04:16.001Z</time></trkpt><trkpt lat="14.610672143781693" lon="120.99392497127928"><ele>9.0</ele><time>2026-04-08T09:04:17.001Z</time></trkpt><trkpt lat="14.610735054904357" lon="120.99399653474083"><ele>9.0</ele><time>2026-04-08T09:04:18.001Z</time></trkpt><trkpt lat="14.610786362981587" lon="120.99405765338027"><ele>9.0</ele><time>2026-04-08T09:04:19.001Z</time></trkpt><trkpt lat="14.610830508201705" lon="120.99410626975015"><ele>9.0</ele><time>2026-04-08T09:04:20.001Z</time></trkpt><trkpt lat="14.61088626140461" lon="120.99417033075792"><ele>9.0</ele><time>2026-04-08T09:04:22.001Z</time></trkpt><trkpt lat="14.61093522462845" lon="120.99422464134712"><ele>8.833333333333334</ele><time>2026-04-08T09:04:26.001Z</time></trkpt><trkpt lat="14.610985935674137" lon="120.99426973265778"><ele>8.666666666666666</ele><time>2026-04-08T09:04:59.001Z</time></trkpt><trkpt lat="14.611050171411973" lon="120.99433897487859"><ele>8.5</ele><time>2026-04-08T09:05:02.001Z</time></trkpt><trkpt lat="14.61110574125336" lon="120.99440464495946"><ele>8.333333333333332</ele><time>2026-04-08T09:05:05.001Z</time></trkpt><trkpt lat="14.611166233469703" lon="120.99447071625733"><ele>8.166666666666666</ele><time>2026-04-08T09:05:09.001Z</time></trkpt><trkpt lat="14.611210228577121" lon="120.99451848563552"><ele>8.0</ele><time>2026-04-08T09:05:12.001Z</time></trkpt><trkpt lat="14.61127513838799" lon="120.99458540264611"><ele>7.499999999999999</ele><time>2026-04-08T09:05:15.001Z</time></trkpt><trkpt lat="14.611332237900463" lon="120.99464064457486"><ele>7.0</ele><time>2026-04-08T09:05:17Z</time></trkpt><trkpt lat="14.611394889758754" lon="120.9947091052944"><ele>6.5</ele><time>2026-04-08T09:05:19Z</time></trkpt><trkpt lat="14.61147104498905" lon="120.99478408192365"><ele>6.0</ele><time>2026-04-08T09:05:21Z</time></trkpt><trkpt lat="14.611513345585278" lon="120.99483322545258"><ele>5.5</ele><time>2026-04-08T09:05:22Z</time></trkpt><trkpt lat="14.611556262633469" lon="120.99488651631273"><ele>5.0</ele><time>2026-04-08T09:05:23Z</time></trkpt><trkpt lat="14.611609581884844" lon="120.99494857853735"><ele>5.0</ele><time>2026-04-08T09:05:24Z</time></trkpt><trkpt lat="14.611655701674943" lon="120.9950011242455"><ele>5.0</ele><time>2026-04-08T09:05:25Z</time></trkpt><trkpt lat="14.61169712838085" lon="120.99505305088653"><ele>5.0</ele><time>2026-04-08T09:05:26Z</time></trkpt><trkpt lat="14.611783084398807" lon="120.99515011584958"><ele>5.0</ele><time>2026-04-08T09:05:28Z</time></trkpt><trkpt lat="14.611836576860027" lon="120.9952070757347"><ele>5.0</ele><time>2026-04-08T09:05:29Z</time></trkpt><trkpt lat="14.611889696402592" lon="120.99526744660116"><ele>5.0</ele><time>2026-04-08T09:05:30Z</time></trkpt><trkpt lat="14.611947552204716" lon="120.99533213725037"><ele>5.6</ele><time>2026-04-08T09:05:31Z</time></trkpt><trkpt lat="14.612008975688001" lon="120.9953989303454"><ele>6.2</ele><time>2026-04-08T09:05:32Z</time></trkpt><trkpt lat="14.61207844443105" lon="120.99547814431226"><ele>6.800000000000001</ele><time>2026-04-08T09:05:33Z</time></trkpt><trkpt lat="14.612155244989903" lon="120.99556531661923"><ele>7.4</ele><time>2026-04-08T09:05:34Z</time></trkpt><trkpt lat="14.612238070191463" lon="120.99566193465083"><ele>8.0</ele><time>2026-04-08T09:05:35Z</time></trkpt><trkpt lat="14.612323505232485" lon="120.99576503340224"><ele>7.5</ele><time>2026-04-08T09:05:36Z</time></trkpt><trkpt lat="14.612409013345923" lon="120.99586269596554"><ele>7.0</ele><time>2026-04-08T09:05:37Z</time></trkpt><trkpt lat="14.612486540221996" lon="120.99594974204332"><ele>6.5</ele><time>2026-04-08T09:05:38Z</time></trkpt><trkpt lat="14.612560636783568" lon="120.99602998089897"><ele>6.0</ele><time>2026-04-08T09:05:39Z</time></trkpt><trkpt lat="14.612631301907658" lon="120.99610475872451"><ele>6.0</ele><time>2026-04-08T09:05:40Z</time></trkpt><trkpt lat="14.61269405054694" lon="120.99617922025439"><ele>6.0</ele><time>2026-04-08T09:05:41Z</time></trkpt><trkpt lat="14.612752700196198" lon="120.99624555260014"><ele>6.0</ele><time>2026-04-08T09:05:42Z</time></trkpt><trkpt lat="14.61281832963135" lon="120.99631163440255"><ele>6.0</ele><time>2026-04-08T09:05:43Z</time></trkpt><trkpt lat="14.612869941839513" lon="120.99636824364926"><ele>6.0</ele><time>2026-04-08T09:05:44Z</time></trkpt><trkpt lat="14.612951068480601" lon="120.9964513888956"><ele>6.0</ele><time>2026-04-08T09:05:46Z</time></trkpt><trkpt lat="14.613014786026165" lon="120.99651453230322"><ele>6.0</ele><time>2026-04-08T09:05:47Z</time></trkpt><trkpt lat="14.61305959487791" lon="120.99656211825345"><ele>6.0</ele><time>2026-04-08T09:05:48Z</time></trkpt><trkpt lat="14.61312879063852" lon="120.99664470364179"><ele>6.0</ele><time>2026-04-08T09:05:50Z</time></trkpt><trkpt lat="14.61320451330635" lon="120.99671163738515"><ele>6.0</ele><time>2026-04-08T09:05:52Z</time></trkpt><trkpt lat="14.613263901640376" lon="120.99677674243384"><ele>6.0</ele><time>2026-04-08T09:05:55Z</time></trkpt><trkpt lat="14.613308742572059" lon="120.99682487197485"><ele>6.333333333333333</ele><time>2026-04-08T09:05:59Z</time></trkpt><trkpt lat="14.613362875702132" lon="120.99689475502444"><ele>6.666666666666666</ele><time>2026-04-08T09:06:31.001Z</time></trkpt><trkpt lat="14.613406993061934" lon="120.99694225377597"><ele>7.0</ele><time>2026-04-08T09:06:32.001Z</time></trkpt><trkpt lat="14.613489563595001" lon="120.99701565358535"><ele>7.333333333333333</ele><time>2026-04-08T09:06:34.001Z</time></trkpt><trkpt lat="14.613534011501795" lon="120.99706570172744"><ele>7.666666666666666</ele><time>2026-04-08T09:06:35.001Z</time></trkpt><trkpt lat="14.613581054614109" lon="120.99711720987125"><ele>8.0</ele><time>2026-04-08T09:06:36.001Z</time></trkpt><trkpt lat="14.613635446813998" lon="120.99717258836154"><ele>7.999999999999999</ele><time>2026-04-08T09:06:37.001Z</time></trkpt><trkpt lat="14.613688107657905" lon="120.99722827363992"><ele>8.0</ele><time>2026-04-08T09:06:38.001Z</time></trkpt><trkpt lat="14.613743504744482" lon="120.99728830691899"><ele>8.0</ele><time>2026-04-08T09:06:39.001Z</time></trkpt><trkpt lat="14.613802322053186" lon="120.99735083877098"><ele>8.0</ele><time>2026-04-08T09:06:40.001Z</time></trkpt><trkpt lat="14.613862468968641" lon="120.99741550299143"><ele>7.999999999999999</ele><time>2026-04-08T09:06:41.001Z</time></trkpt><trkpt lat="14.613929390987288" lon="120.9974840383452"><ele>8.0</ele><time>2026-04-08T09:06:42.001Z</time></trkpt><trkpt lat="14.613995924362797" lon="120.99756083656064"><ele>8.0</ele><time>2026-04-08T09:06:43.001Z</time></trkpt><trkpt lat="14.614064472916944" lon="120.99763779227726"><ele>8.0</ele><time>2026-04-08T09:06:44.001Z</time></trkpt><trkpt lat="14.614135878062964" lon="120.99771232683074"><ele>8.0</ele><time>2026-04-08T09:06:45.001Z</time></trkpt><trkpt lat="14.614204796008083" lon="120.997783503317"><ele>8.0</ele><time>2026-04-08T09:06:46.001Z</time></trkpt><trkpt lat="14.614252543803905" lon="120.99786860713053"><ele>8.0</ele><time>2026-04-08T09:06:47.001Z</time></trkpt><trkpt lat="14.614329924782592" lon="120.99793942648134"><ele>8.0</ele><time>2026-04-08T09:06:48.001Z</time></trkpt><trkpt lat="14.614401381695744" lon="120.99801115593094"><ele>8.0</ele><time>2026-04-08T09:06:49.001Z</time></trkpt><trkpt lat="14.61447302136531" lon="120.99808896294627"><ele>8.0</ele><time>2026-04-08T09:06:50.001Z</time></trkpt><trkpt lat="14.614547691030003" lon="120.99816440819698"><ele>8.0</ele><time>2026-04-08T09:06:51.001Z</time></trkpt><trkpt lat="14.614621675156583" lon="120.998247609933"><ele>8.0</ele><time>2026-04-08T09:06:52.001Z</time></trkpt><trkpt lat="14.614699407428933" lon="120.99833285324138"><ele>8.0</ele><time>2026-04-08T09:06:53.001Z</time></trkpt><trkpt lat="14.614779437379445" lon="120.99841887227355"><ele>8.0</ele><time>2026-04-08T09:06:54.001Z</time></trkpt><trkpt lat="14.614860028588934" lon="120.99851158793378"><ele>8.0</ele><time>2026-04-08T09:06:55.001Z</time></trkpt><trkpt lat="14.614941313362499" lon="120.99859879695276"><ele>8.0</ele><time>2026-04-08T09:06:56.001Z</time></trkpt><trkpt lat="14.61501138528558" lon="120.99867649221432"><ele>8.0</ele><time>2026-04-08T09:06:57.001Z</time></trkpt><trkpt lat="14.615092062833774" lon="120.99876259240693"><ele>8.0</ele><time>2026-04-08T09:06:58.001Z</time></trkpt><trkpt lat="14.615159247893294" lon="120.9988604349243"><ele>8.0</ele><time>2026-04-08T09:06:59.001Z</time></trkpt><trkpt lat="14.615245523505092" lon="120.9989326823874"><ele>8.0</ele><time>2026-04-08T09:07:00.001Z</time></trkpt><trkpt lat="14.615320354361542" lon="120.99901702161822"><ele>7.75</ele><time>2026-04-08T09:07:01.001Z</time></trkpt><trkpt lat="14.61539639873348" lon="120.99910471237631"><ele>7.5</ele><time>2026-04-08T09:07:02.001Z</time></trkpt><trkpt lat="14.615474626704794" lon="120.99919206812551"><ele>7.25</ele><time>2026-04-08T09:07:03.001Z</time></trkpt><trkpt lat="14.615553357893692" lon="120.99927781714554"><ele>7.0</ele><time>2026-04-08T09:07:04.001Z</time></trkpt><trkpt lat="14.615644678801779" lon="120.99937394056805"><ele>8.25</ele><time>2026-04-08T09:07:05.001Z</time></trkpt><trkpt lat="14.615731863872773" lon="120.99946407893958"><ele>9.5</ele><time>2026-04-08T09:07:06.001Z</time></trkpt><trkpt lat="14.615822762613469" lon="120.99957213771236"><ele>10.75</ele><time>2026-04-08T09:07:07.001Z</time></trkpt><trkpt lat="14.615912442684953" lon="120.99967688878745"><ele>12.0</ele><time>2026-04-08T09:07:08.001Z</time></trkpt><trkpt lat="14.616006790233396" lon="120.99978709244573"><ele>12.0</ele><time>2026-04-08T09:07:09.001Z</time></trkpt><trkpt lat="14.616096153428675" lon="120.99988825475556"><ele>12.0</ele><time>2026-04-08T09:07:10.001Z</time></trkpt><trkpt lat="14.616181288296914" lon="120.99998635187637"><ele>12.0</ele><time>2026-04-08T09:07:11.001Z</time></trkpt><trkpt lat="14.61627309907449" lon="121.0000815632451"><ele>12.0</ele><time>2026-04-08T09:07:12.001Z</time></trkpt><trkpt lat="14.616359610171953" lon="121.00018315428025"><ele>14.5</ele><time>2026-04-08T09:07:13.001Z</time></trkpt><trkpt lat="14.616451765561798" lon="121.0002737085293"><ele>17.0</ele><time>2026-04-08T09:07:14.001Z</time></trkpt><trkpt lat="14.61654421824864" lon="121.00037428642554"><ele>19.5</ele><time>2026-04-08T09:07:15.001Z</time></trkpt><trkpt lat="14.61663286178908" lon="121.00047525253245"><ele>22.0</ele><time>2026-04-08T09:07:16.001Z</time></trkpt><trkpt lat="14.616711885377413" lon="121.00056550704596"><ele>22.0</ele><time>2026-04-08T09:07:17.001Z</time></trkpt><trkpt lat="14.616780938646544" lon="121.00065246220613"><ele>22.0</ele><time>2026-04-08T09:07:18.001Z</time></trkpt><trkpt lat="14.616843850209419" lon="121.00072868480076"><ele>22.0</ele><time>2026-04-08T09:07:19.001Z</time></trkpt><trkpt lat="14.61690322507185" lon="121.00079148900036"><ele>22.0</ele><time>2026-04-08T09:07:20.001Z</time></trkpt><trkpt lat="14.616952936947753" lon="121.00085042380016"><ele>22.0</ele><time>2026-04-08T09:07:21.001Z</time></trkpt><trkpt lat="14.61701708835917" lon="121.00093520314898"><ele>21.5</ele><time>2026-04-08T09:07:23Z</time></trkpt><trkpt lat="14.617082277577314" lon="121.00100609760632"><ele>21.0</ele><time>2026-04-08T09:07:26Z</time></trkpt><trkpt lat="14.617129947455332" lon="121.00105577162184"><ele>20.5</ele><time>2026-04-08T09:07:28Z</time></trkpt><trkpt lat="14.617171597881432" lon="121.00110909766418"><ele>20.0</ele><time>2026-04-08T09:07:34Z</time></trkpt><trkpt lat="14.61720156132403" lon="121.00117913300363"><ele>19.5</ele><time>2026-04-08T09:07:37Z</time></trkpt><trkpt lat="14.617270290922987" lon="121.00125297531072"><ele>19.0</ele><time>2026-04-08T09:07:39Z</time></trkpt><trkpt lat="14.617318271421984" lon="121.00131570027258"><ele>19.0</ele><time>2026-04-08T09:07:41Z</time></trkpt><trkpt lat="14.617357043051273" lon="121.00137882884923"><ele>19.0</ele><time>2026-04-08T09:07:43Z</time></trkpt><trkpt lat="14.61739816347048" lon="121.00143428955134"><ele>19.0</ele><time>2026-04-08T09:07:46Z</time></trkpt><trkpt lat="14.617423009448885" lon="121.00149893967999"><ele>19.0</ele><time>2026-04-08T09:07:51Z</time></trkpt><trkpt lat="14.617480578470333" lon="121.00158193559929"><ele>19.0</ele><time>2026-04-08T09:07:53Z</time></trkpt><trkpt lat="14.617523679475038" lon="121.00165498820957"><ele>19.0</ele><time>2026-04-08T09:07:55Z</time></trkpt><trkpt lat="14.617570014842059" lon="121.00175078915386"><ele>18.599999999999998</ele><time>2026-04-08T09:07:57Z</time></trkpt><trkpt lat="14.61764232997326" lon="121.00183494700207"><ele>18.2</ele><time>2026-04-08T09:07:59Z</time></trkpt><trkpt lat="14.61770033792347" lon="121.0018755835897"><ele>17.799999999999997</ele><time>2026-04-08T09:08:00Z</time></trkpt><trkpt lat="14.61780513821499" lon="121.00192309499808"><ele>17.4</ele><time>2026-04-08T09:08:02Z</time></trkpt><trkpt lat="14.617878701876599" lon="121.00195348293788"><ele>17.0</ele><time>2026-04-08T09:08:04Z</time></trkpt><trkpt lat="14.617943646594785" lon="121.00200589174402"><ele>17.0</ele><time>2026-04-08T09:08:06Z</time></trkpt><trkpt lat="14.618027142938734" lon="121.00210651838401"><ele>17.0</ele><time>2026-04-08T09:08:08Z</time></trkpt><trkpt lat="14.61807721382543" lon="121.00217711400684"><ele>17.0</ele><time>2026-04-08T09:08:09Z</time></trkpt><trkpt lat="14.618137585437099" lon="121.00225804051709"><ele>17.0</ele><time>2026-04-08T09:08:10Z</time></trkpt><trkpt lat="14.618199630900794" lon="121.00232678605367"><ele>17.0</ele><time>2026-04-08T09:08:11Z</time></trkpt><trkpt lat="14.618279766388808" lon="121.00241018206408"><ele>17.0</ele><time>2026-04-08T09:08:12Z</time></trkpt><trkpt lat="14.61836412546917" lon="121.00249709686382"><ele>17.0</ele><time>2026-04-08T09:08:13Z</time></trkpt><trkpt lat="14.618447883108402" lon="121.00258205165522"><ele>17.0</ele><time>2026-04-08T09:08:14Z</time></trkpt><trkpt lat="14.618529286647746" lon="121.0026740678064"><ele>17.0</ele><time>2026-04-08T09:08:15Z</time></trkpt><trkpt lat="14.618609323557669" lon="121.00275762974961"><ele>16.8</ele><time>2026-04-08T09:08:16Z</time></trkpt><trkpt lat="14.61868254958396" lon="121.00283524542034"><ele>16.6</ele><time>2026-04-08T09:08:17Z</time></trkpt><trkpt lat="14.618743069013206" lon="121.00289793088638"><ele>16.400000000000002</ele><time>2026-04-08T09:08:18Z</time></trkpt><trkpt lat="14.618797065432965" lon="121.00295114451035"><ele>16.2</ele><time>2026-04-08T09:08:19Z</time></trkpt><trkpt lat="14.618845571819131" lon="121.00299941389235"><ele>16.0</ele><time>2026-04-08T09:08:20Z</time></trkpt><trkpt lat="14.618922752622437" lon="121.00309168311769"><ele>15.999999999999998</ele><time>2026-04-08T09:08:22Z</time></trkpt><trkpt lat="14.618966754844159" lon="121.00313841589454"><ele>16.0</ele><time>2026-04-08T09:08:23Z</time></trkpt><trkpt lat="14.61901176355987" lon="121.00319473212538"><ele>16.0</ele><time>2026-04-08T09:08:24Z</time></trkpt><trkpt lat="14.619067420620352" lon="121.00325746074088"><ele>16.0</ele><time>2026-04-08T09:08:25Z</time></trkpt><trkpt lat="14.619123789712239" lon="121.00332003350557"><ele>15.999999999999998</ele><time>2026-04-08T09:08:26Z</time></trkpt><trkpt lat="14.61918105274185" lon="121.00338708858388"><ele>16.0</ele><time>2026-04-08T09:08:27Z</time></trkpt><trkpt lat="14.619240024642723" lon="121.00345891762274"><ele>16.400000000000002</ele><time>2026-04-08T09:08:28Z</time></trkpt><trkpt lat="14.61929945141033" lon="121.00353170390687"><ele>16.8</ele><time>2026-04-08T09:08:29Z</time></trkpt><trkpt lat="14.619357882217404" lon="121.00359885194608"><ele>17.200000000000003</ele><time>2026-04-08T09:08:30Z</time></trkpt><trkpt lat="14.619418032491978" lon="121.00366199816837"><ele>17.6</ele><time>2026-04-08T09:08:31Z</time></trkpt><trkpt lat="14.619476448622253" lon="121.0037148004713"><ele>18.0</ele><time>2026-04-08T09:08:32Z</time></trkpt><trkpt lat="14.619559249068763" lon="121.00378840655735"><ele>18.000000000000004</ele><time>2026-04-08T09:08:34Z</time></trkpt><trkpt lat="14.619616547121216" lon="121.00384540917901"><ele>18.0</ele><time>2026-04-08T09:08:36Z</time></trkpt><trkpt lat="14.619669619488942" lon="121.00388535685943"><ele>18.0</ele><time>2026-04-08T09:08:39.001Z</time></trkpt><trkpt lat="14.619708878822324" lon="121.00395864398371"><ele>18.0</ele><time>2026-04-08T09:08:46.001Z</time></trkpt><trkpt lat="14.619752996221196" lon="121.00402006996055"><ele>18.0</ele><time>2026-04-08T09:08:49.001Z</time></trkpt><trkpt lat="14.619801307599326" lon="121.00407954498263"><ele>18.000000000000004</ele><time>2026-04-08T09:08:57.001Z</time></trkpt><trkpt lat="14.61986324962236" lon="121.00411130604391"><ele>18.0</ele><time>2026-04-08T09:09:04.001Z</time></trkpt><trkpt lat="14.61991868918226" lon="121.00417968492191"><ele>17.166666666666668</ele><time>2026-04-08T09:09:34Z</time></trkpt><trkpt lat="14.61998828786222" lon="121.00425637122893"><ele>16.333333333333332</ele><time>2026-04-08T09:09:36Z</time></trkpt><trkpt lat="14.620025283039276" lon="121.0043117210932"><ele>15.5</ele><time>2026-04-08T09:09:37Z</time></trkpt><trkpt lat="14.620078370949448" lon="121.00437302557017"><ele>14.666666666666666</ele><time>2026-04-08T09:09:38Z</time></trkpt><trkpt lat="14.62013443811106" lon="121.00444125312829"><ele>13.833333333333332</ele><time>2026-04-08T09:09:39Z</time></trkpt><trkpt lat="14.620197752767861" lon="121.00451036755815"><ele>13.0</ele><time>2026-04-08T09:09:40Z</time></trkpt><trkpt lat="14.620266694189803" lon="121.0045855941839"><ele>13.2</ele><time>2026-04-08T09:09:41Z</time></trkpt><trkpt lat="14.620338791163764" lon="121.0046613955857"><ele>13.4</ele><time>2026-04-08T09:09:42Z</time></trkpt><trkpt lat="14.620422180487857" lon="121.00474839960106"><ele>13.599999999999998</ele><time>2026-04-08T09:09:43Z</time></trkpt><trkpt lat="14.620500058061053" lon="121.00483335686837"><ele>13.799999999999999</ele><time>2026-04-08T09:09:44Z</time></trkpt><trkpt lat="14.620577450258454" lon="121.00491515859419"><ele>14.0</ele><time>2026-04-08T09:09:45Z</time></trkpt><trkpt lat="14.620660587820987" lon="121.00500217715434"><ele>15.25</ele><time>2026-04-08T09:09:46Z</time></trkpt><trkpt lat="14.620745687116697" lon="121.0050902889105"><ele>16.5</ele><time>2026-04-08T09:09:47Z</time></trkpt><trkpt lat="14.620831789143223" lon="121.00518073174317"><ele>17.75</ele><time>2026-04-08T09:09:48Z</time></trkpt><trkpt lat="14.620917701738884" lon="121.00527537733088"><ele>19.0</ele><time>2026-04-08T09:09:49Z</time></trkpt><trkpt lat="14.621004600062196" lon="121.00537829870393"><ele>19.0</ele><time>2026-04-08T09:09:50Z</time></trkpt><trkpt lat="14.621095861822251" lon="121.00547298704048"><ele>19.0</ele><time>2026-04-08T09:09:51Z</time></trkpt><trkpt lat="14.621192925095416" lon="121.00557240584914"><ele>19.0</ele><time>2026-04-08T09:09:52Z</time></trkpt><trkpt lat="14.621291942562584" lon="121.00567394834113"><ele>19.0</ele><time>2026-04-08T09:09:53Z</time></trkpt><trkpt lat="14.621388641449721" lon="121.00578362926147"><ele>19.25</ele><time>2026-04-08T09:09:54Z</time></trkpt><trkpt lat="14.621481674622267" lon="121.00588962024054"><ele>19.5</ele><time>2026-04-08T09:09:55Z</time></trkpt><trkpt lat="14.621564518624785" lon="121.00598736954628"><ele>19.75</ele><time>2026-04-08T09:09:56Z</time></trkpt><trkpt lat="14.621641407480748" lon="121.00607082584052"><ele>20.0</ele><time>2026-04-08T09:09:57Z</time></trkpt><trkpt lat="14.62171325017785" lon="121.00614592312073"><ele>20.0</ele><time>2026-04-08T09:09:58Z</time></trkpt><trkpt lat="14.621774783299422" lon="121.00621183947989"><ele>20.0</ele><time>2026-04-08T09:09:59Z</time></trkpt><trkpt lat="14.6218246008917" lon="121.00626361549858"><ele>20.0</ele><time>2026-04-08T09:10:00Z</time></trkpt><trkpt lat="14.621905920715001" lon="121.0063597994708"><ele>20.0</ele><time>2026-04-08T09:10:02Z</time></trkpt><trkpt lat="14.621979186548012" lon="121.00644920817587"><ele>20.0</ele><time>2026-04-08T09:10:04Z</time></trkpt><trkpt lat="14.622043647747123" lon="121.00652702893481"><ele>19.833333333333336</ele><time>2026-04-08T09:10:06Z</time></trkpt><trkpt lat="14.622115083326653" lon="121.00661634793092"><ele>19.666666666666668</ele><time>2026-04-08T09:10:08Z</time></trkpt><trkpt lat="14.62215359787774" lon="121.00667156370349"><ele>19.5</ele><time>2026-04-08T09:10:10Z</time></trkpt><trkpt lat="14.622194322940878" lon="121.00672908214932"><ele>19.333333333333332</ele><time>2026-04-08T09:10:12Z</time></trkpt><trkpt lat="14.622239292473056" lon="121.00678060137764"><ele>19.166666666666664</ele><time>2026-04-08T09:10:14Z</time></trkpt><trkpt lat="14.622294082768057" lon="121.00683750718386"><ele>19.0</ele><time>2026-04-08T09:10:16Z</time></trkpt><trkpt lat="14.622342623632091" lon="121.006884055249"><ele>18.8</ele><time>2026-04-08T09:10:18Z</time></trkpt><trkpt lat="14.622388399973625" lon="121.00693271055702"><ele>18.599999999999998</ele><time>2026-04-08T09:10:20Z</time></trkpt><trkpt lat="14.622439100878319" lon="121.00698255991864"><ele>18.4</ele><time>2026-04-08T09:10:22Z</time></trkpt><trkpt lat="14.622495108668723" lon="121.00705669826904"><ele>18.2</ele><time>2026-04-08T09:10:24Z</time></trkpt><trkpt lat="14.622562670439327" lon="121.00714574679975"><ele>18.0</ele><time>2026-04-08T09:10:26Z</time></trkpt><trkpt lat="14.622642040943028" lon="121.00723599155964"><ele>18.0</ele><time>2026-04-08T09:10:28Z</time></trkpt><trkpt lat="14.622690174251645" lon="121.0072788192726"><ele>18.0</ele><time>2026-04-08T09:10:29Z</time></trkpt><trkpt lat="14.622782144441484" lon="121.00734667990454"><ele>18.0</ele><time>2026-04-08T09:10:31Z</time></trkpt><trkpt lat="14.622842938376687" lon="121.00741035741474"><ele>18.0</ele><time>2026-04-08T09:10:33Z</time></trkpt><trkpt lat="14.622904244782" lon="121.00747119439444"><ele>18.0</ele><time>2026-04-08T09:10:36Z</time></trkpt><trkpt lat="14.62294544951286" lon="121.00752348757884"><ele>18.0</ele><time>2026-04-08T09:10:39Z</time></trkpt><trkpt lat="14.623000963033096" lon="121.0075849250067"><ele>18.142857142857146</ele><time>2026-04-08T09:10:43Z</time></trkpt><trkpt lat="14.62306010449605" lon="121.00764802832217"><ele>18.285714285714285</ele><time>2026-04-08T09:10:46Z</time></trkpt><trkpt lat="14.62310676258715" lon="121.00770007770751"><ele>18.42857142857143</ele><time>2026-04-08T09:10:49Z</time></trkpt><trkpt lat="14.623155630726684" lon="121.0077513636834"><ele>18.571428571428573</ele><time>2026-04-08T09:10:52Z</time></trkpt><trkpt lat="14.623202592738394" lon="121.00779925022796"><ele>18.714285714285715</ele><time>2026-04-08T09:10:54Z</time></trkpt><trkpt lat="14.623251154597078" lon="121.00784620592887"><ele>18.857142857142858</ele><time>2026-04-08T09:10:57Z</time></trkpt><trkpt lat="14.623313002111779" lon="121.00791288989075"><ele>19.0</ele><time>2026-04-08T09:11:06Z</time></trkpt><trkpt lat="14.623365959423694" lon="121.00797029796476"><ele>19.0</ele><time>2026-04-08T09:11:09Z</time></trkpt><trkpt lat="14.62341829470335" lon="121.00802613207367"><ele>19.0</ele><time>2026-04-08T09:11:17Z</time></trkpt><trkpt lat="14.623472638162806" lon="121.00807222298636"><ele>19.0</ele><time>2026-04-08T09:11:20Z</time></trkpt><trkpt lat="14.623535339215188" lon="121.00812933670595"><ele>19.0</ele><time>2026-04-08T09:11:23.001Z</time></trkpt><trkpt lat="14.623591486201418" lon="121.00818459970142"><ele>19.0</ele><time>2026-04-08T09:11:25.001Z</time></trkpt><trkpt lat="14.623652208985447" lon="121.00827752953693"><ele>19.0</ele><time>2026-04-08T09:11:27.001Z</time></trkpt><trkpt lat="14.623720616061963" lon="121.00837607845476"><ele>18.0</ele><time>2026-04-08T09:11:29.001Z</time></trkpt><trkpt lat="14.623775796431236" lon="121.00842286390954"><ele>17.0</ele><time>2026-04-08T09:11:30.001Z</time></trkpt><trkpt lat="14.623823131749791" lon="121.00847359148473"><ele>16.0</ele><time>2026-04-08T09:11:31.001Z</time></trkpt><trkpt lat="14.623875245258981" lon="121.00853135373501"><ele>15.0</ele><time>2026-04-08T09:11:32.001Z</time></trkpt><trkpt lat="14.623927997675576" lon="121.00859515769773"><ele>13.999999999999998</ele><time>2026-04-08T09:11:33.001Z</time></trkpt><trkpt lat="14.62398687270396" lon="121.00866370219336"><ele>13.0</ele><time>2026-04-08T09:11:34.001Z</time></trkpt><trkpt lat="14.624051197041664" lon="121.00873384836025"><ele>12.999999999999998</ele><time>2026-04-08T09:11:35Z</time></trkpt><trkpt lat="14.624113288786154" lon="121.00880497204784"><ele>13.0</ele><time>2026-04-08T09:11:36Z</time></trkpt><trkpt lat="14.624172795860648" lon="121.00887563664406"><ele>13.0</ele><time>2026-04-08T09:11:37Z</time></trkpt><trkpt lat="14.62422577962973" lon="121.00894224834424"><ele>13.0</ele><time>2026-04-08T09:11:38Z</time></trkpt><trkpt lat="14.624268086383681" lon="121.00900196358444"><ele>12.999999999999998</ele><time>2026-04-08T09:11:39Z</time></trkpt><trkpt lat="14.62432277825948" lon="121.00906267448696"><ele>13.0</ele><time>2026-04-08T09:11:40Z</time></trkpt><trkpt lat="14.624380693559988" lon="121.00912386030657"><ele>12.999999999999998</ele><time>2026-04-08T09:11:41Z</time></trkpt><trkpt lat="14.624443708401701" lon="121.00919147048732"><ele>13.0</ele><time>2026-04-08T09:11:42Z</time></trkpt><trkpt lat="14.624501960593992" lon="121.00926152705512"><ele>13.0</ele><time>2026-04-08T09:11:43Z</time></trkpt><trkpt lat="14.6245607602632" lon="121.00932637694197"><ele>13.0</ele><time>2026-04-08T09:11:44Z</time></trkpt><trkpt lat="14.624619402131113" lon="121.00938721692798"><ele>12.999999999999998</ele><time>2026-04-08T09:11:45Z</time></trkpt><trkpt lat="14.624675023103991" lon="121.00944369428673"><ele>13.0</ele><time>2026-04-08T09:11:46Z</time></trkpt><trkpt lat="14.624728012208218" lon="121.00950317495904"><ele>12.999999999999998</ele><time>2026-04-08T09:11:47Z</time></trkpt><trkpt lat="14.624775345196806" lon="121.00955558722212"><ele>13.0</ele><time>2026-04-08T09:11:48Z</time></trkpt><trkpt lat="14.624826593180773" lon="121.00961153124308"><ele>13.0</ele><time>2026-04-08T09:11:49Z</time></trkpt><trkpt lat="14.62487960061785" lon="121.00967045174323"><ele>13.0</ele><time>2026-04-08T09:11:50Z</time></trkpt><trkpt lat="14.624931107290632" lon="121.009728186892"><ele>12.999999999999998</ele><time>2026-04-08T09:11:51Z</time></trkpt><trkpt lat="14.624983893434997" lon="121.00979262125486"><ele>13.0</ele><time>2026-04-08T09:11:52Z</time></trkpt><trkpt lat="14.625038389014193" lon="121.00985267530731"><ele>12.999999999999998</ele><time>2026-04-08T09:11:53Z</time></trkpt><trkpt lat="14.625091074761272" lon="121.00991147985974"><ele>13.0</ele><time>2026-04-08T09:11:54Z</time></trkpt><trkpt lat="14.625143484904267" lon="121.00996721340807"><ele>13.0</ele><time>2026-04-08T09:11:55Z</time></trkpt><trkpt lat="14.625211482217917" lon="121.01001931306173"><ele>13.0</ele><time>2026-04-08T09:11:56Z</time></trkpt><trkpt lat="14.625270390263479" lon="121.0100835791646"><ele>12.999999999999998</ele><time>2026-04-08T09:11:57Z</time></trkpt><trkpt lat="14.625327055439241" lon="121.0101453983978"><ele>13.0</ele><time>2026-04-08T09:11:58Z</time></trkpt><trkpt lat="14.625363483540317" lon="121.01020305553594"><ele>13.4</ele><time>2026-04-08T09:11:59Z</time></trkpt><trkpt lat="14.625443413938632" lon="121.01026952156535"><ele>13.8</ele><time>2026-04-08T09:12:01Z</time></trkpt><trkpt lat="14.625511724900539" lon="121.01032307965369"><ele>14.2</ele><time>2026-04-08T09:12:03Z</time></trkpt><trkpt lat="14.625583055973449" lon="121.01039696595328"><ele>14.6</ele><time>2026-04-08T09:12:05Z</time></trkpt><trkpt lat="14.625654563116182" lon="121.01046330512904"><ele>15.0</ele><time>2026-04-08T09:12:08Z</time></trkpt><trkpt lat="14.625724763212892" lon="121.01055223495248"><ele>15.0</ele><time>2026-04-08T09:12:10Z</time></trkpt><trkpt lat="14.625766046922816" lon="121.01060556141057"><ele>15.0</ele><time>2026-04-08T09:12:11Z</time></trkpt><trkpt lat="14.625816393235917" lon="121.01066468725266"><ele>15.0</ele><time>2026-04-08T09:12:12Z</time></trkpt><trkpt lat="14.625874658890872" lon="121.01073002678052"><ele>15.0</ele><time>2026-04-08T09:12:13Z</time></trkpt><trkpt lat="14.625938276708556" lon="121.01079081947019"><ele>15.0</ele><time>2026-04-08T09:12:14Z</time></trkpt><trkpt lat="14.626004776004711" lon="121.01085721693791"><ele>15.0</ele><time>2026-04-08T09:12:15Z</time></trkpt><trkpt lat="14.626068572441978" lon="121.01092937578066"><ele>15.0</ele><time>2026-04-08T09:12:16Z</time></trkpt><trkpt lat="14.626136625056947" lon="121.01100146201846"><ele>15.0</ele><time>2026-04-08T09:12:17Z</time></trkpt><trkpt lat="14.62620368536009" lon="121.01108166523451"><ele>15.0</ele><time>2026-04-08T09:12:18Z</time></trkpt><trkpt lat="14.626265191971076" lon="121.01115906874121"><ele>15.0</ele><time>2026-04-08T09:12:19Z</time></trkpt><trkpt lat="14.626334197082903" lon="121.01123636467541"><ele>15.0</ele><time>2026-04-08T09:12:20Z</time></trkpt><trkpt lat="14.626405079579172" lon="121.01131811045354"><ele>15.0</ele><time>2026-04-08T09:12:21Z</time></trkpt><trkpt lat="14.626473233888062" lon="121.01140352292492"><ele>15.0</ele><time>2026-04-08T09:12:22Z</time></trkpt><trkpt lat="14.626544877284426" lon="121.01148646454915"><ele>15.0</ele><time>2026-04-08T09:12:23Z</time></trkpt><trkpt lat="14.626617430468917" lon="121.01156344009412"><ele>15.0</ele><time>2026-04-08T09:12:24Z</time></trkpt><trkpt lat="14.626689405058304" lon="121.01164180359984"><ele>15.0</ele><time>2026-04-08T09:12:25Z</time></trkpt><trkpt lat="14.6267608026948" lon="121.0117145873585"><ele>15.5</ele><time>2026-04-08T09:12:26Z</time></trkpt><trkpt lat="14.626819128223035" lon="121.01178359418518"><ele>16.0</ele><time>2026-04-08T09:12:27Z</time></trkpt><trkpt lat="14.626871423717533" lon="121.01184890654386"><ele>16.5</ele><time>2026-04-08T09:12:28Z</time></trkpt><trkpt lat="14.626923556652311" lon="121.01190627898244"><ele>17.0</ele><time>2026-04-08T09:12:29Z</time></trkpt><trkpt lat="14.62697971252237" lon="121.01196596246977"><ele>17.5</ele><time>2026-04-08T09:12:30Z</time></trkpt><trkpt lat="14.627032186276411" lon="121.01202000416862"><ele>18.0</ele><time>2026-04-08T09:12:31Z</time></trkpt><trkpt lat="14.627088722014228" lon="121.0120769052674"><ele>18.4</ele><time>2026-04-08T09:12:32Z</time></trkpt><trkpt lat="14.627149754266874" lon="121.0121393023067"><ele>18.8</ele><time>2026-04-08T09:12:33Z</time></trkpt><trkpt lat="14.627210044100325" lon="121.01221005163355"><ele>19.2</ele><time>2026-04-08T09:12:34Z</time></trkpt><trkpt lat="14.62727569697064" lon="121.01227896170359"><ele>19.6</ele><time>2026-04-08T09:12:35Z</time></trkpt><trkpt lat="14.627336783477825" lon="121.01235580980092"><ele>20.0</ele><time>2026-04-08T09:12:36Z</time></trkpt><trkpt lat="14.627402118736931" lon="121.01242596723456"><ele>19.4</ele><time>2026-04-08T09:12:37Z</time></trkpt><trkpt lat="14.627466277577962" lon="121.01249355239557"><ele>18.8</ele><time>2026-04-08T09:12:38Z</time></trkpt><trkpt lat="14.627530904880333" lon="121.01256610133899"><ele>18.2</ele><time>2026-04-08T09:12:39Z</time></trkpt><trkpt lat="14.627586106191409" lon="121.01263759789586"><ele>17.6</ele><time>2026-04-08T09:12:40Z</time></trkpt><trkpt lat="14.627651256547077" lon="121.01271258345811"><ele>17.0</ele><time>2026-04-08T09:12:41Z</time></trkpt><trkpt lat="14.627716558919252" lon="121.01278274480198"><ele>17.0</ele><time>2026-04-08T09:12:42Z</time></trkpt><trkpt lat="14.6277727504922" lon="121.01284876542488"><ele>17.0</ele><time>2026-04-08T09:12:43Z</time></trkpt><trkpt lat="14.627817982112576" lon="121.012899146006"><ele>17.0</ele><time>2026-04-08T09:12:44Z</time></trkpt><trkpt lat="14.627858114669145" lon="121.01295023858515"><ele>17.0</ele><time>2026-04-08T09:12:45Z</time></trkpt><trkpt lat="14.627895971223493" lon="121.01300679379187"><ele>17.0</ele><time>2026-04-08T09:12:48Z</time></trkpt><trkpt lat="14.627972488537901" lon="121.01309858364823"><ele>17.0</ele><time>2026-04-08T09:12:51Z</time></trkpt><trkpt lat="14.628017072331025" lon="121.01314578311063"><ele>16.4</ele><time>2026-04-08T09:12:52Z</time></trkpt><trkpt lat="14.628082132665616" lon="121.01320996826048"><ele>15.799999999999999</ele><time>2026-04-08T09:12:54Z</time></trkpt><trkpt lat="14.628104350837464" lon="121.01327573651082"><ele>15.2</ele><time>2026-04-08T09:12:56Z</time></trkpt><trkpt lat="14.628130543416795" lon="121.01334892129263"><ele>14.6</ele><time>2026-04-08T09:13:00.001Z</time></trkpt><trkpt lat="14.628013070315042" lon="121.01345746225822"><ele>14.0</ele><time>2026-04-08T09:13:03.001Z</time></trkpt><trkpt lat="14.627926708885761" lon="121.01354425867653"><ele>14.000000000000002</ele><time>2026-04-08T09:13:05.001Z</time></trkpt><trkpt lat="14.62787283925515" lon="121.01360229976359"><ele>14.0</ele><time>2026-04-08T09:13:06.001Z</time></trkpt><trkpt lat="14.627819374011677" lon="121.0136462256288"><ele>14.0</ele><time>2026-04-08T09:13:07.001Z</time></trkpt><trkpt lat="14.627774243524307" lon="121.01370340327463"><ele>14.0</ele><time>2026-04-08T09:13:08.001Z</time></trkpt><trkpt lat="14.627741720306412" lon="121.01376013870718"><ele>14.000000000000002</ele><time>2026-04-08T09:13:09.001Z</time></trkpt><trkpt lat="14.627698976396246" lon="121.01383626541444"><ele>14.0</ele><time>2026-04-08T09:13:11.001Z</time></trkpt><trkpt lat="14.62760370491093" lon="121.01390537922258"><ele>14.333333333333334</ele><time>2026-04-08T09:13:13.001Z</time></trkpt><trkpt lat="14.627542468279179" lon="121.01396076567893"><ele>14.666666666666668</ele><time>2026-04-08T09:13:14.001Z</time></trkpt><trkpt lat="14.627470315425454" lon="121.01402526591276"><ele>15.0</ele><time>2026-04-08T09:13:15.001Z</time></trkpt><trkpt lat="14.627404145648306" lon="121.0140790951446"><ele>15.333333333333332</ele><time>2026-04-08T09:13:16.001Z</time></trkpt><trkpt lat="14.627343226979646" lon="121.01412920855701"><ele>15.666666666666666</ele><time>2026-04-08T09:13:17.001Z</time></trkpt><trkpt lat="14.627275741902194" lon="121.01419549099556"><ele>16.0</ele><time>2026-04-08T09:13:18.001Z</time></trkpt><trkpt lat="14.627190908384964" lon="121.01427098448583"><ele>16.0</ele><time>2026-04-08T09:13:19.001Z</time></trkpt><trkpt lat="14.627118728190228" lon="121.01435675141065"><ele>16.0</ele><time>2026-04-08T09:13:20.001Z</time></trkpt><trkpt lat="14.62704067669913" lon="121.0144333368198"><ele>16.0</ele><time>2026-04-08T09:13:21.001Z</time></trkpt><trkpt lat="14.626963179460171" lon="121.01451855233574"><ele>16.0</ele><time>2026-04-08T09:13:22.001Z</time></trkpt><trkpt lat="14.626893723351879" lon="121.01458474972196"><ele>16.0</ele><time>2026-04-08T09:13:23.001Z</time></trkpt><trkpt lat="14.626821483341798" lon="121.01465443213498"><ele>15.600000000000001</ele><time>2026-04-08T09:13:24.001Z</time></trkpt><trkpt lat="14.62674104312365" lon="121.01472639978012"><ele>15.200000000000001</ele><time>2026-04-08T09:13:25.001Z</time></trkpt><trkpt lat="14.626659578086244" lon="121.01480517521492"><ele>14.799999999999999</ele><time>2026-04-08T09:13:26.001Z</time></trkpt><trkpt lat="14.626586997014327" lon="121.01487217223229"><ele>14.399999999999999</ele><time>2026-04-08T09:13:27.001Z</time></trkpt><trkpt lat="14.626505939937251" lon="121.01492638063081"><ele>14.0</ele><time>2026-04-08T09:13:28.001Z</time></trkpt><trkpt lat="14.626437036814428" lon="121.01498720181237"><ele>14.0</ele><time>2026-04-08T09:13:29.001Z</time></trkpt><trkpt lat="14.626350856178188" lon="121.01504847017459"><ele>13.999999999999998</ele><time>2026-04-08T09:13:30.001Z</time></trkpt><trkpt lat="14.626269430991282" lon="121.01510869431397"><ele>13.999999999999998</ele><time>2026-04-08T09:13:31.001Z</time></trkpt><trkpt lat="14.626189706565958" lon="121.0151831503312"><ele>14.0</ele><time>2026-04-08T09:13:32.001Z</time></trkpt><trkpt lat="14.626108973210286" lon="121.01525473676719"><ele>14.0</ele><time>2026-04-08T09:13:33.001Z</time></trkpt><trkpt lat="14.626002040292065" lon="121.0153120616062"><ele>14.0</ele><time>2026-04-08T09:13:34.001Z</time></trkpt><trkpt lat="14.625878590311762" lon="121.01536731189617"><ele>14.0</ele><time>2026-04-08T09:13:35.001Z</time></trkpt><trkpt lat="14.62575326417729" lon="121.01539972128386"><ele>14.0</ele><time>2026-04-08T09:13:36.001Z</time></trkpt><trkpt lat="14.625629318856529" lon="121.01542857406181"><ele>14.0</ele><time>2026-04-08T09:13:37.001Z</time></trkpt><trkpt lat="14.625501540593046" lon="121.01545585692791"><ele>14.0</ele><time>2026-04-08T09:13:38.001Z</time></trkpt><trkpt lat="14.625375620338525" lon="121.01547492841395"><ele>14.0</ele><time>2026-04-08T09:13:39.001Z</time></trkpt><trkpt lat="14.62524301024254" lon="121.01548753687692"><ele>14.0</ele><time>2026-04-08T09:13:40.001Z</time></trkpt><trkpt lat="14.625101224246796" lon="121.01548659896798"><ele>14.0</ele><time>2026-04-08T09:13:41Z</time></trkpt><trkpt lat="14.624962579878515" lon="121.01549094814438"><ele>13.75</ele><time>2026-04-08T09:13:42Z</time></trkpt><trkpt lat="14.624813833753755" lon="121.0154571149719"><ele>13.5</ele><time>2026-04-08T09:13:43Z</time></trkpt><trkpt lat="14.624666724444896" lon="121.01545301472555"><ele>13.25</ele><time>2026-04-08T09:13:44Z</time></trkpt><trkpt lat="14.624535393009781" lon="121.01543639762964"><ele>13.0</ele><time>2026-04-08T09:13:45Z</time></trkpt><trkpt lat="14.624368883883372" lon="121.01543407227209"><ele>12.600000000000001</ele><time>2026-04-08T09:13:46Z</time></trkpt><trkpt lat="14.624306324128044" lon="121.015425529185"><ele>12.200000000000001</ele><time>2026-04-08T09:13:47Z</time></trkpt><trkpt lat="14.624188579973362" lon="121.01540508393458"><ele>11.8</ele><time>2026-04-08T09:13:49Z</time></trkpt><trkpt lat="14.624083736330807" lon="121.01536618979186"><ele>11.4</ele><time>2026-04-08T09:13:51Z</time></trkpt><trkpt lat="14.623960977608604" lon="121.01535295270082"><ele>11.0</ele><time>2026-04-08T09:13:52Z</time></trkpt><trkpt lat="14.62384921871976" lon="121.01533837640851"><ele>11.0</ele><time>2026-04-08T09:13:53Z</time></trkpt><trkpt lat="14.623738796169937" lon="121.0153276616328"><ele>11.0</ele><time>2026-04-08T09:13:54Z</time></trkpt><trkpt lat="14.623636958629582" lon="121.01531612559937"><ele>11.0</ele><time>2026-04-08T09:13:55Z</time></trkpt><trkpt lat="14.623526280246416" lon="121.0152941268279"><ele>11.0</ele><time>2026-04-08T09:13:56Z</time></trkpt><trkpt lat="14.623384543140086" lon="121.01527737858738"><ele>10.5</ele><time>2026-04-08T09:13:57Z</time></trkpt><trkpt lat="14.623247962540908" lon="121.01526218203864"><ele>10.0</ele><time>2026-04-08T09:13:58Z</time></trkpt><trkpt lat="14.623111143277871" lon="121.0152513344787"><ele>9.5</ele><time>2026-04-08T09:13:59Z</time></trkpt><trkpt lat="14.622979398604423" lon="121.01523792002149"><ele>9.0</ele><time>2026-04-08T09:14:00Z</time></trkpt><trkpt lat="14.622843898577504" lon="121.01521368542204"><ele>9.5</ele><time>2026-04-08T09:14:01Z</time></trkpt><trkpt lat="14.62270433444923" lon="121.01519397634688"><ele>10.0</ele><time>2026-04-08T09:14:02Z</time></trkpt><trkpt lat="14.622574921373996" lon="121.0151830194474"><ele>10.5</ele><time>2026-04-08T09:14:03Z</time></trkpt><trkpt lat="14.622436811443585" lon="121.01516477098316"><ele>11.0</ele><time>2026-04-08T09:14:04Z</time></trkpt><trkpt lat="14.622301602143313" lon="121.01515261533521"><ele>11.0</ele><time>2026-04-08T09:14:05Z</time></trkpt><trkpt lat="14.622161919692177" lon="121.01513719944751"><ele>11.0</ele><time>2026-04-08T09:14:06Z</time></trkpt><trkpt lat="14.622024909175835" lon="121.01512297287957"><ele>11.0</ele><time>2026-04-08T09:14:07Z</time></trkpt><trkpt lat="14.621886717134988" lon="121.0151106356034"><ele>11.0</ele><time>2026-04-08T09:14:08Z</time></trkpt><trkpt lat="14.621751966208521" lon="121.01509347871479"><ele>10.5</ele><time>2026-04-08T09:14:09Z</time></trkpt><trkpt lat="14.621630877944913" lon="121.01508784941032"><ele>10.0</ele><time>2026-04-08T09:14:10Z</time></trkpt><trkpt lat="14.621491545630656" lon="121.01507475638587"><ele>9.5</ele><time>2026-04-08T09:14:11Z</time></trkpt><trkpt lat="14.621336641807236" lon="121.01505300530125"><ele>9.0</ele><time>2026-04-08T09:14:12Z</time></trkpt><trkpt lat="14.621222744429296" lon="121.0150325194382"><ele>8.8</ele><time>2026-04-08T09:14:13Z</time></trkpt><trkpt lat="14.621130585092857" lon="121.01502188750533"><ele>8.600000000000001</ele><time>2026-04-08T09:14:14Z</time></trkpt><trkpt lat="14.621035586617644" lon="121.015007608926"><ele>8.4</ele><time>2026-04-08T09:14:15Z</time></trkpt><trkpt lat="14.620934753097782" lon="121.01500665519282"><ele>8.200000000000001</ele><time>2026-04-08T09:14:16Z</time></trkpt><trkpt lat="14.620840995675955" lon="121.0149867898416"><ele>8.0</ele><time>2026-04-08T09:14:17Z</time></trkpt><trkpt lat="14.62073156273393" lon="121.01497400854491"><ele>8.200000000000001</ele><time>2026-04-08T09:14:18Z</time></trkpt><trkpt lat="14.620615700022034" lon="121.0149643547897"><ele>8.4</ele><time>2026-04-08T09:14:19Z</time></trkpt><trkpt lat="14.620513585373233" lon="121.01494875297684"><ele>8.600000000000001</ele><time>2026-04-08T09:14:20Z</time></trkpt><trkpt lat="14.620400938797221" lon="121.01493364118079"><ele>8.8</ele><time>2026-04-08T09:14:21Z</time></trkpt><trkpt lat="14.62028782994956" lon="121.01492038740453"><ele>9.0</ele><time>2026-04-08T09:14:22Z</time></trkpt><trkpt lat="14.620177880723991" lon="121.01490730572651"><ele>9.0</ele><time>2026-04-08T09:14:23Z</time></trkpt><trkpt lat="14.620066038504428" lon="121.01488694870919"><ele>9.0</ele><time>2026-04-08T09:14:24Z</time></trkpt><trkpt lat="14.619937078027224" lon="121.0148779672805"><ele>9.0</ele><time>2026-04-08T09:14:25Z</time></trkpt><trkpt lat="14.619810698063608" lon="121.0148623708044"><ele>9.0</ele><time>2026-04-08T09:14:26Z</time></trkpt><trkpt lat="14.61968963559467" lon="121.01484882230444"><ele>9.0</ele><time>2026-04-08T09:14:27Z</time></trkpt><trkpt lat="14.619568690097731" lon="121.014838654243"><ele>9.0</ele><time>2026-04-08T09:14:28Z</time></trkpt><trkpt lat="14.619443417137381" lon="121.01482498508429"><ele>9.0</ele><time>2026-04-08T09:14:29Z</time></trkpt><trkpt lat="14.619325917341783" lon="121.0148184944072"><ele>9.0</ele><time>2026-04-08T09:14:30Z</time></trkpt><trkpt lat="14.619208499230513" lon="121.01482120862858"><ele>9.4</ele><time>2026-04-08T09:14:31Z</time></trkpt><trkpt lat="14.61909272250283" lon="121.0148225614557"><ele>9.8</ele><time>2026-04-08T09:14:32Z</time></trkpt><trkpt lat="14.618977435129425" lon="121.01483283693872"><ele>10.200000000000001</ele><time>2026-04-08T09:14:33Z</time></trkpt><trkpt lat="14.618881875262957" lon="121.01482363242954"><ele>10.600000000000001</ele><time>2026-04-08T09:14:34Z</time></trkpt><trkpt lat="14.618771342423686" lon="121.01482897998541"><ele>11.0</ele><time>2026-04-08T09:14:35Z</time></trkpt><trkpt lat="14.618662577490118" lon="121.01484985064211"><ele>10.75</ele><time>2026-04-08T09:14:36Z</time></trkpt><trkpt lat="14.618561929664295" lon="121.01487656849575"><ele>10.5</ele><time>2026-04-08T09:14:37Z</time></trkpt><trkpt lat="14.618457438985201" lon="121.01488567952417"><ele>10.25</ele><time>2026-04-08T09:14:38Z</time></trkpt><trkpt lat="14.618333789882497" lon="121.01491214156106"><ele>10.0</ele><time>2026-04-08T09:14:39Z</time></trkpt><trkpt lat="14.61822600611374" lon="121.01497762821462"><ele>10.25</ele><time>2026-04-08T09:14:40Z</time></trkpt><trkpt lat="14.618107485469958" lon="121.01500810970522"><ele>10.5</ele><time>2026-04-08T09:14:41Z</time></trkpt><trkpt lat="14.618001483869017" lon="121.01508350682953"><ele>10.75</ele><time>2026-04-08T09:14:42Z</time></trkpt><trkpt lat="14.617869945006221" lon="121.01510328805111"><ele>11.0</ele><time>2026-04-08T09:14:43Z</time></trkpt><trkpt lat="14.617760129763441" lon="121.01515309728688"><ele>11.25</ele><time>2026-04-08T09:14:44Z</time></trkpt><trkpt lat="14.617657973758725" lon="121.0152118902013"><ele>11.5</ele><time>2026-04-08T09:14:45Z</time></trkpt><trkpt lat="14.61757433123354" lon="121.01524679228267"><ele>11.75</ele><time>2026-04-08T09:14:46Z</time></trkpt><trkpt lat="14.617472404149353" lon="121.01530616890783"><ele>12.0</ele><time>2026-04-08T09:14:47Z</time></trkpt><trkpt lat="14.617346047449054" lon="121.01537281386076"><ele>12.0</ele><time>2026-04-08T09:14:48Z</time></trkpt><trkpt lat="14.61724211277306" lon="121.01544785177607"><ele>12.0</ele><time>2026-04-08T09:14:49Z</time></trkpt><trkpt lat="14.61713358265597" lon="121.0155282399047"><ele>12.0</ele><time>2026-04-08T09:14:50Z</time></trkpt><trkpt lat="14.61700173035107" lon="121.01561028734726"><ele>12.0</ele><time>2026-04-08T09:14:51Z</time></trkpt><trkpt lat="14.616907060190623" lon="121.01569906695653"><ele>12.25</ele><time>2026-04-08T09:14:52Z</time></trkpt><trkpt lat="14.616811803498344" lon="121.01577448786699"><ele>12.5</ele><time>2026-04-08T09:14:53Z</time></trkpt><trkpt lat="14.616695186788014" lon="121.01586107963796"><ele>12.75</ele><time>2026-04-08T09:14:54Z</time></trkpt><trkpt lat="14.616590135196827" lon="121.01593957861948"><ele>13.0</ele><time>2026-04-08T09:14:55Z</time></trkpt><trkpt lat="14.616480086610322" lon="121.01601710129196"><ele>13.0</ele><time>2026-04-08T09:14:56Z</time></trkpt><trkpt lat="14.616368993840071" lon="121.01608898051423"><ele>13.0</ele><time>2026-04-08T09:14:57Z</time></trkpt><trkpt lat="14.616258291580168" lon="121.01616289473873"><ele>13.0</ele><time>2026-04-08T09:14:58Z</time></trkpt><trkpt lat="14.61614666292324" lon="121.01622829651421"><ele>13.0</ele><time>2026-04-08T09:14:59Z</time></trkpt><trkpt lat="14.616034629726471" lon="121.01629009766134"><ele>13.0</ele><time>2026-04-08T09:15:00Z</time></trkpt><trkpt lat="14.615928383598042" lon="121.0163510164628"><ele>13.0</ele><time>2026-04-08T09:15:01Z</time></trkpt><trkpt lat="14.615818421225022" lon="121.01640408773444"><ele>13.0</ele><time>2026-04-08T09:15:02Z</time></trkpt><trkpt lat="14.615708668081759" lon="121.01645239997607"><ele>13.0</ele><time>2026-04-08T09:15:03Z</time></trkpt><trkpt lat="14.615589935387648" lon="121.01649627942899"><ele>13.0</ele><time>2026-04-08T09:15:04Z</time></trkpt><trkpt lat="14.615475801607195" lon="121.01653774374822"><ele>13.0</ele><time>2026-04-08T09:15:05Z</time></trkpt><trkpt lat="14.615367511430952" lon="121.01657804128457"><ele>13.0</ele><time>2026-04-08T09:15:06Z</time></trkpt><trkpt lat="14.61525674488351" lon="121.01661781209751"><ele>13.0</ele><time>2026-04-08T09:15:07Z</time></trkpt><trkpt lat="14.615144014609475" lon="121.01664890936672"><ele>12.75</ele><time>2026-04-08T09:15:08Z</time></trkpt><trkpt lat="14.615016683552357" lon="121.01667881853705"><ele>12.5</ele><time>2026-04-08T09:15:09Z</time></trkpt><trkpt lat="14.61489861812943" lon="121.01668481092416"><ele>12.25</ele><time>2026-04-08T09:15:10Z</time></trkpt><trkpt lat="14.614779698462554" lon="121.01669373707243"><ele>12.0</ele><time>2026-04-08T09:15:11Z</time></trkpt><trkpt lat="14.614666603926633" lon="121.01672148406209"><ele>12.0</ele><time>2026-04-08T09:15:12.001Z</time></trkpt><trkpt lat="14.614559875327727" lon="121.01671919105341"><ele>12.0</ele><time>2026-04-08T09:15:13.001Z</time></trkpt><trkpt lat="14.614437219880019" lon="121.01672670871574"><ele>12.0</ele><time>2026-04-08T09:15:14.001Z</time></trkpt><trkpt lat="14.614324187323911" lon="121.01673276944163"><ele>12.0</ele><time>2026-04-08T09:15:15.001Z</time></trkpt><trkpt lat="14.6141941822671" lon="121.01673993342416"><ele>11.4</ele><time>2026-04-08T09:15:16.001Z</time></trkpt><trkpt lat="14.614096104493372" lon="121.01676072005513"><ele>10.799999999999999</ele><time>2026-04-08T09:15:17.001Z</time></trkpt><trkpt lat="14.613997158881194" lon="121.01674137968227"><ele>10.2</ele><time>2026-04-08T09:15:18.001Z</time></trkpt><trkpt lat="14.613893510348895" lon="121.01671746642802"><ele>9.6</ele><time>2026-04-08T09:15:19.001Z</time></trkpt><trkpt lat="14.613797232876953" lon="121.01672212144214"><ele>9.0</ele><time>2026-04-08T09:15:20.001Z</time></trkpt><trkpt lat="14.613701964934775" lon="121.01673113295665"><ele>9.6</ele><time>2026-04-08T09:15:21.001Z</time></trkpt><trkpt lat="14.61359364341505" lon="121.016741684038"><ele>10.2</ele><time>2026-04-08T09:15:22.001Z</time></trkpt><trkpt lat="14.613496003167983" lon="121.01674536328386"><ele>10.799999999999999</ele><time>2026-04-08T09:15:23.001Z</time></trkpt><trkpt lat="14.613407598416101" lon="121.01674527432247"><ele>11.4</ele><time>2026-04-08T09:15:24.001Z</time></trkpt><trkpt lat="14.613300718445178" lon="121.01675511637868"><ele>12.0</ele><time>2026-04-08T09:15:25.001Z</time></trkpt><trkpt lat="14.613205313901245" lon="121.01676202676398"><ele>12.0</ele><time>2026-04-08T09:15:26.001Z</time></trkpt><trkpt lat="14.613103159320573" lon="121.01677700232729"><ele>12.0</ele><time>2026-04-08T09:15:27.001Z</time></trkpt><trkpt lat="14.612991795161445" lon="121.0167874567951"><ele>12.0</ele><time>2026-04-08T09:15:28.001Z</time></trkpt><trkpt lat="14.612869839491156" lon="121.0168137274443"><ele>12.0</ele><time>2026-04-08T09:15:29.001Z</time></trkpt><trkpt lat="14.61274589617888" lon="121.01682242840482"><ele>10.75</ele><time>2026-04-08T09:15:30.001Z</time></trkpt><trkpt lat="14.612619254124306" lon="121.01681519114187"><ele>9.5</ele><time>2026-04-08T09:15:31.001Z</time></trkpt><trkpt lat="14.612447449809432" lon="121.01689610868692"><ele>8.25</ele><time>2026-04-08T09:15:32.001Z</time></trkpt><trkpt lat="14.6123340679423" lon="121.01690589448737"><ele>7.0</ele><time>2026-04-08T09:15:33.001Z</time></trkpt><trkpt lat="14.612187872290196" lon="121.01690888045923"><ele>7.0</ele><time>2026-04-08T09:15:34.001Z</time></trkpt><trkpt lat="14.612062718058" lon="121.01690683614514"><ele>7.0</ele><time>2026-04-08T09:15:35.001Z</time></trkpt><trkpt lat="14.611932226995895" lon="121.01690483617622"><ele>7.0</ele><time>2026-04-08T09:15:36.001Z</time></trkpt><trkpt lat="14.611817157964927" lon="121.01692478775594"><ele>7.0</ele><time>2026-04-08T09:15:37.001Z</time></trkpt><trkpt lat="14.611667178923797" lon="121.016946207718"><ele>7.25</ele><time>2026-04-08T09:15:38.001Z</time></trkpt><trkpt lat="14.611531036432003" lon="121.01695875221158"><ele>7.5</ele><time>2026-04-08T09:15:39.001Z</time></trkpt><trkpt lat="14.611399503479719" lon="121.0169755092365"><ele>7.75</ele><time>2026-04-08T09:15:40.001Z</time></trkpt><trkpt lat="14.611268616588251" lon="121.01698795167168"><ele>8.0</ele><time>2026-04-08T09:15:41.001Z</time></trkpt><trkpt lat="14.61115223901688" lon="121.01698913357356"><ele>8.75</ele><time>2026-04-08T09:15:42.001Z</time></trkpt><trkpt lat="14.611024110706955" lon="121.01699076760144"><ele>9.5</ele><time>2026-04-08T09:15:43.001Z</time></trkpt><trkpt lat="14.610900601740642" lon="121.01699772580528"><ele>10.25</ele><time>2026-04-08T09:15:44.001Z</time></trkpt><trkpt lat="14.610786458641392" lon="121.0170097232499"><ele>11.0</ele><time>2026-04-08T09:15:45.001Z</time></trkpt><trkpt lat="14.61067311207128" lon="121.01702117184753"><ele>11.0</ele><time>2026-04-08T09:15:46.001Z</time></trkpt><trkpt lat="14.610562709032655" lon="121.0170312921919"><ele>11.0</ele><time>2026-04-08T09:15:47Z</time></trkpt><trkpt lat="14.610442087272231" lon="121.01706952619648"><ele>11.0</ele><time>2026-04-08T09:15:48Z</time></trkpt><trkpt lat="14.610342335213575" lon="121.0170760099709"><ele>11.0</ele><time>2026-04-08T09:15:49Z</time></trkpt><trkpt lat="14.610240381284967" lon="121.01710554166534"><ele>11.0</ele><time>2026-04-08T09:15:50Z</time></trkpt><trkpt lat="14.610159375800258" lon="121.01711392186567"><ele>10.5</ele><time>2026-04-08T09:15:51Z</time></trkpt><trkpt lat="14.610075626574922" lon="121.0171181683831"><ele>10.0</ele><time>2026-04-08T09:15:52Z</time></trkpt><trkpt lat="14.609995832174903" lon="121.0171289732888"><ele>9.5</ele><time>2026-04-08T09:15:53Z</time></trkpt><trkpt lat="14.609907310990966" lon="121.0171349572641"><ele>9.0</ele><time>2026-04-08T09:15:54Z</time></trkpt><trkpt lat="14.609813643012851" lon="121.01714981281953"><ele>8.5</ele><time>2026-04-08T09:15:55Z</time></trkpt><trkpt lat="14.609730340974298" lon="121.01715780690131"><ele>8.0</ele><time>2026-04-08T09:15:56Z</time></trkpt><trkpt lat="14.609658744957494" lon="121.01715962938955"><ele>7.999999999999999</ele><time>2026-04-08T09:15:57Z</time></trkpt><trkpt lat="14.60959136046867" lon="121.01715245360154"><ele>8.0</ele><time>2026-04-08T09:15:58Z</time></trkpt><trkpt lat="14.609509605848372" lon="121.01714171521917"><ele>8.0</ele><time>2026-04-08T09:16:00Z</time></trkpt><trkpt lat="14.609427307553984" lon="121.01704381316209"><ele>8.0</ele><time>2026-04-08T09:16:01Z</time></trkpt><trkpt lat="14.609357645112839" lon="121.01704739663248"><ele>7.999999999999999</ele><time>2026-04-08T09:16:02Z</time></trkpt><trkpt lat="14.609286830427726" lon="121.01705103939335"><ele>8.0</ele><time>2026-04-08T09:16:03Z</time></trkpt><trkpt lat="14.609222690097868" lon="121.01705433879887"><ele>7.800000000000001</ele><time>2026-04-08T09:16:04Z</time></trkpt><trkpt lat="14.609101149331115" lon="121.01706058947246"><ele>7.6000000000000005</ele><time>2026-04-08T09:16:06Z</time></trkpt><trkpt lat="14.609041488975818" lon="121.01718812536329"><ele>7.3999999999999995</ele><time>2026-04-08T09:16:07Z</time></trkpt><trkpt lat="14.6089653514686" lon="121.01719444694702"><ele>7.199999999999999</ele><time>2026-04-08T09:16:08Z</time></trkpt><trkpt lat="14.608898642323153" lon="121.01719773626967"><ele>7.0</ele><time>2026-04-08T09:16:09Z</time></trkpt><trkpt lat="14.60878860119847" lon="121.01716049683095"><ele>7.0</ele><time>2026-04-08T09:16:11Z</time></trkpt><trkpt lat="14.608715642842084" lon="121.01716823094944"><ele>6.999999999999999</ele><time>2026-04-08T09:16:12Z</time></trkpt><trkpt lat="14.60864319420664" lon="121.01717107864575"><ele>6.999999999999999</ele><time>2026-04-08T09:16:13Z</time></trkpt><trkpt lat="14.608528727986355" lon="121.01715574471345"><ele>7.0</ele><time>2026-04-08T09:16:15Z</time></trkpt><trkpt lat="14.60842508712318" lon="121.01715094550251"><ele>7.0</ele><time>2026-04-08T09:16:17Z</time></trkpt><trkpt lat="14.608337386440937" lon="121.01714048342245"><ele>7.199999999999999</ele><time>2026-04-08T09:16:19Z</time></trkpt><trkpt lat="14.608218954137385" lon="121.01714508500294"><ele>7.3999999999999995</ele><time>2026-04-08T09:16:21Z</time></trkpt><trkpt lat="14.608153418467953" lon="121.01714337701485"><ele>7.6000000000000005</ele><time>2026-04-08T09:16:22Z</time></trkpt><trkpt lat="14.608047369681037" lon="121.01713942229127"><ele>7.800000000000001</ele><time>2026-04-08T09:16:24Z</time></trkpt><trkpt lat="14.607926807905155" lon="121.01715001680843"><ele>8.0</ele><time>2026-04-08T09:16:26Z</time></trkpt><trkpt lat="14.60785549855669" lon="121.01714883055585"><ele>8.666666666666666</ele><time>2026-04-08T09:16:27Z</time></trkpt><trkpt lat="14.60777859319027" lon="121.01715726185571"><ele>9.333333333333332</ele><time>2026-04-08T09:16:28Z</time></trkpt><trkpt lat="14.607685224715922" lon="121.0171701310195"><ele>10.0</ele><time>2026-04-08T09:16:29Z</time></trkpt><trkpt lat="14.607596034727864" lon="121.01718569373648"><ele>10.666666666666666</ele><time>2026-04-08T09:16:30Z</time></trkpt><trkpt lat="14.607509289829498" lon="121.01721265208785"><ele>11.333333333333334</ele><time>2026-04-08T09:16:31Z</time></trkpt><trkpt lat="14.607420622898568" lon="121.0172408622264"><ele>12.0</ele><time>2026-04-08T09:16:32Z</time></trkpt><trkpt lat="14.607326271651235" lon="121.01727169807863"><ele>12.0</ele><time>2026-04-08T09:16:33Z</time></trkpt><trkpt lat="14.607239322500604" lon="121.01730192781876"><ele>12.0</ele><time>2026-04-08T09:16:34Z</time></trkpt><trkpt lat="14.607160187138932" lon="121.0173318583602"><ele>12.0</ele><time>2026-04-08T09:16:35Z</time></trkpt><trkpt lat="14.607079032937744" lon="121.0173733381026"><ele>12.0</ele><time>2026-04-08T09:16:36Z</time></trkpt><trkpt lat="14.607015726841357" lon="121.01741228079636"><ele>12.0</ele><time>2026-04-08T09:16:37Z</time></trkpt><trkpt lat="14.606948130844225" lon="121.01745761100351"><ele>12.0</ele><time>2026-04-08T09:16:38Z</time></trkpt><trkpt lat="14.60688847548618" lon="121.0174910249126"><ele>12.0</ele><time>2026-04-08T09:16:39Z</time></trkpt><trkpt lat="14.60682768275739" lon="121.0175363989695"><ele>12.0</ele><time>2026-04-08T09:16:40Z</time></trkpt><trkpt lat="14.606761375841998" lon="121.01758038550643"><ele>12.0</ele><time>2026-04-08T09:16:41Z</time></trkpt><trkpt lat="14.606690009992137" lon="121.01763417663886"><ele>12.0</ele><time>2026-04-08T09:16:42Z</time></trkpt><trkpt lat="14.606620176063757" lon="121.01768548953132"><ele>12.0</ele><time>2026-04-08T09:16:43Z</time></trkpt><trkpt lat="14.606560219020519" lon="121.01773396906037"><ele>12.0</ele><time>2026-04-08T09:16:44Z</time></trkpt><trkpt lat="14.606494469324696" lon="121.01778571682952"><ele>12.0</ele><time>2026-04-08T09:16:46Z</time></trkpt><trkpt lat="14.606410899357115" lon="121.01782873544686"><ele>12.0</ele><time>2026-04-08T09:16:52Z</time></trkpt><trkpt lat="14.606360860241216" lon="121.01789030877083"><ele>12.0</ele><time>2026-04-08T09:16:54Z</time></trkpt><trkpt lat="14.606283350156232" lon="121.0179356103794"><ele>12.0</ele><time>2026-04-08T09:16:56Z</time></trkpt><trkpt lat="14.60620505544374" lon="121.01802484507313"><ele>12.0</ele><time>2026-04-08T09:16:58Z</time></trkpt><trkpt lat="14.606148025653923" lon="121.0180921042714"><ele>11.833333333333334</ele><time>2026-04-08T09:17:00Z</time></trkpt><trkpt lat="14.60607433796639" lon="121.01815101278784"><ele>11.666666666666666</ele><time>2026-04-08T09:17:02Z</time></trkpt><trkpt lat="14.606025259454087" lon="121.01820106430493"><ele>11.5</ele><time>2026-04-08T09:17:03Z</time></trkpt><trkpt lat="14.605958652767123" lon="121.01825600747225"><ele>11.333333333333332</ele><time>2026-04-08T09:17:04Z</time></trkpt><trkpt lat="14.6059082169361" lon="121.0183299893303"><ele>11.166666666666666</ele><time>2026-04-08T09:17:05Z</time></trkpt><trkpt lat="14.605853980885382" lon="121.01839566231199"><ele>11.0</ele><time>2026-04-08T09:17:06Z</time></trkpt><trkpt lat="14.60576527698658" lon="121.01848712679698"><ele>11.0</ele><time>2026-04-08T09:17:08Z</time></trkpt><trkpt lat="14.60569009857406" lon="121.01854547377022"><ele>11.0</ele><time>2026-04-08T09:17:10Z</time></trkpt><trkpt lat="14.605634688052774" lon="121.01859803129022"><ele>11.0</ele><time>2026-04-08T09:17:12Z</time></trkpt><trkpt lat="14.605591251339842" lon="121.01864527583672"><ele>11.0</ele><time>2026-04-08T09:17:14Z</time></trkpt><trkpt lat="14.605522460084526" lon="121.01872564877364"><ele>11.0</ele><time>2026-04-08T09:17:16Z</time></trkpt><trkpt lat="14.605433983931663" lon="121.01881477533944"><ele>11.0</ele><time>2026-04-08T09:17:18Z</time></trkpt><trkpt lat="14.605385088834597" lon="121.01887347308855"><ele>11.0</ele><time>2026-04-08T09:17:19.001Z</time></trkpt><trkpt lat="14.605324920876239" lon="121.01893270356273"><ele>11.0</ele><time>2026-04-08T09:17:20.001Z</time></trkpt><trkpt lat="14.605262888346008" lon="121.01899741017266"><ele>11.0</ele><time>2026-04-08T09:17:21.001Z</time></trkpt><trkpt lat="14.605211204979366" lon="121.01905216958981"><ele>11.0</ele><time>2026-04-08T09:17:22.001Z</time></trkpt><trkpt lat="14.605145614192521" lon="121.01911366625676"><ele>11.0</ele><time>2026-04-08T09:17:23.001Z</time></trkpt><trkpt lat="14.605085384109472" lon="121.01916918302629"><ele>10.8</ele><time>2026-04-08T09:17:24.001Z</time></trkpt><trkpt lat="14.605034670675064" lon="121.01922739203255"><ele>10.600000000000001</ele><time>2026-04-08T09:17:25.001Z</time></trkpt><trkpt lat="14.6049696871549" lon="121.01929329535054"><ele>10.4</ele><time>2026-04-08T09:17:26.001Z</time></trkpt><trkpt lat="14.604898542846913" lon="121.01935808369556"><ele>10.2</ele><time>2026-04-08T09:17:27.001Z</time></trkpt><trkpt lat="14.604829200960456" lon="121.01942275903068"><ele>10.0</ele><time>2026-04-08T09:17:28.001Z</time></trkpt><trkpt lat="14.604764155566915" lon="121.01950396983325"><ele>10.0</ele><time>2026-04-08T09:17:29.001Z</time></trkpt><trkpt lat="14.604703025320473" lon="121.01958064422766"><ele>10.0</ele><time>2026-04-08T09:17:30.001Z</time></trkpt><trkpt lat="14.60464631722681" lon="121.01966040749107"><ele>10.0</ele><time>2026-04-08T09:17:31.001Z</time></trkpt><trkpt lat="14.604591038159363" lon="121.01974208075897"><ele>10.0</ele><time>2026-04-08T09:17:32.001Z</time></trkpt><trkpt lat="14.604541562183885" lon="121.01982114933534"><ele>10.0</ele><time>2026-04-08T09:17:33.001Z</time></trkpt><trkpt lat="14.604501407535814" lon="121.01989203984336"><ele>10.166666666666668</ele><time>2026-04-08T09:17:34.001Z</time></trkpt><trkpt lat="14.604463563784241" lon="121.0199461046466"><ele>10.333333333333334</ele><time>2026-04-08T09:17:35.001Z</time></trkpt><trkpt lat="14.604421804876205" lon="121.02001911786257"><ele>10.5</ele><time>2026-04-08T09:17:36.001Z</time></trkpt><trkpt lat="14.604386720817015" lon="121.02009586897759"><ele>10.666666666666666</ele><time>2026-04-08T09:17:37.001Z</time></trkpt><trkpt lat="14.604344358391316" lon="121.02017495500728"><ele>10.833333333333332</ele><time>2026-04-08T09:17:38.001Z</time></trkpt><trkpt lat="14.60429849511584" lon="121.02025723550817"><ele>11.0</ele><time>2026-04-08T09:17:39.001Z</time></trkpt><trkpt lat="14.60424975095998" lon="121.0203466206276"><ele>11.0</ele><time>2026-04-08T09:17:40.001Z</time></trkpt><trkpt lat="14.604197631099096" lon="121.0204349999574"><ele>11.0</ele><time>2026-04-08T09:17:41.001Z</time></trkpt><trkpt lat="14.604150013526908" lon="121.02052585896861"><ele>11.0</ele><time>2026-04-08T09:17:42.001Z</time></trkpt><trkpt lat="14.60410147366858" lon="121.02062298243466"><ele>11.0</ele><time>2026-04-08T09:17:43.001Z</time></trkpt><trkpt lat="14.60405093811855" lon="121.02072358664124"><ele>11.0</ele><time>2026-04-08T09:17:44.001Z</time></trkpt><trkpt lat="14.603993091940229" lon="121.02082780163144"><ele>11.600000000000001</ele><time>2026-04-08T09:17:45.001Z</time></trkpt><trkpt lat="14.60393007060993" lon="121.0209299752481"><ele>12.2</ele><time>2026-04-08T09:17:46.001Z</time></trkpt><trkpt lat="14.603869119401233" lon="121.02102472387288"><ele>12.799999999999999</ele><time>2026-04-08T09:17:47.001Z</time></trkpt><trkpt lat="14.603810775179323" lon="121.02111756628518"><ele>13.399999999999999</ele><time>2026-04-08T09:17:48.001Z</time></trkpt><trkpt lat="14.603759572083307" lon="121.0211961255839"><ele>14.0</ele><time>2026-04-08T09:17:49.001Z</time></trkpt><trkpt lat="14.603709716509762" lon="121.02126950152424"><ele>14.000000000000002</ele><time>2026-04-08T09:17:50.001Z</time></trkpt><trkpt lat="14.603670501692893" lon="121.02132567884291"><ele>14.0</ele><time>2026-04-08T09:17:51.001Z</time></trkpt><trkpt lat="14.603612643309708" lon="121.0214099143562"><ele>14.0</ele><time>2026-04-08T09:17:53Z</time></trkpt><trkpt lat="14.603576196130378" lon="121.02148180331655"><ele>14.0</ele><time>2026-04-08T09:17:56Z</time></trkpt><trkpt lat="14.603547122895419" lon="121.02154689658167"><ele>14.000000000000002</ele><time>2026-04-08T09:18:46Z</time></trkpt><trkpt lat="14.603498405889644" lon="121.02162318403806"><ele>14.0</ele><time>2026-04-08T09:18:51Z</time></trkpt><trkpt lat="14.603596815938477" lon="121.02171981286345"><ele>12.5</ele><time>2026-04-08T09:18:52Z</time></trkpt><trkpt lat="14.603677106882335" lon="121.02179550958239"><ele>11.0</ele><time>2026-04-08T09:18:54Z</time></trkpt><trkpt lat="14.60376542011986" lon="121.02186202422433"><ele>9.5</ele><time>2026-04-08T09:18:56Z</time></trkpt><trkpt lat="14.603867514519257" lon="121.02192963066094"><ele>8.0</ele><time>2026-04-08T09:18:58Z</time></trkpt><trkpt lat="14.603978148938362" lon="121.02199879483261"><ele>8.0</ele><time>2026-04-08T09:19:00Z</time></trkpt><trkpt lat="14.604035755462236" lon="121.02203863439885"><ele>7.999999999999999</ele><time>2026-04-08T09:19:01Z</time></trkpt><trkpt lat="14.604088617656743" lon="121.02207934859473"><ele>8.0</ele><time>2026-04-08T09:19:02Z</time></trkpt><trkpt lat="14.604145978525521" lon="121.02211211990664"><ele>8.0</ele><time>2026-04-08T09:19:03Z</time></trkpt><trkpt lat="14.604207527607235" lon="121.02216094978324"><ele>7.999999999999999</ele><time>2026-04-08T09:19:04Z</time></trkpt><trkpt lat="14.604262047531881" lon="121.02219943231694"><ele>8.0</ele><time>2026-04-08T09:19:05Z</time></trkpt><trkpt lat="14.604318131042945" lon="121.02224474712521"><ele>8.0</ele><time>2026-04-08T09:19:06Z</time></trkpt><trkpt lat="14.604389236420849" lon="121.02229580910586"><ele>7.999999999999999</ele><time>2026-04-08T09:19:07Z</time></trkpt><trkpt lat="14.604452809891336" lon="121.02234240169678"><ele>8.0</ele><time>2026-04-08T09:19:08Z</time></trkpt><trkpt lat="14.604513958437117" lon="121.02238885493178"><ele>8.0</ele><time>2026-04-08T09:19:09Z</time></trkpt><trkpt lat="14.604571338168924" lon="121.02242974151173"><ele>8.0</ele><time>2026-04-08T09:19:10Z</time></trkpt><trkpt lat="14.604627515752627" lon="121.02246165538453"><ele>7.999999999999999</ele><time>2026-04-08T09:19:13Z</time></trkpt><trkpt lat="14.604702892563806" lon="121.02252437128054"><ele>8.0</ele><time>2026-04-08T09:20:08Z</time></trkpt><trkpt lat="14.604762135993905" lon="121.02256768289138"><ele>8.333333333333332</ele><time>2026-04-08T09:20:09Z</time></trkpt><trkpt lat="14.604830325958618" lon="121.02261378926643"><ele>8.666666666666666</ele><time>2026-04-08T09:20:10Z</time></trkpt><trkpt lat="14.604894084620078" lon="121.02265860650074"><ele>9.0</ele><time>2026-04-08T09:20:11Z</time></trkpt><trkpt lat="14.604960134148875" lon="121.02270609337512"><ele>9.333333333333334</ele><time>2026-04-08T09:20:12Z</time></trkpt><trkpt lat="14.605025623529153" lon="121.02275674950981"><ele>9.666666666666668</ele><time>2026-04-08T09:20:13Z</time></trkpt><trkpt lat="14.60511996162376" lon="121.02282499020133"><ele>10.0</ele><time>2026-04-08T09:20:14Z</time></trkpt><trkpt lat="14.605213768787467" lon="121.02288581910732"><ele>10.0</ele><time>2026-04-08T09:20:15Z</time></trkpt><trkpt lat="14.605299831632266" lon="121.02293948496515"><ele>10.0</ele><time>2026-04-08T09:20:16Z</time></trkpt><trkpt lat="14.605383589899192" lon="121.02299219588538"><ele>10.0</ele><time>2026-04-08T09:20:17Z</time></trkpt><trkpt lat="14.60547012000581" lon="121.02305927241618"><ele>10.0</ele><time>2026-04-08T09:20:18Z</time></trkpt><trkpt lat="14.605557335655309" lon="121.02313485748867"><ele>10.0</ele><time>2026-04-08T09:20:19Z</time></trkpt><trkpt lat="14.605640881654777" lon="121.02320799259051"><ele>10.166666666666668</ele><time>2026-04-08T09:20:20Z</time></trkpt><trkpt lat="14.605715957291824" lon="121.02326955082991"><ele>10.333333333333334</ele><time>2026-04-08T09:20:21Z</time></trkpt><trkpt lat="14.605780508416357" lon="121.02332436507513"><ele>10.5</ele><time>2026-04-08T09:20:22Z</time></trkpt><trkpt lat="14.605845341595405" lon="121.02337515157146"><ele>10.666666666666666</ele><time>2026-04-08T09:20:23Z</time></trkpt><trkpt lat="14.605905494458524" lon="121.02342132360789"><ele>10.833333333333332</ele><time>2026-04-08T09:20:24Z</time></trkpt><trkpt lat="14.605966123774884" lon="121.02347064092628"><ele>11.0</ele><time>2026-04-08T09:20:25Z</time></trkpt><trkpt lat="14.606025269494939" lon="121.0235258072818"><ele>11.333333333333332</ele><time>2026-04-08T09:20:26Z</time></trkpt><trkpt lat="14.60607821265467" lon="121.02359347131132"><ele>11.666666666666666</ele><time>2026-04-08T09:20:27Z</time></trkpt><trkpt lat="14.606129081359345" lon="121.02366508497096"><ele>12.0</ele><time>2026-04-08T09:20:28Z</time></trkpt><trkpt lat="14.606176100055933" lon="121.02373505982384"><ele>12.333333333333332</ele><time>2026-04-08T09:20:29Z</time></trkpt><trkpt lat="14.606222655839355" lon="121.02381506474258"><ele>12.666666666666666</ele><time>2026-04-08T09:20:30Z</time></trkpt><trkpt lat="14.606267449879923" lon="121.02389971910617"><ele>13.0</ele><time>2026-04-08T09:20:31Z</time></trkpt><trkpt lat="14.60631093619635" lon="121.02397934572727"><ele>13.166666666666666</ele><time>2026-04-08T09:20:32Z</time></trkpt><trkpt lat="14.60635074311134" lon="121.02405639029804"><ele>13.333333333333332</ele><time>2026-04-08T09:20:33Z</time></trkpt><trkpt lat="14.606387719877334" lon="121.0241263404075"><ele>13.5</ele><time>2026-04-08T09:20:34Z</time></trkpt><trkpt lat="14.606424010522089" lon="121.0241995025991"><ele>13.666666666666668</ele><time>2026-04-08T09:20:35Z</time></trkpt><trkpt lat="14.606454310391937" lon="121.02427494840816"><ele>13.833333333333334</ele><time>2026-04-08T09:20:36Z</time></trkpt><trkpt lat="14.606483683038896" lon="121.02433752702002"><ele>14.0</ele><time>2026-04-08T09:20:37Z</time></trkpt><trkpt lat="14.606520162461855" lon="121.02443074361652"><ele>14.2</ele><time>2026-04-08T09:20:39Z</time></trkpt><trkpt lat="14.606550642605404" lon="121.0245265645794"><ele>14.399999999999999</ele><time>2026-04-08T09:20:41Z</time></trkpt><trkpt lat="14.606586990820137" lon="121.02463865768084"><ele>14.6</ele><time>2026-04-08T09:20:43Z</time></trkpt><trkpt lat="14.606612055401532" lon="121.02474004006218"><ele>14.8</ele><time>2026-04-08T09:20:45Z</time></trkpt><trkpt lat="14.606644926593908" lon="121.02483688862101"><ele>15.0</ele><time>2026-04-08T09:20:47Z</time></trkpt><trkpt lat="14.606680746734062" lon="121.02496643125758"><ele>15.666666666666666</ele><time>2026-04-08T09:20:49Z</time></trkpt><trkpt lat="14.606698982225232" lon="121.02504160740148"><ele>16.333333333333332</ele><time>2026-04-08T09:20:50Z</time></trkpt><trkpt lat="14.606724790712521" lon="121.02512192666165"><ele>17.0</ele><time>2026-04-08T09:20:51Z</time></trkpt><trkpt lat="14.606751296262473" lon="121.02520977146615"><ele>17.666666666666664</ele><time>2026-04-08T09:20:52Z</time></trkpt><trkpt lat="14.606772356167586" lon="121.02530419305499"><ele>18.333333333333332</ele><time>2026-04-08T09:20:53Z</time></trkpt><trkpt lat="14.606799562752858" lon="121.02539732117116"><ele>19.0</ele><time>2026-04-08T09:20:54Z</time></trkpt><trkpt lat="14.606827564141506" lon="121.02549615776722"><ele>19.0</ele><time>2026-04-08T09:20:55Z</time></trkpt><trkpt lat="14.606856701702847" lon="121.02559597009777"><ele>19.0</ele><time>2026-04-08T09:20:56Z</time></trkpt><trkpt lat="14.606884767608134" lon="121.02569238824275"><ele>19.0</ele><time>2026-04-08T09:20:57Z</time></trkpt><trkpt lat="14.60691713065629" lon="121.02578708359677"><ele>19.0</ele><time>2026-04-08T09:20:58Z</time></trkpt><trkpt lat="14.606950512146383" lon="121.02587426934082"><ele>19.0</ele><time>2026-04-08T09:20:59Z</time></trkpt><trkpt lat="14.606986439740046" lon="121.02594710675163"><ele>19.166666666666664</ele><time>2026-04-08T09:21:00Z</time></trkpt><trkpt lat="14.607026388114745" lon="121.02601534027123"><ele>19.333333333333332</ele><time>2026-04-08T09:21:01Z</time></trkpt><trkpt lat="14.607060067876759" lon="121.02607271524101"><ele>19.5</ele><time>2026-04-08T09:21:02Z</time></trkpt><trkpt lat="14.607104568831751" lon="121.02617038934244"><ele>19.666666666666668</ele><time>2026-04-08T09:21:04Z</time></trkpt><trkpt lat="14.607147655594984" lon="121.02625771120698"><ele>19.833333333333336</ele><time>2026-04-08T09:21:06Z</time></trkpt><trkpt lat="14.60718990517397" lon="121.02631625800328"><ele>20.0</ele><time>2026-04-08T09:21:08Z</time></trkpt><trkpt lat="14.607234523748035" lon="121.02636954256248"><ele>20.0</ele><time>2026-04-08T09:21:12Z</time></trkpt><trkpt lat="14.607284360746695" lon="121.02642488222727"><ele>20.0</ele><time>2026-04-08T09:21:14Z</time></trkpt><trkpt lat="14.607354869956458" lon="121.02651416521473"><ele>20.0</ele><time>2026-04-08T09:21:16Z</time></trkpt><trkpt lat="14.607420498216184" lon="121.02659109683466"><ele>20.0</ele><time>2026-04-08T09:21:18Z</time></trkpt><trkpt lat="14.607467614829874" lon="121.02663962413978"><ele>20.0</ele><time>2026-04-08T09:21:20Z</time></trkpt><trkpt lat="14.607525869352354" lon="121.02666567847714"><ele>20.0</ele><time>2026-04-08T09:21:22Z</time></trkpt><trkpt lat="14.607581105606737" lon="121.0267051377723"><ele>20.285714285714285</ele><time>2026-04-08T09:21:24Z</time></trkpt><trkpt lat="14.607620860778058" lon="121.02676243405848"><ele>20.571428571428573</ele><time>2026-04-08T09:21:29Z</time></trkpt><trkpt lat="14.607679352973369" lon="121.02680821880573"><ele>20.857142857142858</ele><time>2026-04-08T09:21:32Z</time></trkpt><trkpt lat="14.607668772808477" lon="121.02688439295781"><ele>21.142857142857142</ele><time>2026-04-08T09:21:34Z</time></trkpt><trkpt lat="14.607624031010651" lon="121.0269333287597"><ele>21.428571428571427</ele><time>2026-04-08T09:21:35Z</time></trkpt><trkpt lat="14.607575918002055" lon="121.02699921440876"><ele>21.714285714285715</ele><time>2026-04-08T09:21:36Z</time></trkpt><trkpt lat="14.607529728241047" lon="121.0270722402359"><ele>22.0</ele><time>2026-04-08T09:21:37Z</time></trkpt><trkpt lat="14.607488246187408" lon="121.02713977893457"><ele>22.0</ele><time>2026-04-08T09:21:38Z</time></trkpt><trkpt lat="14.607437317379327" lon="121.0271982738342"><ele>22.0</ele><time>2026-04-08T09:21:39Z</time></trkpt><trkpt lat="14.607385778653528" lon="121.02726216619186"><ele>22.0</ele><time>2026-04-08T09:21:40Z</time></trkpt><trkpt lat="14.607340689753118" lon="121.02732029221434"><ele>22.0</ele><time>2026-04-08T09:21:41Z</time></trkpt><trkpt lat="14.607276106206006" lon="121.02741947664673"><ele>22.0</ele><time>2026-04-08T09:21:43Z</time></trkpt><trkpt lat="14.607217330995566" lon="121.02749499515126"><ele>22.0</ele><time>2026-04-08T09:21:45Z</time></trkpt><trkpt lat="14.607159490428877" lon="121.02757303615653"><ele>22.0</ele><time>2026-04-08T09:21:48.001Z</time></trkpt><trkpt lat="14.60710522975956" lon="121.02761982084306"><ele>22.0</ele><time>2026-04-08T09:21:50.001Z</time></trkpt><trkpt lat="14.607038523010068" lon="121.02766145249555"><ele>22.0</ele><time>2026-04-08T09:21:52.001Z</time></trkpt><trkpt lat="14.606957289104969" lon="121.0276888016014"><ele>22.0</ele><time>2026-04-08T09:21:54.001Z</time></trkpt><trkpt lat="14.606893701074403" lon="121.027705501893"><ele>22.0</ele><time>2026-04-08T09:21:55.001Z</time></trkpt><trkpt lat="14.60682004987096" lon="121.02772080461354"><ele>22.0</ele><time>2026-04-08T09:21:56.001Z</time></trkpt><trkpt lat="14.606749300654442" lon="121.02774103406206"><ele>22.0</ele><time>2026-04-08T09:21:57.001Z</time></trkpt><trkpt lat="14.60667486346503" lon="121.02774773398548"><ele>22.6</ele><time>2026-04-08T09:21:58.001Z</time></trkpt><trkpt lat="14.606544682652546" lon="121.02776113878302"><ele>23.200000000000003</ele><time>2026-04-08T09:22:00.001Z</time></trkpt><trkpt lat="14.60641703605864" lon="121.02776800398856"><ele>23.8</ele><time>2026-04-08T09:22:02.001Z</time></trkpt><trkpt lat="14.60634001375666" lon="121.02777077647085"><ele>24.4</ele><time>2026-04-08T09:22:03.001Z</time></trkpt><trkpt lat="14.606253346235594" lon="121.02777822876554"><ele>25.0</ele><time>2026-04-08T09:22:04.001Z</time></trkpt><trkpt lat="14.606167056427541" lon="121.02777877307257"><ele>25.000000000000004</ele><time>2026-04-08T09:22:05Z</time></trkpt><trkpt lat="14.606100662350853" lon="121.0277879540575"><ele>25.0</ele><time>2026-04-08T09:22:06Z</time></trkpt><trkpt lat="14.60602810429913" lon="121.02778776716437"><ele>25.0</ele><time>2026-04-08T09:22:07Z</time></trkpt><trkpt lat="14.605960000525485" lon="121.02778999494815"><ele>25.0</ele><time>2026-04-08T09:22:08Z</time></trkpt><trkpt lat="14.605890966972526" lon="121.02780111396788"><ele>25.000000000000004</ele><time>2026-04-08T09:22:09Z</time></trkpt><trkpt lat="14.605824180693922" lon="121.02780378692863"><ele>25.0</ele><time>2026-04-08T09:22:10Z</time></trkpt><trkpt lat="14.605706290522278" lon="121.02782291192862"><ele>25.0</ele><time>2026-04-08T09:22:12Z</time></trkpt><trkpt lat="14.605586686994053" lon="121.02787857413972"><ele>25.0</ele><time>2026-04-08T09:22:14Z</time></trkpt><trkpt lat="14.60552897279047" lon="121.02793000177886"><ele>25.0</ele><time>2026-04-08T09:22:15Z</time></trkpt><trkpt lat="14.605475266361585" lon="121.02797421054173"><ele>25.0</ele><time>2026-04-08T09:22:16Z</time></trkpt><trkpt lat="14.60542216783122" lon="121.0280240038727"><ele>25.0</ele><time>2026-04-08T09:22:17Z</time></trkpt><trkpt lat="14.605324187412341" lon="121.02810207696596"><ele>25.333333333333336</ele><time>2026-04-08T09:22:19Z</time></trkpt><trkpt lat="14.6052737148084" lon="121.02814829462127"><ele>25.666666666666668</ele><time>2026-04-08T09:22:20Z</time></trkpt><trkpt lat="14.605226922516241" lon="121.02820138186031"><ele>26.0</ele><time>2026-04-08T09:22:21Z</time></trkpt><trkpt lat="14.605176756883017" lon="121.0282647151506"><ele>26.333333333333336</ele><time>2026-04-08T09:22:22Z</time></trkpt><trkpt lat="14.605128423213227" lon="121.02833488393226"><ele>26.666666666666668</ele><time>2026-04-08T09:22:23Z</time></trkpt><trkpt lat="14.605089980876505" lon="121.02841083148304"><ele>27.0</ele><time>2026-04-08T09:22:24Z</time></trkpt><trkpt lat="14.605055358587533" lon="121.02847275578942"><ele>27.5</ele><time>2026-04-08T09:22:25Z</time></trkpt><trkpt lat="14.605021615428175" lon="121.02853271149411"><ele>28.0</ele><time>2026-04-08T09:22:26Z</time></trkpt><trkpt lat="14.604987899301245" lon="121.0285894662225"><ele>28.5</ele><time>2026-04-08T09:22:27Z</time></trkpt><trkpt lat="14.604921907583954" lon="121.02868943948768"><ele>29.0</ele><time>2026-04-08T09:22:29Z</time></trkpt><trkpt lat="14.604884534121744" lon="121.02874198606435"><ele>29.5</ele><time>2026-04-08T09:22:30Z</time></trkpt><trkpt lat="14.604824436481925" lon="121.02882829132804"><ele>30.0</ele><time>2026-04-08T09:22:32Z</time></trkpt><trkpt lat="14.604757578300285" lon="121.02890978318656"><ele>30.0</ele><time>2026-04-08T09:22:34Z</time></trkpt><trkpt lat="14.604684035738714" lon="121.02901852698683"><ele>30.0</ele><time>2026-04-08T09:22:36Z</time></trkpt><trkpt lat="14.60464585136522" lon="121.029086665088"><ele>30.0</ele><time>2026-04-08T09:22:37Z</time></trkpt><trkpt lat="14.604605833265778" lon="121.02915252048524"><ele>30.0</ele><time>2026-04-08T09:22:38Z</time></trkpt><trkpt lat="14.604567442248051" lon="121.02922530669261"><ele>30.0</ele><time>2026-04-08T09:22:39Z</time></trkpt><trkpt lat="14.604529554735524" lon="121.02929447616401"><ele>30.0</ele><time>2026-04-08T09:22:40Z</time></trkpt><trkpt lat="14.604493163502704" lon="121.02936387152354"><ele>29.5</ele><time>2026-04-08T09:22:41Z</time></trkpt><trkpt lat="14.60445707163975" lon="121.0294342089402"><ele>29.0</ele><time>2026-04-08T09:22:42Z</time></trkpt><trkpt lat="14.604420286501842" lon="121.02950626252735"><ele>28.5</ele><time>2026-04-08T09:22:43Z</time></trkpt><trkpt lat="14.604383149869808" lon="121.02957128822732"><ele>28.0</ele><time>2026-04-08T09:22:44Z</time></trkpt><trkpt lat="14.604340066444207" lon="121.02964306334407"><ele>27.5</ele><time>2026-04-08T09:22:45Z</time></trkpt><trkpt lat="14.604288501622465" lon="121.02971659646344"><ele>27.0</ele><time>2026-04-08T09:22:46Z</time></trkpt><trkpt lat="14.60422964212085" lon="121.02979466693766"><ele>27.0</ele><time>2026-04-08T09:22:47Z</time></trkpt><trkpt lat="14.604166824515916" lon="121.02987773864092"><ele>27.000000000000004</ele><time>2026-04-08T09:22:48Z</time></trkpt><trkpt lat="14.604103033255667" lon="121.02996336515295"><ele>27.000000000000004</ele><time>2026-04-08T09:22:49Z</time></trkpt><trkpt lat="14.604043071427483" lon="121.03004710851064"><ele>27.0</ele><time>2026-04-08T09:22:50Z</time></trkpt><trkpt lat="14.603989732997547" lon="121.03012293241243"><ele>27.0</ele><time>2026-04-08T09:22:51Z</time></trkpt><trkpt lat="14.60394447405821" lon="121.03018914187881"><ele>26.857142857142858</ele><time>2026-04-08T09:22:52Z</time></trkpt><trkpt lat="14.603905599524348" lon="121.03024554841872"><ele>26.714285714285715</ele><time>2026-04-08T09:22:53Z</time></trkpt><trkpt lat="14.603850368227347" lon="121.0303459322354"><ele>26.57142857142857</ele><time>2026-04-08T09:22:55Z</time></trkpt><trkpt lat="14.603816489433282" lon="121.0304032720278"><ele>26.42857142857143</ele><time>2026-04-08T09:22:56Z</time></trkpt><trkpt lat="14.603777977426692" lon="121.03045989529456"><ele>26.28571428571429</ele><time>2026-04-08T09:22:57Z</time></trkpt><trkpt lat="14.603752900484995" lon="121.03052770382014"><ele>26.142857142857142</ele><time>2026-04-08T09:22:58Z</time></trkpt><trkpt lat="14.603743500332973" lon="121.0305970638734"><ele>26.0</ele><time>2026-04-08T09:22:59Z</time></trkpt><trkpt lat="14.603732369698525" lon="121.03066523755312"><ele>25.999999999999996</ele><time>2026-04-08T09:23:00Z</time></trkpt><trkpt lat="14.60373541220134" lon="121.03073770375792"><ele>26.0</ele><time>2026-04-08T09:23:01Z</time></trkpt><trkpt lat="14.603741447888352" lon="121.03081481755669"><ele>26.0</ele><time>2026-04-08T09:23:02Z</time></trkpt><trkpt lat="14.603762878373841" lon="121.03089675065796"><ele>26.0</ele><time>2026-04-08T09:23:03Z</time></trkpt><trkpt lat="14.603783405496408" lon="121.03098212177424"><ele>25.999999999999996</ele><time>2026-04-08T09:23:04Z</time></trkpt><trkpt lat="14.603807811066968" lon="121.0310777047034"><ele>26.0</ele><time>2026-04-08T09:23:05Z</time></trkpt><trkpt lat="14.60382587472989" lon="121.03117199466855"><ele>26.166666666666664</ele><time>2026-04-08T09:23:06Z</time></trkpt><trkpt lat="14.603847073009446" lon="121.03126473279025"><ele>26.333333333333332</ele><time>2026-04-08T09:23:07Z</time></trkpt><trkpt lat="14.603867738169596" lon="121.03134759426175"><ele>26.5</ele><time>2026-04-08T09:23:08Z</time></trkpt><trkpt lat="14.603884421212705" lon="121.03142346308053"><ele>26.666666666666664</ele><time>2026-04-08T09:23:09Z</time></trkpt><trkpt lat="14.603902287482308" lon="121.03149449202479"><ele>26.833333333333332</ele><time>2026-04-08T09:23:10Z</time></trkpt><trkpt lat="14.603931007011147" lon="121.03159515112444"><ele>27.0</ele><time>2026-04-08T09:23:12Z</time></trkpt><trkpt lat="14.603958616482897" lon="121.0316827659186"><ele>27.166666666666668</ele><time>2026-04-08T09:23:14Z</time></trkpt><trkpt lat="14.603993384962159" lon="121.03178436844716"><ele>27.333333333333336</ele><time>2026-04-08T09:23:16Z</time></trkpt><trkpt lat="14.60402733935551" lon="121.0318748709689"><ele>27.5</ele><time>2026-04-08T09:23:18Z</time></trkpt><trkpt lat="14.604053634721861" lon="121.0319528352485"><ele>27.666666666666668</ele><time>2026-04-08T09:23:20Z</time></trkpt><trkpt lat="14.604077525330098" lon="121.0320238905899"><ele>27.833333333333336</ele><time>2026-04-08T09:23:22Z</time></trkpt><trkpt lat="14.60410126694046" lon="121.03208437812826"><ele>28.0</ele><time>2026-04-08T09:23:24Z</time></trkpt><trkpt lat="14.604137808576544" lon="121.03215370077201"><ele>28.0</ele><time>2026-04-08T09:23:28Z</time></trkpt><trkpt lat="14.60416777372062" lon="121.0322113481557"><ele>28.0</ele><time>2026-04-08T09:23:30Z</time></trkpt><trkpt lat="14.60420361795443" lon="121.03227870223101"><ele>28.0</ele><time>2026-04-08T09:23:32Z</time></trkpt><trkpt lat="14.604233737654855" lon="121.03234209955949"><ele>28.0</ele><time>2026-04-08T09:23:34Z</time></trkpt><trkpt lat="14.604264035987926" lon="121.03240715326572"><ele>28.0</ele><time>2026-04-08T09:23:36Z</time></trkpt><trkpt lat="14.604304259691158" lon="121.03248447503992"><ele>28.0</ele><time>2026-04-08T09:23:39Z</time></trkpt><trkpt lat="14.604339421654482" lon="121.03254860334677"><ele>28.0</ele><time>2026-04-08T09:23:46Z</time></trkpt><trkpt lat="14.604366211890312" lon="121.03260969851848"><ele>28.0</ele><time>2026-04-08T09:23:49Z</time></trkpt><trkpt lat="14.604297771947717" lon="121.03265862621356"><ele>27.999999999999996</ele><time>2026-04-08T09:23:50Z</time></trkpt><trkpt lat="14.604229423124526" lon="121.0327039170735"><ele>27.999999999999996</ele><time>2026-04-08T09:23:52Z</time></trkpt><trkpt lat="14.604133627365304" lon="121.03275642961573"><ele>28.0</ele><time>2026-04-08T09:23:54Z</time></trkpt><trkpt lat="14.604022851778552" lon="121.03282730034483"><ele>28.0</ele><time>2026-04-08T09:23:56Z</time></trkpt><trkpt lat="14.603925228740719" lon="121.03289125634724"><ele>28.000000000000004</ele><time>2026-04-08T09:23:58.001Z</time></trkpt><trkpt lat="14.603864098144332" lon="121.03292444241211"><ele>28.0</ele><time>2026-04-08T09:23:59.001Z</time></trkpt><trkpt lat="14.603799591302746" lon="121.0329561555411"><ele>28.0</ele><time>2026-04-08T09:24:00.001Z</time></trkpt><trkpt lat="14.603735246400474" lon="121.03298966980941"><ele>28.0</ele><time>2026-04-08T09:24:01.001Z</time></trkpt><trkpt lat="14.603677342993869" lon="121.03301797126021"><ele>28.000000000000004</ele><time>2026-04-08T09:24:02.001Z</time></trkpt><trkpt lat="14.6035623687289" lon="121.03307342548233"><ele>28.0</ele><time>2026-04-08T09:24:04.001Z</time></trkpt><trkpt lat="14.603450679756325" lon="121.03313568749219"><ele>27.857142857142858</ele><time>2026-04-08T09:24:06.001Z</time></trkpt><trkpt lat="14.603394317323167" lon="121.03316982833978"><ele>27.714285714285715</ele><time>2026-04-08T09:24:07.001Z</time></trkpt><trkpt lat="14.603331684191392" lon="121.03320339076399"><ele>27.57142857142857</ele><time>2026-04-08T09:24:08.001Z</time></trkpt><trkpt lat="14.603272863424072" lon="121.03323532042833"><ele>27.42857142857143</ele><time>2026-04-08T09:24:09.001Z</time></trkpt><trkpt lat="14.603214192139312" lon="121.03326571946944"><ele>27.285714285714285</ele><time>2026-04-08T09:24:10.001Z</time></trkpt><trkpt lat="14.60315867833076" lon="121.03329861583609"><ele>27.142857142857142</ele><time>2026-04-08T09:24:11Z</time></trkpt><trkpt lat="14.603063944629191" lon="121.03335221002155"><ele>27.0</ele><time>2026-04-08T09:24:13Z</time></trkpt><trkpt lat="14.602975873986958" lon="121.03340457900029"><ele>27.0</ele><time>2026-04-08T09:24:15Z</time></trkpt><trkpt lat="14.602894779619803" lon="121.03345215830403"><ele>27.000000000000004</ele><time>2026-04-08T09:24:17Z</time></trkpt><trkpt lat="14.602804808266729" lon="121.03350423743768"><ele>27.000000000000004</ele><time>2026-04-08T09:24:19Z</time></trkpt><trkpt lat="14.602703161063848" lon="121.03358741834475"><ele>27.0</ele><time>2026-04-08T09:24:21Z</time></trkpt><trkpt lat="14.602655501719605" lon="121.03363257625807"><ele>27.0</ele><time>2026-04-08T09:24:22Z</time></trkpt><trkpt lat="14.602583020773887" lon="121.03368326302595"><ele>26.5</ele><time>2026-04-08T09:24:23Z</time></trkpt><trkpt lat="14.602506000990298" lon="121.03374396013001"><ele>26.0</ele><time>2026-04-08T09:24:24Z</time></trkpt><trkpt lat="14.602442978408654" lon="121.03380193722012"><ele>25.5</ele><time>2026-04-08T09:24:25Z</time></trkpt><trkpt lat="14.602385858553822" lon="121.03385312402058"><ele>25.0</ele><time>2026-04-08T09:24:26Z</time></trkpt><trkpt lat="14.60232965383096" lon="121.03390838510671"><ele>24.5</ele><time>2026-04-08T09:24:27Z</time></trkpt><trkpt lat="14.60229402039795" lon="121.0339622311702"><ele>24.0</ele><time>2026-04-08T09:24:28Z</time></trkpt><trkpt lat="14.602239312511115" lon="121.03402339240924"><ele>24.0</ele><time>2026-04-08T09:24:29Z</time></trkpt><trkpt lat="14.602195986863146" lon="121.03409028145143"><ele>24.0</ele><time>2026-04-08T09:24:30Z</time></trkpt><trkpt lat="14.602164389461954" lon="121.03416477279724"><ele>24.0</ele><time>2026-04-08T09:24:31Z</time></trkpt><trkpt lat="14.602146987471489" lon="121.03424341332796"><ele>24.0</ele><time>2026-04-08T09:24:32Z</time></trkpt><trkpt lat="14.602137727679713" lon="121.03432674751056"><ele>24.0</ele><time>2026-04-08T09:24:33Z</time></trkpt><trkpt lat="14.602147024127238" lon="121.03440590415757"><ele>24.0</ele><time>2026-04-08T09:24:34Z</time></trkpt><trkpt lat="14.602159563100752" lon="121.03448265255187"><ele>24.166666666666668</ele><time>2026-04-08T09:24:35Z</time></trkpt><trkpt lat="14.602182489770515" lon="121.03455992456233"><ele>24.333333333333336</ele><time>2026-04-08T09:24:36Z</time></trkpt><trkpt lat="14.602200438535542" lon="121.034629216677"><ele>24.5</ele><time>2026-04-08T09:24:37Z</time></trkpt><trkpt lat="14.602216388819889" lon="121.03469871555208"><ele>24.666666666666668</ele><time>2026-04-08T09:24:38Z</time></trkpt><trkpt lat="14.60223452015427" lon="121.03477798335412"><ele>24.833333333333336</ele><time>2026-04-08T09:24:39Z</time></trkpt><trkpt lat="14.602252707061972" lon="121.03485813271229"><ele>25.0</ele><time>2026-04-08T09:24:40Z</time></trkpt><trkpt lat="14.602267920524891" lon="121.03493509016906"><ele>25.42857142857143</ele><time>2026-04-08T09:24:41Z</time></trkpt><trkpt lat="14.602283378314096" lon="121.0350091474436"><ele>25.857142857142858</ele><time>2026-04-08T09:24:42Z</time></trkpt><trkpt lat="14.602298391037332" lon="121.03507859434065"><ele>26.285714285714285</ele><time>2026-04-08T09:24:43Z</time></trkpt><trkpt lat="14.60231243643978" lon="121.03514371724158"><ele>26.714285714285715</ele><time>2026-04-08T09:24:44Z</time></trkpt><trkpt lat="14.602314736786102" lon="121.03521313482977"><ele>27.142857142857142</ele><time>2026-04-08T09:24:47Z</time></trkpt><trkpt lat="14.602278765684362" lon="121.0352984999004"><ele>27.571428571428573</ele><time>2026-04-08T09:24:53Z</time></trkpt><trkpt lat="14.602234892952964" lon="121.03534966122045"><ele>28.0</ele><time>2026-04-08T09:24:55Z</time></trkpt><trkpt lat="14.602173956238705" lon="121.03540196270691"><ele>28.000000000000004</ele><time>2026-04-08T09:24:58Z</time></trkpt><trkpt lat="14.60212093686626" lon="121.03543743445955"><ele>28.0</ele><time>2026-04-08T09:25:03Z</time></trkpt><trkpt lat="14.602061487116865" lon="121.03546637270115"><ele>28.0</ele><time>2026-04-08T09:25:05Z</time></trkpt><trkpt lat="14.60198574470728" lon="121.03549081660356"><ele>28.0</ele><time>2026-04-08T09:25:09Z</time></trkpt><trkpt lat="14.601922978132743" lon="121.03550816192838"><ele>28.000000000000004</ele><time>2026-04-08T09:25:13Z</time></trkpt><trkpt lat="14.6018330598391" lon="121.03553295873436"><ele>28.0</ele><time>2026-04-08T09:25:16Z</time></trkpt><trkpt lat="14.601744690271834" lon="121.03556024630203"><ele>28.000000000000004</ele><time>2026-04-08T09:25:18Z</time></trkpt><trkpt lat="14.601662116764688" lon="121.03559297445939"><ele>28.0</ele><time>2026-04-08T09:25:21Z</time></trkpt><trkpt lat="14.601588545700668" lon="121.03561192279054"><ele>28.0</ele><time>2026-04-08T09:25:23Z</time></trkpt><trkpt lat="14.601511027912986" lon="121.03565863477392"><ele>28.0</ele><time>2026-04-08T09:25:25Z</time></trkpt><trkpt lat="14.601400176436007" lon="121.03570380685548"><ele>28.000000000000004</ele><time>2026-04-08T09:25:27Z</time></trkpt><trkpt lat="14.601341174922368" lon="121.03573197181002"><ele>28.0</ele><time>2026-04-08T09:25:28Z</time></trkpt><trkpt lat="14.601239850682818" lon="121.03578664253457"><ele>28.599999999999998</ele><time>2026-04-08T09:25:30Z</time></trkpt><trkpt lat="14.601154135486837" lon="121.03583705730854"><ele>29.199999999999996</ele><time>2026-04-08T09:25:32Z</time></trkpt><trkpt lat="14.601057231050973" lon="121.0358961162702"><ele>29.8</ele><time>2026-04-08T09:25:34Z</time></trkpt><trkpt lat="14.600952646154587" lon="121.03596042529612"><ele>30.4</ele><time>2026-04-08T09:25:36Z</time></trkpt><trkpt lat="14.600889779765131" lon="121.03599452229318"><ele>31.0</ele><time>2026-04-08T09:25:37Z</time></trkpt><trkpt lat="14.600758931058818" lon="121.03606796372947"><ele>31.0</ele><time>2026-04-08T09:25:39Z</time></trkpt><trkpt lat="14.60069720647985" lon="121.03610395912322"><ele>31.000000000000004</ele><time>2026-04-08T09:25:40Z</time></trkpt><trkpt lat="14.600636256625883" lon="121.03613036019696"><ele>31.0</ele><time>2026-04-08T09:25:41Z</time></trkpt><trkpt lat="14.60057583208561" lon="121.03616669738636"><ele>31.0</ele><time>2026-04-08T09:25:42Z</time></trkpt><trkpt lat="14.600516963934158" lon="121.03620194660415"><ele>31.000000000000004</ele><time>2026-04-08T09:25:43Z</time></trkpt><trkpt lat="14.60045532993353" lon="121.03624163721462"><ele>31.0</ele><time>2026-04-08T09:25:44Z</time></trkpt><trkpt lat="14.600387227420475" lon="121.0362788732366"><ele>31.0</ele><time>2026-04-08T09:25:45Z</time></trkpt><trkpt lat="14.600317657370221" lon="121.03631904666958"><ele>29.6</ele><time>2026-04-08T09:25:46Z</time></trkpt><trkpt lat="14.600252845871978" lon="121.03636976179307"><ele>28.200000000000003</ele><time>2026-04-08T09:25:47Z</time></trkpt><trkpt lat="14.60019578812568" lon="121.036401862044"><ele>26.799999999999997</ele><time>2026-04-08T09:25:48Z</time></trkpt><trkpt lat="14.60009544894851" lon="121.03646852716786"><ele>25.4</ele><time>2026-04-08T09:25:50Z</time></trkpt><trkpt lat="14.600001990708028" lon="121.03652774868785"><ele>24.0</ele><time>2026-04-08T09:25:52Z</time></trkpt><trkpt lat="14.599907179438565" lon="121.03659129775703"><ele>24.333333333333332</ele><time>2026-04-08T09:25:54Z</time></trkpt><trkpt lat="14.599823704764514" lon="121.03664552098205"><ele>24.666666666666664</ele><time>2026-04-08T09:25:56Z</time></trkpt><trkpt lat="14.599753751914326" lon="121.0366949373064"><ele>25.0</ele><time>2026-04-08T09:25:58Z</time></trkpt><trkpt lat="14.599684486549664" lon="121.0367410321539"><ele>25.333333333333332</ele><time>2026-04-08T09:26:00Z</time></trkpt><trkpt lat="14.599622916833695" lon="121.03677995855755"><ele>25.666666666666664</ele><time>2026-04-08T09:26:02Z</time></trkpt><trkpt lat="14.599552349127054" lon="121.03682216328788"><ele>26.0</ele><time>2026-04-08T09:26:04Z</time></trkpt><trkpt lat="14.59948880494055" lon="121.03685969570991"><ele>26.4</ele><time>2026-04-08T09:26:07Z</time></trkpt><trkpt lat="14.599420274193212" lon="121.03689909686514"><ele>26.8</ele><time>2026-04-08T09:26:10.001Z</time></trkpt><trkpt lat="14.599360279551272" lon="121.03694655876286"><ele>27.199999999999996</ele><time>2026-04-08T09:26:19Z</time></trkpt><trkpt lat="14.599397174233607" lon="121.03703967146427"><ele>27.599999999999998</ele><time>2026-04-08T09:26:19.999Z</time></trkpt><trkpt lat="14.599435505331616" lon="121.03717647153704"><ele>28.0</ele><time>2026-04-08T09:26:22Z</time></trkpt><trkpt lat="14.599438096994763" lon="121.0372465214765"><ele>28.0</ele><time>2026-04-08T09:26:22.999Z</time></trkpt><trkpt lat="14.599450525455552" lon="121.03737294076913"><ele>27.999999999999996</ele><time>2026-04-08T09:26:25Z</time></trkpt><trkpt lat="14.599463014505883" lon="121.03744540400166"><ele>27.999999999999996</ele><time>2026-04-08T09:26:25.999Z</time></trkpt><trkpt lat="14.59947014471284" lon="121.03752806134746"><ele>28.0</ele><time>2026-04-08T09:26:26.999Z</time></trkpt><trkpt lat="14.599504118841324" lon="121.03764360530708"><ele>28.0</ele><time>2026-04-08T09:26:29Z</time></trkpt><trkpt lat="14.599536801917735" lon="121.0377017487069"><ele>27.666666666666668</ele><time>2026-04-08T09:26:29.999Z</time></trkpt><trkpt lat="14.599587196359087" lon="121.03776145298134"><ele>27.333333333333336</ele><time>2026-04-08T09:26:31Z</time></trkpt><trkpt lat="14.599627376365644" lon="121.03783694256143"><ele>27.0</ele><time>2026-04-08T09:26:33Z</time></trkpt><trkpt lat="14.59953689926478" lon="121.03790073930251"><ele>26.666666666666664</ele><time>2026-04-08T09:26:36Z</time></trkpt><trkpt lat="14.59946431417223" lon="121.0379378153508"><ele>26.333333333333332</ele><time>2026-04-08T09:26:37Z</time></trkpt><trkpt lat="14.599392063810564" lon="121.03796737167232"><ele>26.0</ele><time>2026-04-08T09:26:38Z</time></trkpt><trkpt lat="14.599310303287458" lon="121.03799280105295"><ele>25.71428571428571</ele><time>2026-04-08T09:26:39Z</time></trkpt><trkpt lat="14.59923616275206" lon="121.0380178221612"><ele>25.42857142857143</ele><time>2026-04-08T09:26:40Z</time></trkpt><trkpt lat="14.599166079974896" lon="121.03804281786925"><ele>25.142857142857142</ele><time>2026-04-08T09:26:41Z</time></trkpt><trkpt lat="14.599098872260203" lon="121.03806923096876"><ele>24.857142857142854</ele><time>2026-04-08T09:26:42Z</time></trkpt><trkpt lat="14.599033692995691" lon="121.03809410490892"><ele>24.57142857142857</ele><time>2026-04-08T09:26:43Z</time></trkpt><trkpt lat="14.598966397708342" lon="121.03811815571751"><ele>24.285714285714285</ele><time>2026-04-08T09:26:44Z</time></trkpt><trkpt lat="14.598894037826387" lon="121.03814485115777"><ele>24.0</ele><time>2026-04-08T09:26:45Z</time></trkpt><trkpt lat="14.598828638051804" lon="121.03816917182384"><ele>24.0</ele><time>2026-04-08T09:26:46Z</time></trkpt><trkpt lat="14.598758307189769" lon="121.0381941883032"><ele>24.0</ele><time>2026-04-08T09:26:47Z</time></trkpt><trkpt lat="14.598684159926856" lon="121.03821868443346"><ele>24.0</ele><time>2026-04-08T09:26:48Z</time></trkpt><trkpt lat="14.598611377230075" lon="121.03822572624483"><ele>24.0</ele><time>2026-04-08T09:26:49Z</time></trkpt><trkpt lat="14.598542993947005" lon="121.03824425943813"><ele>24.0</ele><time>2026-04-08T09:26:50Z</time></trkpt><trkpt lat="14.598477073459696" lon="121.03826212515695"><ele>24.0</ele><time>2026-04-08T09:26:51Z</time></trkpt><trkpt lat="14.598376257109669" lon="121.03829137933128"><ele>24.666666666666668</ele><time>2026-04-08T09:26:53Z</time></trkpt><trkpt lat="14.598314929238434" lon="121.03831276036153"><ele>25.333333333333336</ele><time>2026-04-08T09:26:56Z</time></trkpt><trkpt lat="14.598244752691183" lon="121.03827920190045"><ele>26.0</ele><time>2026-04-08T09:29:17Z</time></trkpt><trkpt lat="14.598153959090324" lon="121.03832510076327"><ele>26.666666666666668</ele><time>2026-04-08T09:29:20Z</time></trkpt><trkpt lat="14.598159892013248" lon="121.03840090202857"><ele>27.333333333333336</ele><time>2026-04-08T09:29:35.076Z</time></trkpt><trkpt lat="14.598169645543177" lon="121.03850359864302"><ele>28.0</ele><time>2026-04-08T09:29:36.077Z</time></trkpt><trkpt lat="14.598323414439289" lon="121.03859157694889"><ele>28.000000000000004</ele><time>2026-04-08T09:29:38Z</time></trkpt><trkpt lat="14.598235174693086" lon="121.03850046242634"><ele>28.0</ele><time>2026-04-08T09:29:40Z</time></trkpt><trkpt lat="14.598156402857017" lon="121.03843987729239"><ele>28.0</ele><time>2026-04-08T09:29:52Z</time></trkpt><trkpt lat="14.598118143281555" lon="121.03838308752337"><ele>28.0</ele><time>2026-04-08T09:30:06Z</time></trkpt><trkpt lat="14.598064938296673" lon="121.03834779497095"><ele>28.000000000000004</ele><time>2026-04-08T09:30:09Z</time></trkpt><trkpt lat="14.598001483890108" lon="121.03833375399647"><ele>28.0</ele><time>2026-04-08T09:30:11Z</time></trkpt><trkpt lat="14.598068861567079" lon="121.03828915789269"><ele>28.000000000000004</ele><time>2026-04-08T09:30:25.001Z</time></trkpt><trkpt lat="14.598140349297863" lon="121.0382834415257"><ele>28.0</ele><time>2026-04-08T09:30:29Z</time></trkpt><trkpt lat="14.598127618672187" lon="121.03818638577424"><ele>28.0</ele><time>2026-04-08T09:30:48Z</time></trkpt><trkpt lat="14.598144507280058" lon="121.03811854286032"><ele>28.0</ele><time>2026-04-08T09:30:50Z</time></trkpt><trkpt lat="14.598191133157838" lon="121.0380655868515"><ele>28.000000000000004</ele><time>2026-04-08T09:31:03Z</time></trkpt><trkpt lat="14.598142055748955" lon="121.03800458702932"><ele>28.0</ele><time>2026-04-08T09:31:11Z</time></trkpt><trkpt lat="14.598154750052194" lon="121.0379167240601"><ele>28.0</ele><time>2026-04-08T09:31:13Z</time></trkpt><trkpt lat="14.598295525827123" lon="121.03789967120474"><ele>27.999999999999996</ele><time>2026-04-08T09:31:15Z</time></trkpt><trkpt lat="14.598362379744998" lon="121.03789154442892"><ele>27.999999999999996</ele><time>2026-04-08T09:31:16Z</time></trkpt><trkpt lat="14.598405983963579" lon="121.03794825760781"><ele>28.0</ele><time>2026-04-08T09:31:20Z</time></trkpt><trkpt lat="14.598318403241294" lon="121.03801307159523"><ele>28.0</ele><time>2026-04-08T09:31:27.076Z</time></trkpt><trkpt lat="14.598306486732177" lon="121.0380862342377"><ele>28.0</ele><time>2026-04-08T09:31:31.075Z</time></trkpt><trkpt lat="14.598295804691949" lon="121.03815540506815"><ele>27.999999999999996</ele><time>2026-04-08T09:31:36.076Z</time></trkpt><trkpt lat="14.59824620430702" lon="121.03819990165496"><ele>27.999999999999996</ele><time>2026-04-08T09:31:40.072Z</time></trkpt><trkpt lat="14.59830501843691" lon="121.03833026647011"><ele>28.0</ele><time>2026-04-08T09:59:21.003Z</time></trkpt><trkpt lat="14.598437875756868" lon="121.03835372476841"><ele>28.0</ele><time>2026-04-08T10:01:30.001Z</time></trkpt><trkpt lat="14.598549508992644" lon="121.03831336238741"><ele>28.0</ele><time>2026-04-08T10:01:32.001Z</time></trkpt><trkpt lat="14.59861508579127" lon="121.03829456289652"><ele>27.999999999999996</ele><time>2026-04-08T10:01:33.001Z</time></trkpt><trkpt lat="14.598721128738305" lon="121.03825536584526"><ele>27.999999999999996</ele><time>2026-04-08T10:01:35.001Z</time></trkpt><trkpt lat="14.598838519124751" lon="121.03820213212802"><ele>28.0</ele><time>2026-04-08T10:01:37.001Z</time></trkpt><trkpt lat="14.598905676530507" lon="121.0381794972895"><ele>28.0</ele><time>2026-04-08T10:01:38.001Z</time></trkpt><trkpt lat="14.598977787186751" lon="121.0381577066136"><ele>27.2</ele><time>2026-04-08T10:01:39.001Z</time></trkpt><trkpt lat="14.59908802703236" lon="121.03812043581414"><ele>26.4</ele><time>2026-04-08T10:01:41.001Z</time></trkpt><trkpt lat="14.599149156540507" lon="121.0380988750775"><ele>25.599999999999998</ele><time>2026-04-08T10:01:42.001Z</time></trkpt><trkpt lat="14.599271804442308" lon="121.03805809884975"><ele>24.799999999999997</ele><time>2026-04-08T10:01:44.001Z</time></trkpt><trkpt lat="14.599360734577385" lon="121.0380174636737"><ele>24.0</ele><time>2026-04-08T10:01:46.001Z</time></trkpt><trkpt lat="14.599426222703281" lon="121.03798915163314"><ele>24.333333333333332</ele><time>2026-04-08T10:01:48.001Z</time></trkpt><trkpt lat="14.599510200864815" lon="121.0379462766199"><ele>24.666666666666664</ele><time>2026-04-08T10:01:52.001Z</time></trkpt><trkpt lat="14.599578602684792" lon="121.037924290802"><ele>25.0</ele><time>2026-04-08T10:01:56.001Z</time></trkpt><trkpt lat="14.599650480783458" lon="121.03791989451382"><ele>25.333333333333332</ele><time>2026-04-08T10:01:58.001Z</time></trkpt><trkpt lat="14.5997423103245" lon="121.03786719114201"><ele>25.666666666666664</ele><time>2026-04-08T10:02:00.001Z</time></trkpt><trkpt lat="14.59982640722459" lon="121.03781073658025"><ele>26.0</ele><time>2026-04-08T10:02:02.001Z</time></trkpt><trkpt lat="14.599907987603649" lon="121.03777185691015"><ele>25.999999999999996</ele><time>2026-04-08T10:02:04.001Z</time></trkpt><trkpt lat="14.600008002860886" lon="121.0377515074477"><ele>26.0</ele><time>2026-04-08T10:02:06.001Z</time></trkpt><trkpt lat="14.600069096813792" lon="121.03776969199131"><ele>26.0</ele><time>2026-04-08T10:02:07.001Z</time></trkpt><trkpt lat="14.600128494934408" lon="121.03779232760922"><ele>26.0</ele><time>2026-04-08T10:02:08.001Z</time></trkpt><trkpt lat="14.600234701610876" lon="121.03784219479643"><ele>25.999999999999996</ele><time>2026-04-08T10:02:10.001Z</time></trkpt><trkpt lat="14.60028758870842" lon="121.03788118921018"><ele>26.0</ele><time>2026-04-08T10:02:11.001Z</time></trkpt><trkpt lat="14.600347281378863" lon="121.03791716214036"><ele>26.499999999999996</ele><time>2026-04-08T10:02:12.001Z</time></trkpt><trkpt lat="14.60041136644364" lon="121.03796343084049"><ele>27.0</ele><time>2026-04-08T10:02:13.001Z</time></trkpt><trkpt lat="14.600468256990641" lon="121.03801499616127"><ele>27.5</ele><time>2026-04-08T10:02:14.001Z</time></trkpt><trkpt lat="14.600526478565918" lon="121.03807117389411"><ele>28.0</ele><time>2026-04-08T10:02:15.001Z</time></trkpt><trkpt lat="14.600578922853147" lon="121.03811988243741"><ele>28.499999999999996</ele><time>2026-04-08T10:02:16.001Z</time></trkpt><trkpt lat="14.60064881492729" lon="121.03821787598214"><ele>29.0</ele><time>2026-04-08T10:02:18.001Z</time></trkpt><trkpt lat="14.600698741846015" lon="121.03829806870873"><ele>28.6</ele><time>2026-04-08T10:02:20.001Z</time></trkpt><trkpt lat="14.600727992641648" lon="121.03838143335787"><ele>28.2</ele><time>2026-04-08T10:02:24.001Z</time></trkpt><trkpt lat="14.600869433473974" lon="121.03835437468864"><ele>27.800000000000004</ele><time>2026-04-08T10:02:27.001Z</time></trkpt><trkpt lat="14.60097099398315" lon="121.03832220312673"><ele>27.400000000000002</ele><time>2026-04-08T10:02:29.001Z</time></trkpt><trkpt lat="14.601026789024774" lon="121.03836182152408"><ele>27.0</ele><time>2026-04-08T10:02:30.001Z</time></trkpt><trkpt lat="14.601122979350908" lon="121.03836218691843"><ele>27.666666666666668</ele><time>2026-04-08T10:02:32.001Z</time></trkpt><trkpt lat="14.601228856877508" lon="121.03833644687579"><ele>28.333333333333336</ele><time>2026-04-08T10:02:34.001Z</time></trkpt><trkpt lat="14.601292913618671" lon="121.0383484494637"><ele>29.0</ele><time>2026-04-08T10:02:35.001Z</time></trkpt><trkpt lat="14.601374386154324" lon="121.03831849133574"><ele>29.666666666666668</ele><time>2026-04-08T10:02:36.001Z</time></trkpt><trkpt lat="14.60143821550823" lon="121.03829306887097"><ele>30.333333333333336</ele><time>2026-04-08T10:02:37.001Z</time></trkpt><trkpt lat="14.60150498298077" lon="121.03826647617474"><ele>31.0</ele><time>2026-04-08T10:02:38.001Z</time></trkpt><trkpt lat="14.601569847643834" lon="121.03824064131841"><ele>31.333333333333336</ele><time>2026-04-08T10:02:39.001Z</time></trkpt><trkpt lat="14.601671178556867" lon="121.03820028202239"><ele>31.666666666666668</ele><time>2026-04-08T10:02:41.001Z</time></trkpt><trkpt lat="14.601740032123415" lon="121.03816537536832"><ele>32.0</ele><time>2026-04-08T10:02:43.001Z</time></trkpt><trkpt lat="14.601837795931385" lon="121.03812122958114"><ele>32.333333333333336</ele><time>2026-04-08T10:02:45.001Z</time></trkpt><trkpt lat="14.60189589396229" lon="121.0380942855774"><ele>32.666666666666664</ele><time>2026-04-08T10:02:46.001Z</time></trkpt><trkpt lat="14.6019663579543" lon="121.0380603952721"><ele>33.0</ele><time>2026-04-08T10:02:47.001Z</time></trkpt><trkpt lat="14.602035670764666" lon="121.0380208335231"><ele>31.833333333333332</ele><time>2026-04-08T10:02:48.001Z</time></trkpt><trkpt lat="14.602107835558698" lon="121.0379674284868"><ele>30.666666666666664</ele><time>2026-04-08T10:02:49.001Z</time></trkpt><trkpt lat="14.602177543799689" lon="121.03790296655966"><ele>29.5</ele><time>2026-04-08T10:02:50.001Z</time></trkpt><trkpt lat="14.602239938308182" lon="121.03783801264707"><ele>28.333333333333332</ele><time>2026-04-08T10:02:51.001Z</time></trkpt><trkpt lat="14.602297187755969" lon="121.0377784148117"><ele>27.166666666666664</ele><time>2026-04-08T10:02:52.001Z</time></trkpt><trkpt lat="14.60235364501111" lon="121.03770371740552"><ele>26.0</ele><time>2026-04-08T10:02:53.001Z</time></trkpt><trkpt lat="14.602396478509288" lon="121.03763958040088"><ele>25.999999999999996</ele><time>2026-04-08T10:02:54.001Z</time></trkpt><trkpt lat="14.602399110016586" lon="121.03754330893616"><ele>26.0</ele><time>2026-04-08T10:02:55.001Z</time></trkpt><trkpt lat="14.602414552754334" lon="121.03746008928302"><ele>26.0</ele><time>2026-04-08T10:02:56.001Z</time></trkpt><trkpt lat="14.602390646919154" lon="121.03736059961264"><ele>26.0</ele><time>2026-04-08T10:02:57.001Z</time></trkpt><trkpt lat="14.602367943217923" lon="121.03727318941009"><ele>25.999999999999996</ele><time>2026-04-08T10:02:58.001Z</time></trkpt><trkpt lat="14.602342918142567" lon="121.0371894356708"><ele>26.0</ele><time>2026-04-08T10:02:59.001Z</time></trkpt><trkpt lat="14.60231979687218" lon="121.03711205315636"><ele>25.999999999999996</ele><time>2026-04-08T10:03:00.001Z</time></trkpt><trkpt lat="14.60227431542175" lon="121.03703713968962"><ele>26.0</ele><time>2026-04-08T10:03:01.001Z</time></trkpt><trkpt lat="14.602243360063742" lon="121.036974269364"><ele>26.0</ele><time>2026-04-08T10:03:02.001Z</time></trkpt><trkpt lat="14.602181640174791" lon="121.03686097814031"><ele>26.0</ele><time>2026-04-08T10:03:04.001Z</time></trkpt><trkpt lat="14.602134002506666" lon="121.03680677186789"><ele>25.999999999999996</ele><time>2026-04-08T10:03:05.001Z</time></trkpt><trkpt lat="14.602104849448741" lon="121.03673298659662"><ele>26.0</ele><time>2026-04-08T10:03:06.001Z</time></trkpt><trkpt lat="14.602070704216668" lon="121.03666391617372"><ele>26.166666666666664</ele><time>2026-04-08T10:03:07.001Z</time></trkpt><trkpt lat="14.60203276360081" lon="121.03659002543488"><ele>26.333333333333332</ele><time>2026-04-08T10:03:08.001Z</time></trkpt><trkpt lat="14.601992081342937" lon="121.03651190406285"><ele>26.5</ele><time>2026-04-08T10:03:09.001Z</time></trkpt><trkpt lat="14.601949823461094" lon="121.03643509785316"><ele>26.666666666666664</ele><time>2026-04-08T10:03:10.001Z</time></trkpt><trkpt lat="14.601919674159724" lon="121.03636093735935"><ele>26.833333333333332</ele><time>2026-04-08T10:03:11.001Z</time></trkpt><trkpt lat="14.601934814024757" lon="121.03629342644682"><ele>27.0</ele><time>2026-04-08T10:03:12.001Z</time></trkpt><trkpt lat="14.602018174478596" lon="121.03623050500852"><ele>27.0</ele><time>2026-04-08T10:03:14.001Z</time></trkpt><trkpt lat="14.602115898311355" lon="121.0362287398336"><ele>27.000000000000004</ele><time>2026-04-08T10:03:16.001Z</time></trkpt><trkpt lat="14.60222023621814" lon="121.03623472757427"><ele>27.000000000000004</ele><time>2026-04-08T10:03:18Z</time></trkpt><trkpt lat="14.602329743860103" lon="121.03624748655227"><ele>27.0</ele><time>2026-04-08T10:03:20Z</time></trkpt><trkpt lat="14.602389565274466" lon="121.0362761863362"><ele>27.0</ele><time>2026-04-08T10:03:21Z</time></trkpt><trkpt lat="14.60245596193783" lon="121.03631705453849"><ele>27.0</ele><time>2026-04-08T10:03:22Z</time></trkpt><trkpt lat="14.602515371682232" lon="121.0363726865349"><ele>27.0</ele><time>2026-04-08T10:03:23Z</time></trkpt><trkpt lat="14.602565040384146" lon="121.03643618901584"><ele>27.0</ele><time>2026-04-08T10:03:24Z</time></trkpt><trkpt lat="14.602607278682067" lon="121.03649886296003"><ele>27.0</ele><time>2026-04-08T10:03:25Z</time></trkpt><trkpt lat="14.60265051668511" lon="121.03655924911077"><ele>27.0</ele><time>2026-04-08T10:03:26Z</time></trkpt><trkpt lat="14.602689380514153" lon="121.03661591527805"><ele>27.0</ele><time>2026-04-08T10:03:27Z</time></trkpt><trkpt lat="14.602732214031041" lon="121.03666759090282"><ele>27.0</ele><time>2026-04-08T10:03:28Z</time></trkpt><trkpt lat="14.60284324643282" lon="121.03675522303183"><ele>26.714285714285715</ele><time>2026-04-08T10:03:30Z</time></trkpt><trkpt lat="14.602923113229716" lon="121.03675777076963"><ele>26.428571428571427</ele><time>2026-04-08T10:03:31Z</time></trkpt><trkpt lat="14.602994439420392" lon="121.0367747822936"><ele>26.142857142857146</ele><time>2026-04-08T10:03:32Z</time></trkpt><trkpt lat="14.603061771750694" lon="121.03679034455917"><ele>25.857142857142858</ele><time>2026-04-08T10:03:33Z</time></trkpt><trkpt lat="14.60313472510048" lon="121.03680455827374"><ele>25.571428571428573</ele><time>2026-04-08T10:03:34Z</time></trkpt><trkpt lat="14.603201210240393" lon="121.03681498100612"><ele>25.28571428571429</ele><time>2026-04-08T10:03:35Z</time></trkpt><trkpt lat="14.603285351604027" lon="121.03681889847348"><ele>25.0</ele><time>2026-04-08T10:03:36Z</time></trkpt><trkpt lat="14.603349772332932" lon="121.03681917668342"><ele>25.000000000000004</ele><time>2026-04-08T10:03:37Z</time></trkpt><trkpt lat="14.603419220856663" lon="121.03681693141918"><ele>25.0</ele><time>2026-04-08T10:03:38Z</time></trkpt><trkpt lat="14.603533161185892" lon="121.03682341194444"><ele>25.0</ele><time>2026-04-08T10:03:40Z</time></trkpt><trkpt lat="14.60363415885097" lon="121.03683342389371"><ele>25.0</ele><time>2026-04-08T10:03:42Z</time></trkpt><trkpt lat="14.603706185966857" lon="121.03686178042999"><ele>25.000000000000004</ele><time>2026-04-08T10:03:44Z</time></trkpt><trkpt lat="14.60377793453716" lon="121.03689969349288"><ele>25.0</ele><time>2026-04-08T10:03:46Z</time></trkpt><trkpt lat="14.603846309103465" lon="121.03691834735902"><ele>24.500000000000004</ele><time>2026-04-08T10:03:48Z</time></trkpt><trkpt lat="14.60395172943518" lon="121.03689806174691"><ele>24.0</ele><time>2026-04-08T10:03:50Z</time></trkpt><trkpt lat="14.604014137324569" lon="121.03687144147524"><ele>23.5</ele><time>2026-04-08T10:03:51Z</time></trkpt><trkpt lat="14.60408785913119" lon="121.03684064317986"><ele>23.0</ele><time>2026-04-08T10:03:52Z</time></trkpt><trkpt lat="14.604164238720777" lon="121.03681166624136"><ele>22.5</ele><time>2026-04-08T10:03:53Z</time></trkpt><trkpt lat="14.604248359824394" lon="121.03677709682866"><ele>22.0</ele><time>2026-04-08T10:03:54Z</time></trkpt><trkpt lat="14.60433441784713" lon="121.03674520176915"><ele>22.0</ele><time>2026-04-08T10:03:55Z</time></trkpt><trkpt lat="14.60441516820593" lon="121.03671254843577"><ele>22.0</ele><time>2026-04-08T10:03:56Z</time></trkpt><trkpt lat="14.604495852992393" lon="121.03668827378188"><ele>22.0</ele><time>2026-04-08T10:03:57Z</time></trkpt><trkpt lat="14.604575300286225" lon="121.03665479027286"><ele>22.0</ele><time>2026-04-08T10:03:58Z</time></trkpt><trkpt lat="14.604636557597592" lon="121.03662536613994"><ele>22.0</ele><time>2026-04-08T10:03:59Z</time></trkpt><trkpt lat="14.604699109184578" lon="121.03661124175652"><ele>22.0</ele><time>2026-04-08T10:04:00Z</time></trkpt><trkpt lat="14.60478648545383" lon="121.03657485908207"><ele>23.400000000000002</ele><time>2026-04-08T10:04:02Z</time></trkpt><trkpt lat="14.604869392549459" lon="121.03656895025897"><ele>24.8</ele><time>2026-04-08T10:04:05Z</time></trkpt><trkpt lat="14.604966472801184" lon="121.0366338841784"><ele>26.2</ele><time>2026-04-08T10:04:07Z</time></trkpt><trkpt lat="14.605040738634639" lon="121.03667999368933"><ele>27.6</ele><time>2026-04-08T10:04:08Z</time></trkpt><trkpt lat="14.60512774162063" lon="121.03672897555555"><ele>29.0</ele><time>2026-04-08T10:04:09Z</time></trkpt><trkpt lat="14.605221656978088" lon="121.03678146317868"><ele>29.0</ele><time>2026-04-08T10:04:10Z</time></trkpt><trkpt lat="14.605317782317249" lon="121.03682614168908"><ele>29.0</ele><time>2026-04-08T10:04:11Z</time></trkpt><trkpt lat="14.605408779594624" lon="121.03686596949252"><ele>29.0</ele><time>2026-04-08T10:04:12Z</time></trkpt><trkpt lat="14.60548184762215" lon="121.03690236756164"><ele>29.0</ele><time>2026-04-08T10:04:13Z</time></trkpt><trkpt lat="14.605552302860588" lon="121.0368990812767"><ele>29.0</ele><time>2026-04-08T10:04:14Z</time></trkpt><trkpt lat="14.605595100215872" lon="121.0370035025454"><ele>29.333333333333332</ele><time>2026-04-08T10:04:15Z</time></trkpt><trkpt lat="14.605642478837233" lon="121.03706156317408"><ele>29.666666666666664</ele><time>2026-04-08T10:04:16Z</time></trkpt><trkpt lat="14.605720910827047" lon="121.03715172547413"><ele>30.0</ele><time>2026-04-08T10:04:18Z</time></trkpt><trkpt lat="14.605765392864265" lon="121.0372006974549"><ele>30.333333333333336</ele><time>2026-04-08T10:04:19Z</time></trkpt><trkpt lat="14.605812322214115" lon="121.0372535070643"><ele>30.666666666666668</ele><time>2026-04-08T10:04:20Z</time></trkpt><trkpt lat="14.605873754885499" lon="121.03731954006327"><ele>31.0</ele><time>2026-04-08T10:04:21Z</time></trkpt><trkpt lat="14.605938711318476" lon="121.03739003739304"><ele>31.000000000000004</ele><time>2026-04-08T10:04:22Z</time></trkpt><trkpt lat="14.605998521105372" lon="121.03745500865688"><ele>31.0</ele><time>2026-04-08T10:04:23Z</time></trkpt><trkpt lat="14.606054853388533" lon="121.0375147013302"><ele>31.0</ele><time>2026-04-08T10:04:24Z</time></trkpt><trkpt lat="14.606117196357411" lon="121.03758242437763"><ele>31.0</ele><time>2026-04-08T10:04:25Z</time></trkpt><trkpt lat="14.606176945510478" lon="121.03765932224263"><ele>31.000000000000004</ele><time>2026-04-08T10:04:26Z</time></trkpt><trkpt lat="14.60623715456439" lon="121.03773395645271"><ele>31.0</ele><time>2026-04-08T10:04:27Z</time></trkpt><trkpt lat="14.606292343031226" lon="121.03780088798513"><ele>28.8</ele><time>2026-04-08T10:04:28Z</time></trkpt><trkpt lat="14.606342251786472" lon="121.03786022750104"><ele>26.6</ele><time>2026-04-08T10:04:29Z</time></trkpt><trkpt lat="14.606403819311334" lon="121.0379248370277"><ele>24.4</ele><time>2026-04-08T10:04:30Z</time></trkpt><trkpt lat="14.606468420725244" lon="121.03799403125184"><ele>22.2</ele><time>2026-04-08T10:04:31Z</time></trkpt><trkpt lat="14.606544919481818" lon="121.03807625260096"><ele>20.0</ele><time>2026-04-08T10:04:32Z</time></trkpt><trkpt lat="14.606621489790047" lon="121.0381677138479"><ele>20.0</ele><time>2026-04-08T10:04:33Z</time></trkpt><trkpt lat="14.606699747633627" lon="121.03826975175298"><ele>20.0</ele><time>2026-04-08T10:04:34Z</time></trkpt><trkpt lat="14.606776631504765" lon="121.03836425973934"><ele>20.0</ele><time>2026-04-08T10:04:35Z</time></trkpt><trkpt lat="14.60684165377061" lon="121.03844183647351"><ele>20.0</ele><time>2026-04-08T10:04:36Z</time></trkpt><trkpt lat="14.606907103566996" lon="121.03851878167059"><ele>20.0</ele><time>2026-04-08T10:04:37Z</time></trkpt><trkpt lat="14.606967628494827" lon="121.03858703465824"><ele>20.4</ele><time>2026-04-08T10:04:38Z</time></trkpt><trkpt lat="14.607028938110476" lon="121.03865759559488"><ele>20.8</ele><time>2026-04-08T10:04:39Z</time></trkpt><trkpt lat="14.60709538355239" lon="121.03873231867337"><ele>21.200000000000003</ele><time>2026-04-08T10:04:40Z</time></trkpt><trkpt lat="14.607162540178846" lon="121.03881031975608"><ele>21.6</ele><time>2026-04-08T10:04:41Z</time></trkpt><trkpt lat="14.607230219981258" lon="121.03888909327878"><ele>22.0</ele><time>2026-04-08T10:04:42Z</time></trkpt><trkpt lat="14.607294738829244" lon="121.03896288722774"><ele>22.0</ele><time>2026-04-08T10:04:43Z</time></trkpt><trkpt lat="14.607341072176059" lon="121.03901835672293"><ele>22.0</ele><time>2026-04-08T10:04:44Z</time></trkpt><trkpt lat="14.607393609240148" lon="121.03906991553616"><ele>22.0</ele><time>2026-04-08T10:04:45Z</time></trkpt><trkpt lat="14.60744291940445" lon="121.03912212430461"><ele>22.0</ele><time>2026-04-08T10:04:46Z</time></trkpt><trkpt lat="14.60749458404009" lon="121.0391841891404"><ele>22.0</ele><time>2026-04-08T10:04:47Z</time></trkpt><trkpt lat="14.607549323377173" lon="121.03925170249781"><ele>22.0</ele><time>2026-04-08T10:04:48Z</time></trkpt><trkpt lat="14.607599966535622" lon="121.03931301716167"><ele>22.400000000000002</ele><time>2026-04-08T10:04:49Z</time></trkpt><trkpt lat="14.607655003242225" lon="121.0393867467532"><ele>22.8</ele><time>2026-04-08T10:04:50Z</time></trkpt><trkpt lat="14.607713913014623" lon="121.03945625101336"><ele>23.2</ele><time>2026-04-08T10:04:51Z</time></trkpt><trkpt lat="14.607776302527592" lon="121.03953528364929"><ele>23.6</ele><time>2026-04-08T10:04:52Z</time></trkpt><trkpt lat="14.607842828941557" lon="121.0396149352528"><ele>24.0</ele><time>2026-04-08T10:04:53Z</time></trkpt><trkpt lat="14.607916096390598" lon="121.0397067404625"><ele>25.0</ele><time>2026-04-08T10:04:54Z</time></trkpt><trkpt lat="14.60798815348645" lon="121.03980636019705"><ele>26.0</ele><time>2026-04-08T10:04:55Z</time></trkpt><trkpt lat="14.608055203343689" lon="121.03990603171843"><ele>27.0</ele><time>2026-04-08T10:04:56Z</time></trkpt><trkpt lat="14.608121382440023" lon="121.04000244914963"><ele>28.0</ele><time>2026-04-08T10:04:57Z</time></trkpt><trkpt lat="14.608181163852056" lon="121.04008970467791"><ele>28.2</ele><time>2026-04-08T10:04:58Z</time></trkpt><trkpt lat="14.608239329854891" lon="121.04017448613189"><ele>28.4</ele><time>2026-04-08T10:04:59Z</time></trkpt><trkpt lat="14.608293783004797" lon="121.04025753040561"><ele>28.599999999999998</ele><time>2026-04-08T10:05:00Z</time></trkpt><trkpt lat="14.608343215688976" lon="121.04033678439345"><ele>28.799999999999997</ele><time>2026-04-08T10:05:01Z</time></trkpt><trkpt lat="14.608392215025445" lon="121.04042257599717"><ele>29.0</ele><time>2026-04-08T10:05:02Z</time></trkpt><trkpt lat="14.608452206185328" lon="121.04051308888644"><ele>29.0</ele><time>2026-04-08T10:05:03Z</time></trkpt><trkpt lat="14.608530124186617" lon="121.04059487560417"><ele>29.0</ele><time>2026-04-08T10:05:04Z</time></trkpt><trkpt lat="14.608584803968913" lon="121.04069816862638"><ele>29.0</ele><time>2026-04-08T10:05:05Z</time></trkpt><trkpt lat="14.608666603122598" lon="121.04079503836351"><ele>29.0</ele><time>2026-04-08T10:05:06Z</time></trkpt><trkpt lat="14.608733325139985" lon="121.04088867486374"><ele>29.0</ele><time>2026-04-08T10:05:07Z</time></trkpt><trkpt lat="14.608783882039532" lon="121.04099578783061"><ele>29.0</ele><time>2026-04-08T10:05:08Z</time></trkpt><trkpt lat="14.60881707465285" lon="121.04110615827781"><ele>29.0</ele><time>2026-04-08T10:05:09Z</time></trkpt><trkpt lat="14.608875166225795" lon="121.04121924788353"><ele>29.0</ele><time>2026-04-08T10:05:10Z</time></trkpt><trkpt lat="14.608924319118259" lon="121.04134650458715"><ele>29.0</ele><time>2026-04-08T10:05:11Z</time></trkpt><trkpt lat="14.60895870041125" lon="121.041480005503"><ele>29.0</ele><time>2026-04-08T10:05:12Z</time></trkpt><trkpt lat="14.609003332379805" lon="121.04159248009734"><ele>29.0</ele><time>2026-04-08T10:05:13Z</time></trkpt><trkpt lat="14.609037976976364" lon="121.04167974054356"><ele>29.0</ele><time>2026-04-08T10:05:14Z</time></trkpt><trkpt lat="14.609069495641341" lon="121.04175954441295"><ele>29.0</ele><time>2026-04-08T10:05:15Z</time></trkpt><trkpt lat="14.60909918907639" lon="121.04183050947806"><ele>28.999999999999996</ele><time>2026-04-08T10:05:16Z</time></trkpt><trkpt lat="14.609144830866478" lon="121.04193096618877"><ele>29.0</ele><time>2026-04-08T10:05:18Z</time></trkpt><trkpt lat="14.609174741230031" lon="121.042015834209"><ele>29.0</ele><time>2026-04-08T10:05:20Z</time></trkpt><trkpt lat="14.60920304808266" lon="121.04207582342407"><ele>29.0</ele><time>2026-04-08T10:05:22Z</time></trkpt><trkpt lat="14.609233776371711" lon="121.04214318399465"><ele>28.999999999999996</ele><time>2026-04-08T10:05:24Z</time></trkpt><trkpt lat="14.609261493050502" lon="121.04220813187173"><ele>29.0</ele><time>2026-04-08T10:05:26Z</time></trkpt><trkpt lat="14.609297667247839" lon="121.04229858621483"><ele>29.0</ele><time>2026-04-08T10:05:29Z</time></trkpt><trkpt lat="14.60932368033147" lon="121.0423607181125"><ele>29.0</ele><time>2026-04-08T10:05:31Z</time></trkpt><trkpt lat="14.609360858512217" lon="121.04244253838768"><ele>29.0</ele><time>2026-04-08T10:05:33Z</time></trkpt><trkpt lat="14.609408015337406" lon="121.04255011781328"><ele>29.0</ele><time>2026-04-08T10:05:35Z</time></trkpt><trkpt lat="14.609450583204685" lon="121.04265639361547"><ele>29.0</ele><time>2026-04-08T10:05:37Z</time></trkpt><trkpt lat="14.609490190819567" lon="121.04275331692085"><ele>29.42857142857143</ele><time>2026-04-08T10:05:39Z</time></trkpt><trkpt lat="14.609514408754164" lon="121.04281400688942"><ele>29.857142857142858</ele><time>2026-04-08T10:05:40Z</time></trkpt><trkpt lat="14.6095390343042" lon="121.04287401641064"><ele>30.285714285714285</ele><time>2026-04-08T10:05:41Z</time></trkpt><trkpt lat="14.609567793351342" lon="121.04294569721206"><ele>30.714285714285715</ele><time>2026-04-08T10:05:42Z</time></trkpt><trkpt lat="14.609591913059264" lon="121.04300885307578"><ele>31.14285714285714</ele><time>2026-04-08T10:05:43Z</time></trkpt><trkpt lat="14.609582626133859" lon="121.04311995111043"><ele>31.57142857142857</ele><time>2026-04-08T10:05:45Z</time></trkpt><trkpt lat="14.609552328209835" lon="121.04318322417775"><ele>32.0</ele><time>2026-04-08T10:05:46Z</time></trkpt><trkpt lat="14.609505681881961" lon="121.04324932164748"><ele>31.8</ele><time>2026-04-08T10:05:47Z</time></trkpt><trkpt lat="14.60945395580758" lon="121.04332702640808"><ele>31.6</ele><time>2026-04-08T10:05:48Z</time></trkpt><trkpt lat="14.609398326154944" lon="121.0434055332732"><ele>31.400000000000002</ele><time>2026-04-08T10:05:49Z</time></trkpt><trkpt lat="14.60933309748075" lon="121.04349950543985"><ele>31.200000000000003</ele><time>2026-04-08T10:05:50Z</time></trkpt><trkpt lat="14.609265096936124" lon="121.04359598081344"><ele>31.0</ele><time>2026-04-08T10:05:51Z</time></trkpt><trkpt lat="14.609205261529713" lon="121.04367963440397"><ele>31.0</ele><time>2026-04-08T10:05:52Z</time></trkpt><trkpt lat="14.60914007150626" lon="121.04375447333472"><ele>31.0</ele><time>2026-04-08T10:05:53Z</time></trkpt><trkpt lat="14.609078736601452" lon="121.04382964949735"><ele>31.0</ele><time>2026-04-08T10:05:54Z</time></trkpt><trkpt lat="14.609020915763233" lon="121.04390224484771"><ele>31.0</ele><time>2026-04-08T10:05:55Z</time></trkpt><trkpt lat="14.60896391158685" lon="121.04397556756334"><ele>31.0</ele><time>2026-04-08T10:05:56Z</time></trkpt><trkpt lat="14.608922378677295" lon="121.04404969565243"><ele>31.000000000000004</ele><time>2026-04-08T10:05:57Z</time></trkpt><trkpt lat="14.608888913469775" lon="121.04412850702862"><ele>31.0</ele><time>2026-04-08T10:05:58Z</time></trkpt><trkpt lat="14.608874342489404" lon="121.04420425718654"><ele>31.0</ele><time>2026-04-08T10:05:59Z</time></trkpt><trkpt lat="14.608869534914806" lon="121.04428279760255"><ele>31.0</ele><time>2026-04-08T10:06:00Z</time></trkpt><trkpt lat="14.608861092913049" lon="121.04436461377627"><ele>31.000000000000004</ele><time>2026-04-08T10:06:01Z</time></trkpt><trkpt lat="14.608853243579789" lon="121.04444367386871"><ele>31.0</ele><time>2026-04-08T10:06:02Z</time></trkpt><trkpt lat="14.608838586859603" lon="121.04452195740825"><ele>31.833333333333336</ele><time>2026-04-08T10:06:03Z</time></trkpt><trkpt lat="14.60882370633676" lon="121.04460072565539"><ele>32.66666666666667</ele><time>2026-04-08T10:06:04Z</time></trkpt><trkpt lat="14.608811953306224" lon="121.04467941573199"><ele>33.5</ele><time>2026-04-08T10:06:05Z</time></trkpt><trkpt lat="14.608801432655486" lon="121.04476525089993"><ele>34.333333333333336</ele><time>2026-04-08T10:06:06Z</time></trkpt><trkpt lat="14.608787294827152" lon="121.04483999310845"><ele>35.166666666666664</ele><time>2026-04-08T10:06:07Z</time></trkpt><trkpt lat="14.608769591725398" lon="121.04496643509303"><ele>36.0</ele><time>2026-04-08T10:06:09Z</time></trkpt><trkpt lat="14.608754156321101" lon="121.04508326652872"><ele>36.6</ele><time>2026-04-08T10:06:11Z</time></trkpt><trkpt lat="14.608738655893221" lon="121.04519720175888"><ele>37.2</ele><time>2026-04-08T10:06:13Z</time></trkpt><trkpt lat="14.608718716050461" lon="121.04529409205423"><ele>37.8</ele><time>2026-04-08T10:06:15Z</time></trkpt><trkpt lat="14.608703651409238" lon="121.04540560937252"><ele>38.4</ele><time>2026-04-08T10:06:17Z</time></trkpt><trkpt lat="14.608687082019962" lon="121.04553144866837"><ele>39.0</ele><time>2026-04-08T10:06:19Z</time></trkpt><trkpt lat="14.60867301500161" lon="121.04564872426863"><ele>38.6</ele><time>2026-04-08T10:06:21Z</time></trkpt><trkpt lat="14.608652097511674" lon="121.04575596850209"><ele>38.2</ele><time>2026-04-08T10:06:23Z</time></trkpt><trkpt lat="14.60866986406427" lon="121.04585556654014"><ele>37.800000000000004</ele><time>2026-04-08T10:06:25Z</time></trkpt><trkpt lat="14.60868364689156" lon="121.0459571944457"><ele>37.4</ele><time>2026-04-08T10:06:27Z</time></trkpt><trkpt lat="14.60871774081828" lon="121.04607393414653"><ele>37.0</ele><time>2026-04-08T10:06:29Z</time></trkpt><trkpt lat="14.608740918203665" lon="121.04616711728286"><ele>37.0</ele><time>2026-04-08T10:06:31Z</time></trkpt><trkpt lat="14.608765858138836" lon="121.04626970493334"><ele>37.0</ele><time>2026-04-08T10:06:33Z</time></trkpt><trkpt lat="14.608791367261013" lon="121.0463733321289"><ele>37.0</ele><time>2026-04-08T10:06:35Z</time></trkpt><trkpt lat="14.60881535617415" lon="121.04646721772869"><ele>37.0</ele><time>2026-04-08T10:06:37Z</time></trkpt><trkpt lat="14.608840042493371" lon="121.04655515471264"><ele>37.0</ele><time>2026-04-08T10:06:39Z</time></trkpt><trkpt lat="14.608865636724266" lon="121.04664476543228"><ele>37.333333333333336</ele><time>2026-04-08T10:06:41Z</time></trkpt><trkpt lat="14.608883795560468" lon="121.04672109640606"><ele>37.66666666666667</ele><time>2026-04-08T10:06:43Z</time></trkpt><trkpt lat="14.608906764889033" lon="121.04682097673717"><ele>38.0</ele><time>2026-04-08T10:06:45Z</time></trkpt><trkpt lat="14.608936754137181" lon="121.04691016327253"><ele>38.333333333333336</ele><time>2026-04-08T10:06:47Z</time></trkpt><trkpt lat="14.608955822615076" lon="121.04698355217107"><ele>38.666666666666664</ele><time>2026-04-08T10:06:49Z</time></trkpt><trkpt lat="14.608975793112737" lon="121.04705788748197"><ele>39.0</ele><time>2026-04-08T10:06:51Z</time></trkpt><trkpt lat="14.608997097638886" lon="121.047158674386"><ele>39.0</ele><time>2026-04-08T10:06:53Z</time></trkpt><trkpt lat="14.609019074236258" lon="121.04727311565385"><ele>39.0</ele><time>2026-04-08T10:06:55Z</time></trkpt><trkpt lat="14.60902767942797" lon="121.04736429367942"><ele>39.0</ele><time>2026-04-08T10:06:57Z</time></trkpt><trkpt lat="14.609047108152241" lon="121.04745518827797"><ele>39.0</ele><time>2026-04-08T10:06:59Z</time></trkpt><trkpt lat="14.609070032828287" lon="121.04753004038437"><ele>39.0</ele><time>2026-04-08T10:07:01Z</time></trkpt><trkpt lat="14.609093484562132" lon="121.04762597876379"><ele>39.42857142857143</ele><time>2026-04-08T10:07:04Z</time></trkpt><trkpt lat="14.609111171409552" lon="121.04771351508815"><ele>39.857142857142854</ele><time>2026-04-08T10:07:06Z</time></trkpt><trkpt lat="14.609125378373118" lon="121.04778355535996"><ele>40.285714285714285</ele><time>2026-04-08T10:07:08Z</time></trkpt><trkpt lat="14.609136423667271" lon="121.0478503412853"><ele>40.714285714285715</ele><time>2026-04-08T10:07:10Z</time></trkpt><trkpt lat="14.609154355855335" lon="121.04792367678321"><ele>41.14285714285714</ele><time>2026-04-08T10:07:12Z</time></trkpt><trkpt lat="14.609172692411287" lon="121.04800419137993"><ele>41.57142857142857</ele><time>2026-04-08T10:07:14Z</time></trkpt><trkpt lat="14.609191944506508" lon="121.04806642584191"><ele>42.0</ele><time>2026-04-08T10:07:16Z</time></trkpt><trkpt lat="14.609219107450222" lon="121.04814732459744"><ele>42.0</ele><time>2026-04-08T10:07:28Z</time></trkpt><trkpt lat="14.60923533508037" lon="121.04821160232461"><ele>42.0</ele><time>2026-04-08T10:07:30Z</time></trkpt><trkpt lat="14.609249186186094" lon="121.04827773432538"><ele>42.0</ele><time>2026-04-08T10:07:33Z</time></trkpt><trkpt lat="14.609264176035236" lon="121.04836186345631"><ele>42.0</ele><time>2026-04-08T10:07:36Z</time></trkpt><trkpt lat="14.60929213205705" lon="121.04845931293586"><ele>42.0</ele><time>2026-04-08T10:07:38Z</time></trkpt><trkpt lat="14.609313607301909" lon="121.04856930520981"><ele>42.0</ele><time>2026-04-08T10:07:40Z</time></trkpt><trkpt lat="14.609335378680806" lon="121.04863856315151"><ele>41.857142857142854</ele><time>2026-04-08T10:07:43Z</time></trkpt><trkpt lat="14.609355973202" lon="121.04871006660892"><ele>41.714285714285715</ele><time>2026-04-08T10:07:50Z</time></trkpt><trkpt lat="14.609375828132928" lon="121.04878986644034"><ele>41.57142857142857</ele><time>2026-04-08T10:07:53Z</time></trkpt><trkpt lat="14.609392284714469" lon="121.04886527996476"><ele>41.42857142857143</ele><time>2026-04-08T10:07:59Z</time></trkpt><trkpt lat="14.609406754822235" lon="121.04893374180484"><ele>41.285714285714285</ele><time>2026-04-08T10:08:03Z</time></trkpt><trkpt lat="14.609421775199088" lon="121.04900308382337"><ele>41.14285714285714</ele><time>2026-04-08T10:08:12Z</time></trkpt><trkpt lat="14.609436552993653" lon="121.04907706830303"><ele>41.0</ele><time>2026-04-08T10:08:15Z</time></trkpt><trkpt lat="14.60945222792602" lon="121.04914307719743"><ele>41.0</ele><time>2026-04-08T10:08:17Z</time></trkpt><trkpt lat="14.609471678490122" lon="121.04922633734901"><ele>41.0</ele><time>2026-04-08T10:08:20Z</time></trkpt><trkpt lat="14.609494294180145" lon="121.04932340785015"><ele>41.0</ele><time>2026-04-08T10:08:23Z</time></trkpt><trkpt lat="14.609508933132437" lon="121.04938796858129"><ele>41.0</ele><time>2026-04-08T10:08:25Z</time></trkpt><trkpt lat="14.609524395055805" lon="121.04946830400934"><ele>41.0</ele><time>2026-04-08T10:08:27Z</time></trkpt><trkpt lat="14.609548602811003" lon="121.04957552398038"><ele>41.0</ele><time>2026-04-08T10:08:29Z</time></trkpt><trkpt lat="14.60957887691859" lon="121.04968643673263"><ele>41.0</ele><time>2026-04-08T10:08:31Z</time></trkpt><trkpt lat="14.60960384795988" lon="121.04979287368346"><ele>41.0</ele><time>2026-04-08T10:08:33Z</time></trkpt><trkpt lat="14.60962670696519" lon="121.04989190742393"><ele>41.0</ele><time>2026-04-08T10:08:35Z</time></trkpt><trkpt lat="14.609649644671215" lon="121.0499796017543"><ele>41.0</ele><time>2026-04-08T10:08:37Z</time></trkpt><trkpt lat="14.609669981830082" lon="121.05006766577978"><ele>41.0</ele><time>2026-04-08T10:08:39Z</time></trkpt><trkpt lat="14.609688543783019" lon="121.05014932019752"><ele>41.199999999999996</ele><time>2026-04-08T10:08:41Z</time></trkpt><trkpt lat="14.60971181601793" lon="121.05025375473411"><ele>41.4</ele><time>2026-04-08T10:08:43Z</time></trkpt><trkpt lat="14.609743354660187" lon="121.05037570025968"><ele>41.6</ele><time>2026-04-08T10:08:45Z</time></trkpt><trkpt lat="14.609769385273616" lon="121.05047777254076"><ele>41.8</ele><time>2026-04-08T10:08:47Z</time></trkpt><trkpt lat="14.609788198644898" lon="121.05056896078102"><ele>42.0</ele><time>2026-04-08T10:08:49Z</time></trkpt><trkpt lat="14.60979933029241" lon="121.0506332950599"><ele>42.0</ele><time>2026-04-08T10:08:51Z</time></trkpt><trkpt lat="14.609818236079851" lon="121.05069942872116"><ele>42.0</ele><time>2026-04-08T10:08:55Z</time></trkpt><trkpt lat="14.609845354059006" lon="121.0507945906253"><ele>42.0</ele><time>2026-04-08T10:09:02Z</time></trkpt><trkpt lat="14.609866297130916" lon="121.05088770515368"><ele>42.0</ele><time>2026-04-08T10:09:04Z</time></trkpt><trkpt lat="14.609889657852204" lon="121.05101476961107"><ele>42.0</ele><time>2026-04-08T10:09:06Z</time></trkpt><trkpt lat="14.60990573358565" lon="121.05108290581971"><ele>42.0</ele><time>2026-04-08T10:09:07Z</time></trkpt><trkpt lat="14.609924031278274" lon="121.05115100031739"><ele>41.6</ele><time>2026-04-08T10:09:08Z</time></trkpt><trkpt lat="14.609941921334002" lon="121.05121797400518"><ele>41.2</ele><time>2026-04-08T10:09:09Z</time></trkpt><trkpt lat="14.609967753433361" lon="121.05132528348642"><ele>40.8</ele><time>2026-04-08T10:09:11Z</time></trkpt><trkpt lat="14.609991715573768" lon="121.05142606821302"><ele>40.4</ele><time>2026-04-08T10:09:13Z</time></trkpt><trkpt lat="14.610016043852461" lon="121.05151327929487"><ele>40.0</ele><time>2026-04-08T10:09:15Z</time></trkpt><trkpt lat="14.610037723601463" lon="121.05161295059771"><ele>40.8</ele><time>2026-04-08T10:09:17Z</time></trkpt><trkpt lat="14.610067097183107" lon="121.05173380711635"><ele>41.6</ele><time>2026-04-08T10:09:19Z</time></trkpt><trkpt lat="14.610093325360896" lon="121.0518560975179"><ele>42.400000000000006</ele><time>2026-04-08T10:09:21Z</time></trkpt><trkpt lat="14.610117309135855" lon="121.05195260754101"><ele>43.2</ele><time>2026-04-08T10:09:23Z</time></trkpt><trkpt lat="14.610138517341769" lon="121.0520379341215"><ele>44.0</ele><time>2026-04-08T10:09:25Z</time></trkpt><trkpt lat="14.610153696743719" lon="121.05210110937044"><ele>44.0</ele><time>2026-04-08T10:09:27Z</time></trkpt><trkpt lat="14.610173009582045" lon="121.05217307637656"><ele>44.0</ele><time>2026-04-08T10:09:29Z</time></trkpt><trkpt lat="14.610185441423216" lon="121.05225004255551"><ele>44.0</ele><time>2026-04-08T10:09:36Z</time></trkpt><trkpt lat="14.610208724897243" lon="121.05232970022044"><ele>44.0</ele><time>2026-04-08T10:09:42Z</time></trkpt><trkpt lat="14.610237474507894" lon="121.05242066741067"><ele>44.0</ele><time>2026-04-08T10:09:44Z</time></trkpt><trkpt lat="14.610264073211663" lon="121.05253209768917"><ele>44.0</ele><time>2026-04-08T10:09:46Z</time></trkpt><trkpt lat="14.610304705336043" lon="121.0526268972442"><ele>44.0</ele><time>2026-04-08T10:09:48Z</time></trkpt><trkpt lat="14.610344082851556" lon="121.05268335366404"><ele>44.0</ele><time>2026-04-08T10:09:51Z</time></trkpt><trkpt lat="14.6103224265301" lon="121.05261708451152"><ele>44.0</ele><time>2026-04-08T10:11:14Z</time></trkpt><trkpt lat="14.610285915561876" lon="121.05252852321026"><ele>44.0</ele><time>2026-04-08T10:12:25Z</time></trkpt><trkpt lat="14.61026374801672" lon="121.05246532084584"><ele>44.0</ele><time>2026-04-08T10:12:27Z</time></trkpt><trkpt lat="14.610241137508238" lon="121.05239763988136"><ele>44.0</ele><time>2026-04-08T10:12:31Z</time></trkpt><trkpt lat="14.610220703024622" lon="121.0523333024131"><ele>44.0</ele><time>2026-04-08T10:12:36Z</time></trkpt><trkpt lat="14.61019170927346" lon="121.05224599420727"><ele>44.0</ele><time>2026-04-08T10:12:39Z</time></trkpt><trkpt lat="14.61016785441338" lon="121.05214286989506"><ele>44.0</ele><time>2026-04-08T10:12:41Z</time></trkpt><trkpt lat="14.610123827817734" lon="121.05196765650544"><ele>44.0</ele><time>2026-04-08T10:12:43Z</time></trkpt><trkpt lat="14.610104259968567" lon="121.05188775009856"><ele>44.0</ele><time>2026-04-08T10:12:44Z</time></trkpt><trkpt lat="14.610081396892733" lon="121.0518107581816"><ele>44.0</ele><time>2026-04-08T10:12:45Z</time></trkpt><trkpt lat="14.61006065883695" lon="121.05172716305557"><ele>44.0</ele><time>2026-04-08T10:12:46Z</time></trkpt><trkpt lat="14.610040543166" lon="121.05163966510159"><ele>44.0</ele><time>2026-04-08T10:12:47Z</time></trkpt><trkpt lat="14.61001763081262" lon="121.05155280480817"><ele>44.0</ele><time>2026-04-08T10:12:48Z</time></trkpt><trkpt lat="14.609997846125795" lon="121.05146919597584"><ele>44.0</ele><time>2026-04-08T10:12:49Z</time></trkpt><trkpt lat="14.609976995055343" lon="121.05139123743416"><ele>44.0</ele><time>2026-04-08T10:12:50Z</time></trkpt><trkpt lat="14.609959291111986" lon="121.05130766270965"><ele>44.0</ele><time>2026-04-08T10:12:51Z</time></trkpt><trkpt lat="14.60994316352302" lon="121.05123916687265"><ele>43.666666666666664</ele><time>2026-04-08T10:12:52Z</time></trkpt><trkpt lat="14.609919450462117" lon="121.0511332872329"><ele>43.33333333333333</ele><time>2026-04-08T10:12:54Z</time></trkpt><trkpt lat="14.609897642524784" lon="121.05103630495363"><ele>43.0</ele><time>2026-04-08T10:12:56Z</time></trkpt><trkpt lat="14.609877721119009" lon="121.05095117381967"><ele>42.666666666666664</ele><time>2026-04-08T10:12:58Z</time></trkpt><trkpt lat="14.609859960684016" lon="121.05086274289337"><ele>42.333333333333336</ele><time>2026-04-08T10:13:00Z</time></trkpt><trkpt lat="14.609837280779141" lon="121.05079378532929"><ele>42.0</ele><time>2026-04-08T10:13:02Z</time></trkpt><trkpt lat="14.60981543793435" lon="121.05070767741769"><ele>42.0</ele><time>2026-04-08T10:13:04Z</time></trkpt><trkpt lat="14.60979872512077" lon="121.05064158736471"><ele>42.0</ele><time>2026-04-08T10:13:05Z</time></trkpt><trkpt lat="14.609768691391295" lon="121.05051087001692"><ele>42.0</ele><time>2026-04-08T10:13:07Z</time></trkpt><trkpt lat="14.609751267991571" lon="121.05043794944216"><ele>42.0</ele><time>2026-04-08T10:13:08Z</time></trkpt><trkpt lat="14.609737054650171" lon="121.05037199635358"><ele>42.0</ele><time>2026-04-08T10:13:09Z</time></trkpt><trkpt lat="14.609714988712597" lon="121.05026913587146"><ele>42.0</ele><time>2026-04-08T10:13:11Z</time></trkpt><trkpt lat="14.609703031711355" lon="121.05019236274516"><ele>42.0</ele><time>2026-04-08T10:13:13Z</time></trkpt><trkpt lat="14.609688437724982" lon="121.05011277866198"><ele>42.0</ele><time>2026-04-08T10:13:15Z</time></trkpt><trkpt lat="14.609668043207414" lon="121.05002539328261"><ele>42.0</ele><time>2026-04-08T10:13:17Z</time></trkpt><trkpt lat="14.609651286874797" lon="121.04996171149637"><ele>42.0</ele><time>2026-04-08T10:13:18Z</time></trkpt><trkpt lat="14.609640167725727" lon="121.04989175863327"><ele>42.0</ele><time>2026-04-08T10:13:19Z</time></trkpt><trkpt lat="14.609629154469879" lon="121.04980801087711"><ele>42.0</ele><time>2026-04-08T10:13:20Z</time></trkpt><trkpt lat="14.609598068477712" lon="121.04973445315113"><ele>41.833333333333336</ele><time>2026-04-08T10:13:21Z</time></trkpt><trkpt lat="14.609574815400657" lon="121.04965052877047"><ele>41.666666666666664</ele><time>2026-04-08T10:13:22Z</time></trkpt><trkpt lat="14.609556715574186" lon="121.0495734785419"><ele>41.5</ele><time>2026-04-08T10:13:23Z</time></trkpt><trkpt lat="14.609523258095903" lon="121.04946567129583"><ele>41.33333333333333</ele><time>2026-04-08T10:13:25Z</time></trkpt><trkpt lat="14.609505009439713" lon="121.04937249105572"><ele>41.166666666666664</ele><time>2026-04-08T10:13:27Z</time></trkpt><trkpt lat="14.60949649780852" lon="121.04929770832021"><ele>41.0</ele><time>2026-04-08T10:13:29Z</time></trkpt><trkpt lat="14.609463954853835" lon="121.04920645515736"><ele>40.99999999999999</ele><time>2026-04-08T10:13:32Z</time></trkpt><trkpt lat="14.609437277621199" lon="121.04913528840608"><ele>41.0</ele><time>2026-04-08T10:13:34Z</time></trkpt><trkpt lat="14.60942411319249" lon="121.04906183758229"><ele>41.0</ele><time>2026-04-08T10:13:36Z</time></trkpt><trkpt lat="14.609404764580153" lon="121.04898753659043"><ele>41.0</ele><time>2026-04-08T10:13:38Z</time></trkpt><trkpt lat="14.609391776239688" lon="121.04890530115459"><ele>41.0</ele><time>2026-04-08T10:13:40Z</time></trkpt><trkpt lat="14.609380016455084" lon="121.04884077212789"><ele>40.99999999999999</ele><time>2026-04-08T10:13:42Z</time></trkpt><trkpt lat="14.609361409506198" lon="121.04877335291924"><ele>41.0</ele><time>2026-04-08T10:13:44Z</time></trkpt><trkpt lat="14.609342159072545" lon="121.04868844607496"><ele>41.0</ele><time>2026-04-08T10:13:47Z</time></trkpt><trkpt lat="14.609313602416659" lon="121.04860332403369"><ele>41.0</ele><time>2026-04-08T10:13:50Z</time></trkpt><trkpt lat="14.609301715661852" lon="121.04852798223924"><ele>41.0</ele><time>2026-04-08T10:13:55Z</time></trkpt><trkpt lat="14.609287725897504" lon="121.04843749347846"><ele>41.0</ele><time>2026-04-08T10:13:57Z</time></trkpt><trkpt lat="14.609267015510735" lon="121.04836631038161"><ele>41.0</ele><time>2026-04-08T10:13:58Z</time></trkpt><trkpt lat="14.609246890765743" lon="121.04829121987211"><ele>41.0</ele><time>2026-04-08T10:13:59Z</time></trkpt><trkpt lat="14.609227360532298" lon="121.04820654087901"><ele>41.199999999999996</ele><time>2026-04-08T10:14:00Z</time></trkpt><trkpt lat="14.609199201314858" lon="121.04811218868039"><ele>41.4</ele><time>2026-04-08T10:14:01Z</time></trkpt><trkpt lat="14.609179767631044" lon="121.0480196936071"><ele>41.6</ele><time>2026-04-08T10:14:02Z</time></trkpt><trkpt lat="14.609160655322743" lon="121.04793458711765"><ele>41.8</ele><time>2026-04-08T10:14:03Z</time></trkpt><trkpt lat="14.609139211568566" lon="121.04784091028786"><ele>42.0</ele><time>2026-04-08T10:14:04Z</time></trkpt><trkpt lat="14.609118509242801" lon="121.04774549351546"><ele>42.0</ele><time>2026-04-08T10:14:05Z</time></trkpt><trkpt lat="14.609093916255528" lon="121.04764215015823"><ele>42.0</ele><time>2026-04-08T10:14:06Z</time></trkpt><trkpt lat="14.609072378914817" lon="121.04753717652645"><ele>42.0</ele><time>2026-04-08T10:14:07Z</time></trkpt><trkpt lat="14.609047163849276" lon="121.04743413447432"><ele>42.0</ele><time>2026-04-08T10:14:08Z</time></trkpt><trkpt lat="14.609020354264006" lon="121.04732817348908"><ele>42.0</ele><time>2026-04-08T10:14:09Z</time></trkpt><trkpt lat="14.608996017976851" lon="121.0472225469927"><ele>41.4</ele><time>2026-04-08T10:14:10Z</time></trkpt><trkpt lat="14.608974311079665" lon="121.04712812789552"><ele>40.800000000000004</ele><time>2026-04-08T10:14:11Z</time></trkpt><trkpt lat="14.608954579088833" lon="121.04704751523968"><ele>40.2</ele><time>2026-04-08T10:14:12Z</time></trkpt><trkpt lat="14.608927463017206" lon="121.04694409199129"><ele>39.6</ele><time>2026-04-08T10:14:14Z</time></trkpt><trkpt lat="14.608891656188874" lon="121.04685407167835"><ele>39.0</ele><time>2026-04-08T10:14:16Z</time></trkpt><trkpt lat="14.608863169018361" lon="121.04671098929892"><ele>38.6</ele><time>2026-04-08T10:14:18Z</time></trkpt><trkpt lat="14.60884075113964" lon="121.04662595688231"><ele>38.2</ele><time>2026-04-08T10:14:19Z</time></trkpt><trkpt lat="14.608813952862652" lon="121.04654250702237"><ele>37.800000000000004</ele><time>2026-04-08T10:14:20Z</time></trkpt><trkpt lat="14.608790307538614" lon="121.04644092970689"><ele>37.4</ele><time>2026-04-08T10:14:21Z</time></trkpt><trkpt lat="14.608764941904742" lon="121.04633782106747"><ele>37.0</ele><time>2026-04-08T10:14:22Z</time></trkpt><trkpt lat="14.608736954737289" lon="121.04623393301016"><ele>37.0</ele><time>2026-04-08T10:14:23Z</time></trkpt><trkpt lat="14.608714089312754" lon="121.04612353074891"><ele>37.0</ele><time>2026-04-08T10:14:24Z</time></trkpt><trkpt lat="14.608690808322688" lon="121.046013119708"><ele>37.0</ele><time>2026-04-08T10:14:25Z</time></trkpt><trkpt lat="14.60866962865469" lon="121.04589844568166"><ele>37.0</ele><time>2026-04-08T10:14:26Z</time></trkpt><trkpt lat="14.608663327581194" lon="121.04578392284616"><ele>37.0</ele><time>2026-04-08T10:14:27Z</time></trkpt><trkpt lat="14.608665048939754" lon="121.04566384019466"><ele>37.5</ele><time>2026-04-08T10:14:28Z</time></trkpt><trkpt lat="14.60867836431058" lon="121.04553631825927"><ele>38.0</ele><time>2026-04-08T10:14:29Z</time></trkpt><trkpt lat="14.608699192516001" lon="121.0454099588845"><ele>38.5</ele><time>2026-04-08T10:14:30Z</time></trkpt><trkpt lat="14.608724640716106" lon="121.04527460824438"><ele>39.0</ele><time>2026-04-08T10:14:31Z</time></trkpt><trkpt lat="14.608745159665222" lon="121.04513610993943"><ele>39.0</ele><time>2026-04-08T10:14:32Z</time></trkpt><trkpt lat="14.608768022297898" lon="121.04500329392522"><ele>39.0</ele><time>2026-04-08T10:14:33Z</time></trkpt><trkpt lat="14.6087879372211" lon="121.04486723025454"><ele>39.0</ele><time>2026-04-08T10:14:34Z</time></trkpt><trkpt lat="14.608805994947492" lon="121.04473472947609"><ele>39.0</ele><time>2026-04-08T10:14:35Z</time></trkpt><trkpt lat="14.608828772665877" lon="121.04460719115826"><ele>38.25</ele><time>2026-04-08T10:14:36Z</time></trkpt><trkpt lat="14.608848678635328" lon="121.04448685587452"><ele>37.5</ele><time>2026-04-08T10:14:37Z</time></trkpt><trkpt lat="14.60886747082979" lon="121.04436810786886"><ele>36.75</ele><time>2026-04-08T10:14:38Z</time></trkpt><trkpt lat="14.608879915463703" lon="121.04425689357056"><ele>36.0</ele><time>2026-04-08T10:14:39Z</time></trkpt><trkpt lat="14.608905037905393" lon="121.04414969500135"><ele>34.75</ele><time>2026-04-08T10:14:40Z</time></trkpt><trkpt lat="14.608943913438786" lon="121.04405254576064"><ele>33.5</ele><time>2026-04-08T10:14:41Z</time></trkpt><trkpt lat="14.609002175743745" lon="121.04395569278455"><ele>32.25</ele><time>2026-04-08T10:14:42Z</time></trkpt><trkpt lat="14.609080764275426" lon="121.04385784419021"><ele>31.0</ele><time>2026-04-08T10:14:43Z</time></trkpt><trkpt lat="14.609168699135644" lon="121.04376508167705"><ele>31.0</ele><time>2026-04-08T10:14:44Z</time></trkpt><trkpt lat="14.609252653232906" lon="121.04367065202575"><ele>31.0</ele><time>2026-04-08T10:14:45Z</time></trkpt><trkpt lat="14.609325728626809" lon="121.04357894777586"><ele>31.0</ele><time>2026-04-08T10:14:46Z</time></trkpt><trkpt lat="14.609393961787696" lon="121.04349759509131"><ele>31.0</ele><time>2026-04-08T10:14:47Z</time></trkpt><trkpt lat="14.609456047655053" lon="121.04342548246237"><ele>31.0</ele><time>2026-04-08T10:14:48Z</time></trkpt><trkpt lat="14.609509320698995" lon="121.04335750841197"><ele>31.166666666666668</ele><time>2026-04-08T10:14:49Z</time></trkpt><trkpt lat="14.609555917615054" lon="121.04330542269113"><ele>31.333333333333336</ele><time>2026-04-08T10:14:50Z</time></trkpt><trkpt lat="14.609610024491761" lon="121.0432284243884"><ele>31.5</ele><time>2026-04-08T10:14:52Z</time></trkpt><trkpt lat="14.609639507042754" lon="121.04314294029324"><ele>31.666666666666664</ele><time>2026-04-08T10:15:28Z</time></trkpt><trkpt lat="14.609642490986921" lon="121.04303889678131"><ele>31.833333333333332</ele><time>2026-04-08T10:15:30Z</time></trkpt><trkpt lat="14.609629953264198" lon="121.04296746010904"><ele>32.0</ele><time>2026-04-08T10:15:31Z</time></trkpt><trkpt lat="14.609605836445066" lon="121.04289612974567"><ele>32.0</ele><time>2026-04-08T10:15:32Z</time></trkpt><trkpt lat="14.609577212860092" lon="121.042811060115"><ele>32.0</ele><time>2026-04-08T10:15:33Z</time></trkpt><trkpt lat="14.609539751379216" lon="121.04271112873998"><ele>32.0</ele><time>2026-04-08T10:15:34Z</time></trkpt><trkpt lat="14.609490480432433" lon="121.04261208456454"><ele>32.0</ele><time>2026-04-08T10:15:35Z</time></trkpt><trkpt lat="14.609444616015159" lon="121.04250728373378"><ele>32.0</ele><time>2026-04-08T10:15:36Z</time></trkpt><trkpt lat="14.60940027214732" lon="121.04240017604457"><ele>31.25</ele><time>2026-04-08T10:15:37Z</time></trkpt><trkpt lat="14.609356297745418" lon="121.04229303191563"><ele>30.5</ele><time>2026-04-08T10:15:38Z</time></trkpt><trkpt lat="14.609308433911963" lon="121.04218109538853"><ele>29.75</ele><time>2026-04-08T10:15:39Z</time></trkpt><trkpt lat="14.609259274598415" lon="121.04206746551198"><ele>29.0</ele><time>2026-04-08T10:15:40Z</time></trkpt><trkpt lat="14.6092105279134" lon="121.04194950466446"><ele>29.0</ele><time>2026-04-08T10:15:41Z</time></trkpt><trkpt lat="14.60916286082295" lon="121.04182642511927"><ele>29.0</ele><time>2026-04-08T10:15:42Z</time></trkpt><trkpt lat="14.609113744203015" lon="121.04169868677081"><ele>29.0</ele><time>2026-04-08T10:15:43Z</time></trkpt><trkpt lat="14.609063458904682" lon="121.0415784622785"><ele>29.0</ele><time>2026-04-08T10:15:44Z</time></trkpt><trkpt lat="14.609015774898952" lon="121.04146634852515"><ele>29.0</ele><time>2026-04-08T10:15:45Z</time></trkpt><trkpt lat="14.608971829989922" lon="121.04135639343774"><ele>29.0</ele><time>2026-04-08T10:15:46Z</time></trkpt><trkpt lat="14.60892884483677" lon="121.04125074888749"><ele>29.0</ele><time>2026-04-08T10:15:47Z</time></trkpt><trkpt lat="14.608880582763394" lon="121.04114473610518"><ele>29.0</ele><time>2026-04-08T10:15:48Z</time></trkpt><trkpt lat="14.608838344906024" lon="121.04104297264095"><ele>29.0</ele><time>2026-04-08T10:15:49Z</time></trkpt><trkpt lat="14.608797552796783" lon="121.04094813241899"><ele>29.0</ele><time>2026-04-08T10:15:50Z</time></trkpt><trkpt lat="14.608747127377525" lon="121.04085093508242"><ele>29.0</ele><time>2026-04-08T10:15:51Z</time></trkpt><trkpt lat="14.608682163592116" lon="121.04075892799463"><ele>29.0</ele><time>2026-04-08T10:15:52Z</time></trkpt><trkpt lat="14.608611468881866" lon="121.0406664388816"><ele>29.0</ele><time>2026-04-08T10:15:53Z</time></trkpt><trkpt lat="14.608544202574677" lon="121.04056577138023"><ele>29.0</ele><time>2026-04-08T10:15:54Z</time></trkpt><trkpt lat="14.60848262552762" lon="121.04046525702465"><ele>29.0</ele><time>2026-04-08T10:15:55Z</time></trkpt><trkpt lat="14.608423589433837" lon="121.04037536667153"><ele>29.0</ele><time>2026-04-08T10:15:56Z</time></trkpt><trkpt lat="14.608356480012015" lon="121.04028726342814"><ele>29.0</ele><time>2026-04-08T10:15:57Z</time></trkpt><trkpt lat="14.608292178678655" lon="121.0401973438951"><ele>29.0</ele><time>2026-04-08T10:15:58Z</time></trkpt><trkpt lat="14.608224842162034" lon="121.0400985040855"><ele>29.0</ele><time>2026-04-08T10:15:59Z</time></trkpt><trkpt lat="14.608148587050241" lon="121.03998714600672"><ele>28.75</ele><time>2026-04-08T10:16:00Z</time></trkpt><trkpt lat="14.608071424192273" lon="121.03987739973697"><ele>28.5</ele><time>2026-04-08T10:16:01Z</time></trkpt><trkpt lat="14.607999228409266" lon="121.03977681670422"><ele>28.25</ele><time>2026-04-08T10:16:02Z</time></trkpt><trkpt lat="14.607932845060951" lon="121.03968445859775"><ele>28.0</ele><time>2026-04-08T10:16:03Z</time></trkpt><trkpt lat="14.607867679538254" lon="121.03960140813179"><ele>27.333333333333336</ele><time>2026-04-08T10:16:04Z</time></trkpt><trkpt lat="14.607814529939132" lon="121.03953008049325"><ele>26.666666666666668</ele><time>2026-04-08T10:16:05Z</time></trkpt><trkpt lat="14.607772184310159" lon="121.03947380458902"><ele>26.0</ele><time>2026-04-08T10:16:06Z</time></trkpt><trkpt lat="14.607709986413724" lon="121.0393941125982"><ele>25.333333333333336</ele><time>2026-04-08T10:16:08Z</time></trkpt><trkpt lat="14.607668204595885" lon="121.03934076313152"><ele>24.666666666666668</ele><time>2026-04-08T10:16:11Z</time></trkpt><trkpt lat="14.607632429837723" lon="121.03925489111275"><ele>24.0</ele><time>2026-04-08T10:18:55Z</time></trkpt><trkpt lat="14.607551774850668" lon="121.03915755105828"><ele>23.666666666666668</ele><time>2026-04-08T10:18:57Z</time></trkpt><trkpt lat="14.60750794930382" lon="121.03910611554714"><ele>23.333333333333332</ele><time>2026-04-08T10:18:58Z</time></trkpt><trkpt lat="14.607459809569331" lon="121.03904493058054"><ele>23.0</ele><time>2026-04-08T10:18:59Z</time></trkpt><trkpt lat="14.607408921037344" lon="121.03898521996325"><ele>22.666666666666664</ele><time>2026-04-08T10:19:00Z</time></trkpt><trkpt lat="14.607352888477946" lon="121.03891882078292"><ele>22.333333333333332</ele><time>2026-04-08T10:19:01Z</time></trkpt><trkpt lat="14.60728005726712" lon="121.03884827663737"><ele>22.0</ele><time>2026-04-08T10:19:02Z</time></trkpt><trkpt lat="14.607208284132742" lon="121.03877476843363"><ele>22.0</ele><time>2026-04-08T10:19:03Z</time></trkpt><trkpt lat="14.607145238750265" lon="121.03869996732347"><ele>22.0</ele><time>2026-04-08T10:19:04Z</time></trkpt><trkpt lat="14.607080234570628" lon="121.03861758375005"><ele>22.0</ele><time>2026-04-08T10:19:05Z</time></trkpt><trkpt lat="14.607009010158764" lon="121.03853659719427"><ele>22.0</ele><time>2026-04-08T10:19:06Z</time></trkpt><trkpt lat="14.606942856108786" lon="121.03846226005732"><ele>22.0</ele><time>2026-04-08T10:19:07Z</time></trkpt><trkpt lat="14.606874346304012" lon="121.0383843485408"><ele>21.8</ele><time>2026-04-08T10:19:08Z</time></trkpt><trkpt lat="14.606805859882577" lon="121.0383035380979"><ele>21.6</ele><time>2026-04-08T10:19:09Z</time></trkpt><trkpt lat="14.606731106546532" lon="121.03822270668853"><ele>21.400000000000002</ele><time>2026-04-08T10:19:10Z</time></trkpt><trkpt lat="14.606657329212531" lon="121.03813988029799"><ele>21.200000000000003</ele><time>2026-04-08T10:19:11Z</time></trkpt><trkpt lat="14.606582564112983" lon="121.03805459951047"><ele>21.0</ele><time>2026-04-08T10:19:12Z</time></trkpt><trkpt lat="14.606506315957311" lon="121.03796553402665"><ele>21.0</ele><time>2026-04-08T10:19:13Z</time></trkpt><trkpt lat="14.606438616098114" lon="121.03787870200517"><ele>21.0</ele><time>2026-04-08T10:19:14Z</time></trkpt><trkpt lat="14.606365727413095" lon="121.03779707731505"><ele>21.0</ele><time>2026-04-08T10:19:15Z</time></trkpt><trkpt lat="14.606291952020516" lon="121.03771985627971"><ele>21.0</ele><time>2026-04-08T10:19:16Z</time></trkpt><trkpt lat="14.606223467021664" lon="121.03763797380954"><ele>21.0</ele><time>2026-04-08T10:19:17Z</time></trkpt><trkpt lat="14.606158227938474" lon="121.037559739841"><ele>21.0</ele><time>2026-04-08T10:19:18Z</time></trkpt><trkpt lat="14.606093918653864" lon="121.03749145634644"><ele>21.0</ele><time>2026-04-08T10:19:19Z</time></trkpt><trkpt lat="14.606039575768012" lon="121.03742417411534"><ele>21.0</ele><time>2026-04-08T10:19:20Z</time></trkpt><trkpt lat="14.605986689445158" lon="121.03735074162957"><ele>21.0</ele><time>2026-04-08T10:19:21Z</time></trkpt><trkpt lat="14.605912689581178" lon="121.03727971400573"><ele>21.0</ele><time>2026-04-08T10:19:22Z</time></trkpt><trkpt lat="14.605849357070856" lon="121.03720799792835"><ele>23.0</ele><time>2026-04-08T10:19:23.001Z</time></trkpt><trkpt lat="14.605781696500758" lon="121.03713422260803"><ele>25.0</ele><time>2026-04-08T10:19:24.001Z</time></trkpt><trkpt lat="14.605711923084616" lon="121.03706361455481"><ele>27.0</ele><time>2026-04-08T10:19:25.001Z</time></trkpt><trkpt lat="14.605639582234826" lon="121.03698707707652"><ele>29.0</ele><time>2026-04-08T10:19:26.001Z</time></trkpt><trkpt lat="14.605560164836714" lon="121.03691075348848"><ele>31.0</ele><time>2026-04-08T10:19:27.001Z</time></trkpt><trkpt lat="14.605473429250994" lon="121.03683322267396"><ele>31.0</ele><time>2026-04-08T10:19:28.001Z</time></trkpt><trkpt lat="14.605376904576648" lon="121.03676535386326"><ele>31.0</ele><time>2026-04-08T10:19:29.001Z</time></trkpt><trkpt lat="14.605264925303143" lon="121.03669441058447"><ele>31.0</ele><time>2026-04-08T10:19:30.001Z</time></trkpt><trkpt lat="14.605158100431462" lon="121.03662312326371"><ele>31.0</ele><time>2026-04-08T10:19:31.001Z</time></trkpt><trkpt lat="14.605053357208384" lon="121.03655526011406"><ele>31.200000000000003</ele><time>2026-04-08T10:19:32.001Z</time></trkpt><trkpt lat="14.604969680785661" lon="121.03648098840243"><ele>31.400000000000002</ele><time>2026-04-08T10:19:33.001Z</time></trkpt><trkpt lat="14.604910008144547" lon="121.03639446735818"><ele>31.6</ele><time>2026-04-08T10:19:34.001Z</time></trkpt><trkpt lat="14.60487706021798" lon="121.03629657897808"><ele>31.8</ele><time>2026-04-08T10:19:35.001Z</time></trkpt><trkpt lat="14.60486287219811" lon="121.03619103672986"><ele>32.0</ele><time>2026-04-08T10:19:36.001Z</time></trkpt><trkpt lat="14.604869373249356" lon="121.03609197003304"><ele>31.999999999999996</ele><time>2026-04-08T10:19:37.001Z</time></trkpt><trkpt lat="14.6048774839703" lon="121.03599760474872"><ele>32.0</ele><time>2026-04-08T10:19:38.001Z</time></trkpt><trkpt lat="14.60488119393112" lon="121.0359183726234"><ele>32.0</ele><time>2026-04-08T10:19:39.001Z</time></trkpt><trkpt lat="14.604894477144633" lon="121.0358415590091"><ele>32.0</ele><time>2026-04-08T10:19:40.001Z</time></trkpt><trkpt lat="14.60490575146246" lon="121.03575807557799"><ele>31.999999999999996</ele><time>2026-04-08T10:19:41.001Z</time></trkpt><trkpt lat="14.604910611793308" lon="121.03566637998217"><ele>32.0</ele><time>2026-04-08T10:19:42.001Z</time></trkpt><trkpt lat="14.604906552897946" lon="121.03556898308128"><ele>31.8</ele><time>2026-04-08T10:19:43.001Z</time></trkpt><trkpt lat="14.604912879897887" lon="121.03547066909009"><ele>31.6</ele><time>2026-04-08T10:19:44.001Z</time></trkpt><trkpt lat="14.60492362543151" lon="121.03537146101574"><ele>31.400000000000002</ele><time>2026-04-08T10:19:45.001Z</time></trkpt><trkpt lat="14.60492921989301" lon="121.03527051014552"><ele>31.200000000000003</ele><time>2026-04-08T10:19:46.001Z</time></trkpt><trkpt lat="14.604942728665781" lon="121.03516654583453"><ele>31.0</ele><time>2026-04-08T10:19:47.001Z</time></trkpt><trkpt lat="14.604954832273927" lon="121.03506057237807"><ele>30.75</ele><time>2026-04-08T10:19:48.001Z</time></trkpt><trkpt lat="14.60496498772039" lon="121.0349501062797"><ele>30.5</ele><time>2026-04-08T10:19:49.001Z</time></trkpt><trkpt lat="14.604977775250868" lon="121.03483096987948"><ele>30.25</ele><time>2026-04-08T10:19:50.001Z</time></trkpt><trkpt lat="14.60498695996386" lon="121.03471253315357"><ele>30.0</ele><time>2026-04-08T10:19:51.001Z</time></trkpt><trkpt lat="14.605004468381534" lon="121.03459109566869"><ele>30.0</ele><time>2026-04-08T10:19:52.001Z</time></trkpt><trkpt lat="14.605018623946103" lon="121.03446615859177"><ele>30.0</ele><time>2026-04-08T10:19:53.001Z</time></trkpt><trkpt lat="14.605033541267249" lon="121.03433931542618"><ele>30.0</ele><time>2026-04-08T10:19:54.001Z</time></trkpt><trkpt lat="14.605047162715485" lon="121.0342129910314"><ele>30.0</ele><time>2026-04-08T10:19:55Z</time></trkpt><trkpt lat="14.605060158350053" lon="121.03409068560465"><ele>30.0</ele><time>2026-04-08T10:19:56Z</time></trkpt><trkpt lat="14.605072151484071" lon="121.03397148307812"><ele>30.0</ele><time>2026-04-08T10:19:57Z</time></trkpt><trkpt lat="14.605079558984965" lon="121.0338537123054"><ele>30.0</ele><time>2026-04-08T10:19:58Z</time></trkpt><trkpt lat="14.605094764161283" lon="121.03374732264308"><ele>30.0</ele><time>2026-04-08T10:19:59Z</time></trkpt><trkpt lat="14.605103411607866" lon="121.03364135344171"><ele>30.0</ele><time>2026-04-08T10:20:00Z</time></trkpt><trkpt lat="14.605111627706647" lon="121.03354652923632"><ele>30.0</ele><time>2026-04-08T10:20:01Z</time></trkpt><trkpt lat="14.605117214553774" lon="121.03347063132874"><ele>30.0</ele><time>2026-04-08T10:20:02Z</time></trkpt><trkpt lat="14.605117391088154" lon="121.03340140795241"><ele>30.0</ele><time>2026-04-08T10:20:03Z</time></trkpt><trkpt lat="14.605069812069775" lon="121.03330345458909"><ele>30.0</ele><time>2026-04-08T10:20:05Z</time></trkpt><trkpt lat="14.60496033726614" lon="121.03322298610877"><ele>30.0</ele><time>2026-04-08T10:20:07Z</time></trkpt><trkpt lat="14.60490886589057" lon="121.03318082617173"><ele>30.0</ele><time>2026-04-08T10:20:08Z</time></trkpt><trkpt lat="14.604863015989615" lon="121.03313564789991"><ele>30.0</ele><time>2026-04-08T10:20:09Z</time></trkpt><trkpt lat="14.60481417859612" lon="121.03308635343991"><ele>30.0</ele><time>2026-04-08T10:20:10Z</time></trkpt><trkpt lat="14.604758711497018" lon="121.03303586875461"><ele>30.0</ele><time>2026-04-08T10:20:11Z</time></trkpt><trkpt lat="14.604671435794339" lon="121.032953879447"><ele>30.0</ele><time>2026-04-08T10:20:13Z</time></trkpt><trkpt lat="14.604611899948653" lon="121.03289184069733"><ele>30.0</ele><time>2026-04-08T10:20:15Z</time></trkpt><trkpt lat="14.604538415400546" lon="121.03283859686508"><ele>30.0</ele><time>2026-04-08T10:20:17Z</time></trkpt><trkpt lat="14.60446822884089" lon="121.03280276471095"><ele>29.666666666666668</ele><time>2026-04-08T10:20:19Z</time></trkpt><trkpt lat="14.604396432425512" lon="121.03274549442877"><ele>29.333333333333336</ele><time>2026-04-08T10:20:22Z</time></trkpt><trkpt lat="14.60430712663288" lon="121.03273577761725"><ele>29.0</ele><time>2026-04-08T10:20:24Z</time></trkpt><trkpt lat="14.604232761063551" lon="121.03271105412284"><ele>28.666666666666668</ele><time>2026-04-08T10:20:27Z</time></trkpt><trkpt lat="14.604154301766622" lon="121.03272267545101"><ele>28.333333333333336</ele><time>2026-04-08T10:20:30Z</time></trkpt><trkpt lat="14.60407154872313" lon="121.03276795531787"><ele>28.0</ele><time>2026-04-08T10:20:32Z</time></trkpt><trkpt lat="14.603984026590904" lon="121.0328168461545"><ele>28.000000000000004</ele><time>2026-04-08T10:20:34Z</time></trkpt><trkpt lat="14.603921721372512" lon="121.03286021471702"><ele>28.0</ele><time>2026-04-08T10:20:36Z</time></trkpt><trkpt lat="14.603854397892603" lon="121.03290443047972"><ele>28.0</ele><time>2026-04-08T10:20:38Z</time></trkpt><trkpt lat="14.603767985000456" lon="121.03295744061322"><ele>28.0</ele><time>2026-04-08T10:20:40Z</time></trkpt><trkpt lat="14.603712352242704" lon="121.03299142836262"><ele>28.000000000000004</ele><time>2026-04-08T10:20:41Z</time></trkpt><trkpt lat="14.603651624098209" lon="121.03302472087061"><ele>28.0</ele><time>2026-04-08T10:20:42Z</time></trkpt><trkpt lat="14.603583237728378" lon="121.0330610351136"><ele>27.666666666666668</ele><time>2026-04-08T10:20:43Z</time></trkpt><trkpt lat="14.603494312157178" lon="121.03311142052978"><ele>27.333333333333336</ele><time>2026-04-08T10:20:44Z</time></trkpt><trkpt lat="14.603428921618587" lon="121.03314689397423"><ele>27.0</ele><time>2026-04-08T10:20:45Z</time></trkpt><trkpt lat="14.603363875561884" lon="121.03318601948266"><ele>26.666666666666664</ele><time>2026-04-08T10:20:46Z</time></trkpt><trkpt lat="14.60329869681764" lon="121.0332218479291"><ele>26.333333333333332</ele><time>2026-04-08T10:20:47Z</time></trkpt><trkpt lat="14.603228511331398" lon="121.0332602677216"><ele>26.0</ele><time>2026-04-08T10:20:48Z</time></trkpt><trkpt lat="14.603165182923407" lon="121.03329585292721"><ele>26.142857142857142</ele><time>2026-04-08T10:20:49Z</time></trkpt><trkpt lat="14.6031075279058" lon="121.03332845015714"><ele>26.28571428571429</ele><time>2026-04-08T10:20:50Z</time></trkpt><trkpt lat="14.60305246421799" lon="121.03336279758491"><ele>26.42857142857143</ele><time>2026-04-08T10:20:51Z</time></trkpt><trkpt lat="14.602954068781527" lon="121.03342276454636"><ele>26.57142857142857</ele><time>2026-04-08T10:20:53Z</time></trkpt><trkpt lat="14.602897872019868" lon="121.03345252559441"><ele>26.714285714285715</ele><time>2026-04-08T10:20:54Z</time></trkpt><trkpt lat="14.602841409249745" lon="121.03348989588677"><ele>26.857142857142858</ele><time>2026-04-08T10:20:55Z</time></trkpt><trkpt lat="14.602783624002992" lon="121.0335270991286"><ele>27.0</ele><time>2026-04-08T10:20:56Z</time></trkpt><trkpt lat="14.602728136222158" lon="121.03357570168656"><ele>26.5</ele><time>2026-04-08T10:20:57Z</time></trkpt><trkpt lat="14.60266968207281" lon="121.03362604355634"><ele>26.0</ele><time>2026-04-08T10:20:58Z</time></trkpt><trkpt lat="14.602613791798124" lon="121.03367373455185"><ele>25.5</ele><time>2026-04-08T10:20:59Z</time></trkpt><trkpt lat="14.602558960732107" lon="121.03371937671203"><ele>25.0</ele><time>2026-04-08T10:21:00Z</time></trkpt><trkpt lat="14.602467461808965" lon="121.03379833521635"><ele>24.5</ele><time>2026-04-08T10:21:02Z</time></trkpt><trkpt lat="14.602383307763594" lon="121.03387179842478"><ele>24.0</ele><time>2026-04-08T10:21:04Z</time></trkpt><trkpt lat="14.602319472089281" lon="121.03392809279858"><ele>24.0</ele><time>2026-04-08T10:21:06Z</time></trkpt><trkpt lat="14.602262416927172" lon="121.03397539998393"><ele>24.0</ele><time>2026-04-08T10:21:09Z</time></trkpt><trkpt lat="14.602210918259487" lon="121.03403460254117"><ele>24.0</ele><time>2026-04-08T10:21:12Z</time></trkpt><trkpt lat="14.602171263810263" lon="121.0341152712734"><ele>24.0</ele><time>2026-04-08T10:21:16.001Z</time></trkpt><trkpt lat="14.60214865903307" lon="121.03417725774361"><ele>24.0</ele><time>2026-04-08T10:21:18.001Z</time></trkpt><trkpt lat="14.602130521686494" lon="121.03427030890482"><ele>24.0</ele><time>2026-04-08T10:21:21.001Z</time></trkpt><trkpt lat="14.602122863545148" lon="121.03434811019468"><ele>24.166666666666668</ele><time>2026-04-08T10:21:23.001Z</time></trkpt><trkpt lat="14.60213405035349" lon="121.0344311973617"><ele>24.333333333333336</ele><time>2026-04-08T10:21:25.001Z</time></trkpt><trkpt lat="14.602148166860793" lon="121.03449969684961"><ele>24.5</ele><time>2026-04-08T10:21:27.001Z</time></trkpt><trkpt lat="14.602166210389145" lon="121.03459325656219"><ele>24.666666666666668</ele><time>2026-04-08T10:21:32.001Z</time></trkpt><trkpt lat="14.602194471416523" lon="121.03468179283611"><ele>24.833333333333336</ele><time>2026-04-08T10:21:34.001Z</time></trkpt><trkpt lat="14.602216794614627" lon="121.03479805710634"><ele>25.0</ele><time>2026-04-08T10:21:36.001Z</time></trkpt><trkpt lat="14.602224311895597" lon="121.03486328341269"><ele>25.6</ele><time>2026-04-08T10:21:37.001Z</time></trkpt><trkpt lat="14.602249216169374" lon="121.03497165457878"><ele>26.2</ele><time>2026-04-08T10:21:39.001Z</time></trkpt><trkpt lat="14.602279370264034" lon="121.03508022836841"><ele>26.799999999999997</ele><time>2026-04-08T10:21:41.001Z</time></trkpt><trkpt lat="14.602292499168144" lon="121.03517713215916"><ele>27.4</ele><time>2026-04-08T10:21:43.001Z</time></trkpt><trkpt lat="14.602275911461655" lon="121.03526798907988"><ele>28.0</ele><time>2026-04-08T10:21:45.001Z</time></trkpt><trkpt lat="14.602228649822303" lon="121.0353407667029"><ele>28.000000000000004</ele><time>2026-04-08T10:21:47.001Z</time></trkpt><trkpt lat="14.602156992755056" lon="121.03540828088673"><ele>28.0</ele><time>2026-04-08T10:21:49.001Z</time></trkpt><trkpt lat="14.6020707738619" lon="121.03545664454404"><ele>28.0</ele><time>2026-04-08T10:21:51.001Z</time></trkpt><trkpt lat="14.601987081781411" lon="121.03548616513442"><ele>28.0</ele><time>2026-04-08T10:21:53.001Z</time></trkpt><trkpt lat="14.601910130580697" lon="121.03551814979733"><ele>28.000000000000004</ele><time>2026-04-08T10:21:56.001Z</time></trkpt><trkpt lat="14.601843354098909" lon="121.03554089389208"><ele>28.0</ele><time>2026-04-08T10:22:02Z</time></trkpt><trkpt lat="14.60177457167069" lon="121.03556345401937"><ele>28.000000000000004</ele><time>2026-04-08T10:22:06Z</time></trkpt><trkpt lat="14.601704700374176" lon="121.03559378068448"><ele>28.0</ele><time>2026-04-08T10:22:26Z</time></trkpt><trkpt lat="14.601642416891522" lon="121.03561911333422"><ele>28.0</ele><time>2026-04-08T10:22:28Z</time></trkpt><trkpt lat="14.60154521703578" lon="121.035652831829"><ele>28.0</ele><time>2026-04-08T10:22:30Z</time></trkpt><trkpt lat="14.601465696566798" lon="121.0356839827984"><ele>28.000000000000004</ele><time>2026-04-08T10:22:32Z</time></trkpt><trkpt lat="14.601396530833561" lon="121.03570506316235"><ele>28.0</ele><time>2026-04-08T10:22:34Z</time></trkpt><trkpt lat="14.601309587097125" lon="121.03575039068559"><ele>28.000000000000004</ele><time>2026-04-08T10:22:37Z</time></trkpt><trkpt lat="14.601244428780504" lon="121.0357875503178"><ele>28.0</ele><time>2026-04-08T10:22:40Z</time></trkpt><trkpt lat="14.601166328367144" lon="121.03582517848267"><ele>28.0</ele><time>2026-04-08T10:22:43Z</time></trkpt><trkpt lat="14.601110065651904" lon="121.03585781535793"><ele>28.0</ele><time>2026-04-08T10:22:45Z</time></trkpt><trkpt lat="14.601038123721608" lon="121.03590160334448"><ele>28.000000000000004</ele><time>2026-04-08T10:22:48Z</time></trkpt><trkpt lat="14.600958738878358" lon="121.03594337046071"><ele>28.0</ele><time>2026-04-08T10:22:51Z</time></trkpt><trkpt lat="14.600895687149329" lon="121.035978379629"><ele>28.500000000000004</ele><time>2026-04-08T10:22:53Z</time></trkpt><trkpt lat="14.600840101758806" lon="121.03600913993264"><ele>29.0</ele><time>2026-04-08T10:22:55.001Z</time></trkpt><trkpt lat="14.600761077319385" lon="121.03605332923986"><ele>29.5</ele><time>2026-04-08T10:22:57.001Z</time></trkpt><trkpt lat="14.600676439300996" lon="121.03610224824857"><ele>30.0</ele><time>2026-04-08T10:22:59.001Z</time></trkpt><trkpt lat="14.600603049948246" lon="121.03614719997377"><ele>30.500000000000004</ele><time>2026-04-08T10:23:01.001Z</time></trkpt><trkpt lat="14.60053627342789" lon="121.0361816787376"><ele>31.0</ele><time>2026-04-08T10:23:03.001Z</time></trkpt><trkpt lat="14.600467461944488" lon="121.03623363632113"><ele>31.0</ele><time>2026-04-08T10:23:05.001Z</time></trkpt><trkpt lat="14.600380527067912" lon="121.03627489053167"><ele>31.0</ele><time>2026-04-08T10:23:07.001Z</time></trkpt><trkpt lat="14.60029572967293" lon="121.03632970064062"><ele>31.0</ele><time>2026-04-08T10:23:09.001Z</time></trkpt><trkpt lat="14.600201064657176" lon="121.03639187999336"><ele>31.0</ele><time>2026-04-08T10:23:11.001Z</time></trkpt><trkpt lat="14.600126430509109" lon="121.03644107118619"><ele>31.0</ele><time>2026-04-08T10:23:13.001Z</time></trkpt><trkpt lat="14.600051068885499" lon="121.03649656698987"><ele>30.28571428571429</ele><time>2026-04-08T10:23:15.001Z</time></trkpt><trkpt lat="14.599980820380807" lon="121.03654276485786"><ele>29.571428571428577</ele><time>2026-04-08T10:23:17.001Z</time></trkpt><trkpt lat="14.599924281406818" lon="121.03658022076557"><ele>28.857142857142858</ele><time>2026-04-08T10:23:19.001Z</time></trkpt><trkpt lat="14.59985997217294" lon="121.03662501027316"><ele>28.142857142857146</ele><time>2026-04-08T10:23:21.001Z</time></trkpt><trkpt lat="14.599805248497182" lon="121.0366602087547"><ele>27.42857142857143</ele><time>2026-04-08T10:23:23.001Z</time></trkpt><trkpt lat="14.599733395950027" lon="121.03671017931511"><ele>26.714285714285715</ele><time>2026-04-08T10:23:27.001Z</time></trkpt><trkpt lat="14.599674165757591" lon="121.03674367223616"><ele>26.0</ele><time>2026-04-08T10:23:30.001Z</time></trkpt><trkpt lat="14.599602539608593" lon="121.0367898597067"><ele>26.0</ele><time>2026-04-08T10:23:33.001Z</time></trkpt><trkpt lat="14.599533569892396" lon="121.03683462035636"><ele>26.0</ele><time>2026-04-08T10:23:36.001Z</time></trkpt><trkpt lat="14.599465710398787" lon="121.03687568690728"><ele>26.0</ele><time>2026-04-08T10:24:07Z</time></trkpt><trkpt lat="14.599406883255337" lon="121.03691592495395"><ele>26.0</ele><time>2026-04-08T10:24:09Z</time></trkpt><trkpt lat="14.599324140776528" lon="121.03696794081326"><ele>26.0</ele><time>2026-04-08T10:24:11Z</time></trkpt><trkpt lat="14.599221166352777" lon="121.03704389060873"><ele>26.4</ele><time>2026-04-08T10:24:13Z</time></trkpt><trkpt lat="14.59915437456333" lon="121.03708840280618"><ele>26.8</ele><time>2026-04-08T10:24:14Z</time></trkpt><trkpt lat="14.599088220443551" lon="121.03712203134258"><ele>27.199999999999996</ele><time>2026-04-08T10:24:15Z</time></trkpt><trkpt lat="14.598996190095791" lon="121.03716753445974"><ele>27.599999999999998</ele><time>2026-04-08T10:24:17Z</time></trkpt><trkpt lat="14.59891203024713" lon="121.03721836953251"><ele>28.0</ele><time>2026-04-08T10:24:19Z</time></trkpt><trkpt lat="14.598805260309698" lon="121.03727081325974"><ele>28.000000000000004</ele><time>2026-04-08T10:24:21Z</time></trkpt><trkpt lat="14.59870458592956" lon="121.03732252436507"><ele>28.0</ele><time>2026-04-08T10:24:23Z</time></trkpt><trkpt lat="14.59862183004653" lon="121.03736912062155"><ele>28.0</ele><time>2026-04-08T10:24:25Z</time></trkpt><trkpt lat="14.59853542556537" lon="121.03740970406938"><ele>28.0</ele><time>2026-04-08T10:24:27Z</time></trkpt><trkpt lat="14.59846694610523" lon="121.03745234248625"><ele>28.000000000000004</ele><time>2026-04-08T10:24:29Z</time></trkpt><trkpt lat="14.598407295354383" lon="121.03748338596"><ele>28.0</ele><time>2026-04-08T10:24:32Z</time></trkpt><trkpt lat="14.598341689604126" lon="121.0374964509684"><ele>28.0</ele><time>2026-04-08T10:24:35Z</time></trkpt><trkpt lat="14.598293253092512" lon="121.03754042820248"><ele>27.999999999999996</ele><time>2026-04-08T10:24:37Z</time></trkpt><trkpt lat="14.598198724137623" lon="121.03758283994758"><ele>27.999999999999996</ele><time>2026-04-08T10:24:40Z</time></trkpt><trkpt lat="14.5980923282162" lon="121.03762176033511"><ele>28.0</ele><time>2026-04-08T10:24:42Z</time></trkpt><trkpt lat="14.597966822752348" lon="121.03765751655828"><ele>28.0</ele><time>2026-04-08T10:24:44Z</time></trkpt><trkpt lat="14.597849802121658" lon="121.03767442862048"><ele>29.2</ele><time>2026-04-08T10:24:46Z</time></trkpt><trkpt lat="14.597736265484942" lon="121.03769735640124"><ele>30.4</ele><time>2026-04-08T10:24:48Z</time></trkpt><trkpt lat="14.597609725648732" lon="121.03772716073482"><ele>31.599999999999998</ele><time>2026-04-08T10:24:50Z</time></trkpt><trkpt lat="14.597542280284062" lon="121.03774286784262"><ele>32.8</ele><time>2026-04-08T10:24:51Z</time></trkpt><trkpt lat="14.597469842112044" lon="121.03776201914596"><ele>34.0</ele><time>2026-04-08T10:24:52Z</time></trkpt><trkpt lat="14.597400014072006" lon="121.03778317041365"><ele>34.0</ele><time>2026-04-08T10:24:53Z</time></trkpt><trkpt lat="14.597324236652307" lon="121.03780212273652"><ele>34.0</ele><time>2026-04-08T10:24:54Z</time></trkpt><trkpt lat="14.597248544214219" lon="121.03781733196459"><ele>34.0</ele><time>2026-04-08T10:24:55Z</time></trkpt><trkpt lat="14.597177060243181" lon="121.03784114015647"><ele>34.0</ele><time>2026-04-08T10:24:56Z</time></trkpt><trkpt lat="14.597101447435287" lon="121.03785795549422"><ele>34.0</ele><time>2026-04-08T10:24:57Z</time></trkpt><trkpt lat="14.597024138462983" lon="121.03787476394399"><ele>34.0</ele><time>2026-04-08T10:24:58Z</time></trkpt><trkpt lat="14.59695487132978" lon="121.03789335001989"><ele>33.833333333333336</ele><time>2026-04-08T10:24:59Z</time></trkpt><trkpt lat="14.596880343489584" lon="121.0379122834737"><ele>33.66666666666667</ele><time>2026-04-08T10:25:00Z</time></trkpt><trkpt lat="14.596808780653038" lon="121.03793506965143"><ele>33.5</ele><time>2026-04-08T10:25:01Z</time></trkpt><trkpt lat="14.596739881417944" lon="121.03795036028782"><ele>33.333333333333336</ele><time>2026-04-08T10:25:02Z</time></trkpt><trkpt lat="14.596665115233488" lon="121.0379694988573"><ele>33.166666666666664</ele><time>2026-04-08T10:25:03Z</time></trkpt><trkpt lat="14.596583590369836" lon="121.03798672343437"><ele>33.0</ele><time>2026-04-08T10:25:04Z</time></trkpt><trkpt lat="14.596501868954899" lon="121.03801187153014"><ele>33.0</ele><time>2026-04-08T10:25:05Z</time></trkpt><trkpt lat="14.596420114286483" lon="121.0380287567699"><ele>33.0</ele><time>2026-04-08T10:25:06Z</time></trkpt><trkpt lat="14.596343499433504" lon="121.03803550751383"><ele>33.0</ele><time>2026-04-08T10:25:07Z</time></trkpt><trkpt lat="14.596268031007408" lon="121.03804174070474"><ele>33.0</ele><time>2026-04-08T10:25:08Z</time></trkpt><trkpt lat="14.596164412903281" lon="121.03805242899992"><ele>33.0</ele><time>2026-04-08T10:25:10Z</time></trkpt><trkpt lat="14.596096885600106" lon="121.0380330132181"><ele>33.0</ele><time>2026-04-08T10:25:13Z</time></trkpt><trkpt lat="14.595996689604593" lon="121.03802701278872"><ele>31.4</ele><time>2026-04-08T10:25:22.001Z</time></trkpt><trkpt lat="14.5959274522156" lon="121.03802099508081"><ele>29.799999999999997</ele><time>2026-04-08T10:25:23.001Z</time></trkpt><trkpt lat="14.595825285646214" lon="121.03801574049554"><ele>28.2</ele><time>2026-04-08T10:25:24.001Z</time></trkpt><trkpt lat="14.595711926401398" lon="121.03798953294447"><ele>26.6</ele><time>2026-04-08T10:25:25.001Z</time></trkpt><trkpt lat="14.595580161618873" lon="121.03793922013601"><ele>25.0</ele><time>2026-04-08T10:25:26.001Z</time></trkpt><trkpt lat="14.595437468028898" lon="121.03786317171334"><ele>24.8</ele><time>2026-04-08T10:25:27.001Z</time></trkpt><trkpt lat="14.595308492947535" lon="121.03778545347616"><ele>24.6</ele><time>2026-04-08T10:25:28.001Z</time></trkpt><trkpt lat="14.59524565928079" lon="121.03777897245601"><ele>24.4</ele><time>2026-04-08T10:25:29.001Z</time></trkpt><trkpt lat="14.595146464525511" lon="121.03775916522724"><ele>24.2</ele><time>2026-04-08T10:25:30.001Z</time></trkpt><trkpt lat="14.595042568106832" lon="121.03771870680272"><ele>24.0</ele><time>2026-04-08T10:25:31.001Z</time></trkpt><trkpt lat="14.59494548162896" lon="121.03766932609196"><ele>24.0</ele><time>2026-04-08T10:25:32.001Z</time></trkpt><trkpt lat="14.594849128324093" lon="121.03762334345936"><ele>24.0</ele><time>2026-04-08T10:25:33.001Z</time></trkpt><trkpt lat="14.594753604427021" lon="121.03758117506788"><ele>24.0</ele><time>2026-04-08T10:25:34.001Z</time></trkpt><trkpt lat="14.594674824411205" lon="121.03754532816828"><ele>24.0</ele><time>2026-04-08T10:25:35.001Z</time></trkpt><trkpt lat="14.594594333016794" lon="121.03750933170002"><ele>24.0</ele><time>2026-04-08T10:25:36.001Z</time></trkpt><trkpt lat="14.594526661029679" lon="121.03748665379679"><ele>24.333333333333332</ele><time>2026-04-08T10:25:37.001Z</time></trkpt><trkpt lat="14.594463185750046" lon="121.03747308099668"><ele>24.666666666666664</ele><time>2026-04-08T10:25:38.001Z</time></trkpt><trkpt lat="14.594398137184031" lon="121.03747233244103"><ele>25.0</ele><time>2026-04-08T10:25:39.001Z</time></trkpt><trkpt lat="14.594329019873939" lon="121.037482706149"><ele>25.333333333333332</ele><time>2026-04-08T10:25:40.001Z</time></trkpt><trkpt lat="14.594251383143696" lon="121.037507902498"><ele>25.666666666666664</ele><time>2026-04-08T10:25:41.001Z</time></trkpt><trkpt lat="14.594154131638994" lon="121.03753481398961"><ele>26.0</ele><time>2026-04-08T10:25:42.001Z</time></trkpt><trkpt lat="14.594056411802756" lon="121.03756245696286"><ele>26.0</ele><time>2026-04-08T10:25:43.001Z</time></trkpt><trkpt lat="14.593954332789089" lon="121.03758670136897"><ele>26.0</ele><time>2026-04-08T10:25:44.001Z</time></trkpt><trkpt lat="14.59385536090344" lon="121.03761562216205"><ele>26.0</ele><time>2026-04-08T10:25:45.001Z</time></trkpt><trkpt lat="14.593755579138614" lon="121.03763802443669"><ele>26.0</ele><time>2026-04-08T10:25:46.001Z</time></trkpt><trkpt lat="14.593651194166501" lon="121.03766128327993"><ele>26.0</ele><time>2026-04-08T10:25:47.001Z</time></trkpt><trkpt lat="14.593558517840076" lon="121.0376825915751"><ele>24.833333333333332</ele><time>2026-04-08T10:25:48.001Z</time></trkpt><trkpt lat="14.593468800423837" lon="121.03770564612674"><ele>23.666666666666664</ele><time>2026-04-08T10:25:49.001Z</time></trkpt><trkpt lat="14.593382213960997" lon="121.0377304114706"><ele>22.5</ele><time>2026-04-08T10:25:50.001Z</time></trkpt><trkpt lat="14.593304600369526" lon="121.03774688976976"><ele>21.333333333333332</ele><time>2026-04-08T10:25:51.001Z</time></trkpt><trkpt lat="14.593223147635774" lon="121.03775113886917"><ele>20.166666666666664</ele><time>2026-04-08T10:25:52.001Z</time></trkpt><trkpt lat="14.59313292180978" lon="121.03776279480368"><ele>19.0</ele><time>2026-04-08T10:25:53.001Z</time></trkpt><trkpt lat="14.593033906100416" lon="121.03776068493545"><ele>19.0</ele><time>2026-04-08T10:25:54.001Z</time></trkpt><trkpt lat="14.592945713322898" lon="121.0377639345724"><ele>19.0</ele><time>2026-04-08T10:25:55.001Z</time></trkpt><trkpt lat="14.592849789921958" lon="121.03776158371308"><ele>19.0</ele><time>2026-04-08T10:25:56.001Z</time></trkpt><trkpt lat="14.592762257448298" lon="121.0377630328072"><ele>19.0</ele><time>2026-04-08T10:25:57.001Z</time></trkpt><trkpt lat="14.592683566181067" lon="121.03776356092973"><ele>19.0</ele><time>2026-04-08T10:25:58.001Z</time></trkpt><trkpt lat="14.59260723622517" lon="121.03776179691862"><ele>19.0</ele><time>2026-04-08T10:25:59.001Z</time></trkpt><trkpt lat="14.592497988856866" lon="121.03775743519142"><ele>18.166666666666664</ele><time>2026-04-08T10:26:01.001Z</time></trkpt><trkpt lat="14.592427978613067" lon="121.03775783753491"><ele>17.333333333333332</ele><time>2026-04-08T10:26:03.001Z</time></trkpt><trkpt lat="14.592350500440812" lon="121.03774918925512"><ele>16.5</ele><time>2026-04-08T10:26:06.001Z</time></trkpt><trkpt lat="14.592278106847143" lon="121.03776153668912"><ele>15.666666666666668</ele><time>2026-04-08T10:26:08.001Z</time></trkpt><trkpt lat="14.592188767352905" lon="121.03776622117292"><ele>14.833333333333334</ele><time>2026-04-08T10:26:11.001Z</time></trkpt><trkpt lat="14.592103204062518" lon="121.0377545220174"><ele>14.0</ele><time>2026-04-08T10:26:14Z</time></trkpt><trkpt lat="14.59205705730456" lon="121.03767599209357"><ele>14.0</ele><time>2026-04-08T10:26:19Z</time></trkpt><trkpt lat="14.592031337846846" lon="121.03760372219271"><ele>14.0</ele><time>2026-04-08T10:26:21Z</time></trkpt><trkpt lat="14.592010732743338" lon="121.03754225292914"><ele>14.0</ele><time>2026-04-08T10:26:23Z</time></trkpt><trkpt lat="14.591999633457656" lon="121.03747670313285"><ele>14.0</ele><time>2026-04-08T10:26:25Z</time></trkpt><trkpt lat="14.591967096345599" lon="121.03740939373235"><ele>14.0</ele><time>2026-04-08T10:26:27Z</time></trkpt><trkpt lat="14.59193678835459" lon="121.03732591921957"><ele>14.0</ele><time>2026-04-08T10:26:29Z</time></trkpt><trkpt lat="14.591934268952487" lon="121.03724488757345"><ele>14.0</ele><time>2026-04-08T10:26:32Z</time></trkpt><trkpt lat="14.5919063322352" lon="121.03717543461525"><ele>13.0</ele><time>2026-04-08T10:26:34Z</time></trkpt><trkpt lat="14.591866394838007" lon="121.03708780919129"><ele>11.999999999999998</ele><time>2026-04-08T10:26:36Z</time></trkpt><trkpt lat="14.591843721729807" lon="121.0370266361411"><ele>11.0</ele><time>2026-04-08T10:26:37Z</time></trkpt><trkpt lat="14.59181681521845" lon="121.03695901538273"><ele>10.0</ele><time>2026-04-08T10:26:38Z</time></trkpt><trkpt lat="14.591764285784672" lon="121.03684379865744"><ele>9.0</ele><time>2026-04-08T10:26:40Z</time></trkpt><trkpt lat="14.591713791809642" lon="121.03674399255331"><ele>9.0</ele><time>2026-04-08T10:26:42Z</time></trkpt><trkpt lat="14.59168803882244" lon="121.0366719479032"><ele>9.0</ele><time>2026-04-08T10:26:44Z</time></trkpt><trkpt lat="14.591698091821538" lon="121.03660161555811"><ele>9.0</ele><time>2026-04-08T10:26:51Z</time></trkpt><trkpt lat="14.591573546421039" lon="121.03666191970383"><ele>9.0</ele><time>2026-04-08T10:28:29Z</time></trkpt><trkpt lat="14.591314070654477" lon="121.0367046310589"><ele>9.0</ele><time>2026-04-08T10:28:30Z</time></trkpt><trkpt lat="14.591394613924235" lon="121.03669845841121"><ele>9.0</ele><time>2026-04-08T10:28:41Z</time></trkpt><trkpt lat="14.591479454909521" lon="121.03654177458742"><ele>9.0</ele><time>2026-04-08T10:28:42Z</time></trkpt><trkpt lat="14.591390618019284" lon="121.03652399363935"><ele>9.0</ele><time>2026-04-08T10:28:43Z</time></trkpt><trkpt lat="14.591322748182879" lon="121.03653568800989"><ele>9.0</ele><time>2026-04-08T10:28:44Z</time></trkpt><trkpt lat="14.591539262399422" lon="121.03658757644291"><ele>12.0</ele><time>2026-04-08T10:28:49Z</time></trkpt><trkpt lat="14.591497756015471" lon="121.03667569854478"><ele>9.0</ele><time>2026-04-08T10:28:53Z</time></trkpt><trkpt lat="14.591515168262054" lon="121.0367385206245"><ele>9.0</ele><time>2026-04-08T10:28:58.039Z</time></trkpt><trkpt lat="14.591537473649753" lon="121.03680726410873"><ele>9.0</ele><time>2026-04-08T10:29:07.039Z</time></trkpt></trkseg><trkseg><trkpt lat="14.591689532479773" lon="121.03659776494405"><ele>10.5</ele><time>2026-04-08T11:46:06.002Z</time></trkpt><trkpt lat="14.591588350363418" lon="121.03698349648437"><ele>9.0</ele><time>2026-04-08T11:51:42.018Z</time></trkpt><trkpt lat="14.59151157715022" lon="121.03676320263112"><ele>9.0</ele><time>2026-04-08T11:54:40.999Z</time></trkpt><trkpt lat="14.591685159505554" lon="121.03663592340276"><ele>9.0</ele><time>2026-04-08T11:54:42.999Z</time></trkpt><trkpt lat="14.591697284819375" lon="121.03671181675351"><ele>9.0</ele><time>2026-04-08T11:58:29.999Z</time></trkpt><trkpt lat="14.591739671200516" lon="121.03680395178387"><ele>9.0</ele><time>2026-04-08T11:58:31.999Z</time></trkpt><trkpt lat="14.591784883218507" lon="121.03690222296657"><ele>9.0</ele><time>2026-04-08T11:58:33.999Z</time></trkpt><trkpt lat="14.591834666740676" lon="121.03701667678068"><ele>9.0</ele><time>2026-04-08T11:58:35.999Z</time></trkpt><trkpt lat="14.591878075719091" lon="121.03713661252428"><ele>9.0</ele><time>2026-04-08T11:58:37.999Z</time></trkpt><trkpt lat="14.591920766292775" lon="121.03725220791675"><ele>9.0</ele><time>2026-04-08T11:58:39.999Z</time></trkpt><trkpt lat="14.591957660645614" lon="121.03736630676721"><ele>10.0</ele><time>2026-04-08T11:58:41.999Z</time></trkpt><trkpt lat="14.59199054824691" lon="121.03747298531448"><ele>11.0</ele><time>2026-04-08T11:58:43.999Z</time></trkpt><trkpt lat="14.592027940114818" lon="121.03757143638494"><ele>11.999999999999998</ele><time>2026-04-08T11:58:45.999Z</time></trkpt><trkpt lat="14.592052422024919" lon="121.03766287165767"><ele>13.0</ele><time>2026-04-08T11:58:47.999Z</time></trkpt><trkpt lat="14.592060962671047" lon="121.03773014805478"><ele>14.0</ele><time>2026-04-08T11:58:50.999Z</time></trkpt><trkpt lat="14.591995843706592" lon="121.0377811423752"><ele>14.2</ele><time>2026-04-08T11:58:54.999Z</time></trkpt><trkpt lat="14.591891332025115" lon="121.0378005442659"><ele>14.399999999999999</ele><time>2026-04-08T11:58:56.999Z</time></trkpt><trkpt lat="14.591806521984386" lon="121.0378268922232"><ele>14.6</ele><time>2026-04-08T11:58:58.999Z</time></trkpt><trkpt lat="14.591705071588084" lon="121.03783723440102"><ele>14.8</ele><time>2026-04-08T11:59:00.999Z</time></trkpt><trkpt lat="14.59158732085423" lon="121.0378742321956"><ele>15.0</ele><time>2026-04-08T11:59:02.999Z</time></trkpt><trkpt lat="14.5914555495916" lon="121.03789726647722"><ele>15.0</ele><time>2026-04-08T11:59:04.999Z</time></trkpt><trkpt lat="14.591331940096163" lon="121.03791910004215"><ele>15.0</ele><time>2026-04-08T11:59:06.999Z</time></trkpt><trkpt lat="14.591220275666691" lon="121.03793519447886"><ele>15.0</ele><time>2026-04-08T11:59:08.999Z</time></trkpt><trkpt lat="14.591120199508909" lon="121.03795488363829"><ele>15.0</ele><time>2026-04-08T11:59:10.999Z</time></trkpt><trkpt lat="14.591018936799587" lon="121.03797460587626"><ele>15.0</ele><time>2026-04-08T11:59:12.999Z</time></trkpt><trkpt lat="14.590940180731334" lon="121.03798586432492"><ele>15.2</ele><time>2026-04-08T11:59:14.999Z</time></trkpt><trkpt lat="14.590863038328795" lon="121.03800144095968"><ele>15.4</ele><time>2026-04-08T11:59:17.999Z</time></trkpt><trkpt lat="14.590775158378358" lon="121.03803072839463"><ele>15.600000000000001</ele><time>2026-04-08T11:59:20.999Z</time></trkpt><trkpt lat="14.590664443982455" lon="121.03805256700981"><ele>15.8</ele><time>2026-04-08T11:59:22.999Z</time></trkpt><trkpt lat="14.590536539133813" lon="121.03807554419583"><ele>16.0</ele><time>2026-04-08T11:59:24.999Z</time></trkpt><trkpt lat="14.590463509042271" lon="121.03808773650277"><ele>15.999999999999998</ele><time>2026-04-08T11:59:25.999Z</time></trkpt><trkpt lat="14.59039243066382" lon="121.0380911522065"><ele>16.0</ele><time>2026-04-08T11:59:26.999Z</time></trkpt><trkpt lat="14.590328262537037" lon="121.03810991928951"><ele>16.0</ele><time>2026-04-08T11:59:27.999Z</time></trkpt><trkpt lat="14.5902660016633" lon="121.03812279340579"><ele>16.0</ele><time>2026-04-08T11:59:28.999Z</time></trkpt><trkpt lat="14.590143760388528" lon="121.03814823029576"><ele>15.999999999999998</ele><time>2026-04-08T11:59:30.999Z</time></trkpt><trkpt lat="14.590041049187999" lon="121.03817029899142"><ele>16.0</ele><time>2026-04-08T11:59:32.999Z</time></trkpt><trkpt lat="14.589971229660836" lon="121.03818520302585"><ele>15.833333333333332</ele><time>2026-04-08T11:59:34.999Z</time></trkpt><trkpt lat="14.5899047268762" lon="121.03818543092022"><ele>15.666666666666666</ele><time>2026-04-08T11:59:37.999Z</time></trkpt><trkpt lat="14.589804587637932" lon="121.03820176386152"><ele>15.5</ele><time>2026-04-08T11:59:40.999Z</time></trkpt><trkpt lat="14.589727296495708" lon="121.03820651383656"><ele>15.333333333333332</ele><time>2026-04-08T11:59:42.999Z</time></trkpt><trkpt lat="14.58965452493474" lon="121.03821554482695"><ele>15.166666666666666</ele><time>2026-04-08T11:59:45.999Z</time></trkpt><trkpt lat="14.589581831367504" lon="121.03822450965514"><ele>15.0</ele><time>2026-04-08T11:59:48.999Z</time></trkpt><trkpt lat="14.589513135285024" lon="121.03823399815484"><ele>15.0</ele><time>2026-04-08T11:59:51.999Z</time></trkpt><trkpt lat="14.589447517243368" lon="121.03828229428724"><ele>15.0</ele><time>2026-04-08T11:59:54.999Z</time></trkpt><trkpt lat="14.589456108827765" lon="121.03837627753242"><ele>15.0</ele><time>2026-04-08T11:59:55.999Z</time></trkpt><trkpt lat="14.589465350255912" lon="121.03851060994278"><ele>15.0</ele><time>2026-04-08T11:59:57.999Z</time></trkpt><trkpt lat="14.589468870971324" lon="121.03859050415072"><ele>15.0</ele><time>2026-04-08T11:59:58.999Z</time></trkpt><trkpt lat="14.589470526268737" lon="121.03867360142273"><ele>15.666666666666666</ele><time>2026-04-08T11:59:59.999Z</time></trkpt><trkpt lat="14.589475770777982" lon="121.03876372788106"><ele>16.333333333333332</ele><time>2026-04-08T12:00:00.999Z</time></trkpt><trkpt lat="14.58948523121191" lon="121.03885553288785"><ele>17.0</ele><time>2026-04-08T12:00:01.999Z</time></trkpt><trkpt lat="14.58949140720521" lon="121.03894577460015"><ele>17.666666666666664</ele><time>2026-04-08T12:00:02.999Z</time></trkpt><trkpt lat="14.589491931477085" lon="121.03903279597507"><ele>18.333333333333332</ele><time>2026-04-08T12:00:03.999Z</time></trkpt><trkpt lat="14.589495764800425" lon="121.03912251883452"><ele>19.0</ele><time>2026-04-08T12:00:04.999Z</time></trkpt><trkpt lat="14.589499363294046" lon="121.03921425944263"><ele>19.4</ele><time>2026-04-08T12:00:05.999Z</time></trkpt><trkpt lat="14.589501257212378" lon="121.03931458592571"><ele>19.799999999999997</ele><time>2026-04-08T12:00:06.999Z</time></trkpt><trkpt lat="14.58950496941394" lon="121.0394176865348"><ele>20.200000000000003</ele><time>2026-04-08T12:00:07.999Z</time></trkpt><trkpt lat="14.589507780531473" lon="121.03951435237812"><ele>20.6</ele><time>2026-04-08T12:00:08.999Z</time></trkpt><trkpt lat="14.589506853303835" lon="121.03960216094534"><ele>21.0</ele><time>2026-04-08T12:00:09.999Z</time></trkpt><trkpt lat="14.589506724377134" lon="121.0396834505015"><ele>21.0</ele><time>2026-04-08T12:00:10.999Z</time></trkpt><trkpt lat="14.589507825004219" lon="121.03975815906024"><ele>21.0</ele><time>2026-04-08T12:00:11.999Z</time></trkpt><trkpt lat="14.589512294126925" lon="121.03983168909554"><ele>21.0</ele><time>2026-04-08T12:00:12.999Z</time></trkpt><trkpt lat="14.589510601126927" lon="121.03990055881228"><ele>21.0</ele><time>2026-04-08T12:00:13.999Z</time></trkpt><trkpt lat="14.589505315888143" lon="121.03997558806212"><ele>21.0</ele><time>2026-04-08T12:00:14.999Z</time></trkpt><trkpt lat="14.589498107039484" lon="121.04005659867893"><ele>21.0</ele><time>2026-04-08T12:00:15.999Z</time></trkpt><trkpt lat="14.589485346675566" lon="121.04014242326211"><ele>21.0</ele><time>2026-04-08T12:00:16.999Z</time></trkpt><trkpt lat="14.589473645071772" lon="121.04023270732417"><ele>21.0</ele><time>2026-04-08T12:00:17.999Z</time></trkpt><trkpt lat="14.589457215173828" lon="121.04033075365898"><ele>21.0</ele><time>2026-04-08T12:00:18.999Z</time></trkpt><trkpt lat="14.589433633437501" lon="121.04042711339122"><ele>21.0</ele><time>2026-04-08T12:00:19.999Z</time></trkpt><trkpt lat="14.5894138878096" lon="121.04052172720614"><ele>21.0</ele><time>2026-04-08T12:00:20.999Z</time></trkpt><trkpt lat="14.58939196207346" lon="121.0406251904102"><ele>21.0</ele><time>2026-04-08T12:00:21.999Z</time></trkpt><trkpt lat="14.589368180749892" lon="121.04072817799712"><ele>22.0</ele><time>2026-04-08T12:00:22.999Z</time></trkpt><trkpt lat="14.589341098572595" lon="121.04083285805157"><ele>23.0</ele><time>2026-04-08T12:00:23.999Z</time></trkpt><trkpt lat="14.589318061298375" lon="121.04094226117263"><ele>24.0</ele><time>2026-04-08T12:00:24.999Z</time></trkpt><trkpt lat="14.58928884231722" lon="121.04104180334228"><ele>25.0</ele><time>2026-04-08T12:00:25.999Z</time></trkpt><trkpt lat="14.589266799303175" lon="121.04114866489157"><ele>26.0</ele><time>2026-04-08T12:00:26.999Z</time></trkpt><trkpt lat="14.589243965545018" lon="121.0412534672474"><ele>26.0</ele><time>2026-04-08T12:00:27.999Z</time></trkpt><trkpt lat="14.589219275596127" lon="121.04135863214515"><ele>26.0</ele><time>2026-04-08T12:00:28.999Z</time></trkpt><trkpt lat="14.58919855733656" lon="121.04145959522408"><ele>26.0</ele><time>2026-04-08T12:00:29.999Z</time></trkpt><trkpt lat="14.589176777145209" lon="121.04155010631123"><ele>26.0</ele><time>2026-04-08T12:00:30.999Z</time></trkpt><trkpt lat="14.589156401899057" lon="121.04162864349232"><ele>26.0</ele><time>2026-04-08T12:00:31.999Z</time></trkpt><trkpt lat="14.58913031623952" lon="121.04171194545627"><ele>26.0</ele><time>2026-04-08T12:00:32.999Z</time></trkpt><trkpt lat="14.589112005158649" lon="121.04179268663556"><ele>26.0</ele><time>2026-04-08T12:00:33.999Z</time></trkpt><trkpt lat="14.58908993302884" lon="121.04186728963658"><ele>26.0</ele><time>2026-04-08T12:00:34.999Z</time></trkpt><trkpt lat="14.589072594376331" lon="121.0419389863096"><ele>26.0</ele><time>2026-04-08T12:00:35.999Z</time></trkpt><trkpt lat="14.589059025451132" lon="121.04200332524326"><ele>26.0</ele><time>2026-04-08T12:00:36.999Z</time></trkpt><trkpt lat="14.589037740384446" lon="121.04207445221225"><ele>26.0</ele><time>2026-04-08T12:00:37.999Z</time></trkpt><trkpt lat="14.589012672292345" lon="121.04214907260707"><ele>26.0</ele><time>2026-04-08T12:00:38.999Z</time></trkpt><trkpt lat="14.588990640420741" lon="121.04222873933371"><ele>25.999999999999996</ele><time>2026-04-08T12:00:39.999Z</time></trkpt><trkpt lat="14.588962562404655" lon="121.04230846324819"><ele>26.0</ele><time>2026-04-08T12:00:40.999Z</time></trkpt><trkpt lat="14.588934219622162" lon="121.0423902802123"><ele>26.0</ele><time>2026-04-08T12:00:41.999Z</time></trkpt><trkpt lat="14.588906406078241" lon="121.04246598234079"><ele>26.0</ele><time>2026-04-08T12:00:42.999Z</time></trkpt><trkpt lat="14.588877437723092" lon="121.04254142904703"><ele>25.999999999999996</ele><time>2026-04-08T12:00:43.999Z</time></trkpt><trkpt lat="14.588848790003714" lon="121.04261310584045"><ele>26.0</ele><time>2026-04-08T12:00:44.999Z</time></trkpt><trkpt lat="14.588818020405002" lon="121.04268154020387"><ele>26.166666666666664</ele><time>2026-04-08T12:00:45.999Z</time></trkpt><trkpt lat="14.588790682073974" lon="121.04274846181436"><ele>26.333333333333332</ele><time>2026-04-08T12:00:46.999Z</time></trkpt><trkpt lat="14.5887527253488" lon="121.04282369378342"><ele>26.5</ele><time>2026-04-08T12:00:47.999Z</time></trkpt><trkpt lat="14.58873273160432" lon="121.04289543270772"><ele>26.666666666666664</ele><time>2026-04-08T12:00:48.999Z</time></trkpt><trkpt lat="14.588702905414891" lon="121.04297562743959"><ele>26.833333333333332</ele><time>2026-04-08T12:00:49.999Z</time></trkpt><trkpt lat="14.588670627438276" lon="121.04305992767308"><ele>27.0</ele><time>2026-04-08T12:00:50.999Z</time></trkpt><trkpt lat="14.588639850205778" lon="121.0431494725953"><ele>27.0</ele><time>2026-04-08T12:00:51.999Z</time></trkpt><trkpt lat="14.588607971888955" lon="121.04324856538084"><ele>27.000000000000004</ele><time>2026-04-08T12:00:52.999Z</time></trkpt><trkpt lat="14.588570989514265" lon="121.04334470788976"><ele>27.000000000000004</ele><time>2026-04-08T12:00:53.999Z</time></trkpt><trkpt lat="14.588531951474568" lon="121.0434558658314"><ele>27.0</ele><time>2026-04-08T12:00:54.999Z</time></trkpt><trkpt lat="14.58849737893043" lon="121.04355553656356"><ele>27.0</ele><time>2026-04-08T12:00:55.999Z</time></trkpt><trkpt lat="14.588459716433647" lon="121.04364614269497"><ele>27.8</ele><time>2026-04-08T12:00:56.999Z</time></trkpt><trkpt lat="14.588416137198683" lon="121.04375500424514"><ele>28.6</ele><time>2026-04-08T12:00:57.999Z</time></trkpt><trkpt lat="14.588373259329812" lon="121.04385817293769"><ele>29.400000000000002</ele><time>2026-04-08T12:00:58.999Z</time></trkpt><trkpt lat="14.588328863114757" lon="121.04395793783411"><ele>30.200000000000003</ele><time>2026-04-08T12:00:59.999Z</time></trkpt><trkpt lat="14.588287774646163" lon="121.04405730612102"><ele>31.0</ele><time>2026-04-08T12:01:00.999Z</time></trkpt><trkpt lat="14.588247053684784" lon="121.04415247879753"><ele>31.000000000000004</ele><time>2026-04-08T12:01:01.999Z</time></trkpt><trkpt lat="14.588209673544052" lon="121.04424421186562"><ele>31.0</ele><time>2026-04-08T12:01:02.999Z</time></trkpt><trkpt lat="14.58818110537686" lon="121.04433125865202"><ele>31.0</ele><time>2026-04-08T12:01:03.999Z</time></trkpt><trkpt lat="14.588154526019114" lon="121.04441466191078"><ele>31.0</ele><time>2026-04-08T12:01:04.999Z</time></trkpt><trkpt lat="14.588130813144724" lon="121.04449279943204"><ele>31.000000000000004</ele><time>2026-04-08T12:01:05.999Z</time></trkpt><trkpt lat="14.58809711897764" lon="121.0445782368548"><ele>31.0</ele><time>2026-04-08T12:01:06.999Z</time></trkpt><trkpt lat="14.58806622575486" lon="121.0446497364557"><ele>31.0</ele><time>2026-04-08T12:01:07.999Z</time></trkpt><trkpt lat="14.588030577478094" lon="121.04475239086501"><ele>31.0</ele><time>2026-04-08T12:01:09.999Z</time></trkpt><trkpt lat="14.588006760309376" lon="121.04482146168539"><ele>31.0</ele><time>2026-04-08T12:01:11.999Z</time></trkpt><trkpt lat="14.58795726040517" lon="121.04488527350394"><ele>31.0</ele><time>2026-04-08T12:01:14.999Z</time></trkpt><trkpt lat="14.587876027844366" lon="121.04483693465104"><ele>31.0</ele><time>2026-04-08T12:01:15.999Z</time></trkpt><trkpt lat="14.587817627967622" lon="121.0447504778876"><ele>32.0</ele><time>2026-04-08T12:01:17.999Z</time></trkpt><trkpt lat="14.587737464323444" lon="121.04465476568926"><ele>33.0</ele><time>2026-04-08T12:01:19.999Z</time></trkpt><trkpt lat="14.587659389329978" lon="121.04455732432419"><ele>34.0</ele><time>2026-04-08T12:01:21.999Z</time></trkpt><trkpt lat="14.58761688801789" lon="121.0445045675482"><ele>35.0</ele><time>2026-04-08T12:01:22.999Z</time></trkpt><trkpt lat="14.587544320994336" lon="121.04440384492212"><ele>36.0</ele><time>2026-04-08T12:01:24.999Z</time></trkpt><trkpt lat="14.58749376062854" lon="121.0443058200876"><ele>36.0</ele><time>2026-04-08T12:01:26.999Z</time></trkpt><trkpt lat="14.587419593225903" lon="121.04421095303478"><ele>36.0</ele><time>2026-04-08T12:01:28.999Z</time></trkpt><trkpt lat="14.587377989216325" lon="121.04415817216913"><ele>36.0</ele><time>2026-04-08T12:01:29.999Z</time></trkpt><trkpt lat="14.587334455469172" lon="121.04410294318333"><ele>36.0</ele><time>2026-04-08T12:01:30.999Z</time></trkpt><trkpt lat="14.587288859406916" lon="121.04404497130098"><ele>36.0</ele><time>2026-04-08T12:01:31.999Z</time></trkpt><trkpt lat="14.587231662928573" lon="121.04399230167972"><ele>36.0</ele><time>2026-04-08T12:01:32.999Z</time></trkpt><trkpt lat="14.587188979705168" lon="121.04392406481742"><ele>35.333333333333336</ele><time>2026-04-08T12:01:33.999Z</time></trkpt><trkpt lat="14.587138982727677" lon="121.04385564681593"><ele>34.666666666666664</ele><time>2026-04-08T12:01:34.999Z</time></trkpt><trkpt lat="14.587086367453608" lon="121.0437914921951"><ele>34.0</ele><time>2026-04-08T12:01:35.999Z</time></trkpt><trkpt lat="14.58703165896383" lon="121.04371929467648"><ele>33.33333333333333</ele><time>2026-04-08T12:01:36.999Z</time></trkpt><trkpt lat="14.586978495164365" lon="121.04364536244317"><ele>32.666666666666664</ele><time>2026-04-08T12:01:37.999Z</time></trkpt><trkpt lat="14.586928941680744" lon="121.04357616941596"><ele>32.0</ele><time>2026-04-08T12:01:38.999Z</time></trkpt><trkpt lat="14.586885724879677" lon="121.0435115998921"><ele>30.499999999999996</ele><time>2026-04-08T12:01:39.999Z</time></trkpt><trkpt lat="14.58684229091574" lon="121.04345412805361"><ele>29.0</ele><time>2026-04-08T12:01:40.999Z</time></trkpt><trkpt lat="14.586806450992992" lon="121.04340010067169"><ele>27.5</ele><time>2026-04-08T12:01:41.999Z</time></trkpt><trkpt lat="14.58673433206135" lon="121.04332496468142"><ele>26.0</ele><time>2026-04-08T12:01:43.999Z</time></trkpt><trkpt lat="14.586693270430043" lon="121.04327407482633"><ele>24.5</ele><time>2026-04-08T12:01:46.999Z</time></trkpt><trkpt lat="14.586571035488108" lon="121.04335136407494"><ele>23.0</ele><time>2026-04-08T12:01:50.999Z</time></trkpt><trkpt lat="14.586544057818353" lon="121.04346202013106"><ele>23.0</ele><time>2026-04-08T12:01:52.999Z</time></trkpt><trkpt lat="14.586482923895312" lon="121.04355297775037"><ele>23.0</ele><time>2026-04-08T12:01:54.999Z</time></trkpt><trkpt lat="14.58643587675146" lon="121.04362042728546"><ele>23.0</ele><time>2026-04-08T12:01:55.999Z</time></trkpt><trkpt lat="14.586400743161636" lon="121.04367781903268"><ele>23.0</ele><time>2026-04-08T12:01:56.999Z</time></trkpt><trkpt lat="14.586367002621117" lon="121.04373293519748"><ele>23.0</ele><time>2026-04-08T12:01:57.999Z</time></trkpt><trkpt lat="14.586329583105247" lon="121.04379406109425"><ele>23.0</ele><time>2026-04-08T12:01:58.999Z</time></trkpt><trkpt lat="14.58629610705632" lon="121.04385503686454"><ele>23.0</ele><time>2026-04-08T12:01:59.999Z</time></trkpt><trkpt lat="14.586276269359926" lon="121.04392003160449"><ele>23.0</ele><time>2026-04-08T12:02:00.999Z</time></trkpt><trkpt lat="14.586238535009336" lon="121.04397623876844"><ele>23.0</ele><time>2026-04-08T12:02:01.999Z</time></trkpt><trkpt lat="14.586196077454476" lon="121.04403701174043"><ele>23.0</ele><time>2026-04-08T12:02:02.999Z</time></trkpt><trkpt lat="14.586149439423158" lon="121.04409873137817"><ele>23.0</ele><time>2026-04-08T12:02:03.999Z</time></trkpt><trkpt lat="14.586114607087563" lon="121.04415513644683"><ele>23.0</ele><time>2026-04-08T12:02:04.999Z</time></trkpt><trkpt lat="14.58604525468116" lon="121.04426109381657"><ele>22.0</ele><time>2026-04-08T12:02:06.999Z</time></trkpt><trkpt lat="14.585993081563615" lon="121.04433449867105"><ele>21.0</ele><time>2026-04-08T12:02:08.999Z</time></trkpt><trkpt lat="14.58594075251711" lon="121.04440054977822"><ele>20.0</ele><time>2026-04-08T12:02:11.999Z</time></trkpt><trkpt lat="14.585893696244243" lon="121.04445247849506"><ele>19.0</ele><time>2026-04-08T12:02:13.999Z</time></trkpt><trkpt lat="14.585827950675869" lon="121.04453240574684"><ele>18.0</ele><time>2026-04-08T12:02:15.999Z</time></trkpt><trkpt lat="14.585702331660906" lon="121.0445803327292"><ele>18.000000000000004</ele><time>2026-04-08T12:02:17.999Z</time></trkpt><trkpt lat="14.585632880093883" lon="121.04460864394225"><ele>18.0</ele><time>2026-04-08T12:02:18.999Z</time></trkpt><trkpt lat="14.585572526855657" lon="121.044635288482"><ele>18.0</ele><time>2026-04-08T12:02:19.999Z</time></trkpt><trkpt lat="14.585508675387333" lon="121.04465718025692"><ele>18.0</ele><time>2026-04-08T12:02:20.999Z</time></trkpt><trkpt lat="14.585443065185013" lon="121.04465892083374"><ele>18.0</ele><time>2026-04-08T12:02:21.999Z</time></trkpt><trkpt lat="14.585381988572186" lon="121.04468117030025"><ele>18.000000000000004</ele><time>2026-04-08T12:02:22.999Z</time></trkpt><trkpt lat="14.585321762955976" lon="121.0447083798683"><ele>18.0</ele><time>2026-04-08T12:02:23.999Z</time></trkpt><trkpt lat="14.585250643030152" lon="121.04471971218518"><ele>19.2</ele><time>2026-04-08T12:02:24.999Z</time></trkpt><trkpt lat="14.585187788775155" lon="121.04473537853478"><ele>20.4</ele><time>2026-04-08T12:02:25.999Z</time></trkpt><trkpt lat="14.585075499677233" lon="121.04476639317551"><ele>21.599999999999998</ele><time>2026-04-08T12:02:27.999Z</time></trkpt><trkpt lat="14.58496349075209" lon="121.04480238818299"><ele>22.8</ele><time>2026-04-08T12:02:29.999Z</time></trkpt><trkpt lat="14.584845027204125" lon="121.04484311082089"><ele>24.0</ele><time>2026-04-08T12:02:31.999Z</time></trkpt><trkpt lat="14.584775824533411" lon="121.04485857991534"><ele>24.0</ele><time>2026-04-08T12:02:32.999Z</time></trkpt><trkpt lat="14.584699588670665" lon="121.04487029005814"><ele>24.0</ele><time>2026-04-08T12:02:33.999Z</time></trkpt><trkpt lat="14.584614883930705" lon="121.04486953199348"><ele>24.0</ele><time>2026-04-08T12:02:34.999Z</time></trkpt><trkpt lat="14.584530872349191" lon="121.0448679429083"><ele>24.0</ele><time>2026-04-08T12:02:35.999Z</time></trkpt><trkpt lat="14.584443123387722" lon="121.04486583396576"><ele>24.0</ele><time>2026-04-08T12:02:36.999Z</time></trkpt><trkpt lat="14.584347714865764" lon="121.04482882935147"><ele>24.0</ele><time>2026-04-08T12:02:37.999Z</time></trkpt><trkpt lat="14.584263098911833" lon="121.04482327660347"><ele>24.0</ele><time>2026-04-08T12:02:38.999Z</time></trkpt><trkpt lat="14.584165333477124" lon="121.04481412291187"><ele>24.0</ele><time>2026-04-08T12:02:39.999Z</time></trkpt><trkpt lat="14.584086230941782" lon="121.0447963521649"><ele>24.0</ele><time>2026-04-08T12:02:40.999Z</time></trkpt><trkpt lat="14.583995172871584" lon="121.04479038205987"><ele>24.0</ele><time>2026-04-08T12:02:41.999Z</time></trkpt><trkpt lat="14.583923436663364" lon="121.0447920543955"><ele>24.0</ele><time>2026-04-08T12:02:42.999Z</time></trkpt><trkpt lat="14.583848040528816" lon="121.04478649794194"><ele>24.0</ele><time>2026-04-08T12:02:43.999Z</time></trkpt><trkpt lat="14.58377097234548" lon="121.04477577178486"><ele>24.2</ele><time>2026-04-08T12:02:44.999Z</time></trkpt><trkpt lat="14.583656198692463" lon="121.04475388184984"><ele>24.4</ele><time>2026-04-08T12:02:46.999Z</time></trkpt><trkpt lat="14.583578752700781" lon="121.04473434031038"><ele>24.6</ele><time>2026-04-08T12:02:48.999Z</time></trkpt><trkpt lat="14.58348023121077" lon="121.04472512137285"><ele>24.8</ele><time>2026-04-08T12:02:52Z</time></trkpt><trkpt lat="14.583396050886854" lon="121.04470854399675"><ele>25.0</ele><time>2026-04-08T12:02:54Z</time></trkpt><trkpt lat="14.583324270611339" lon="121.04470856120253"><ele>25.0</ele><time>2026-04-08T12:02:56Z</time></trkpt><trkpt lat="14.58324092485681" lon="121.0446939912021"><ele>25.0</ele><time>2026-04-08T12:02:58Z</time></trkpt><trkpt lat="14.583130990888328" lon="121.04468882511134"><ele>25.0</ele><time>2026-04-08T12:03:00Z</time></trkpt><trkpt lat="14.58301791757726" lon="121.04466964695376"><ele>25.0</ele><time>2026-04-08T12:03:02Z</time></trkpt><trkpt lat="14.582948568355516" lon="121.04465848635205"><ele>25.0</ele><time>2026-04-08T12:03:03Z</time></trkpt><trkpt lat="14.582875399553712" lon="121.04463584657896"><ele>24.666666666666668</ele><time>2026-04-08T12:03:04Z</time></trkpt><trkpt lat="14.58279333089525" lon="121.04460855181861"><ele>24.333333333333336</ele><time>2026-04-08T12:03:05Z</time></trkpt><trkpt lat="14.58272199830706" lon="121.04458480808631"><ele>24.0</ele><time>2026-04-08T12:03:06Z</time></trkpt><trkpt lat="14.582657677414808" lon="121.0445684701553"><ele>23.666666666666668</ele><time>2026-04-08T12:03:07Z</time></trkpt><trkpt lat="14.582596561896844" lon="121.04454523522999"><ele>23.333333333333336</ele><time>2026-04-08T12:03:08Z</time></trkpt><trkpt lat="14.582490495274936" lon="121.0445054258605"><ele>23.0</ele><time>2026-04-08T12:03:09.999Z</time></trkpt><trkpt lat="14.58242961055194" lon="121.04448537040302"><ele>23.0</ele><time>2026-04-08T12:03:10.999Z</time></trkpt><trkpt lat="14.582368957284721" lon="121.04446438677017"><ele>23.0</ele><time>2026-04-08T12:03:11.999Z</time></trkpt><trkpt lat="14.582305698807255" lon="121.04444222585072"><ele>23.0</ele><time>2026-04-08T12:03:12.999Z</time></trkpt><trkpt lat="14.582241390473895" lon="121.0444233173684"><ele>23.0</ele><time>2026-04-08T12:03:13.999Z</time></trkpt><trkpt lat="14.582180357518315" lon="121.04440156626687"><ele>23.0</ele><time>2026-04-08T12:03:14.999Z</time></trkpt><trkpt lat="14.582114409169044" lon="121.04438193424572"><ele>23.0</ele><time>2026-04-08T12:03:15.999Z</time></trkpt><trkpt lat="14.582051381398564" lon="121.04437067544522"><ele>23.0</ele><time>2026-04-08T12:03:16.999Z</time></trkpt><trkpt lat="14.581975292577706" lon="121.04435153298229"><ele>23.166666666666668</ele><time>2026-04-08T12:03:17.999Z</time></trkpt><trkpt lat="14.581906824630298" lon="121.04435506689121"><ele>23.333333333333336</ele><time>2026-04-08T12:03:18.999Z</time></trkpt><trkpt lat="14.581806501054608" lon="121.0443511400467"><ele>23.5</ele><time>2026-04-08T12:03:20.999Z</time></trkpt><trkpt lat="14.581693737577735" lon="121.04436140531182"><ele>23.666666666666668</ele><time>2026-04-08T12:03:23Z</time></trkpt><trkpt lat="14.5816249095472" lon="121.04436023337198"><ele>23.833333333333332</ele><time>2026-04-08T12:03:24Z</time></trkpt><trkpt lat="14.581550312194262" lon="121.0443599322437"><ele>24.0</ele><time>2026-04-08T12:03:25Z</time></trkpt><trkpt lat="14.581470019236088" lon="121.04435764125647"><ele>24.0</ele><time>2026-04-08T12:03:26Z</time></trkpt><trkpt lat="14.581386501767225" lon="121.0443547247989"><ele>24.0</ele><time>2026-04-08T12:03:27Z</time></trkpt><trkpt lat="14.58130345072098" lon="121.04435157857219"><ele>24.0</ele><time>2026-04-08T12:03:28Z</time></trkpt><trkpt lat="14.581225203269847" lon="121.0443491875199"><ele>24.0</ele><time>2026-04-08T12:03:29Z</time></trkpt><trkpt lat="14.581145252451853" lon="121.04434849319337"><ele>24.0</ele><time>2026-04-08T12:03:30Z</time></trkpt><trkpt lat="14.581059855251743" lon="121.04433491337925"><ele>24.0</ele><time>2026-04-08T12:03:31Z</time></trkpt><trkpt lat="14.580991533203838" lon="121.04433081630636"><ele>24.833333333333332</ele><time>2026-04-08T12:03:32Z</time></trkpt><trkpt lat="14.580908417930395" lon="121.04432644930692"><ele>25.666666666666664</ele><time>2026-04-08T12:03:33Z</time></trkpt><trkpt lat="14.580832576682582" lon="121.04433229077321"><ele>26.5</ele><time>2026-04-08T12:03:34Z</time></trkpt><trkpt lat="14.580749494084154" lon="121.04433772982588"><ele>27.333333333333332</ele><time>2026-04-08T12:03:35Z</time></trkpt><trkpt lat="14.58065195964479" lon="121.04433295803562"><ele>28.166666666666664</ele><time>2026-04-08T12:03:36Z</time></trkpt><trkpt lat="14.58055525720354" lon="121.04433295841892"><ele>29.0</ele><time>2026-04-08T12:03:37Z</time></trkpt><trkpt lat="14.580458766249054" lon="121.04433198690182"><ele>29.0</ele><time>2026-04-08T12:03:38Z</time></trkpt><trkpt lat="14.580362753467357" lon="121.04433079036056"><ele>29.0</ele><time>2026-04-08T12:03:39Z</time></trkpt><trkpt lat="14.580258292173324" lon="121.04432667006965"><ele>29.0</ele><time>2026-04-08T12:03:40Z</time></trkpt><trkpt lat="14.580154568430219" lon="121.04431525802778"><ele>29.0</ele><time>2026-04-08T12:03:41Z</time></trkpt><trkpt lat="14.580063245655476" lon="121.04430654130576"><ele>29.0</ele><time>2026-04-08T12:03:42Z</time></trkpt><trkpt lat="14.579971141652294" lon="121.0442987277075"><ele>28.799999999999997</ele><time>2026-04-08T12:03:43Z</time></trkpt><trkpt lat="14.579879760411584" lon="121.04429283681861"><ele>28.599999999999998</ele><time>2026-04-08T12:03:44Z</time></trkpt><trkpt lat="14.579784850018385" lon="121.04428955266356"><ele>28.4</ele><time>2026-04-08T12:03:45Z</time></trkpt><trkpt lat="14.579690049825821" lon="121.04428234740304"><ele>28.2</ele><time>2026-04-08T12:03:46Z</time></trkpt><trkpt lat="14.57959488569765" lon="121.04427604341433"><ele>28.0</ele><time>2026-04-08T12:03:47Z</time></trkpt><trkpt lat="14.57950007577117" lon="121.04426994628841"><ele>28.666666666666668</ele><time>2026-04-08T12:03:48Z</time></trkpt><trkpt lat="14.579410432355095" lon="121.04426539039864"><ele>29.333333333333336</ele><time>2026-04-08T12:03:49Z</time></trkpt><trkpt lat="14.57932786574625" lon="121.04425989147802"><ele>30.0</ele><time>2026-04-08T12:03:50Z</time></trkpt><trkpt lat="14.57925223971758" lon="121.04425761633729"><ele>30.666666666666664</ele><time>2026-04-08T12:03:51Z</time></trkpt><trkpt lat="14.579183617213184" lon="121.04425029971063"><ele>31.333333333333332</ele><time>2026-04-08T12:03:52Z</time></trkpt><trkpt lat="14.57906636645889" lon="121.04423920947"><ele>32.0</ele><time>2026-04-08T12:03:54Z</time></trkpt><trkpt lat="14.578969217509856" lon="121.04422311852115"><ele>31.999999999999996</ele><time>2026-04-08T12:03:56Z</time></trkpt><trkpt lat="14.57889099989356" lon="121.04422650597557"><ele>32.0</ele><time>2026-04-08T12:03:58Z</time></trkpt><trkpt lat="14.57885536120345" lon="121.0440866321647"><ele>32.0</ele><time>2026-04-08T12:03:59Z</time></trkpt><trkpt lat="14.57884810698668" lon="121.04402003598891"><ele>32.0</ele><time>2026-04-08T12:04:00Z</time></trkpt><trkpt lat="14.578826527412586" lon="121.04395317639073"><ele>31.999999999999996</ele><time>2026-04-08T12:04:01Z</time></trkpt><trkpt lat="14.578778744134107" lon="121.04388999841866"><ele>32.0</ele><time>2026-04-08T12:04:02Z</time></trkpt><trkpt lat="14.578744685503342" lon="121.04382748638862"><ele>31.833333333333332</ele><time>2026-04-08T12:04:03Z</time></trkpt><trkpt lat="14.578692076409299" lon="121.04375973544427"><ele>31.666666666666664</ele><time>2026-04-08T12:04:04Z</time></trkpt><trkpt lat="14.578660462259432" lon="121.04367545980409"><ele>31.5</ele><time>2026-04-08T12:04:05Z</time></trkpt><trkpt lat="14.578623340078652" lon="121.04360902049817"><ele>31.333333333333336</ele><time>2026-04-08T12:04:06Z</time></trkpt><trkpt lat="14.5785855653426" lon="121.04353823691866"><ele>31.166666666666668</ele><time>2026-04-08T12:04:07Z</time></trkpt><trkpt lat="14.57854535392904" lon="121.04346435613216"><ele>31.0</ele><time>2026-04-08T12:04:08Z</time></trkpt><trkpt lat="14.578506198781083" lon="121.04339241602855"><ele>30.333333333333336</ele><time>2026-04-08T12:04:09Z</time></trkpt><trkpt lat="14.578463099624896" lon="121.04331254492216"><ele>29.666666666666668</ele><time>2026-04-08T12:04:10Z</time></trkpt><trkpt lat="14.578423837068389" lon="121.04323936643469"><ele>29.0</ele><time>2026-04-08T12:04:11Z</time></trkpt><trkpt lat="14.578375853982198" lon="121.04317504078819"><ele>28.333333333333336</ele><time>2026-04-08T12:04:12Z</time></trkpt><trkpt lat="14.578339422500145" lon="121.04310432111721"><ele>27.666666666666668</ele><time>2026-04-08T12:04:13Z</time></trkpt><trkpt lat="14.57830789908025" lon="121.04304013360687"><ele>27.0</ele><time>2026-04-08T12:04:14Z</time></trkpt><trkpt lat="14.578272049344777" lon="121.04295853969913"><ele>26.714285714285715</ele><time>2026-04-08T12:04:16Z</time></trkpt><trkpt lat="14.578225888076645" lon="121.04287165017172"><ele>26.428571428571427</ele><time>2026-04-08T12:04:20Z</time></trkpt><trkpt lat="14.578178437934387" lon="121.0428175438135"><ele>26.142857142857146</ele><time>2026-04-08T12:04:22Z</time></trkpt><trkpt lat="14.578129018312241" lon="121.04276338739508"><ele>25.857142857142858</ele><time>2026-04-08T12:04:25Z</time></trkpt><trkpt lat="14.578070414146623" lon="121.04271056856294"><ele>25.571428571428573</ele><time>2026-04-08T12:04:27Z</time></trkpt><trkpt lat="14.578016493092964" lon="121.04267505188662"><ele>25.28571428571429</ele><time>2026-04-08T12:04:28Z</time></trkpt><trkpt lat="14.57795934653968" lon="121.04263890270602"><ele>25.0</ele><time>2026-04-08T12:04:29Z</time></trkpt><trkpt lat="14.577891210673618" lon="121.04259261632198"><ele>24.42857142857143</ele><time>2026-04-08T12:04:30Z</time></trkpt><trkpt lat="14.577824642724135" lon="121.04255431890218"><ele>23.857142857142858</ele><time>2026-04-08T12:04:31Z</time></trkpt><trkpt lat="14.577775067317843" lon="121.04249799620105"><ele>23.285714285714285</ele><time>2026-04-08T12:04:32Z</time></trkpt><trkpt lat="14.577711270223618" lon="121.04247077141224"><ele>22.714285714285715</ele><time>2026-04-08T12:04:33Z</time></trkpt><trkpt lat="14.577658419697835" lon="121.04241957957412"><ele>22.142857142857142</ele><time>2026-04-08T12:04:34Z</time></trkpt><trkpt lat="14.577596455194989" lon="121.0423832226422"><ele>21.571428571428573</ele><time>2026-04-08T12:04:35Z</time></trkpt><trkpt lat="14.577542349868198" lon="121.04234508107587"><ele>21.0</ele><time>2026-04-08T12:04:36Z</time></trkpt><trkpt lat="14.57744491406102" lon="121.04227123013763"><ele>21.0</ele><time>2026-04-08T12:04:38Z</time></trkpt><trkpt lat="14.577381612890454" lon="121.04222709055014"><ele>21.0</ele><time>2026-04-08T12:04:40Z</time></trkpt><trkpt lat="14.577321534333352" lon="121.04217522629504"><ele>21.0</ele><time>2026-04-08T12:04:43Z</time></trkpt><trkpt lat="14.577270126160897" lon="121.04213197725068"><ele>21.0</ele><time>2026-04-08T12:04:45Z</time></trkpt><trkpt lat="14.577201365812623" lon="121.04208464732427"><ele>21.0</ele><time>2026-04-08T12:04:47Z</time></trkpt><trkpt lat="14.577102936261685" lon="121.04202420641236"><ele>21.0</ele><time>2026-04-08T12:04:49Z</time></trkpt><trkpt lat="14.57705224816809" lon="121.04198428695359"><ele>20.857142857142858</ele><time>2026-04-08T12:04:50Z</time></trkpt><trkpt lat="14.576995047433485" lon="121.04194238127064"><ele>20.714285714285715</ele><time>2026-04-08T12:04:51Z</time></trkpt><trkpt lat="14.576938407486614" lon="121.04190237550696"><ele>20.57142857142857</ele><time>2026-04-08T12:04:52Z</time></trkpt><trkpt lat="14.576882868563478" lon="121.04185791675822"><ele>20.42857142857143</ele><time>2026-04-08T12:04:53Z</time></trkpt><trkpt lat="14.576823657067877" lon="121.04180893448361"><ele>20.285714285714285</ele><time>2026-04-08T12:04:54Z</time></trkpt><trkpt lat="14.57675966245571" lon="121.04175580185108"><ele>20.142857142857142</ele><time>2026-04-08T12:04:55Z</time></trkpt><trkpt lat="14.576695868576273" lon="121.04170775430526"><ele>20.0</ele><time>2026-04-08T12:04:56Z</time></trkpt><trkpt lat="14.576632920551987" lon="121.04165677996097"><ele>19.666666666666668</ele><time>2026-04-08T12:04:57Z</time></trkpt><trkpt lat="14.576567352399278" lon="121.0416064114655"><ele>19.333333333333336</ele><time>2026-04-08T12:04:58Z</time></trkpt><trkpt lat="14.576503673564842" lon="121.04156406239478"><ele>19.0</ele><time>2026-04-08T12:04:59Z</time></trkpt><trkpt lat="14.57645160285823" lon="121.04152531173797"><ele>18.666666666666668</ele><time>2026-04-08T12:05:00Z</time></trkpt><trkpt lat="14.576372372516929" lon="121.0414736541014"><ele>18.333333333333332</ele><time>2026-04-08T12:05:01Z</time></trkpt><trkpt lat="14.576284273058478" lon="121.04140884844755"><ele>18.0</ele><time>2026-04-08T12:05:03Z</time></trkpt><trkpt lat="14.576168807378062" lon="121.04133768237556"><ele>18.0</ele><time>2026-04-08T12:05:05Z</time></trkpt><trkpt lat="14.576104456242287" lon="121.04129614160455"><ele>18.0</ele><time>2026-04-08T12:05:06Z</time></trkpt><trkpt lat="14.576057869735866" lon="121.04124179069746"><ele>18.0</ele><time>2026-04-08T12:05:07Z</time></trkpt><trkpt lat="14.575985230540375" lon="121.0411884076961"><ele>18.0</ele><time>2026-04-08T12:05:10Z</time></trkpt><trkpt lat="14.575921690461342" lon="121.04114171169361"><ele>18.0</ele><time>2026-04-08T12:05:15Z</time></trkpt><trkpt lat="14.575859644975122" lon="121.04109713615722"><ele>18.0</ele><time>2026-04-08T12:05:21Z</time></trkpt><trkpt lat="14.57577811898409" lon="121.04104001672032"><ele>18.0</ele><time>2026-04-08T12:07:45Z</time></trkpt><trkpt lat="14.575724275453398" lon="121.04099930174672"><ele>18.0</ele><time>2026-04-08T12:07:46Z</time></trkpt><trkpt lat="14.575662508918047" lon="121.04095492168312"><ele>18.0</ele><time>2026-04-08T12:07:47Z</time></trkpt><trkpt lat="14.575587620826505" lon="121.04090111360853"><ele>18.0</ele><time>2026-04-08T12:07:48Z</time></trkpt><trkpt lat="14.57550659536002" lon="121.0408428957553"><ele>18.0</ele><time>2026-04-08T12:07:49Z</time></trkpt><trkpt lat="14.575429924832374" lon="121.04078780697523"><ele>18.0</ele><time>2026-04-08T12:07:50Z</time></trkpt><trkpt lat="14.575359684841818" lon="121.04073733862504"><ele>18.0</ele><time>2026-04-08T12:07:51Z</time></trkpt><trkpt lat="14.575287507188152" lon="121.04068547796531"><ele>18.0</ele><time>2026-04-08T12:07:52Z</time></trkpt><trkpt lat="14.575226467198117" lon="121.04063292029063"><ele>18.0</ele><time>2026-04-08T12:07:53Z</time></trkpt><trkpt lat="14.575173419889312" lon="121.04058977383954"><ele>18.0</ele><time>2026-04-08T12:07:54Z</time></trkpt><trkpt lat="14.575107609388013" lon="121.04053624634464"><ele>18.0</ele><time>2026-04-08T12:07:56Z</time></trkpt><trkpt lat="14.575031564221254" lon="121.04047439440956"><ele>18.0</ele><time>2026-04-08T12:07:59Z</time></trkpt><trkpt lat="14.574950989559435" lon="121.04040885837318"><ele>18.0</ele><time>2026-04-08T12:08:01Z</time></trkpt><trkpt lat="14.574852710663908" lon="121.0403289224549"><ele>18.0</ele><time>2026-04-08T12:08:03Z</time></trkpt><trkpt lat="14.574791333174769" lon="121.04027891553419"><ele>18.0</ele><time>2026-04-08T12:08:04Z</time></trkpt><trkpt lat="14.57472838837197" lon="121.0402275821608"><ele>18.0</ele><time>2026-04-08T12:08:05Z</time></trkpt><trkpt lat="14.574676444015449" lon="121.04018521997959"><ele>18.0</ele><time>2026-04-08T12:08:06Z</time></trkpt><trkpt lat="14.574609223070789" lon="121.0401303992835"><ele>18.0</ele><time>2026-04-08T12:08:09Z</time></trkpt><trkpt lat="14.574543077633937" lon="121.04007645569628"><ele>18.0</ele><time>2026-04-08T12:08:13Z</time></trkpt><trkpt lat="14.57445828086967" lon="121.04000730139708"><ele>18.0</ele><time>2026-04-08T12:08:15Z</time></trkpt><trkpt lat="14.574405137127256" lon="121.03996396107587"><ele>18.0</ele><time>2026-04-08T12:08:16Z</time></trkpt><trkpt lat="14.574315509510186" lon="121.03989086697966"><ele>18.0</ele><time>2026-04-08T12:08:18Z</time></trkpt><trkpt lat="14.57423886936727" lon="121.03982839911997"><ele>18.0</ele><time>2026-04-08T12:08:20Z</time></trkpt><trkpt lat="14.574172773324976" lon="121.0397745174947"><ele>17.666666666666668</ele><time>2026-04-08T12:08:22Z</time></trkpt><trkpt lat="14.57409719128615" lon="121.03971290286688"><ele>17.333333333333332</ele><time>2026-04-08T12:08:24Z</time></trkpt><trkpt lat="14.574045915128393" lon="121.03967110244415"><ele>17.0</ele><time>2026-04-08T12:08:25Z</time></trkpt><trkpt lat="14.573982788421993" lon="121.03961964142594"><ele>16.666666666666664</ele><time>2026-04-08T12:08:26Z</time></trkpt><trkpt lat="14.573926607148577" lon="121.03957384234455"><ele>16.333333333333332</ele><time>2026-04-08T12:08:27Z</time></trkpt><trkpt lat="14.57384617876375" lon="121.039508276965"><ele>16.0</ele><time>2026-04-08T12:08:28Z</time></trkpt><trkpt lat="14.573770153876044" lon="121.039446301329"><ele>15.999999999999998</ele><time>2026-04-08T12:08:29Z</time></trkpt><trkpt lat="14.57370191880425" lon="121.03939067596379"><ele>16.0</ele><time>2026-04-08T12:08:30Z</time></trkpt><trkpt lat="14.573633985891226" lon="121.03933529691825"><ele>16.0</ele><time>2026-04-08T12:08:31Z</time></trkpt><trkpt lat="14.573538292613144" lon="121.03931611672796"><ele>16.0</ele><time>2026-04-08T12:08:32Z</time></trkpt><trkpt lat="14.573472237074142" lon="121.0392612154302"><ele>15.999999999999998</ele><time>2026-04-08T12:08:33Z</time></trkpt><trkpt lat="14.573398496708196" lon="121.03920139154047"><ele>16.0</ele><time>2026-04-08T12:08:34Z</time></trkpt><trkpt lat="14.57332868912122" lon="121.03913671607623"><ele>14.8</ele><time>2026-04-08T12:08:35Z</time></trkpt><trkpt lat="14.57328230696558" lon="121.0390497101451"><ele>13.600000000000001</ele><time>2026-04-08T12:08:36Z</time></trkpt><trkpt lat="14.573207612763225" lon="121.03898863654189"><ele>12.4</ele><time>2026-04-08T12:08:37Z</time></trkpt><trkpt lat="14.573126720903653" lon="121.03892249546345"><ele>11.2</ele><time>2026-04-08T12:08:38Z</time></trkpt><trkpt lat="14.573041597973615" lon="121.0388528948484"><ele>10.0</ele><time>2026-04-08T12:08:39Z</time></trkpt><trkpt lat="14.57296112360787" lon="121.03878709559928"><ele>10.0</ele><time>2026-04-08T12:08:40Z</time></trkpt><trkpt lat="14.572870362836895" lon="121.03875534697953"><ele>10.0</ele><time>2026-04-08T12:08:41Z</time></trkpt><trkpt lat="14.572802551604296" lon="121.03870242011192"><ele>10.0</ele><time>2026-04-08T12:08:42Z</time></trkpt><trkpt lat="14.572740425167721" lon="121.03864769156537"><ele>10.0</ele><time>2026-04-08T12:08:43Z</time></trkpt><trkpt lat="14.572669694897114" lon="121.03859500501632"><ele>10.0</ele><time>2026-04-08T12:08:44Z</time></trkpt><trkpt lat="14.57259762013874" lon="121.03853265931146"><ele>10.0</ele><time>2026-04-08T12:08:45Z</time></trkpt><trkpt lat="14.572545849635423" lon="121.03844803457362"><ele>10.5</ele><time>2026-04-08T12:08:46Z</time></trkpt><trkpt lat="14.57247456230298" lon="121.03838999111011"><ele>11.0</ele><time>2026-04-08T12:08:47Z</time></trkpt><trkpt lat="14.572411098683212" lon="121.03833831786035"><ele>11.5</ele><time>2026-04-08T12:08:48Z</time></trkpt><trkpt lat="14.57234328764645" lon="121.03828310485586"><ele>12.0</ele><time>2026-04-08T12:08:49Z</time></trkpt><trkpt lat="14.572276552131958" lon="121.038228767567"><ele>12.499999999999998</ele><time>2026-04-08T12:08:50Z</time></trkpt><trkpt lat="14.572207793791994" lon="121.03817286371394"><ele>13.0</ele><time>2026-04-08T12:08:51Z</time></trkpt><trkpt lat="14.572136955408267" lon="121.03811535858331"><ele>13.0</ele><time>2026-04-08T12:08:52Z</time></trkpt><trkpt lat="14.572066479267471" lon="121.0380581475151"><ele>13.0</ele><time>2026-04-08T12:08:53Z</time></trkpt><trkpt lat="14.571999311359939" lon="121.03800362200163"><ele>13.0</ele><time>2026-04-08T12:08:54Z</time></trkpt><trkpt lat="14.571929608915124" lon="121.03794674082283"><ele>13.0</ele><time>2026-04-08T12:08:55Z</time></trkpt><trkpt lat="14.5718512012693" lon="121.03788274920585"><ele>13.0</ele><time>2026-04-08T12:08:56Z</time></trkpt><trkpt lat="14.571779884918504" lon="121.03782454508054"><ele>12.999999999999998</ele><time>2026-04-08T12:08:57Z</time></trkpt><trkpt lat="14.571711149836974" lon="121.03776844763394"><ele>13.0</ele><time>2026-04-08T12:08:58Z</time></trkpt><trkpt lat="14.571639883083579" lon="121.03771028398204"><ele>13.0</ele><time>2026-04-08T12:08:59Z</time></trkpt><trkpt lat="14.571570187450936" lon="121.03765353610213"><ele>13.0</ele><time>2026-04-08T12:09:00Z</time></trkpt><trkpt lat="14.57150753873787" lon="121.03760259224765"><ele>12.999999999999998</ele><time>2026-04-08T12:09:01Z</time></trkpt><trkpt lat="14.571443755189664" lon="121.03755072558309"><ele>13.0</ele><time>2026-04-08T12:09:02Z</time></trkpt><trkpt lat="14.571384044168482" lon="121.03750217056465"><ele>12.8</ele><time>2026-04-08T12:09:03Z</time></trkpt><trkpt lat="14.57133019393293" lon="121.03745838133831"><ele>12.600000000000001</ele><time>2026-04-08T12:09:04Z</time></trkpt><trkpt lat="14.571228368405055" lon="121.03737558018709"><ele>12.399999999999999</ele><time>2026-04-08T12:09:06Z</time></trkpt><trkpt lat="14.571165934157866" lon="121.03732472074189"><ele>12.2</ele><time>2026-04-08T12:09:07Z</time></trkpt><trkpt lat="14.571095652353243" lon="121.03726747237523"><ele>12.0</ele><time>2026-04-08T12:09:08Z</time></trkpt><trkpt lat="14.571006440245727" lon="121.03721371846115"><ele>11.2</ele><time>2026-04-08T12:09:09Z</time></trkpt><trkpt lat="14.570924591253366" lon="121.03714585335881"><ele>10.399999999999999</ele><time>2026-04-08T12:09:10Z</time></trkpt><trkpt lat="14.570850538316643" lon="121.037067813614"><ele>9.600000000000001</ele><time>2026-04-08T12:09:11Z</time></trkpt><trkpt lat="14.57077786640629" lon="121.03700856554275"><ele>8.8</ele><time>2026-04-08T12:09:12Z</time></trkpt><trkpt lat="14.570711064438424" lon="121.03695408683555"><ele>8.0</ele><time>2026-04-08T12:09:13Z</time></trkpt><trkpt lat="14.570649211914613" lon="121.03690364453207"><ele>7.999999999999999</ele><time>2026-04-08T12:09:14Z</time></trkpt><trkpt lat="14.570586171797279" lon="121.036852233717"><ele>8.0</ele><time>2026-04-08T12:09:15Z</time></trkpt><trkpt lat="14.570534280561366" lon="121.0368099150946"><ele>8.0</ele><time>2026-04-08T12:09:16Z</time></trkpt><trkpt lat="14.570469231005982" lon="121.03675711716262"><ele>8.0</ele><time>2026-04-08T12:09:18Z</time></trkpt><trkpt lat="14.5704869122152" lon="121.03667188391253"><ele>7.999999999999999</ele><time>2026-04-08T12:09:21Z</time></trkpt><trkpt lat="14.570552377652165" lon="121.03657788137802"><ele>8.0</ele><time>2026-04-08T12:09:23Z</time></trkpt><trkpt lat="14.570586708388461" lon="121.03651859442074"><ele>8.0</ele><time>2026-04-08T12:09:24Z</time></trkpt><trkpt lat="14.570642140815016" lon="121.0364302626889"><ele>8.0</ele><time>2026-04-08T12:09:26Z</time></trkpt><trkpt lat="14.570691753393767" lon="121.03636142613658"><ele>8.0</ele><time>2026-04-08T12:09:28Z</time></trkpt><trkpt lat="14.570625461295466" lon="121.03616931790175"><ele>8.0</ele><time>2026-04-08T12:09:32Z</time></trkpt><trkpt lat="14.570594311457512" lon="121.03610975199476"><ele>8.0</ele><time>2026-04-08T12:09:33Z</time></trkpt><trkpt lat="14.570545732689757" lon="121.03601685785723"><ele>8.0</ele><time>2026-04-08T12:09:35Z</time></trkpt><trkpt lat="14.570509300760325" lon="121.03594719137266"><ele>8.0</ele><time>2026-04-08T12:09:37Z</time></trkpt><trkpt lat="14.570478191909539" lon="121.03588770383476"><ele>8.0</ele><time>2026-04-08T12:09:40Z</time></trkpt><trkpt lat="14.570352681600504" lon="121.03595372354391"><ele>8.0</ele><time>2026-04-08T12:09:41Z</time></trkpt><trkpt lat="14.57024355992857" lon="121.03601777209258"><ele>8.0</ele><time>2026-04-08T12:09:43Z</time></trkpt><trkpt lat="14.570179688468695" lon="121.03605507831391"><ele>8.333333333333332</ele><time>2026-04-08T12:09:44Z</time></trkpt><trkpt lat="14.570114454768312" lon="121.03609534823386"><ele>8.666666666666666</ele><time>2026-04-08T12:09:45Z</time></trkpt><trkpt lat="14.570055093384767" lon="121.03613717835835"><ele>9.0</ele><time>2026-04-08T12:09:46Z</time></trkpt><trkpt lat="14.5699658074838" lon="121.03618542304775"><ele>9.333333333333334</ele><time>2026-04-08T12:09:48Z</time></trkpt><trkpt lat="14.569894960914814" lon="121.03623283154103"><ele>9.666666666666668</ele><time>2026-04-08T12:09:50Z</time></trkpt><trkpt lat="14.569827936754827" lon="121.03624315771287"><ele>10.0</ele><time>2026-04-08T12:09:52Z</time></trkpt><trkpt lat="14.56976056538808" lon="121.03619790867553"><ele>10.0</ele><time>2026-04-08T12:09:54Z</time></trkpt><trkpt lat="14.569669577113542" lon="121.03616328837478"><ele>10.0</ele><time>2026-04-08T12:09:56Z</time></trkpt><trkpt lat="14.56960889951962" lon="121.03613759496636"><ele>10.0</ele><time>2026-04-08T12:09:57Z</time></trkpt><trkpt lat="14.569542775199903" lon="121.03611325899244"><ele>10.0</ele><time>2026-04-08T12:09:58Z</time></trkpt><trkpt lat="14.569464728721284" lon="121.03609465142536"><ele>10.0</ele><time>2026-04-08T12:09:59Z</time></trkpt><trkpt lat="14.569394539085188" lon="121.03609641074222"><ele>10.0</ele><time>2026-04-08T12:10:00Z</time></trkpt><trkpt lat="14.569327390352228" lon="121.03611685618333"><ele>9.6</ele><time>2026-04-08T12:10:01Z</time></trkpt><trkpt lat="14.5692646677317" lon="121.03616320404294"><ele>9.2</ele><time>2026-04-08T12:10:02Z</time></trkpt><trkpt lat="14.569211224709163" lon="121.0362326282418"><ele>8.8</ele><time>2026-04-08T12:10:03Z</time></trkpt><trkpt lat="14.569160444076651" lon="121.03631639823256"><ele>8.4</ele><time>2026-04-08T12:10:04Z</time></trkpt><trkpt lat="14.56910520901451" lon="121.03640078989092"><ele>8.0</ele><time>2026-04-08T12:10:05Z</time></trkpt><trkpt lat="14.569040707677686" lon="121.03649031198916"><ele>8.0</ele><time>2026-04-08T12:10:06Z</time></trkpt><trkpt lat="14.568966757003592" lon="121.03657547688448"><ele>8.0</ele><time>2026-04-08T12:10:07Z</time></trkpt><trkpt lat="14.568887125129297" lon="121.03666354413048"><ele>8.0</ele><time>2026-04-08T12:10:08Z</time></trkpt><trkpt lat="14.56880725427716" lon="121.03675556968686"><ele>8.0</ele><time>2026-04-08T12:10:09Z</time></trkpt><trkpt lat="14.56872698804825" lon="121.03685674318068"><ele>8.0</ele><time>2026-04-08T12:10:10Z</time></trkpt><trkpt lat="14.568647956220632" lon="121.0369619881372"><ele>8.0</ele><time>2026-04-08T12:10:11Z</time></trkpt><trkpt lat="14.56855935585199" lon="121.03706557655138"><ele>8.0</ele><time>2026-04-08T12:10:12Z</time></trkpt><trkpt lat="14.568455536718034" lon="121.03715601344825"><ele>8.0</ele><time>2026-04-08T12:10:13Z</time></trkpt><trkpt lat="14.568339010758708" lon="121.0372325426077"><ele>8.0</ele><time>2026-04-08T12:10:14Z</time></trkpt><trkpt lat="14.568215106927843" lon="121.0372975166269"><ele>8.0</ele><time>2026-04-08T12:10:15Z</time></trkpt><trkpt lat="14.568082000577489" lon="121.0373500496392"><ele>8.0</ele><time>2026-04-08T12:10:16Z</time></trkpt><trkpt lat="14.567942254979673" lon="121.0373860757259"><ele>8.0</ele><time>2026-04-08T12:10:17Z</time></trkpt><trkpt lat="14.567798816101831" lon="121.03741668347895"><ele>8.0</ele><time>2026-04-08T12:10:18Z</time></trkpt><trkpt lat="14.567654075512559" lon="121.0374452458369"><ele>8.0</ele><time>2026-04-08T12:10:19Z</time></trkpt><trkpt lat="14.567506550038424" lon="121.03747329028026"><ele>8.0</ele><time>2026-04-08T12:10:20Z</time></trkpt><trkpt lat="14.56735906612355" lon="121.037506603988"><ele>8.0</ele><time>2026-04-08T12:10:21Z</time></trkpt><trkpt lat="14.56720845434884" lon="121.03754068898098"><ele>8.0</ele><time>2026-04-08T12:10:22Z</time></trkpt><trkpt lat="14.567053806020091" lon="121.03757612066684"><ele>8.0</ele><time>2026-04-08T12:10:23Z</time></trkpt><trkpt lat="14.566898824733983" lon="121.03761127400126"><ele>8.0</ele><time>2026-04-08T12:10:24Z</time></trkpt><trkpt lat="14.566752547397032" lon="121.03764322977332"><ele>8.5</ele><time>2026-04-08T12:10:25Z</time></trkpt><trkpt lat="14.566610917880313" lon="121.03767758754837"><ele>9.0</ele><time>2026-04-08T12:10:26Z</time></trkpt><trkpt lat="14.566472835238935" lon="121.03770597738597"><ele>9.5</ele><time>2026-04-08T12:10:27Z</time></trkpt><trkpt lat="14.566330737259772" lon="121.03773820105339"><ele>10.0</ele><time>2026-04-08T12:10:28Z</time></trkpt><trkpt lat="14.566189239950502" lon="121.03776943158701"><ele>10.25</ele><time>2026-04-08T12:10:29Z</time></trkpt><trkpt lat="14.566050146328452" lon="121.03779590885773"><ele>10.5</ele><time>2026-04-08T12:10:30Z</time></trkpt><trkpt lat="14.565920398346035" lon="121.03782338618048"><ele>10.75</ele><time>2026-04-08T12:10:31Z</time></trkpt><trkpt lat="14.565801862067808" lon="121.03785356008801"><ele>11.0</ele><time>2026-04-08T12:10:32Z</time></trkpt><trkpt lat="14.56568750043049" lon="121.03787506620684"><ele>11.0</ele><time>2026-04-08T12:10:33Z</time></trkpt><trkpt lat="14.565583043024542" lon="121.03789552003082"><ele>11.0</ele><time>2026-04-08T12:10:34Z</time></trkpt><trkpt lat="14.565505289396903" lon="121.03791537712061"><ele>11.0</ele><time>2026-04-08T12:10:35Z</time></trkpt><trkpt lat="14.56542595478719" lon="121.03793257084223"><ele>11.0</ele><time>2026-04-08T12:10:36Z</time></trkpt><trkpt lat="14.565335803497883" lon="121.03796157081052"><ele>11.0</ele><time>2026-04-08T12:10:37Z</time></trkpt><trkpt lat="14.565261435008368" lon="121.0379901730186"><ele>11.0</ele><time>2026-04-08T12:10:38Z</time></trkpt><trkpt lat="14.56520167824891" lon="121.03801403936731"><ele>11.333333333333332</ele><time>2026-04-08T12:10:39Z</time></trkpt><trkpt lat="14.56510780542488" lon="121.03804338717116"><ele>11.666666666666666</ele><time>2026-04-08T12:10:41Z</time></trkpt><trkpt lat="14.565037539064173" lon="121.03806416906038"><ele>12.0</ele><time>2026-04-08T12:10:44Z</time></trkpt><trkpt lat="14.564961226221357" lon="121.03804385883956"><ele>12.333333333333332</ele><time>2026-04-08T12:10:50Z</time></trkpt><trkpt lat="14.56488666488219" lon="121.03809139119858"><ele>12.666666666666666</ele><time>2026-04-08T12:10:52Z</time></trkpt><trkpt lat="14.564826861280885" lon="121.03811585889669"><ele>13.0</ele><time>2026-04-08T12:10:54Z</time></trkpt><trkpt lat="14.564777126397743" lon="121.03800956592872"><ele>13.0</ele><time>2026-04-08T12:10:56Z</time></trkpt><trkpt lat="14.56473338131303" lon="121.03789766246827"><ele>13.0</ele><time>2026-04-08T12:10:58Z</time></trkpt><trkpt lat="14.564694073471678" lon="121.03780217432586"><ele>13.0</ele><time>2026-04-08T12:11:00Z</time></trkpt><trkpt lat="14.564647094858884" lon="121.03771719834393"><ele>13.0</ele><time>2026-04-08T12:11:01Z</time></trkpt><trkpt lat="14.564619202967371" lon="121.03762966238712"><ele>13.0</ele><time>2026-04-08T12:11:02Z</time></trkpt><trkpt lat="14.564648457407671" lon="121.03753420662157"><ele>15.833333333333332</ele><time>2026-04-08T12:11:03Z</time></trkpt><trkpt lat="14.56465057799409" lon="121.03745380782426"><ele>18.666666666666664</ele><time>2026-04-08T12:11:04Z</time></trkpt><trkpt lat="14.564652421758288" lon="121.03738390434059"><ele>21.5</ele><time>2026-04-08T12:11:05Z</time></trkpt><trkpt lat="14.564654951955008" lon="121.03728797580352"><ele>24.333333333333332</ele><time>2026-04-08T12:11:07Z</time></trkpt><trkpt lat="14.564671006503168" lon="121.03721734556022"><ele>27.166666666666668</ele><time>2026-04-08T12:11:10Z</time></trkpt><trkpt lat="14.564768993520476" lon="121.03720053554284"><ele>30.0</ele><time>2026-04-08T12:11:11Z</time></trkpt><trkpt lat="14.564865879915603" lon="121.03719084783955"><ele>30.0</ele><time>2026-04-08T12:11:13Z</time></trkpt><trkpt lat="14.56510663276457" lon="121.03721421499847"><ele>30.0</ele><time>2026-04-08T12:11:19Z</time></trkpt><trkpt lat="14.565175735486958" lon="121.03721606909049"><ele>30.0</ele><time>2026-04-08T12:11:20Z</time></trkpt><trkpt lat="14.565242115380485" lon="121.0372132322684"><ele>30.0</ele><time>2026-04-08T12:11:21Z</time></trkpt><trkpt lat="14.565306651880608" lon="121.03721542396242"><ele>30.0</ele><time>2026-04-08T12:11:22Z</time></trkpt><trkpt lat="14.565381110483372" lon="121.03721327942944"><ele>28.8</ele><time>2026-04-08T12:11:23Z</time></trkpt><trkpt lat="14.56545400085656" lon="121.03721522050479"><ele>27.6</ele><time>2026-04-08T12:11:24Z</time></trkpt><trkpt lat="14.565555134341205" lon="121.03720731455253"><ele>26.4</ele><time>2026-04-08T12:11:26Z</time></trkpt><trkpt lat="14.565651749891659" lon="121.03718291125274"><ele>25.2</ele><time>2026-04-08T12:11:28Z</time></trkpt><trkpt lat="14.56572600379676" lon="121.03706386509725"><ele>24.0</ele><time>2026-04-08T12:11:30Z</time></trkpt><trkpt lat="14.565756651794901" lon="121.03699772215818"><ele>24.0</ele><time>2026-04-08T12:11:31Z</time></trkpt><trkpt lat="14.565805649450793" lon="121.03688038166777"><ele>24.0</ele><time>2026-04-08T12:11:33Z</time></trkpt><trkpt lat="14.565861529043499" lon="121.03678623962514"><ele>24.0</ele><time>2026-04-08T12:11:35Z</time></trkpt><trkpt lat="14.565891971567238" lon="121.03672301296201"><ele>24.0</ele><time>2026-04-08T12:11:37Z</time></trkpt><trkpt lat="14.566008325156176" lon="121.03673247031226"><ele>24.0</ele><time>2026-04-08T12:11:40Z</time></trkpt><trkpt lat="14.566112489170035" lon="121.03672152773521"><ele>24.0</ele><time>2026-04-08T12:11:43Z</time></trkpt><trkpt lat="14.566175571385411" lon="121.0367240395649"><ele>24.0</ele><time>2026-04-08T12:11:44Z</time></trkpt><trkpt lat="14.566248110224317" lon="121.03672350930444"><ele>24.0</ele><time>2026-04-08T12:11:45Z</time></trkpt><trkpt lat="14.56632036835425" lon="121.03671863949609"><ele>24.0</ele><time>2026-04-08T12:11:46Z</time></trkpt><trkpt lat="14.566393167860658" lon="121.0367247149427"><ele>24.0</ele><time>2026-04-08T12:11:47Z</time></trkpt><trkpt lat="14.566460219424213" lon="121.03673191642633"><ele>24.0</ele><time>2026-04-08T12:11:48Z</time></trkpt><trkpt lat="14.56657765209622" lon="121.03673485271871"><ele>20.8</ele><time>2026-04-08T12:11:50Z</time></trkpt><trkpt lat="14.566644661258794" lon="121.03672518571041"><ele>17.599999999999998</ele><time>2026-04-08T12:11:55Z</time></trkpt><trkpt lat="14.566693544309501" lon="121.03657065608724"><ele>14.4</ele><time>2026-04-08T12:12:01Z</time></trkpt><trkpt lat="14.566708793942846" lon="121.03647045978215"><ele>11.2</ele><time>2026-04-08T12:12:02Z</time></trkpt><trkpt lat="14.566716106584048" lon="121.03638807355433"><ele>8.0</ele><time>2026-04-08T12:12:03Z</time></trkpt><trkpt lat="14.566722799879429" lon="121.03631023860301"><ele>8.0</ele><time>2026-04-08T12:12:04Z</time></trkpt><trkpt lat="14.56672921352298" lon="121.03623531878812"><ele>7.999999999999999</ele><time>2026-04-08T12:12:05Z</time></trkpt><trkpt lat="14.566736037129711" lon="121.03615561006214"><ele>8.0</ele><time>2026-04-08T12:12:06Z</time></trkpt><trkpt lat="14.566742353720686" lon="121.03608182394895"><ele>8.0</ele><time>2026-04-08T12:12:07Z</time></trkpt><trkpt lat="14.566748779044518" lon="121.0360067676917"><ele>7.999999999999999</ele><time>2026-04-08T12:12:08Z</time></trkpt><trkpt lat="14.566755277620619" lon="121.03592866980658"><ele>8.0</ele><time>2026-04-08T12:12:09Z</time></trkpt><trkpt lat="14.566761154572173" lon="121.03585331426022"><ele>8.0</ele><time>2026-04-08T12:12:10Z</time></trkpt><trkpt lat="14.566767935549821" lon="121.03577314789007"><ele>7.499999999999999</ele><time>2026-04-08T12:12:11Z</time></trkpt><trkpt lat="14.566774311199865" lon="121.03570265970409"><ele>7.0</ele><time>2026-04-08T12:12:12Z</time></trkpt><trkpt lat="14.56678258737008" lon="121.03562507407666"><ele>6.5</ele><time>2026-04-08T12:12:13Z</time></trkpt><trkpt lat="14.566789963666702" lon="121.03555592438519"><ele>6.0</ele><time>2026-04-08T12:12:14Z</time></trkpt><trkpt lat="14.566797434769294" lon="121.03548588591129"><ele>5.5</ele><time>2026-04-08T12:12:15Z</time></trkpt><trkpt lat="14.566795246195284" lon="121.03536366692916"><ele>5.0</ele><time>2026-04-08T12:12:17Z</time></trkpt><trkpt lat="14.566818854740157" lon="121.03527060887485"><ele>5.0</ele><time>2026-04-08T12:12:19Z</time></trkpt><trkpt lat="14.566840418810605" lon="121.03516039538897"><ele>5.0</ele><time>2026-04-08T12:12:21Z</time></trkpt><trkpt lat="14.566861698853522" lon="121.03503496579623"><ele>5.0</ele><time>2026-04-08T12:12:23Z</time></trkpt><trkpt lat="14.566871699463368" lon="121.03496978805518"><ele>5.0</ele><time>2026-04-08T12:12:24Z</time></trkpt><trkpt lat="14.566883586427148" lon="121.0348962780936"><ele>5.0</ele><time>2026-04-08T12:12:25Z</time></trkpt><trkpt lat="14.566894676959508" lon="121.03483099145275"><ele>5.0</ele><time>2026-04-08T12:12:26Z</time></trkpt><trkpt lat="14.566910424199788" lon="121.0347096259258"><ele>4.8</ele><time>2026-04-08T12:12:28Z</time></trkpt><trkpt lat="14.566926599571504" lon="121.03459164896692"><ele>4.6</ele><time>2026-04-08T12:12:30Z</time></trkpt><trkpt lat="14.566921988074673" lon="121.03447580078394"><ele>4.4</ele><time>2026-04-08T12:12:32Z</time></trkpt><trkpt lat="14.566928049329375" lon="121.03439927412354"><ele>4.2</ele><time>2026-04-08T12:12:33Z</time></trkpt><trkpt lat="14.566925062636408" lon="121.03426783749354"><ele>4.0</ele><time>2026-04-08T12:12:35Z</time></trkpt><trkpt lat="14.566919222851531" lon="121.03418398420123"><ele>4.666666666666666</ele><time>2026-04-08T12:12:36Z</time></trkpt><trkpt lat="14.566913796723137" lon="121.03410496827522"><ele>5.333333333333333</ele><time>2026-04-08T12:12:37Z</time></trkpt><trkpt lat="14.566909004712421" lon="121.03402530621184"><ele>6.0</ele><time>2026-04-08T12:12:38Z</time></trkpt><trkpt lat="14.566888898478986" lon="121.03396011645614"><ele>6.666666666666666</ele><time>2026-04-08T12:12:39Z</time></trkpt><trkpt lat="14.566901222433495" lon="121.03387730020438"><ele>7.333333333333333</ele><time>2026-04-08T12:12:40Z</time></trkpt><trkpt lat="14.5669088067043" lon="121.03379353134798"><ele>8.0</ele><time>2026-04-08T12:12:41Z</time></trkpt><trkpt lat="14.56692948174479" lon="121.03371251257349"><ele>7.999999999999999</ele><time>2026-04-08T12:12:42Z</time></trkpt><trkpt lat="14.566956725186817" lon="121.03362852417187"><ele>8.0</ele><time>2026-04-08T12:12:43Z</time></trkpt><trkpt lat="14.567000115277981" lon="121.03356953791184"><ele>8.0</ele><time>2026-04-08T12:12:44Z</time></trkpt><trkpt lat="14.567056511041116" lon="121.03350867343569"><ele>8.0</ele><time>2026-04-08T12:12:45Z</time></trkpt><trkpt lat="14.567112202923886" lon="121.0334528032477"><ele>7.999999999999999</ele><time>2026-04-08T12:12:46Z</time></trkpt><trkpt lat="14.567161581922091" lon="121.03337842089456"><ele>8.0</ele><time>2026-04-08T12:12:47Z</time></trkpt><trkpt lat="14.567222041120083" lon="121.03331697653788"><ele>8.166666666666666</ele><time>2026-04-08T12:12:48Z</time></trkpt><trkpt lat="14.567272739124459" lon="121.0332616489327"><ele>8.333333333333332</ele><time>2026-04-08T12:12:49Z</time></trkpt><trkpt lat="14.567319787870229" lon="121.0332077966925"><ele>8.5</ele><time>2026-04-08T12:12:50Z</time></trkpt><trkpt lat="14.567369533339605" lon="121.0331606464453"><ele>8.666666666666666</ele><time>2026-04-08T12:12:51Z</time></trkpt><trkpt lat="14.567417051392471" lon="121.0331093203711"><ele>8.833333333333334</ele><time>2026-04-08T12:12:52Z</time></trkpt><trkpt lat="14.56750004063256" lon="121.03301951886318"><ele>9.0</ele><time>2026-04-08T12:12:54Z</time></trkpt><trkpt lat="14.567570887335604" lon="121.0329194137829"><ele>9.0</ele><time>2026-04-08T12:12:56.001Z</time></trkpt><trkpt lat="14.567597866079065" lon="121.03278985652642"><ele>9.0</ele><time>2026-04-08T12:12:58.001Z</time></trkpt><trkpt lat="14.56759027793308" lon="121.03272342610579"><ele>9.0</ele><time>2026-04-08T12:12:59.001Z</time></trkpt><trkpt lat="14.56757692091962" lon="121.03264271774778"><ele>9.0</ele><time>2026-04-08T12:13:00.001Z</time></trkpt><trkpt lat="14.567560471316973" lon="121.03254769204554"><ele>9.0</ele><time>2026-04-08T12:13:01.001Z</time></trkpt><trkpt lat="14.567537091602908" lon="121.03244615385506"><ele>10.2</ele><time>2026-04-08T12:13:02.001Z</time></trkpt><trkpt lat="14.56751842581451" lon="121.03232933564851"><ele>11.4</ele><time>2026-04-08T12:13:03.001Z</time></trkpt><trkpt lat="14.567490438705907" lon="121.03220919375505"><ele>12.6</ele><time>2026-04-08T12:13:04.001Z</time></trkpt><trkpt lat="14.567460427698867" lon="121.03210345567108"><ele>13.8</ele><time>2026-04-08T12:13:05.001Z</time></trkpt><trkpt lat="14.567437582792587" lon="121.03200830718326"><ele>15.0</ele><time>2026-04-08T12:13:06.001Z</time></trkpt><trkpt lat="14.567431834080159" lon="121.03192019409639"><ele>15.0</ele><time>2026-04-08T12:13:07.001Z</time></trkpt><trkpt lat="14.567429828286178" lon="121.03183474295109"><ele>15.0</ele><time>2026-04-08T12:13:08.001Z</time></trkpt><trkpt lat="14.567445775735445" lon="121.03175259732772"><ele>15.0</ele><time>2026-04-08T12:13:09.001Z</time></trkpt><trkpt lat="14.567438026996625" lon="121.03167424860176"><ele>15.0</ele><time>2026-04-08T12:13:10.001Z</time></trkpt><trkpt lat="14.567446364891238" lon="121.03160397453408"><ele>15.0</ele><time>2026-04-08T12:13:11.001Z</time></trkpt><trkpt lat="14.567473099987204" lon="121.03150330582757"><ele>15.0</ele><time>2026-04-08T12:13:13.001Z</time></trkpt><trkpt lat="14.567462519021031" lon="121.03143607854238"><ele>15.166666666666666</ele><time>2026-04-08T12:13:18.001Z</time></trkpt><trkpt lat="14.567462685681448" lon="121.03136700330502"><ele>15.333333333333332</ele><time>2026-04-08T12:13:22.001Z</time></trkpt><trkpt lat="14.56750148703353" lon="121.0312859998395"><ele>15.5</ele><time>2026-04-08T12:13:25.001Z</time></trkpt><trkpt lat="14.567537726061431" lon="121.03123116833734"><ele>15.666666666666666</ele><time>2026-04-08T12:13:27.001Z</time></trkpt><trkpt lat="14.567575012389263" lon="121.03113699528399"><ele>15.833333333333332</ele><time>2026-04-08T12:13:31.001Z</time></trkpt><trkpt lat="14.567591073520628" lon="121.03104929823415"><ele>16.0</ele><time>2026-04-08T12:13:33.001Z</time></trkpt><trkpt lat="14.56762753516745" lon="121.0309797867311"><ele>15.999999999999998</ele><time>2026-04-08T12:13:36.001Z</time></trkpt><trkpt lat="14.567647573653986" lon="121.03091677908115"><ele>16.0</ele><time>2026-04-08T12:13:43.001Z</time></trkpt><trkpt lat="14.567686485908633" lon="121.03080831108312"><ele>16.0</ele><time>2026-04-08T12:13:46.001Z</time></trkpt><trkpt lat="14.567703869765635" lon="121.03074193235992"><ele>16.0</ele><time>2026-04-08T12:13:47.001Z</time></trkpt><trkpt lat="14.56772706114002" lon="121.03067270036868"><ele>15.999999999999998</ele><time>2026-04-08T12:13:48.001Z</time></trkpt><trkpt lat="14.567766207254659" lon="121.0305978420164"><ele>16.0</ele><time>2026-04-08T12:13:49.001Z</time></trkpt><trkpt lat="14.567769207323956" lon="121.03050753530539"><ele>15.499999999999998</ele><time>2026-04-08T12:13:50.001Z</time></trkpt><trkpt lat="14.567795414413428" lon="121.03041963607514"><ele>15.0</ele><time>2026-04-08T12:13:51.001Z</time></trkpt><trkpt lat="14.56782029240301" lon="121.03033775487222"><ele>14.5</ele><time>2026-04-08T12:13:52.001Z</time></trkpt><trkpt lat="14.567844242802291" lon="121.03025041894406"><ele>14.0</ele><time>2026-04-08T12:13:53.001Z</time></trkpt><trkpt lat="14.567873371736757" lon="121.03016130019104"><ele>13.499999999999998</ele><time>2026-04-08T12:13:54.001Z</time></trkpt><trkpt lat="14.567900084281842" lon="121.03007119722226"><ele>13.0</ele><time>2026-04-08T12:13:55.001Z</time></trkpt><trkpt lat="14.567927400691648" lon="121.02998110388883"><ele>12.600000000000001</ele><time>2026-04-08T12:13:56.001Z</time></trkpt><trkpt lat="14.567954439044959" lon="121.02988644125612"><ele>12.200000000000001</ele><time>2026-04-08T12:13:57.001Z</time></trkpt><trkpt lat="14.567989312584233" lon="121.02979463518317"><ele>11.8</ele><time>2026-04-08T12:13:58.001Z</time></trkpt><trkpt lat="14.568018867560358" lon="121.02969999564945"><ele>11.4</ele><time>2026-04-08T12:13:59.001Z</time></trkpt><trkpt lat="14.568050068570049" lon="121.02960432050156"><ele>11.0</ele><time>2026-04-08T12:14:00.001Z</time></trkpt><trkpt lat="14.568082300276869" lon="121.02951308421687"><ele>11.0</ele><time>2026-04-08T12:14:01.001Z</time></trkpt><trkpt lat="14.568115674444204" lon="121.02940935051706"><ele>11.0</ele><time>2026-04-08T12:14:02.001Z</time></trkpt><trkpt lat="14.568143975012557" lon="121.02931484232623"><ele>11.0</ele><time>2026-04-08T12:14:03.001Z</time></trkpt><trkpt lat="14.568175844959766" lon="121.02921847248834"><ele>11.0</ele><time>2026-04-08T12:14:04.001Z</time></trkpt><trkpt lat="14.56820643326681" lon="121.02912536516989"><ele>11.0</ele><time>2026-04-08T12:14:05.001Z</time></trkpt><trkpt lat="14.568233557173546" lon="121.02902322219349"><ele>10.200000000000001</ele><time>2026-04-08T12:14:06.001Z</time></trkpt><trkpt lat="14.568264930428334" lon="121.02891973263014"><ele>9.4</ele><time>2026-04-08T12:14:07.001Z</time></trkpt><trkpt lat="14.568292818841805" lon="121.0288238302518"><ele>8.6</ele><time>2026-04-08T12:14:08.001Z</time></trkpt><trkpt lat="14.568319537030543" lon="121.02873412998714"><ele>7.8</ele><time>2026-04-08T12:14:09.001Z</time></trkpt><trkpt lat="14.56834437643378" lon="121.02865319173262"><ele>7.0</ele><time>2026-04-08T12:14:10.001Z</time></trkpt><trkpt lat="14.56838158437094" lon="121.0285687058383"><ele>7.000000000000001</ele><time>2026-04-08T12:14:11.001Z</time></trkpt><trkpt lat="14.568400375753395" lon="121.02848557740005"><ele>7.0</ele><time>2026-04-08T12:14:12.001Z</time></trkpt><trkpt lat="14.56842702499404" lon="121.02841123792219"><ele>7.0</ele><time>2026-04-08T12:14:13.001Z</time></trkpt><trkpt lat="14.568453122477559" lon="121.02833032212557"><ele>7.0</ele><time>2026-04-08T12:14:14.001Z</time></trkpt><trkpt lat="14.568471093134393" lon="121.02825070234235"><ele>7.000000000000001</ele><time>2026-04-08T12:14:15.001Z</time></trkpt><trkpt lat="14.56849592525844" lon="121.02817215424439"><ele>7.0</ele><time>2026-04-08T12:14:16.001Z</time></trkpt><trkpt lat="14.568520524185612" lon="121.02809115616614"><ele>7.3999999999999995</ele><time>2026-04-08T12:14:17.001Z</time></trkpt><trkpt lat="14.568578131452147" lon="121.02802192040289"><ele>7.799999999999999</ele><time>2026-04-08T12:14:18.001Z</time></trkpt><trkpt lat="14.568573425606829" lon="121.02792871047531"><ele>8.2</ele><time>2026-04-08T12:14:19.001Z</time></trkpt><trkpt lat="14.568604175869726" lon="121.02784171342975"><ele>8.6</ele><time>2026-04-08T12:14:20.001Z</time></trkpt><trkpt lat="14.568636672911211" lon="121.0277572860474"><ele>9.0</ele><time>2026-04-08T12:14:21.001Z</time></trkpt><trkpt lat="14.568672509979107" lon="121.02766498713632"><ele>9.6</ele><time>2026-04-08T12:14:22.001Z</time></trkpt><trkpt lat="14.56870277758382" lon="121.02756994439653"><ele>10.2</ele><time>2026-04-08T12:14:23.001Z</time></trkpt><trkpt lat="14.568740118957859" lon="121.02746794968724"><ele>10.799999999999999</ele><time>2026-04-08T12:14:24.001Z</time></trkpt><trkpt lat="14.568771720424763" lon="121.02736226809547"><ele>11.4</ele><time>2026-04-08T12:14:25.001Z</time></trkpt><trkpt lat="14.568806166016607" lon="121.02725143551294"><ele>12.0</ele><time>2026-04-08T12:14:26.001Z</time></trkpt><trkpt lat="14.56883913102618" lon="121.02714292338648"><ele>12.0</ele><time>2026-04-08T12:14:27.001Z</time></trkpt><trkpt lat="14.568868329421877" lon="121.02704062663535"><ele>12.0</ele><time>2026-04-08T12:14:28.001Z</time></trkpt><trkpt lat="14.568899379691167" lon="121.02694499753007"><ele>12.0</ele><time>2026-04-08T12:14:29.001Z</time></trkpt><trkpt lat="14.568929044502427" lon="121.02685405102048"><ele>12.0</ele><time>2026-04-08T12:14:30.001Z</time></trkpt><trkpt lat="14.568958641116286" lon="121.02676018334607"><ele>12.0</ele><time>2026-04-08T12:14:31.001Z</time></trkpt><trkpt lat="14.568989497784615" lon="121.02666306089176"><ele>11.6</ele><time>2026-04-08T12:14:32.001Z</time></trkpt><trkpt lat="14.569018839203135" lon="121.02655283268116"><ele>11.2</ele><time>2026-04-08T12:14:33.001Z</time></trkpt><trkpt lat="14.569045351449622" lon="121.02644894598673"><ele>10.8</ele><time>2026-04-08T12:14:34.001Z</time></trkpt><trkpt lat="14.569076852704288" lon="121.02633940738667"><ele>10.4</ele><time>2026-04-08T12:14:35.001Z</time></trkpt><trkpt lat="14.569107851611466" lon="121.02622878496514"><ele>10.0</ele><time>2026-04-08T12:14:36.001Z</time></trkpt><trkpt lat="14.569140735678904" lon="121.02611382130038"><ele>10.0</ele><time>2026-04-08T12:14:37.001Z</time></trkpt><trkpt lat="14.569170080369227" lon="121.02600830324107"><ele>10.0</ele><time>2026-04-08T12:14:38.001Z</time></trkpt><trkpt lat="14.56920241153455" lon="121.02590113507252"><ele>10.0</ele><time>2026-04-08T12:14:39.001Z</time></trkpt><trkpt lat="14.569230940680976" lon="121.0258041061421"><ele>10.0</ele><time>2026-04-08T12:14:40.001Z</time></trkpt><trkpt lat="14.569262161918141" lon="121.0257056589679"><ele>10.0</ele><time>2026-04-08T12:14:41.001Z</time></trkpt><trkpt lat="14.569293271892198" lon="121.02560026848597"><ele>10.166666666666668</ele><time>2026-04-08T12:14:42.001Z</time></trkpt><trkpt lat="14.569316425624615" lon="121.02551419368945"><ele>10.333333333333334</ele><time>2026-04-08T12:14:43.001Z</time></trkpt><trkpt lat="14.56934559923463" lon="121.02542424578665"><ele>10.5</ele><time>2026-04-08T12:14:44.001Z</time></trkpt><trkpt lat="14.569365215862385" lon="121.02534960908746"><ele>10.666666666666666</ele><time>2026-04-08T12:14:45.001Z</time></trkpt><trkpt lat="14.56938786333323" lon="121.02527900442047"><ele>10.833333333333332</ele><time>2026-04-08T12:14:46.001Z</time></trkpt><trkpt lat="14.569415531151613" lon="121.02520708091068"><ele>11.0</ele><time>2026-04-08T12:14:47.001Z</time></trkpt><trkpt lat="14.569437598740787" lon="121.02513607097335"><ele>11.0</ele><time>2026-04-08T12:14:48.001Z</time></trkpt><trkpt lat="14.569455250968144" lon="121.02507070473644"><ele>11.0</ele><time>2026-04-08T12:14:49.001Z</time></trkpt><trkpt lat="14.569479032326898" lon="121.02499699810113"><ele>11.0</ele><time>2026-04-08T12:14:51.001Z</time></trkpt><trkpt lat="14.569519061153908" lon="121.02492876822245"><ele>11.0</ele><time>2026-04-08T12:14:54.001Z</time></trkpt><trkpt lat="14.569539334779853" lon="121.02485077344066"><ele>11.0</ele><time>2026-04-08T12:15:03.001Z</time></trkpt><trkpt lat="14.569559249797864" lon="121.02476237193585"><ele>11.0</ele><time>2026-04-08T12:15:05.001Z</time></trkpt><trkpt lat="14.569584374310997" lon="121.02465264865981"><ele>10.666666666666666</ele><time>2026-04-08T12:15:07.001Z</time></trkpt><trkpt lat="14.569599364129278" lon="121.02458643059391"><ele>10.333333333333332</ele><time>2026-04-08T12:15:08.001Z</time></trkpt><trkpt lat="14.569616029329502" lon="121.0244925583363"><ele>10.0</ele><time>2026-04-08T12:15:10.001Z</time></trkpt><trkpt lat="14.569655611073594" lon="121.02439003737409"><ele>9.666666666666666</ele><time>2026-04-08T12:15:12.001Z</time></trkpt><trkpt lat="14.569673397968325" lon="121.02432045241491"><ele>9.333333333333334</ele><time>2026-04-08T12:15:13.001Z</time></trkpt><trkpt lat="14.569691807256014" lon="121.02424487097822"><ele>9.0</ele><time>2026-04-08T12:15:14.001Z</time></trkpt><trkpt lat="14.569723043182396" lon="121.02417064243991"><ele>9.0</ele><time>2026-04-08T12:15:15.001Z</time></trkpt><trkpt lat="14.569756684998122" lon="121.0240969209602"><ele>9.0</ele><time>2026-04-08T12:15:16.001Z</time></trkpt><trkpt lat="14.569789800001228" lon="121.02401524623063"><ele>9.0</ele><time>2026-04-08T12:15:17.001Z</time></trkpt><trkpt lat="14.569821329800101" lon="121.02392547310998"><ele>9.0</ele><time>2026-04-08T12:15:18.001Z</time></trkpt><trkpt lat="14.56985155469475" lon="121.02383000416778"><ele>9.0</ele><time>2026-04-08T12:15:19.001Z</time></trkpt><trkpt lat="14.56988630255108" lon="121.02373655172461"><ele>9.0</ele><time>2026-04-08T12:15:20.001Z</time></trkpt><trkpt lat="14.569920743697653" lon="121.02363730079408"><ele>9.0</ele><time>2026-04-08T12:15:21.001Z</time></trkpt><trkpt lat="14.56995471430105" lon="121.02353694690191"><ele>9.0</ele><time>2026-04-08T12:15:22.001Z</time></trkpt><trkpt lat="14.569985080053126" lon="121.023448411475"><ele>9.0</ele><time>2026-04-08T12:15:23.001Z</time></trkpt><trkpt lat="14.570012627759839" lon="121.02336533406742"><ele>9.0</ele><time>2026-04-08T12:15:24.001Z</time></trkpt><trkpt lat="14.570041959666181" lon="121.02327385683405"><ele>9.4</ele><time>2026-04-08T12:15:25.001Z</time></trkpt><trkpt lat="14.570073648931643" lon="121.02318113803173"><ele>9.8</ele><time>2026-04-08T12:15:26.001Z</time></trkpt><trkpt lat="14.570104776187717" lon="121.02308574184224"><ele>10.200000000000001</ele><time>2026-04-08T12:15:27.001Z</time></trkpt><trkpt lat="14.570134087727661" lon="121.02299191319376"><ele>10.600000000000001</ele><time>2026-04-08T12:15:28.001Z</time></trkpt><trkpt lat="14.570161426947195" lon="121.02290437851232"><ele>11.0</ele><time>2026-04-08T12:15:29.001Z</time></trkpt><trkpt lat="14.570182794932892" lon="121.02281479413976"><ele>11.0</ele><time>2026-04-08T12:15:30.001Z</time></trkpt><trkpt lat="14.570205192320008" lon="121.02272681934876"><ele>11.0</ele><time>2026-04-08T12:15:31.001Z</time></trkpt><trkpt lat="14.570238733149813" lon="121.02263776516658"><ele>11.0</ele><time>2026-04-08T12:15:32.001Z</time></trkpt><trkpt lat="14.570264845184312" lon="121.02255427708636"><ele>11.0</ele><time>2026-04-08T12:15:33.001Z</time></trkpt><trkpt lat="14.570288805953616" lon="121.02247303593845"><ele>11.0</ele><time>2026-04-08T12:15:34.001Z</time></trkpt><trkpt lat="14.570309916090624" lon="121.0223778179043"><ele>11.0</ele><time>2026-04-08T12:15:35.001Z</time></trkpt><trkpt lat="14.570335216227875" lon="121.02229553241264"><ele>10.8</ele><time>2026-04-08T12:15:36.001Z</time></trkpt><trkpt lat="14.570368221390382" lon="121.0222082380933"><ele>10.600000000000001</ele><time>2026-04-08T12:15:37.001Z</time></trkpt><trkpt lat="14.570389149611477" lon="121.02212137245468"><ele>10.4</ele><time>2026-04-08T12:15:38.001Z</time></trkpt><trkpt lat="14.57042036213222" lon="121.02202648029045"><ele>10.2</ele><time>2026-04-08T12:15:39.001Z</time></trkpt><trkpt lat="14.570445632977624" lon="121.02193114295136"><ele>10.0</ele><time>2026-04-08T12:15:40.001Z</time></trkpt><trkpt lat="14.570476456286869" lon="121.0218320803661"><ele>10.0</ele><time>2026-04-08T12:15:41.001Z</time></trkpt><trkpt lat="14.570506618296468" lon="121.02173834614891"><ele>10.0</ele><time>2026-04-08T12:15:42.001Z</time></trkpt><trkpt lat="14.570534432584452" lon="121.02164471796736"><ele>10.0</ele><time>2026-04-08T12:15:43.001Z</time></trkpt><trkpt lat="14.57056469694653" lon="121.02155190127358"><ele>10.0</ele><time>2026-04-08T12:15:44.001Z</time></trkpt><trkpt lat="14.570590462638902" lon="121.02145181593134"><ele>10.0</ele><time>2026-04-08T12:15:45.001Z</time></trkpt><trkpt lat="14.570609600994311" lon="121.02136361908545"><ele>9.666666666666668</ele><time>2026-04-08T12:15:46.001Z</time></trkpt><trkpt lat="14.570639233025604" lon="121.02127413557848"><ele>9.333333333333334</ele><time>2026-04-08T12:15:47.001Z</time></trkpt><trkpt lat="14.57068008694983" lon="121.02117393233371"><ele>9.0</ele><time>2026-04-08T12:15:48.001Z</time></trkpt><trkpt lat="14.570746869830812" lon="121.0210854021294"><ele>8.666666666666666</ele><time>2026-04-08T12:15:49.001Z</time></trkpt><trkpt lat="14.570769376758832" lon="121.02101631600623"><ele>8.333333333333332</ele><time>2026-04-08T12:15:50.001Z</time></trkpt><trkpt lat="14.570757827362794" lon="121.02094507972248"><ele>8.0</ele><time>2026-04-08T12:15:51.001Z</time></trkpt><trkpt lat="14.57077127085609" lon="121.02085507208962"><ele>7.499999999999999</ele><time>2026-04-08T12:15:52.001Z</time></trkpt><trkpt lat="14.570798798602848" lon="121.02076926005184"><ele>7.0</ele><time>2026-04-08T12:15:53.001Z</time></trkpt><trkpt lat="14.57081944257796" lon="121.02068617627256"><ele>6.5</ele><time>2026-04-08T12:15:54.001Z</time></trkpt><trkpt lat="14.5708352914871" lon="121.02059246834361"><ele>6.0</ele><time>2026-04-08T12:15:55.001Z</time></trkpt><trkpt lat="14.570869925741166" lon="121.02052381470871"><ele>5.5</ele><time>2026-04-08T12:15:56.001Z</time></trkpt><trkpt lat="14.570881023444585" lon="121.02044726934518"><ele>5.0</ele><time>2026-04-08T12:15:57.001Z</time></trkpt><trkpt lat="14.570899738752413" lon="121.02035874595828"><ele>5.0</ele><time>2026-04-08T12:15:58.001Z</time></trkpt><trkpt lat="14.570916686833398" lon="121.0202672860501"><ele>5.0</ele><time>2026-04-08T12:15:59.001Z</time></trkpt><trkpt lat="14.570936191131995" lon="121.02017468759323"><ele>5.0</ele><time>2026-04-08T12:16:00.001Z</time></trkpt><trkpt lat="14.570952201600491" lon="121.02008603501916"><ele>5.0</ele><time>2026-04-08T12:16:01.001Z</time></trkpt><trkpt lat="14.57096729315509" lon="121.01999536495647"><ele>5.0</ele><time>2026-04-08T12:16:02.001Z</time></trkpt><trkpt lat="14.570993895041338" lon="121.01990587741372"><ele>5.0</ele><time>2026-04-08T12:16:03.001Z</time></trkpt><trkpt lat="14.571004113004772" lon="121.01982027199126"><ele>5.8</ele><time>2026-04-08T12:16:04.001Z</time></trkpt><trkpt lat="14.571018813894536" lon="121.0197433737536"><ele>6.6</ele><time>2026-04-08T12:16:05.001Z</time></trkpt><trkpt lat="14.571044753906504" lon="121.0196310278715"><ele>7.4</ele><time>2026-04-08T12:16:06.001Z</time></trkpt><trkpt lat="14.571060822885192" lon="121.01952377800177"><ele>8.2</ele><time>2026-04-08T12:16:07.001Z</time></trkpt><trkpt lat="14.571079309927024" lon="121.01943975054178"><ele>9.0</ele><time>2026-04-08T12:16:08.001Z</time></trkpt><trkpt lat="14.571098332580801" lon="121.01934402240775"><ele>9.0</ele><time>2026-04-08T12:16:09.001Z</time></trkpt><trkpt lat="14.571114291082512" lon="121.01926588132977"><ele>9.0</ele><time>2026-04-08T12:16:10.001Z</time></trkpt><trkpt lat="14.57112617226571" lon="121.01919253910282"><ele>9.0</ele><time>2026-04-08T12:16:11.001Z</time></trkpt><trkpt lat="14.571145199574703" lon="121.0191033275224"><ele>9.0</ele><time>2026-04-08T12:16:13.001Z</time></trkpt><trkpt lat="14.571153996389905" lon="121.01903255911392"><ele>9.0</ele><time>2026-04-08T12:16:16.001Z</time></trkpt><trkpt lat="14.571172948792224" lon="121.01894639049542"><ele>9.0</ele><time>2026-04-08T12:16:17.001Z</time></trkpt><trkpt lat="14.571179941156888" lon="121.01887878282173"><ele>9.0</ele><time>2026-04-08T12:16:18.001Z</time></trkpt><trkpt lat="14.571194262914963" lon="121.0188061468483"><ele>9.0</ele><time>2026-04-08T12:16:19.001Z</time></trkpt><trkpt lat="14.571210443876412" lon="121.01873243842867"><ele>9.0</ele><time>2026-04-08T12:16:20.001Z</time></trkpt><trkpt lat="14.57122839903618" lon="121.01865011135975"><ele>9.0</ele><time>2026-04-08T12:16:21.001Z</time></trkpt><trkpt lat="14.571250111792137" lon="121.018567227408"><ele>9.0</ele><time>2026-04-08T12:16:22.001Z</time></trkpt><trkpt lat="14.57127997379834" lon="121.01847623927144"><ele>9.0</ele><time>2026-04-08T12:16:23.001Z</time></trkpt><trkpt lat="14.571303008141593" lon="121.01837365762569"><ele>8.8</ele><time>2026-04-08T12:16:24.001Z</time></trkpt><trkpt lat="14.57132160039647" lon="121.01826864107667"><ele>8.600000000000001</ele><time>2026-04-08T12:16:25.001Z</time></trkpt><trkpt lat="14.57133672103048" lon="121.01816064088332"><ele>8.4</ele><time>2026-04-08T12:16:26.001Z</time></trkpt><trkpt lat="14.571357311914829" lon="121.01805238555535"><ele>8.200000000000001</ele><time>2026-04-08T12:16:27.001Z</time></trkpt><trkpt lat="14.571376909156628" lon="121.0179390063364"><ele>8.0</ele><time>2026-04-08T12:16:28.001Z</time></trkpt><trkpt lat="14.571395213429476" lon="121.01783167653969"><ele>8.0</ele><time>2026-04-08T12:16:29.001Z</time></trkpt><trkpt lat="14.5714134898351" lon="121.01773224872039"><ele>8.0</ele><time>2026-04-08T12:16:30.001Z</time></trkpt><trkpt lat="14.571430389046498" lon="121.01763751585635"><ele>8.0</ele><time>2026-04-08T12:16:31.001Z</time></trkpt><trkpt lat="14.571444343408608" lon="121.01754896658629"><ele>8.0</ele><time>2026-04-08T12:16:32.001Z</time></trkpt><trkpt lat="14.571464752229572" lon="121.01745835650591"><ele>8.0</ele><time>2026-04-08T12:16:33.001Z</time></trkpt><trkpt lat="14.571479624251658" lon="121.01736231670712"><ele>7.6000000000000005</ele><time>2026-04-08T12:16:34.001Z</time></trkpt><trkpt lat="14.571493506030318" lon="121.01726467762364"><ele>7.200000000000001</ele><time>2026-04-08T12:16:35.001Z</time></trkpt><trkpt lat="14.571511760187983" lon="121.01716173607659"><ele>6.8</ele><time>2026-04-08T12:16:36.001Z</time></trkpt><trkpt lat="14.57152596569949" lon="121.0170640018949"><ele>6.4</ele><time>2026-04-08T12:16:37.001Z</time></trkpt><trkpt lat="14.571543770210353" lon="121.01697800723399"><ele>6.0</ele><time>2026-04-08T12:16:38.001Z</time></trkpt><trkpt lat="14.571556380548563" lon="121.0168988315418"><ele>6.0</ele><time>2026-04-08T12:16:39.001Z</time></trkpt><trkpt lat="14.571563956738736" lon="121.01682821312315"><ele>6.0</ele><time>2026-04-08T12:16:40.001Z</time></trkpt><trkpt lat="14.57158142274147" lon="121.0167195646547"><ele>6.0</ele><time>2026-04-08T12:16:42.001Z</time></trkpt><trkpt lat="14.57158560307282" lon="121.01663166632049"><ele>6.0</ele><time>2026-04-08T12:16:44.001Z</time></trkpt><trkpt lat="14.571591685033338" lon="121.01656305711347"><ele>6.0</ele><time>2026-04-08T12:16:46.001Z</time></trkpt><trkpt lat="14.571601357770938" lon="121.0164900047942"><ele>6.0</ele><time>2026-04-08T12:16:48.001Z</time></trkpt><trkpt lat="14.571621982147624" lon="121.01640214039045"><ele>6.5</ele><time>2026-04-08T12:16:51.001Z</time></trkpt><trkpt lat="14.571634762146696" lon="121.01631730723491"><ele>7.0</ele><time>2026-04-08T12:16:54.001Z</time></trkpt><trkpt lat="14.571655852690345" lon="121.01624313079355"><ele>7.5</ele><time>2026-04-08T12:16:57.001Z</time></trkpt><trkpt lat="14.571690944417371" lon="121.01618653273002"><ele>8.0</ele><time>2026-04-08T12:17:01.001Z</time></trkpt><trkpt lat="14.571709858528099" lon="121.01612050398843"><ele>8.5</ele><time>2026-04-08T12:17:05.001Z</time></trkpt><trkpt lat="14.57172458806671" lon="121.01601630668529"><ele>9.0</ele><time>2026-04-08T12:17:07.001Z</time></trkpt><trkpt lat="14.571737222831144" lon="121.0159523960058"><ele>9.0</ele><time>2026-04-08T12:17:09.001Z</time></trkpt><trkpt lat="14.571756658166816" lon="121.01587732897785"><ele>9.0</ele><time>2026-04-08T12:17:12.001Z</time></trkpt><trkpt lat="14.57179485131614" lon="121.01580195834451"><ele>9.0</ele><time>2026-04-08T12:17:14.001Z</time></trkpt><trkpt lat="14.571904703224972" lon="121.01580061893429"><ele>9.0</ele><time>2026-04-08T12:17:16.001Z</time></trkpt><trkpt lat="14.571960146013918" lon="121.01584979806928"><ele>9.0</ele><time>2026-04-08T12:17:17.001Z</time></trkpt><trkpt lat="14.572075572563826" lon="121.01587855550254"><ele>9.2</ele><time>2026-04-08T12:17:19.001Z</time></trkpt><trkpt lat="14.572191660272967" lon="121.01591038220063"><ele>9.4</ele><time>2026-04-08T12:17:21.001Z</time></trkpt><trkpt lat="14.572310967502435" lon="121.0159475556092"><ele>9.6</ele><time>2026-04-08T12:17:23.001Z</time></trkpt><trkpt lat="14.572375780124943" lon="121.01596418744772"><ele>9.8</ele><time>2026-04-08T12:17:24.001Z</time></trkpt><trkpt lat="14.572447588602442" lon="121.01598473804118"><ele>10.0</ele><time>2026-04-08T12:17:25.001Z</time></trkpt><trkpt lat="14.572519858293187" lon="121.01600320537239"><ele>10.0</ele><time>2026-04-08T12:17:26.001Z</time></trkpt><trkpt lat="14.572595885671365" lon="121.01602536379896"><ele>10.0</ele><time>2026-04-08T12:17:27.001Z</time></trkpt><trkpt lat="14.572671333350925" lon="121.01604528442323"><ele>10.0</ele><time>2026-04-08T12:17:28.001Z</time></trkpt><trkpt lat="14.57274961010164" lon="121.01606386842843"><ele>10.0</ele><time>2026-04-08T12:17:29.001Z</time></trkpt><trkpt lat="14.57281246444029" lon="121.01607999200304"><ele>10.0</ele><time>2026-04-08T12:17:30.001Z</time></trkpt><trkpt lat="14.572917820464657" lon="121.01610989673338"><ele>10.0</ele><time>2026-04-08T12:17:32.001Z</time></trkpt><trkpt lat="14.573013187987971" lon="121.01612228955537"><ele>10.0</ele><time>2026-04-08T12:17:35.001Z</time></trkpt><trkpt lat="14.573078928052402" lon="121.01613585235188"><ele>10.0</ele><time>2026-04-08T12:17:42.001Z</time></trkpt><trkpt lat="14.572991593496441" lon="121.01612849608517"><ele>10.0</ele><time>2026-04-08T12:17:48.001Z</time></trkpt><trkpt lat="14.572904022932395" lon="121.01609420905956"><ele>10.0</ele><time>2026-04-08T12:17:49.001Z</time></trkpt><trkpt lat="14.572826979695808" lon="121.01597966125468"><ele>10.0</ele><time>2026-04-08T12:17:50.001Z</time></trkpt><trkpt lat="14.572747909487054" lon="121.01595784298742"><ele>10.0</ele><time>2026-04-08T12:17:51.001Z</time></trkpt><trkpt lat="14.572667983693817" lon="121.01593610187705"><ele>10.0</ele><time>2026-04-08T12:17:52.001Z</time></trkpt><trkpt lat="14.572594565851627" lon="121.0158836824155"><ele>10.0</ele><time>2026-04-08T12:17:53.001Z</time></trkpt><trkpt lat="14.572508275823898" lon="121.01586138064917"><ele>10.0</ele><time>2026-04-08T12:17:54.001Z</time></trkpt><trkpt lat="14.572443146825654" lon="121.01584454797414"><ele>10.0</ele><time>2026-04-08T12:17:55.001Z</time></trkpt><trkpt lat="14.572365917526598" lon="121.01582458787881"><ele>10.0</ele><time>2026-04-08T12:17:56.001Z</time></trkpt><trkpt lat="14.572277788859724" lon="121.01580924749096"><ele>10.0</ele><time>2026-04-08T12:17:57.001Z</time></trkpt><trkpt lat="14.572215848754192" lon="121.01578551339371"><ele>10.0</ele><time>2026-04-08T12:17:58.001Z</time></trkpt><trkpt lat="14.572145103711373" lon="121.01575690512975"><ele>10.0</ele><time>2026-04-08T12:17:59.001Z</time></trkpt><trkpt lat="14.572037844343818" lon="121.0157063389974"><ele>10.0</ele><time>2026-04-08T12:18:01.001Z</time></trkpt><trkpt lat="14.571944817281912" lon="121.01568304700497"><ele>10.0</ele><time>2026-04-08T12:18:03.001Z</time></trkpt><trkpt lat="14.571851927651558" lon="121.01565080635713"><ele>10.0</ele><time>2026-04-08T12:18:05.001Z</time></trkpt><trkpt lat="14.571772612639647" lon="121.0156487561174"><ele>10.0</ele><time>2026-04-08T12:18:07.001Z</time></trkpt><trkpt lat="14.571736406387378" lon="121.0155110411626"><ele>10.0</ele><time>2026-04-08T12:18:10.001Z</time></trkpt><trkpt lat="14.571781755218254" lon="121.0153825294469"><ele>10.0</ele><time>2026-04-08T12:18:13.001Z</time></trkpt><trkpt lat="14.571799841703331" lon="121.01529627741992"><ele>10.0</ele><time>2026-04-08T12:18:15.001Z</time></trkpt><trkpt lat="14.57184112094206" lon="121.01519781534786"><ele>10.0</ele><time>2026-04-08T12:18:17.001Z</time></trkpt><trkpt lat="14.571868120008522" lon="121.01509506047928"><ele>10.0</ele><time>2026-04-08T12:18:19.001Z</time></trkpt><trkpt lat="14.57188225263107" lon="121.0150246411252"><ele>10.0</ele><time>2026-04-08T12:18:21.001Z</time></trkpt><trkpt lat="14.571901618426777" lon="121.01494523347891"><ele>10.0</ele><time>2026-04-08T12:18:24.001Z</time></trkpt><trkpt lat="14.571923927991568" lon="121.0148740365054"><ele>10.0</ele><time>2026-04-08T12:18:28.001Z</time></trkpt><trkpt lat="14.57401080205747" lon="121.01109985035473"><ele>10.0</ele><time>2026-04-08T12:40:37.001Z</time></trkpt><trkpt lat="14.573923436387554" lon="121.011007769494"><ele>10.0</ele><time>2026-04-08T12:40:39.001Z</time></trkpt><trkpt lat="14.573855491716694" lon="121.01093615776902"><ele>10.0</ele><time>2026-04-08T12:40:40.001Z</time></trkpt><trkpt lat="14.573791865327859" lon="121.01086909740323"><ele>10.0</ele><time>2026-04-08T12:40:41.001Z</time></trkpt><trkpt lat="14.573727297268494" lon="121.01080104455116"><ele>10.0</ele><time>2026-04-08T12:40:42.001Z</time></trkpt><trkpt lat="14.573663523606719" lon="121.0107338289715"><ele>10.0</ele><time>2026-04-08T12:40:43.001Z</time></trkpt><trkpt lat="14.573598565926076" lon="121.0106653654643"><ele>10.0</ele><time>2026-04-08T12:40:44.001Z</time></trkpt><trkpt lat="14.573539628327115" lon="121.01060324696273"><ele>10.0</ele><time>2026-04-08T12:40:45.001Z</time></trkpt><trkpt lat="14.573473286253664" lon="121.01053332433631"><ele>10.0</ele><time>2026-04-08T12:40:46.001Z</time></trkpt><trkpt lat="14.573404798229229" lon="121.01046113995211"><ele>10.0</ele><time>2026-04-08T12:40:47.001Z</time></trkpt><trkpt lat="14.57333766535784" lon="121.01038928603488"><ele>10.0</ele><time>2026-04-08T12:40:48.001Z</time></trkpt><trkpt lat="14.573269317961296" lon="121.01031580922594"><ele>10.0</ele><time>2026-04-08T12:40:49.001Z</time></trkpt><trkpt lat="14.57319648152684" lon="121.01023750647302"><ele>10.0</ele><time>2026-04-08T12:40:50.001Z</time></trkpt><trkpt lat="14.573040869647006" lon="121.01007838203786"><ele>10.0</ele><time>2026-04-08T12:40:52.001Z</time></trkpt><trkpt lat="14.572973215628204" lon="121.01001510139108"><ele>9.6</ele><time>2026-04-08T12:40:53.001Z</time></trkpt><trkpt lat="14.572906321399905" lon="121.00995228717015"><ele>9.2</ele><time>2026-04-08T12:40:54.001Z</time></trkpt><trkpt lat="14.572839664475547" lon="121.00988934808174"><ele>8.8</ele><time>2026-04-08T12:40:55.001Z</time></trkpt><trkpt lat="14.572767541570544" lon="121.00982262479333"><ele>8.4</ele><time>2026-04-08T12:40:56.001Z</time></trkpt><trkpt lat="14.572692038897829" lon="121.009752475023"><ele>8.0</ele><time>2026-04-08T12:40:57.001Z</time></trkpt><trkpt lat="14.57261624320904" lon="121.00968205300539"><ele>7.800000000000001</ele><time>2026-04-08T12:40:58.001Z</time></trkpt><trkpt lat="14.572546629892951" lon="121.00961737501926"><ele>7.6000000000000005</ele><time>2026-04-08T12:40:59.001Z</time></trkpt><trkpt lat="14.572477341976827" lon="121.00954714635665"><ele>7.3999999999999995</ele><time>2026-04-08T12:41:00.001Z</time></trkpt><trkpt lat="14.572405102431688" lon="121.00947415916379"><ele>7.199999999999999</ele><time>2026-04-08T12:41:01.001Z</time></trkpt><trkpt lat="14.572336655659994" lon="121.00940500400375"><ele>7.0</ele><time>2026-04-08T12:41:02.001Z</time></trkpt><trkpt lat="14.572275880650684" lon="121.00934359999967"><ele>7.0</ele><time>2026-04-08T12:41:03.001Z</time></trkpt><trkpt lat="14.57222097901431" lon="121.00928813016817"><ele>6.999999999999999</ele><time>2026-04-08T12:41:04.001Z</time></trkpt><trkpt lat="14.572135811464616" lon="121.0092020811803"><ele>6.999999999999999</ele><time>2026-04-08T12:41:06.001Z</time></trkpt><trkpt lat="14.572058721104147" lon="121.00912419296219"><ele>7.0</ele><time>2026-04-08T12:41:08.001Z</time></trkpt><trkpt lat="14.571966472779115" lon="121.0090309899185"><ele>7.0</ele><time>2026-04-08T12:41:10.001Z</time></trkpt><trkpt lat="14.57191228850029" lon="121.00897730147196"><ele>7.199999999999999</ele><time>2026-04-08T12:41:11.001Z</time></trkpt><trkpt lat="14.571806968741805" lon="121.00887323845382"><ele>7.3999999999999995</ele><time>2026-04-08T12:41:13.001Z</time></trkpt><trkpt lat="14.57174150468873" lon="121.00880855554561"><ele>7.6000000000000005</ele><time>2026-04-08T12:41:14.001Z</time></trkpt><trkpt lat="14.571680964801155" lon="121.00874873805611"><ele>7.800000000000001</ele><time>2026-04-08T12:41:15.001Z</time></trkpt><trkpt lat="14.57162523648324" lon="121.00869367471846"><ele>8.0</ele><time>2026-04-08T12:41:16.001Z</time></trkpt><trkpt lat="14.571564508223519" lon="121.0086336710997"><ele>7.999999999999999</ele><time>2026-04-08T12:41:17.001Z</time></trkpt><trkpt lat="14.571503643840705" lon="121.00857353298794"><ele>8.0</ele><time>2026-04-08T12:41:18.001Z</time></trkpt><trkpt lat="14.571451803540421" lon="121.00852231127608"><ele>8.0</ele><time>2026-04-08T12:41:19.001Z</time></trkpt><trkpt lat="14.57140358461437" lon="121.00847466771688"><ele>8.0</ele><time>2026-04-08T12:41:20.001Z</time></trkpt><trkpt lat="14.57135344931853" lon="121.00842513067678"><ele>7.999999999999999</ele><time>2026-04-08T12:41:21.001Z</time></trkpt><trkpt lat="14.57126942562052" lon="121.00834210959542"><ele>8.0</ele><time>2026-04-08T12:41:23.001Z</time></trkpt><trkpt lat="14.571220722297843" lon="121.00829398743251"><ele>7.666666666666666</ele><time>2026-04-08T12:41:24.001Z</time></trkpt><trkpt lat="14.571173944010267" lon="121.00824780007727"><ele>7.333333333333333</ele><time>2026-04-08T12:41:25.001Z</time></trkpt><trkpt lat="14.571122814751039" lon="121.00819739348718"><ele>7.0</ele><time>2026-04-08T12:41:26.001Z</time></trkpt><trkpt lat="14.571039412569414" lon="121.00811517014407"><ele>6.666666666666666</ele><time>2026-04-08T12:41:28.001Z</time></trkpt><trkpt lat="14.570990153075016" lon="121.00806660689666"><ele>6.333333333333333</ele><time>2026-04-08T12:41:30.001Z</time></trkpt><trkpt lat="14.570929478551175" lon="121.00800678995925"><ele>6.0</ele><time>2026-04-08T12:41:33.001Z</time></trkpt><trkpt lat="14.570810217250425" lon="121.0078870867016"><ele>6.0</ele><time>2026-04-08T12:41:37.001Z</time></trkpt><trkpt lat="14.570735735921001" lon="121.00781199895005"><ele>6.0</ele><time>2026-04-08T12:41:39.001Z</time></trkpt><trkpt lat="14.570656374872508" lon="121.00773199174587"><ele>6.0</ele><time>2026-04-08T12:41:41.001Z</time></trkpt><trkpt lat="14.570581935172687" lon="121.00765694595854"><ele>6.0</ele><time>2026-04-08T12:41:43.001Z</time></trkpt><trkpt lat="14.570498106770419" lon="121.0075724350244"><ele>6.0</ele><time>2026-04-08T12:41:45.001Z</time></trkpt><trkpt lat="14.570451851779328" lon="121.00752580342447"><ele>5.8</ele><time>2026-04-08T12:41:46.001Z</time></trkpt><trkpt lat="14.570370363824827" lon="121.00744365169064"><ele>5.6</ele><time>2026-04-08T12:41:48.001Z</time></trkpt><trkpt lat="14.570282229956916" lon="121.00735721613908"><ele>5.4</ele><time>2026-04-08T12:41:50.001Z</time></trkpt><trkpt lat="14.570190802331629" lon="121.00726592461878"><ele>5.2</ele><time>2026-04-08T12:41:52.001Z</time></trkpt><trkpt lat="14.570144707537821" lon="121.00721989844833"><ele>5.0</ele><time>2026-04-08T12:41:53.001Z</time></trkpt><trkpt lat="14.570097320504052" lon="121.00717258190032"><ele>5.0</ele><time>2026-04-08T12:41:54.001Z</time></trkpt><trkpt lat="14.569939155837222" lon="121.00701432043445"><ele>5.0</ele><time>2026-04-08T12:41:58.001Z</time></trkpt><trkpt lat="14.56985762546695" lon="121.00693357204554"><ele>5.0</ele><time>2026-04-08T12:42:00.001Z</time></trkpt><trkpt lat="14.569794916329798" lon="121.00687086291488"><ele>5.0</ele><time>2026-04-08T12:42:02.001Z</time></trkpt><trkpt lat="14.569716774154351" lon="121.00679272073947"><ele>5.0</ele><time>2026-04-08T12:42:04.001Z</time></trkpt><trkpt lat="14.569633905368212" lon="121.00670983138536"><ele>5.0</ele><time>2026-04-08T12:42:06.001Z</time></trkpt><trkpt lat="14.56954606100072" lon="121.0066219510101"><ele>5.0</ele><time>2026-04-08T12:42:08.001Z</time></trkpt><trkpt lat="14.56949955061012" lon="121.0065754215558"><ele>5.0</ele><time>2026-04-08T12:42:09.001Z</time></trkpt><trkpt lat="14.569452652299182" lon="121.00652850402638"><ele>5.0</ele><time>2026-04-08T12:42:10.001Z</time></trkpt><trkpt lat="14.569398996407559" lon="121.00647514223061"><ele>5.0</ele><time>2026-04-08T12:42:11.001Z</time></trkpt><trkpt lat="14.569349034306125" lon="121.00642554357438"><ele>5.75</ele><time>2026-04-08T12:42:12.001Z</time></trkpt><trkpt lat="14.569302479637159" lon="121.00637932755234"><ele>6.5</ele><time>2026-04-08T12:42:13.001Z</time></trkpt><trkpt lat="14.56921661823585" lon="121.00629409074014"><ele>7.25</ele><time>2026-04-08T12:42:15.001Z</time></trkpt><trkpt lat="14.569038003551974" lon="121.00611171240095"><ele>8.0</ele><time>2026-04-08T12:42:19.001Z</time></trkpt><trkpt lat="14.568955216532531" lon="121.00602712397786"><ele>8.0</ele><time>2026-04-08T12:42:21.001Z</time></trkpt><trkpt lat="14.568873222107404" lon="121.00594724535392"><ele>8.0</ele><time>2026-04-08T12:42:23.001Z</time></trkpt><trkpt lat="14.568805677247683" lon="121.0058810609889"><ele>8.0</ele><time>2026-04-08T12:42:25.001Z</time></trkpt><trkpt lat="14.56873409064676" lon="121.00581091629684"><ele>8.0</ele><time>2026-04-08T12:42:27.001Z</time></trkpt><trkpt lat="14.568687305625293" lon="121.00576507351563"><ele>8.0</ele><time>2026-04-08T12:42:28.001Z</time></trkpt><trkpt lat="14.568590160725547" lon="121.00566719230785"><ele>7.833333333333333</ele><time>2026-04-08T12:42:30.001Z</time></trkpt><trkpt lat="14.568533677627736" lon="121.00561035136712"><ele>7.666666666666666</ele><time>2026-04-08T12:42:31.001Z</time></trkpt><trkpt lat="14.568473456426219" lon="121.00554974886334"><ele>7.5</ele><time>2026-04-08T12:42:32.001Z</time></trkpt><trkpt lat="14.568408731400181" lon="121.00548562885808"><ele>7.333333333333334</ele><time>2026-04-08T12:42:33.001Z</time></trkpt><trkpt lat="14.568343726417897" lon="121.00542083114547"><ele>7.166666666666667</ele><time>2026-04-08T12:42:34.001Z</time></trkpt><trkpt lat="14.56827700382533" lon="121.0053543214536"><ele>7.0</ele><time>2026-04-08T12:42:35.001Z</time></trkpt><trkpt lat="14.568207816317374" lon="121.00528535525953"><ele>7.0</ele><time>2026-04-08T12:42:36.001Z</time></trkpt><trkpt lat="14.568078238724173" lon="121.00515532290964"><ele>6.999999999999999</ele><time>2026-04-08T12:42:38.001Z</time></trkpt><trkpt lat="14.568011028116365" lon="121.00508839647736"><ele>6.999999999999999</ele><time>2026-04-08T12:42:39.001Z</time></trkpt><trkpt lat="14.56794616121271" lon="121.00502355208984"><ele>7.0</ele><time>2026-04-08T12:42:40.001Z</time></trkpt><trkpt lat="14.567885888035754" lon="121.00496320705096"><ele>7.0</ele><time>2026-04-08T12:42:41.001Z</time></trkpt><trkpt lat="14.567826099667007" lon="121.00490334747387"><ele>7.500000000000001</ele><time>2026-04-08T12:42:42.001Z</time></trkpt><trkpt lat="14.567770376590245" lon="121.0048475580247"><ele>8.0</ele><time>2026-04-08T12:42:43.001Z</time></trkpt><trkpt lat="14.567718616719407" lon="121.00479573634564"><ele>8.5</ele><time>2026-04-08T12:42:44.001Z</time></trkpt><trkpt lat="14.567661168624085" lon="121.00474237129488"><ele>9.0</ele><time>2026-04-08T12:42:45.001Z</time></trkpt><trkpt lat="14.567610011271432" lon="121.00469381227951"><ele>9.5</ele><time>2026-04-08T12:42:46.001Z</time></trkpt><trkpt lat="14.567554500725475" lon="121.00466189877815"><ele>10.0</ele><time>2026-04-08T12:42:47.001Z</time></trkpt><trkpt lat="14.567490108375756" lon="121.00459153965491"><ele>10.0</ele><time>2026-04-08T12:42:49.001Z</time></trkpt><trkpt lat="14.567430702561985" lon="121.00454028538401"><ele>10.0</ele><time>2026-04-08T12:42:52.001Z</time></trkpt><trkpt lat="14.567392479661537" lon="121.00448618125789"><ele>10.0</ele><time>2026-04-08T12:43:07.001Z</time></trkpt><trkpt lat="14.567264415390575" lon="121.00436229900961"><ele>10.0</ele><time>2026-04-08T12:43:15.001Z</time></trkpt><trkpt lat="14.567181130656044" lon="121.00427845259837"><ele>10.0</ele><time>2026-04-08T12:43:17.001Z</time></trkpt><trkpt lat="14.567133874761105" lon="121.00423049426306"><ele>10.0</ele><time>2026-04-08T12:43:18.001Z</time></trkpt><trkpt lat="14.567086015525087" lon="121.00417774502348"><ele>10.0</ele><time>2026-04-08T12:43:19.001Z</time></trkpt><trkpt lat="14.567042874588397" lon="121.00412184110542"><ele>10.0</ele><time>2026-04-08T12:43:20.001Z</time></trkpt><trkpt lat="14.566990681043876" lon="121.00408100009587"><ele>10.0</ele><time>2026-04-08T12:43:21.001Z</time></trkpt><trkpt lat="14.566976040852518" lon="121.00400705007277"><ele>10.0</ele><time>2026-04-08T12:43:22.001Z</time></trkpt><trkpt lat="14.566941269646854" lon="121.00393784604105"><ele>10.0</ele><time>2026-04-08T12:43:23.001Z</time></trkpt><trkpt lat="14.566890032500188" lon="121.00386817811234"><ele>10.0</ele><time>2026-04-08T12:43:24.001Z</time></trkpt><trkpt lat="14.566856516664702" lon="121.00380173064758"><ele>9.6</ele><time>2026-04-08T12:43:25.001Z</time></trkpt><trkpt lat="14.56681935712913" lon="121.0037282019659"><ele>9.2</ele><time>2026-04-08T12:43:26.001Z</time></trkpt><trkpt lat="14.566784040219977" lon="121.0036537077456"><ele>8.8</ele><time>2026-04-08T12:43:27.001Z</time></trkpt><trkpt lat="14.566756141058486" lon="121.00358586691469"><ele>8.4</ele><time>2026-04-08T12:43:28.001Z</time></trkpt><trkpt lat="14.566684799272087" lon="121.00340933895626"><ele>8.0</ele><time>2026-04-08T12:43:31.001Z</time></trkpt><trkpt lat="14.566628063896637" lon="121.00330412671445"><ele>7.4</ele><time>2026-04-08T12:43:33.001Z</time></trkpt><trkpt lat="14.566593742652246" lon="121.0032355768158"><ele>6.800000000000001</ele><time>2026-04-08T12:43:35.001Z</time></trkpt><trkpt lat="14.5665587146819" lon="121.00315716893358"><ele>6.2</ele><time>2026-04-08T12:43:40.001Z</time></trkpt><trkpt lat="14.566528035020953" lon="121.00309710426552"><ele>5.6</ele><time>2026-04-08T12:43:44.001Z</time></trkpt><trkpt lat="14.56651130931508" lon="121.00303308041451"><ele>5.0</ele><time>2026-04-08T12:45:01.001Z</time></trkpt><trkpt lat="14.566457151054209" lon="121.00284968606371"><ele>5.0</ele><time>2026-04-08T12:45:05.001Z</time></trkpt><trkpt lat="14.566421614473892" lon="121.00278474934746"><ele>5.0</ele><time>2026-04-08T12:45:06.001Z</time></trkpt><trkpt lat="14.566373719121799" lon="121.00268996672877"><ele>5.0</ele><time>2026-04-08T12:45:08.001Z</time></trkpt><trkpt lat="14.566339480714266" lon="121.0026285411811"><ele>5.0</ele><time>2026-04-08T12:45:09.001Z</time></trkpt><trkpt lat="14.566297794697412" lon="121.00253413520667"><ele>5.0</ele><time>2026-04-08T12:45:10.001Z</time></trkpt><trkpt lat="14.56624131141032" lon="121.00246040695764"><ele>5.0</ele><time>2026-04-08T12:45:11.001Z</time></trkpt><trkpt lat="14.566173631356033" lon="121.0023878135102"><ele>5.4</ele><time>2026-04-08T12:45:12.001Z</time></trkpt><trkpt lat="14.566125703027787" lon="121.00230469749646"><ele>5.8</ele><time>2026-04-08T12:45:13.001Z</time></trkpt><trkpt lat="14.56607623233901" lon="121.0022211564488"><ele>6.199999999999999</ele><time>2026-04-08T12:45:14.001Z</time></trkpt><trkpt lat="14.56601568934435" lon="121.00213288828598"><ele>6.6</ele><time>2026-04-08T12:45:15.001Z</time></trkpt><trkpt lat="14.565979909443598" lon="121.0020345386011"><ele>7.0</ele><time>2026-04-08T12:45:16.001Z</time></trkpt><trkpt lat="14.565938264593521" lon="121.00193590323369"><ele>7.0</ele><time>2026-04-08T12:45:17.001Z</time></trkpt><trkpt lat="14.56588772299245" lon="121.00183408508244"><ele>6.999999999999999</ele><time>2026-04-08T12:45:18.001Z</time></trkpt><trkpt lat="14.565836533880166" lon="121.00173497508035"><ele>6.999999999999999</ele><time>2026-04-08T12:45:19.001Z</time></trkpt><trkpt lat="14.565783530256999" lon="121.00163306618124"><ele>7.0</ele><time>2026-04-08T12:45:20.001Z</time></trkpt><trkpt lat="14.565728364464322" lon="121.00152769808383"><ele>7.0</ele><time>2026-04-08T12:45:21.001Z</time></trkpt><trkpt lat="14.565677756662934" lon="121.00141999879062"><ele>7.25</ele><time>2026-04-08T12:45:22.001Z</time></trkpt><trkpt lat="14.565570898995519" lon="121.00122551474558"><ele>7.5</ele><time>2026-04-08T12:45:24.001Z</time></trkpt><trkpt lat="14.565523459485744" lon="121.0011346484064"><ele>7.75</ele><time>2026-04-08T12:45:25.001Z</time></trkpt><trkpt lat="14.565475782217243" lon="121.00104384942179"><ele>8.0</ele><time>2026-04-08T12:45:26.001Z</time></trkpt><trkpt lat="14.565428238958175" lon="121.00095648707517"><ele>8.0</ele><time>2026-04-08T12:45:27.001Z</time></trkpt><trkpt lat="14.56538258852169" lon="121.00086282701697"><ele>8.0</ele><time>2026-04-08T12:45:28.001Z</time></trkpt><trkpt lat="14.56532803385897" lon="121.00076270735467"><ele>8.0</ele><time>2026-04-08T12:45:29.001Z</time></trkpt><trkpt lat="14.565277673686117" lon="121.00067114680091"><ele>8.0</ele><time>2026-04-08T12:45:30.001Z</time></trkpt><trkpt lat="14.565230145668298" lon="121.00057661088114"><ele>8.0</ele><time>2026-04-08T12:45:31.001Z</time></trkpt><trkpt lat="14.56518254713833" lon="121.0004835491876"><ele>7.800000000000001</ele><time>2026-04-08T12:45:32.001Z</time></trkpt><trkpt lat="14.565135026734309" lon="121.00039408968"><ele>7.6000000000000005</ele><time>2026-04-08T12:45:33.001Z</time></trkpt><trkpt lat="14.565085711599295" lon="121.00030229269302"><ele>7.3999999999999995</ele><time>2026-04-08T12:45:34.001Z</time></trkpt><trkpt lat="14.565033131122266" lon="121.00020484428246"><ele>7.199999999999999</ele><time>2026-04-08T12:45:35.001Z</time></trkpt><trkpt lat="14.564983038370324" lon="121.00010656823947"><ele>7.0</ele><time>2026-04-08T12:45:36.001Z</time></trkpt><trkpt lat="14.564932122071685" lon="121.0000063371231"><ele>7.0</ele><time>2026-04-08T12:45:37.001Z</time></trkpt><trkpt lat="14.564883121118584" lon="120.99990423262759"><ele>6.999999999999999</ele><time>2026-04-08T12:45:38.001Z</time></trkpt><trkpt lat="14.564836326974516" lon="120.99981833896781"><ele>6.999999999999999</ele><time>2026-04-08T12:45:39.001Z</time></trkpt><trkpt lat="14.564786620125446" lon="120.99973250430538"><ele>7.0</ele><time>2026-04-08T12:45:40.001Z</time></trkpt><trkpt lat="14.564741716133222" lon="120.99964950800128"><ele>7.0</ele><time>2026-04-08T12:45:41.001Z</time></trkpt><trkpt lat="14.564697177655761" lon="120.99957032845604"><ele>7.0</ele><time>2026-04-08T12:45:42.001Z</time></trkpt><trkpt lat="14.564656399375497" lon="120.99948242553813"><ele>7.0</ele><time>2026-04-08T12:45:43.001Z</time></trkpt><trkpt lat="14.564567731795808" lon="120.99931220393356"><ele>7.0</ele><time>2026-04-08T12:45:45.001Z</time></trkpt><trkpt lat="14.564524630488652" lon="120.99922193398726"><ele>7.0</ele><time>2026-04-08T12:45:46.001Z</time></trkpt><trkpt lat="14.56447784078716" lon="120.99912599891194"><ele>6.8</ele><time>2026-04-08T12:45:47.001Z</time></trkpt><trkpt lat="14.564429270887656" lon="120.9990285175317"><ele>6.6</ele><time>2026-04-08T12:45:48.001Z</time></trkpt><trkpt lat="14.564377004403331" lon="120.99893373284202"><ele>6.3999999999999995</ele><time>2026-04-08T12:45:49.001Z</time></trkpt><trkpt lat="14.564327584361934" lon="120.99883471786048"><ele>6.199999999999999</ele><time>2026-04-08T12:45:50.001Z</time></trkpt><trkpt lat="14.564278722352016" lon="120.99874032727878"><ele>6.0</ele><time>2026-04-08T12:45:51.001Z</time></trkpt><trkpt lat="14.564234615340705" lon="120.99865497404782"><ele>6.0</ele><time>2026-04-08T12:45:52.001Z</time></trkpt><trkpt lat="14.564189783966931" lon="120.99856687740589"><ele>6.0</ele><time>2026-04-08T12:45:53.001Z</time></trkpt><trkpt lat="14.56415353909748" lon="120.99848780035352"><ele>6.0</ele><time>2026-04-08T12:45:54.001Z</time></trkpt><trkpt lat="14.56411547617175" lon="120.99842123392415"><ele>6.0</ele><time>2026-04-08T12:45:55.001Z</time></trkpt><trkpt lat="14.564079354804209" lon="120.99832362238236"><ele>6.0</ele><time>2026-04-08T12:45:57.001Z</time></trkpt><trkpt lat="14.56423293534027" lon="120.99823758354533"><ele>6.199999999999999</ele><time>2026-04-08T12:46:02.001Z</time></trkpt><trkpt lat="14.564302094450492" lon="120.99822552159283"><ele>6.3999999999999995</ele><time>2026-04-08T12:46:03.001Z</time></trkpt><trkpt lat="14.564375071932107" lon="120.99820843607635"><ele>6.6</ele><time>2026-04-08T12:46:04.001Z</time></trkpt><trkpt lat="14.564533910817431" lon="120.99816323196688"><ele>6.8</ele><time>2026-04-08T12:46:06.001Z</time></trkpt><trkpt lat="14.564618152600849" lon="120.99814485757395"><ele>7.0</ele><time>2026-04-08T12:46:07.001Z</time></trkpt><trkpt lat="14.564705977594256" lon="120.99813041968874"><ele>7.666666666666667</ele><time>2026-04-08T12:46:08.001Z</time></trkpt><trkpt lat="14.564786471689768" lon="120.99811190541094"><ele>8.333333333333334</ele><time>2026-04-08T12:46:09.001Z</time></trkpt><trkpt lat="14.564858019986618" lon="120.99809975023865"><ele>9.0</ele><time>2026-04-08T12:46:10.001Z</time></trkpt><trkpt lat="14.56492767063818" lon="120.99808928043012"><ele>9.666666666666666</ele><time>2026-04-08T12:46:11.001Z</time></trkpt><trkpt lat="14.565053731788606" lon="120.99807146633032"><ele>10.333333333333332</ele><time>2026-04-08T12:46:13.001Z</time></trkpt><trkpt lat="14.565131486812442" lon="120.99806157677514"><ele>11.0</ele><time>2026-04-08T12:46:14.001Z</time></trkpt><trkpt lat="14.565202775581517" lon="120.99805438147409"><ele>11.0</ele><time>2026-04-08T12:46:15.001Z</time></trkpt><trkpt lat="14.56527596012039" lon="120.99804665713424"><ele>11.0</ele><time>2026-04-08T12:46:16.001Z</time></trkpt><trkpt lat="14.56534210647959" lon="120.99803642689865"><ele>11.0</ele><time>2026-04-08T12:46:17.001Z</time></trkpt><trkpt lat="14.565415295756488" lon="120.99802333553534"><ele>11.0</ele><time>2026-04-08T12:46:18.001Z</time></trkpt><trkpt lat="14.565487042698022" lon="120.99801363139078"><ele>11.0</ele><time>2026-04-08T12:46:19.001Z</time></trkpt><trkpt lat="14.565558023734953" lon="120.99800329981798"><ele>11.0</ele><time>2026-04-08T12:46:20.001Z</time></trkpt><trkpt lat="14.565686059801406" lon="120.9979909839996"><ele>10.25</ele><time>2026-04-08T12:46:22.001Z</time></trkpt><trkpt lat="14.565787201814775" lon="120.99797946180875"><ele>9.5</ele><time>2026-04-08T12:46:24.001Z</time></trkpt><trkpt lat="14.56585311087418" lon="120.997952284144"><ele>8.75</ele><time>2026-04-08T12:46:26.001Z</time></trkpt><trkpt lat="14.565829667728776" lon="120.99775190708276"><ele>8.0</ele><time>2026-04-08T12:46:31.001Z</time></trkpt><trkpt lat="14.565787015686599" lon="120.99765343659254"><ele>7.999999999999999</ele><time>2026-04-08T12:46:33.001Z</time></trkpt><trkpt lat="14.565741661703408" lon="120.99758020793304"><ele>8.0</ele><time>2026-04-08T12:46:34.001Z</time></trkpt><trkpt lat="14.565705157661544" lon="120.9974839080132"><ele>8.0</ele><time>2026-04-08T12:46:36.001Z</time></trkpt><trkpt lat="14.565680710965562" lon="120.99741336461322"><ele>8.0</ele><time>2026-04-08T12:46:38.001Z</time></trkpt><trkpt lat="14.565656047571508" lon="120.99734955219702"><ele>7.999999999999999</ele><time>2026-04-08T12:46:40.001Z</time></trkpt><trkpt lat="14.565629922073674" lon="120.99728371353586"><ele>8.0</ele><time>2026-04-08T12:46:42.001Z</time></trkpt><trkpt lat="14.565605055657077" lon="120.99720710375115"><ele>8.200000000000001</ele><time>2026-04-08T12:46:46.001Z</time></trkpt><trkpt lat="14.56557906313769" lon="120.99711731771072"><ele>8.4</ele><time>2026-04-08T12:46:49.001Z</time></trkpt><trkpt lat="14.565516466358774" lon="120.99696568880718"><ele>8.600000000000001</ele><time>2026-04-08T12:46:53.001Z</time></trkpt><trkpt lat="14.56547636665978" lon="120.99687485380474"><ele>8.8</ele><time>2026-04-08T12:46:55.001Z</time></trkpt><trkpt lat="14.565434913033043" lon="120.99677937074017"><ele>9.0</ele><time>2026-04-08T12:46:57.001Z</time></trkpt><trkpt lat="14.565379375091227" lon="120.9966580346619"><ele>8.833333333333334</ele><time>2026-04-08T12:46:59.001Z</time></trkpt><trkpt lat="14.565346410663151" lon="120.99658887391313"><ele>8.666666666666666</ele><time>2026-04-08T12:47:00.001Z</time></trkpt><trkpt lat="14.565311200093886" lon="120.9965088211128"><ele>8.5</ele><time>2026-04-08T12:47:01.001Z</time></trkpt><trkpt lat="14.565278117993568" lon="120.99643506647143"><ele>8.333333333333332</ele><time>2026-04-08T12:47:02.001Z</time></trkpt><trkpt lat="14.56526446407187" lon="120.99636611363891"><ele>8.166666666666666</ele><time>2026-04-08T12:47:04.001Z</time></trkpt><trkpt lat="14.565207109343614" lon="120.99624782145305"><ele>8.0</ele><time>2026-04-08T12:47:06.001Z</time></trkpt><trkpt lat="14.565173705619669" lon="120.99617677394122"><ele>8.0</ele><time>2026-04-08T12:47:07.001Z</time></trkpt><trkpt lat="14.565137052497352" lon="120.99612263687574"><ele>8.0</ele><time>2026-04-08T12:47:08.001Z</time></trkpt><trkpt lat="14.565103916690324" lon="120.9960567076371"><ele>8.0</ele><time>2026-04-08T12:47:09.001Z</time></trkpt><trkpt lat="14.56508392484606" lon="120.99596863922513"><ele>8.0</ele><time>2026-04-08T12:47:10.001Z</time></trkpt><trkpt lat="14.564998219039602" lon="120.99577100235841"><ele>8.0</ele><time>2026-04-08T12:47:13.001Z</time></trkpt><trkpt lat="14.564959498256126" lon="120.99568404429402"><ele>8.8</ele><time>2026-04-08T12:47:14.001Z</time></trkpt><trkpt lat="14.564926249237232" lon="120.99561080606911"><ele>9.600000000000001</ele><time>2026-04-08T12:47:15.001Z</time></trkpt><trkpt lat="14.564884348322876" lon="120.9955579305891"><ele>10.399999999999999</ele><time>2026-04-08T12:47:16.001Z</time></trkpt><trkpt lat="14.564831107859604" lon="120.99540420399106"><ele>11.2</ele><time>2026-04-08T12:47:18.001Z</time></trkpt><trkpt lat="14.56478933348493" lon="120.99535110521124"><ele>12.0</ele><time>2026-04-08T12:47:19.001Z</time></trkpt><trkpt lat="14.564747952478692" lon="120.99525977891608"><ele>12.0</ele><time>2026-04-08T12:47:21Z</time></trkpt><trkpt lat="14.564710886977412" lon="120.99514123062825"><ele>12.0</ele><time>2026-04-08T12:47:23Z</time></trkpt><trkpt lat="14.56464321250272" lon="120.99503272084425"><ele>12.0</ele><time>2026-04-08T12:47:25Z</time></trkpt><trkpt lat="14.564612314925462" lon="120.99496554023195"><ele>12.0</ele><time>2026-04-08T12:47:26Z</time></trkpt><trkpt lat="14.564574118928212" lon="120.9948699492165"><ele>12.0</ele><time>2026-04-08T12:47:28Z</time></trkpt><trkpt lat="14.56455376155487" lon="120.99478227841799"><ele>12.75</ele><time>2026-04-08T12:47:30Z</time></trkpt><trkpt lat="14.564519633598172" lon="120.99469697344621"><ele>13.5</ele><time>2026-04-08T12:47:33Z</time></trkpt><trkpt lat="14.564455677862735" lon="120.99453410572532"><ele>14.25</ele><time>2026-04-08T12:48:21.001Z</time></trkpt><trkpt lat="14.564359098350467" lon="120.99442489437186"><ele>15.0</ele><time>2026-04-08T12:48:25.001Z</time></trkpt><trkpt lat="14.564238031080686" lon="120.99438028765194"><ele>15.0</ele><time>2026-04-08T12:48:30.001Z</time></trkpt><trkpt lat="14.564173892204684" lon="120.99440952130507"><ele>15.0</ele><time>2026-04-08T12:48:31.001Z</time></trkpt><trkpt lat="14.564075474591913" lon="120.99445497212005"><ele>15.0</ele><time>2026-04-08T12:48:32.001Z</time></trkpt><trkpt lat="14.563997192054682" lon="120.99449112424435"><ele>15.0</ele><time>2026-04-08T12:48:33.001Z</time></trkpt><trkpt lat="14.563939694996598" lon="120.99451767737527"><ele>15.0</ele><time>2026-04-08T12:48:34.001Z</time></trkpt><trkpt lat="14.563866355358899" lon="120.99455458053076"><ele>15.0</ele><time>2026-04-08T12:48:37.001Z</time></trkpt><trkpt lat="14.563802836807307" lon="120.99455523076874"><ele>15.0</ele><time>2026-04-08T12:48:44.001Z</time></trkpt><trkpt lat="14.563736161573265" lon="120.99453034747957"><ele>15.0</ele><time>2026-04-08T12:48:53.001Z</time></trkpt><trkpt lat="14.563584710672584" lon="120.99461530519407"><ele>15.0</ele><time>2026-04-08T12:48:56.001Z</time></trkpt><trkpt lat="14.56350678136925" lon="120.99465671591514"><ele>15.0</ele><time>2026-04-08T12:48:57.001Z</time></trkpt><trkpt lat="14.56340918744185" lon="120.99468631763511"><ele>15.0</ele><time>2026-04-08T12:48:58.001Z</time></trkpt><trkpt lat="14.5633016639548" lon="120.9947414230145"><ele>14.5</ele><time>2026-04-08T12:48:59.001Z</time></trkpt><trkpt lat="14.563205125679321" lon="120.99478887215594"><ele>14.0</ele><time>2026-04-08T12:49:00.001Z</time></trkpt><trkpt lat="14.563111207011207" lon="120.99482735702134"><ele>13.5</ele><time>2026-04-08T12:49:02.001Z</time></trkpt><trkpt lat="14.563054930039991" lon="120.99486653633514"><ele>13.0</ele><time>2026-04-08T12:49:03.001Z</time></trkpt><trkpt lat="14.562976098104208" lon="120.99489397010001"><ele>12.5</ele><time>2026-04-08T12:49:04.001Z</time></trkpt><trkpt lat="14.562917198921408" lon="120.99494850208832"><ele>12.0</ele><time>2026-04-08T12:49:05.001Z</time></trkpt><trkpt lat="14.562835921378412" lon="120.99496020074857"><ele>11.666666666666666</ele><time>2026-04-08T12:49:06.001Z</time></trkpt><trkpt lat="14.562802864111644" lon="120.99501930708136"><ele>11.333333333333334</ele><time>2026-04-08T12:49:07.001Z</time></trkpt><trkpt lat="14.562700692007715" lon="120.99507829249012"><ele>11.0</ele><time>2026-04-08T12:49:09.001Z</time></trkpt><trkpt lat="14.562612548949746" lon="120.99511354907068"><ele>10.666666666666668</ele><time>2026-04-08T12:49:11.001Z</time></trkpt><trkpt lat="14.562541492374086" lon="120.99513417982456"><ele>10.333333333333334</ele><time>2026-04-08T12:49:12.001Z</time></trkpt><trkpt lat="14.562468361839532" lon="120.99518974500508"><ele>10.0</ele><time>2026-04-08T12:49:14.001Z</time></trkpt><trkpt lat="14.562272825343355" lon="120.99522604869499"><ele>10.0</ele><time>2026-04-08T12:49:17Z</time></trkpt><trkpt lat="14.562196172750365" lon="120.99522957435214"><ele>10.0</ele><time>2026-04-08T12:49:18Z</time></trkpt><trkpt lat="14.562127240085486" lon="120.99522138984223"><ele>10.0</ele><time>2026-04-08T12:49:19Z</time></trkpt><trkpt lat="14.562058465124752" lon="120.99523683666429"><ele>10.0</ele><time>2026-04-08T12:49:20Z</time></trkpt><trkpt lat="14.561991811446429" lon="120.99526063130251"><ele>10.0</ele><time>2026-04-08T12:49:21Z</time></trkpt><trkpt lat="14.561906685444226" lon="120.99530411816319"><ele>10.0</ele><time>2026-04-08T12:49:22Z</time></trkpt><trkpt lat="14.561820629209123" lon="120.9953303402128"><ele>9.8</ele><time>2026-04-08T12:49:23Z</time></trkpt><trkpt lat="14.561728011184979" lon="120.99534955860203"><ele>9.6</ele><time>2026-04-08T12:49:24Z</time></trkpt><trkpt lat="14.561631279989232" lon="120.99535680656159"><ele>9.4</ele><time>2026-04-08T12:49:25Z</time></trkpt><trkpt lat="14.561534554297383" lon="120.9953752620901"><ele>9.2</ele><time>2026-04-08T12:49:26Z</time></trkpt><trkpt lat="14.56144762172882" lon="120.99539464855694"><ele>9.0</ele><time>2026-04-08T12:49:27Z</time></trkpt><trkpt lat="14.561367747038295" lon="120.99540194747274"><ele>9.0</ele><time>2026-04-08T12:49:28Z</time></trkpt><trkpt lat="14.56127079023118" lon="120.9954360894613"><ele>9.0</ele><time>2026-04-08T12:49:29Z</time></trkpt><trkpt lat="14.561176329431273" lon="120.99544699892725"><ele>9.0</ele><time>2026-04-08T12:49:30Z</time></trkpt><trkpt lat="14.561057709745626" lon="120.9954927417132"><ele>9.0</ele><time>2026-04-08T12:49:31Z</time></trkpt><trkpt lat="14.560956996516119" lon="120.9955291109851"><ele>9.0</ele><time>2026-04-08T12:49:32Z</time></trkpt><trkpt lat="14.560862473036934" lon="120.99554516899002"><ele>9.2</ele><time>2026-04-08T12:49:33Z</time></trkpt><trkpt lat="14.560767314901598" lon="120.99556616191609"><ele>9.4</ele><time>2026-04-08T12:49:34Z</time></trkpt><trkpt lat="14.56066702931054" lon="120.99558739401186"><ele>9.6</ele><time>2026-04-08T12:49:35Z</time></trkpt><trkpt lat="14.56049977575979" lon="120.99563323387673"><ele>9.8</ele><time>2026-04-08T12:49:37Z</time></trkpt><trkpt lat="14.560431209203264" lon="120.99564616959044"><ele>10.0</ele><time>2026-04-08T12:49:38Z</time></trkpt><trkpt lat="14.560363714829275" lon="120.99566532839349"><ele>10.0</ele><time>2026-04-08T12:49:39Z</time></trkpt><trkpt lat="14.56025190649517" lon="120.99570610813878"><ele>10.0</ele><time>2026-04-08T12:49:41Z</time></trkpt><trkpt lat="14.56014572779599" lon="120.99573345630665"><ele>10.0</ele><time>2026-04-08T12:49:43Z</time></trkpt><trkpt lat="14.560057626076217" lon="120.99575325703961"><ele>10.0</ele><time>2026-04-08T12:49:45Z</time></trkpt><trkpt lat="14.559952495470512" lon="120.99577362716524"><ele>10.0</ele><time>2026-04-08T12:49:47Z</time></trkpt><trkpt lat="14.559829515516258" lon="120.99579286017334"><ele>10.0</ele><time>2026-04-08T12:49:49Z</time></trkpt><trkpt lat="14.559767702658037" lon="120.99580867247671"><ele>10.0</ele><time>2026-04-08T12:49:50Z</time></trkpt><trkpt lat="14.559697530287236" lon="120.99582870048569"><ele>10.0</ele><time>2026-04-08T12:49:51Z</time></trkpt><trkpt lat="14.559628701768744" lon="120.99584258798052"><ele>10.0</ele><time>2026-04-08T12:49:52Z</time></trkpt><trkpt lat="14.559558695698682" lon="120.99585606038332"><ele>10.0</ele><time>2026-04-08T12:49:53Z</time></trkpt><trkpt lat="14.559485696865284" lon="120.99586883190884"><ele>10.0</ele><time>2026-04-08T12:49:54Z</time></trkpt><trkpt lat="14.559365705801644" lon="120.99589768973406"><ele>9.833333333333334</ele><time>2026-04-08T12:49:56Z</time></trkpt><trkpt lat="14.55923934867702" lon="120.9959418546863"><ele>9.666666666666668</ele><time>2026-04-08T12:49:58Z</time></trkpt><trkpt lat="14.55917292348537" lon="120.99595498529531"><ele>9.5</ele><time>2026-04-08T12:49:59Z</time></trkpt><trkpt lat="14.559104684500612" lon="120.99596089789003"><ele>9.333333333333334</ele><time>2026-04-08T12:50:00Z</time></trkpt><trkpt lat="14.559034323324914" lon="120.99597887740384"><ele>9.166666666666666</ele><time>2026-04-08T12:50:01Z</time></trkpt><trkpt lat="14.558967846270034" lon="120.99599308781666"><ele>9.0</ele><time>2026-04-08T12:50:02Z</time></trkpt><trkpt lat="14.558834581160141" lon="120.99602265018395"><ele>9.000000000000002</ele><time>2026-04-08T12:50:04Z</time></trkpt><trkpt lat="14.55877183657717" lon="120.9960386403318"><ele>9.0</ele><time>2026-04-08T12:50:05Z</time></trkpt><trkpt lat="14.558706601189215" lon="120.99604755867759"><ele>9.0</ele><time>2026-04-08T12:50:06Z</time></trkpt><trkpt lat="14.55863784012578" lon="120.9960653099027"><ele>9.0</ele><time>2026-04-08T12:50:07Z</time></trkpt><trkpt lat="14.55857315391416" lon="120.99608347035827"><ele>9.0</ele><time>2026-04-08T12:50:08Z</time></trkpt><trkpt lat="14.558507178534853" lon="120.99609546754364"><ele>9.000000000000002</ele><time>2026-04-08T12:50:09Z</time></trkpt><trkpt lat="14.558441269599683" lon="120.99611290027948"><ele>9.0</ele><time>2026-04-08T12:50:10Z</time></trkpt><trkpt lat="14.558327553553696" lon="120.99614153828044"><ele>9.0</ele><time>2026-04-08T12:50:12Z</time></trkpt><trkpt lat="14.55822561134399" lon="120.99615390537765"><ele>9.0</ele><time>2026-04-08T12:50:14Z</time></trkpt><trkpt lat="14.558161857657376" lon="120.99612833680872"><ele>9.0</ele><time>2026-04-08T12:50:18Z</time></trkpt><trkpt lat="14.558111026505435" lon="120.99595474039695"><ele>9.0</ele><time>2026-04-08T12:50:24Z</time></trkpt><trkpt lat="14.558058256483164" lon="120.99587544041331"><ele>9.0</ele><time>2026-04-08T12:50:26Z</time></trkpt><trkpt lat="14.558044586607373" lon="120.99578458204807"><ele>9.0</ele><time>2026-04-08T12:50:28Z</time></trkpt><trkpt lat="14.558014835358712" lon="120.99570670023145"><ele>9.0</ele><time>2026-04-08T12:50:30Z</time></trkpt><trkpt lat="14.557988260542633" lon="120.99561840847389"><ele>9.0</ele><time>2026-04-08T12:50:32Z</time></trkpt><trkpt lat="14.557955336072705" lon="120.99549508096682"><ele>9.0</ele><time>2026-04-08T12:50:34Z</time></trkpt><trkpt lat="14.557936772032177" lon="120.99540289560765"><ele>9.0</ele><time>2026-04-08T12:50:36Z</time></trkpt><trkpt lat="14.557879943445803" lon="120.99531576298902"><ele>9.0</ele><time>2026-04-08T12:50:38.082Z</time></trkpt><trkpt lat="14.558034090754338" lon="120.99542055959888"><ele>9.0</ele><time>2026-04-08T12:52:57.019Z</time></trkpt><trkpt lat="14.558193185208243" lon="120.99541372816735"><ele>9.0</ele><time>2026-04-08T12:55:32Z</time></trkpt></trkseg></trk></gpx>